<?xml version="1.0" encoding="UTF-8"?>
<gpx
 version = "1.1"
creator = "TimeMachineX - http://www.wintec.com.tw"
xmlns:xsi = "http://www.w3.org/2001/XMLSchema-instance"
xmlns = "http://www.topografix.com/GPX/1/1"
xsi:schemaLocation = "http://www.topografix.com/GPX/1/1 http://www.topografix.com/GPX/1/1/gpx.xsd http://www.topografix.com/GPX/gpx_overlay/0/3 http://www.topografix.com/GPX/gpx_overlay/0/3/gpx_overlay.xsd http://www.topografix.com/GPX/gpx_modified/0/1 http://www.topografix.com/GPX/gpx_modified/0/1/gpx_modified.xsd">
<metadata>
<bounds maxlat="50.858029" maxlon="6.165659" minlat="50.844504" minlon="6.147582"/>
</metadata>
<wpt lat="50.855903" lon="6.148610">
 <ele>158.000000</ele>
 <time>2009-07-31T06:46:35Z</time>
 <name>Push Log Point #1</name>
 <desc>Lat.=50.8559033, Long.=6.1486099, Alt.=158m, Speed=4Km/h, Course=59deg.</desc>
 <sym>Waypoint</sym>
 <type>Other</type>
<extensions>
<label xmlns="http://www.topografix.com/GPX/gpx_overlay/0/3">
<label_text>Push Log Point #1</label_text>
</label>
</extensions>
</wpt>
<trk>
<name>Track 001</name>
 <desc>Total Track Points: 1445. Total time: 0h59m21s. Journey: 4.367Km</desc>
<trkseg>
<trkpt lat="50.8485033" lon="6.1478599">
 <ele>167.000000</ele>
 <time>2009-07-31T05:47:14Z</time>
 <desc>Lat.=50.8485033, Long.=6.1478599, Alt.=167m.</desc>
<extensions>
</extensions>
</trkpt>
<trkpt lat="50.8484899" lon="6.1478999">
 <ele>167.000000</ele>
 <time>2009-07-31T05:47:17Z</time>
 <desc>Lat.=50.8484899, Long.=6.1478999, Alt.=167m, Speed=3Km/h, Course=118deg.</desc>
<extensions>
</extensions>
</trkpt>
<trkpt lat="50.8485016" lon="6.1479366">
 <ele>167.000000</ele>
 <time>2009-07-31T05:47:18Z</time>
 <desc>Lat.=50.8485016, Long.=6.1479366, Alt.=167m, Speed=10Km/h, Course=63deg.</desc>
<extensions>
</extensions>
</trkpt>
<trkpt lat="50.8484850" lon="6.1479783">
 <ele>167.000000</ele>
 <time>2009-07-31T05:47:19Z</time>
 <desc>Lat.=50.8484850, Long.=6.1479783, Alt.=167m, Speed=12Km/h, Course=122deg.</desc>
<extensions>
</extensions>
</trkpt>
<trkpt lat="50.8484682" lon="6.1479883">
 <ele>167.000000</ele>
 <time>2009-07-31T05:47:20Z</time>
 <desc>Lat.=50.8484682, Long.=6.1479883, Alt.=167m, Speed=7Km/h, Course=159deg.</desc>
<extensions>
</extensions>
</trkpt>
<trkpt lat="50.8484433" lon="6.1480049">
 <ele>167.000000</ele>
 <time>2009-07-31T05:47:22Z</time>
 <desc>Lat.=50.8484433, Long.=6.1480049, Alt.=167m, Speed=5Km/h, Course=157deg.</desc>
<extensions>
</extensions>
</trkpt>
<trkpt lat="50.8484116" lon="6.1480249">
 <ele>167.000000</ele>
 <time>2009-07-31T05:47:24Z</time>
 <desc>Lat.=50.8484116, Long.=6.1480249, Alt.=167m, Speed=6Km/h, Course=158deg.</desc>
<extensions>
</extensions>
</trkpt>
<trkpt lat="50.8483566" lon="6.1481383">
 <ele>167.000000</ele>
 <time>2009-07-31T05:47:29Z</time>
 <desc>Lat.=50.8483566, Long.=6.1481383, Alt.=167m, Speed=7Km/h, Course=128deg.</desc>
<extensions>
</extensions>
</trkpt>
<trkpt lat="50.8483533" lon="6.1481466">
 <ele>166.000000</ele>
 <time>2009-07-31T05:47:30Z</time>
 <desc>Lat.=50.8483533, Long.=6.1481466, Alt.=166m, Speed=2Km/h, Course=122deg.</desc>
<extensions>
</extensions>
</trkpt>
<trkpt lat="50.8483566" lon="6.1481466">
 <ele>166.000000</ele>
 <time>2009-07-31T05:47:31Z</time>
 <desc>Lat.=50.8483566, Long.=6.1481466, Alt.=166m, Speed=1Km/h, Course=0deg.</desc>
<extensions>
</extensions>
</trkpt>
<trkpt lat="50.8483466" lon="6.1481549">
 <ele>166.000000</ele>
 <time>2009-07-31T05:47:32Z</time>
 <desc>Lat.=50.8483466, Long.=6.1481549, Alt.=166m, Speed=4Km/h, Course=152deg.</desc>
<extensions>
</extensions>
</trkpt>
<trkpt lat="50.8483649" lon="6.1480583">
 <ele>166.000000</ele>
 <time>2009-07-31T05:47:36Z</time>
 <desc>Lat.=50.8483649, Long.=6.1480583, Alt.=166m, Speed=6Km/h, Course=287deg.</desc>
<extensions>
</extensions>
</trkpt>
<trkpt lat="50.8483499" lon="6.1480716">
 <ele>166.000000</ele>
 <time>2009-07-31T05:47:39Z</time>
 <desc>Lat.=50.8483499, Long.=6.1480716, Alt.=166m, Speed=2Km/h, Course=151deg.</desc>
<extensions>
</extensions>
</trkpt>
<trkpt lat="50.8483049" lon="6.1481116">
 <ele>166.000000</ele>
 <time>2009-07-31T05:47:42Z</time>
 <desc>Lat.=50.8483049, Long.=6.1481116, Alt.=166m, Speed=6Km/h, Course=151deg.</desc>
<extensions>
</extensions>
</trkpt>
<trkpt lat="50.8482883" lon="6.1481216">
 <ele>166.000000</ele>
 <time>2009-07-31T05:47:43Z</time>
 <desc>Lat.=50.8482883, Long.=6.1481216, Alt.=166m, Speed=7Km/h, Course=159deg.</desc>
<extensions>
</extensions>
</trkpt>
<trkpt lat="50.8482683" lon="6.1481466">
 <ele>166.000000</ele>
 <time>2009-07-31T05:47:44Z</time>
 <desc>Lat.=50.8482683, Long.=6.1481466, Alt.=166m, Speed=10Km/h, Course=142deg.</desc>
<extensions>
</extensions>
</trkpt>
<trkpt lat="50.8482133" lon="6.1481933">
 <ele>166.000000</ele>
 <time>2009-07-31T05:47:47Z</time>
 <desc>Lat.=50.8482133, Long.=6.1481933, Alt.=166m, Speed=8Km/h, Course=152deg.</desc>
<extensions>
</extensions>
</trkpt>
<trkpt lat="50.8481633" lon="6.1481999">
 <ele>166.000000</ele>
 <time>2009-07-31T05:47:50Z</time>
 <desc>Lat.=50.8481633, Long.=6.1481999, Alt.=166m, Speed=6Km/h, Course=175deg.</desc>
<extensions>
</extensions>
</trkpt>
<trkpt lat="50.8481483" lon="6.1482066">
 <ele>166.000000</ele>
 <time>2009-07-31T05:47:51Z</time>
 <desc>Lat.=50.8481483, Long.=6.1482066, Alt.=166m, Speed=6Km/h, Course=164deg.</desc>
<extensions>
</extensions>
</trkpt>
<trkpt lat="50.8481216" lon="6.1482233">
 <ele>166.000000</ele>
 <time>2009-07-31T05:47:53Z</time>
 <desc>Lat.=50.8481216, Long.=6.1482233, Alt.=166m, Speed=5Km/h, Course=158deg.</desc>
<extensions>
</extensions>
</trkpt>
<trkpt lat="50.8481099" lon="6.1482300">
 <ele>166.000000</ele>
 <time>2009-07-31T05:47:54Z</time>
 <desc>Lat.=50.8481099, Long.=6.1482300, Alt.=166m, Speed=4Km/h, Course=160deg.</desc>
<extensions>
</extensions>
</trkpt>
<trkpt lat="50.8480966" lon="6.1482433">
 <ele>165.000000</ele>
 <time>2009-07-31T05:47:55Z</time>
 <desc>Lat.=50.8480966, Long.=6.1482433, Alt.=165m, Speed=6Km/h, Course=148deg.</desc>
<extensions>
</extensions>
</trkpt>
<trkpt lat="50.8480750" lon="6.1482599">
 <ele>165.000000</ele>
 <time>2009-07-31T05:47:57Z</time>
 <desc>Lat.=50.8480750, Long.=6.1482599, Alt.=165m, Speed=4Km/h, Course=154deg.</desc>
<extensions>
</extensions>
</trkpt>
<trkpt lat="50.8480633" lon="6.1482683">
 <ele>165.000000</ele>
 <time>2009-07-31T05:47:58Z</time>
 <desc>Lat.=50.8480633, Long.=6.1482683, Alt.=165m, Speed=5Km/h, Course=156deg.</desc>
<extensions>
</extensions>
</trkpt>
<trkpt lat="50.8480266" lon="6.1482749">
 <ele>165.000000</ele>
 <time>2009-07-31T05:48:01Z</time>
 <desc>Lat.=50.8480266, Long.=6.1482749, Alt.=165m, Speed=4Km/h, Course=174deg.</desc>
<extensions>
</extensions>
</trkpt>
<trkpt lat="50.8480100" lon="6.1482799">
 <ele>165.000000</ele>
 <time>2009-07-31T05:48:02Z</time>
 <desc>Lat.=50.8480100, Long.=6.1482799, Alt.=165m, Speed=6Km/h, Course=169deg.</desc>
<extensions>
</extensions>
</trkpt>
<trkpt lat="50.8479950" lon="6.1482866">
 <ele>165.000000</ele>
 <time>2009-07-31T05:48:03Z</time>
 <desc>Lat.=50.8479950, Long.=6.1482866, Alt.=165m, Speed=6Km/h, Course=164deg.</desc>
<extensions>
</extensions>
</trkpt>
<trkpt lat="50.8479800" lon="6.1482949">
 <ele>165.000000</ele>
 <time>2009-07-31T05:48:04Z</time>
 <desc>Lat.=50.8479800, Long.=6.1482949, Alt.=165m, Speed=6Km/h, Course=161deg.</desc>
<extensions>
</extensions>
</trkpt>
<trkpt lat="50.8479666" lon="6.1482966">
 <ele>165.000000</ele>
 <time>2009-07-31T05:48:05Z</time>
 <desc>Lat.=50.8479666, Long.=6.1482966, Alt.=165m, Speed=5Km/h, Course=175deg.</desc>
<extensions>
</extensions>
</trkpt>
<trkpt lat="50.8479616" lon="6.1482749">
 <ele>165.000000</ele>
 <time>2009-07-31T05:48:06Z</time>
 <desc>Lat.=50.8479616, Long.=6.1482749, Alt.=165m, Speed=5Km/h, Course=250deg.</desc>
<extensions>
</extensions>
</trkpt>
<trkpt lat="50.8479299" lon="6.1482883">
 <ele>164.000000</ele>
 <time>2009-07-31T05:48:09Z</time>
 <desc>Lat.=50.8479299, Long.=6.1482883, Alt.=164m, Speed=4Km/h, Course=165deg.</desc>
<extensions>
</extensions>
</trkpt>
<trkpt lat="50.8479166" lon="6.1482916">
 <ele>164.000000</ele>
 <time>2009-07-31T05:48:10Z</time>
 <desc>Lat.=50.8479166, Long.=6.1482916, Alt.=164m, Speed=5Km/h, Course=171deg.</desc>
<extensions>
</extensions>
</trkpt>
<trkpt lat="50.8479033" lon="6.1483000">
 <ele>164.000000</ele>
 <time>2009-07-31T05:48:11Z</time>
 <desc>Lat.=50.8479033, Long.=6.1483000, Alt.=164m, Speed=5Km/h, Course=158deg.</desc>
<extensions>
</extensions>
</trkpt>
<trkpt lat="50.8478916" lon="6.1483033">
 <ele>164.000000</ele>
 <time>2009-07-31T05:48:12Z</time>
 <desc>Lat.=50.8478916, Long.=6.1483033, Alt.=164m, Speed=4Km/h, Course=170deg.</desc>
<extensions>
</extensions>
</trkpt>
<trkpt lat="50.8478783" lon="6.1483049">
 <ele>164.000000</ele>
 <time>2009-07-31T05:48:13Z</time>
 <desc>Lat.=50.8478783, Long.=6.1483049, Alt.=164m, Speed=5Km/h, Course=176deg.</desc>
<extensions>
</extensions>
</trkpt>
<trkpt lat="50.8478800" lon="6.1483116">
 <ele>164.000000</ele>
 <time>2009-07-31T05:48:15Z</time>
 <desc>Lat.=50.8478800, Long.=6.1483116, Alt.=164m, Speed=0Km/h, Course=68deg.</desc>
<extensions>
</extensions>
</trkpt>
<trkpt lat="50.8478833" lon="6.1483149">
 <ele>164.000000</ele>
 <time>2009-07-31T05:48:16Z</time>
 <desc>Lat.=50.8478833, Long.=6.1483149, Alt.=164m, Speed=1Km/h, Course=32deg.</desc>
<extensions>
</extensions>
</trkpt>
<trkpt lat="50.8478816" lon="6.1483283">
 <ele>164.000000</ele>
 <time>2009-07-31T05:48:17Z</time>
 <desc>Lat.=50.8478816, Long.=6.1483283, Alt.=164m, Speed=3Km/h, Course=101deg.</desc>
<extensions>
</extensions>
</trkpt>
<trkpt lat="50.8478566" lon="6.1483433">
 <ele>164.000000</ele>
 <time>2009-07-31T05:48:19Z</time>
 <desc>Lat.=50.8478566, Long.=6.1483433, Alt.=164m, Speed=5Km/h, Course=159deg.</desc>
<extensions>
</extensions>
</trkpt>
<trkpt lat="50.8478383" lon="6.1483416">
 <ele>164.000000</ele>
 <time>2009-07-31T05:48:20Z</time>
 <desc>Lat.=50.8478383, Long.=6.1483416, Alt.=164m, Speed=7Km/h, Course=183deg.</desc>
<extensions>
</extensions>
</trkpt>
<trkpt lat="50.8478299" lon="6.1483516">
 <ele>164.000000</ele>
 <time>2009-07-31T05:48:21Z</time>
 <desc>Lat.=50.8478299, Long.=6.1483516, Alt.=164m, Speed=4Km/h, Course=143deg.</desc>
<extensions>
</extensions>
</trkpt>
<trkpt lat="50.8478232" lon="6.1483549">
 <ele>164.000000</ele>
 <time>2009-07-31T05:48:22Z</time>
 <desc>Lat.=50.8478232, Long.=6.1483549, Alt.=164m, Speed=2Km/h, Course=163deg.</desc>
<extensions>
</extensions>
</trkpt>
<trkpt lat="50.8478166" lon="6.1483683">
 <ele>164.000000</ele>
 <time>2009-07-31T05:48:23Z</time>
 <desc>Lat.=50.8478166, Long.=6.1483683, Alt.=164m, Speed=4Km/h, Course=128deg.</desc>
<extensions>
</extensions>
</trkpt>
<trkpt lat="50.8477383" lon="6.1484583">
 <ele>163.000000</ele>
 <time>2009-07-31T05:48:30Z</time>
 <desc>Lat.=50.8477383, Long.=6.1484583, Alt.=163m, Speed=5Km/h, Course=144deg.</desc>
<extensions>
</extensions>
</trkpt>
<trkpt lat="50.8477299" lon="6.1484783">
 <ele>163.000000</ele>
 <time>2009-07-31T05:48:31Z</time>
 <desc>Lat.=50.8477299, Long.=6.1484783, Alt.=163m, Speed=6Km/h, Course=124deg.</desc>
<extensions>
</extensions>
</trkpt>
<trkpt lat="50.8477150" lon="6.1484900">
 <ele>163.000000</ele>
 <time>2009-07-31T05:48:34Z</time>
 <desc>Lat.=50.8477150, Long.=6.1484900, Alt.=163m, Speed=2Km/h, Course=154deg.</desc>
<extensions>
</extensions>
</trkpt>
<trkpt lat="50.8477066" lon="6.1484833">
 <ele>163.000000</ele>
 <time>2009-07-31T05:48:35Z</time>
 <desc>Lat.=50.8477066, Long.=6.1484833, Alt.=163m, Speed=3Km/h, Course=207deg.</desc>
<extensions>
</extensions>
</trkpt>
<trkpt lat="50.8477016" lon="6.1484833">
 <ele>162.000000</ele>
 <time>2009-07-31T05:48:47Z</time>
 <desc>Lat.=50.8477016, Long.=6.1484833, Alt.=162m, Speed=0Km/h, Course=180deg.</desc>
<extensions>
</extensions>
</trkpt>
<trkpt lat="50.8476916" lon="6.1484933">
 <ele>162.000000</ele>
 <time>2009-07-31T05:48:48Z</time>
 <desc>Lat.=50.8476916, Long.=6.1484933, Alt.=162m, Speed=4Km/h, Course=148deg.</desc>
<extensions>
</extensions>
</trkpt>
<trkpt lat="50.8476566" lon="6.1485216">
 <ele>163.000000</ele>
 <time>2009-07-31T05:48:51Z</time>
 <desc>Lat.=50.8476566, Long.=6.1485216, Alt.=163m, Speed=5Km/h, Course=153deg.</desc>
<extensions>
</extensions>
</trkpt>
<trkpt lat="50.8476450" lon="6.1485299">
 <ele>163.000000</ele>
 <time>2009-07-31T05:48:52Z</time>
 <desc>Lat.=50.8476450, Long.=6.1485299, Alt.=163m, Speed=5Km/h, Course=156deg.</desc>
<extensions>
</extensions>
</trkpt>
<trkpt lat="50.8476099" lon="6.1485549">
 <ele>163.000000</ele>
 <time>2009-07-31T05:48:55Z</time>
 <desc>Lat.=50.8476099, Long.=6.1485549, Alt.=163m, Speed=5Km/h, Course=156deg.</desc>
<extensions>
</extensions>
</trkpt>
<trkpt lat="50.8475799" lon="6.1485916">
 <ele>163.000000</ele>
 <time>2009-07-31T05:48:58Z</time>
 <desc>Lat.=50.8475799, Long.=6.1485916, Alt.=163m, Speed=5Km/h, Course=142deg.</desc>
<extensions>
</extensions>
</trkpt>
<trkpt lat="50.8475716" lon="6.1486016">
 <ele>163.000000</ele>
 <time>2009-07-31T05:48:59Z</time>
 <desc>Lat.=50.8475716, Long.=6.1486016, Alt.=163m, Speed=4Km/h, Course=143deg.</desc>
<extensions>
</extensions>
</trkpt>
<trkpt lat="50.8475383" lon="6.1486300">
 <ele>162.000000</ele>
 <time>2009-07-31T05:49:02Z</time>
 <desc>Lat.=50.8475383, Long.=6.1486300, Alt.=162m, Speed=5Km/h, Course=152deg.</desc>
<extensions>
</extensions>
</trkpt>
<trkpt lat="50.8475283" lon="6.1486416">
 <ele>162.000000</ele>
 <time>2009-07-31T05:49:03Z</time>
 <desc>Lat.=50.8475283, Long.=6.1486416, Alt.=162m, Speed=4Km/h, Course=144deg.</desc>
<extensions>
</extensions>
</trkpt>
<trkpt lat="50.8475183" lon="6.1486533">
 <ele>162.000000</ele>
 <time>2009-07-31T05:49:04Z</time>
 <desc>Lat.=50.8475183, Long.=6.1486533, Alt.=162m, Speed=4Km/h, Course=144deg.</desc>
<extensions>
</extensions>
</trkpt>
<trkpt lat="50.8474933" lon="6.1486633">
 <ele>163.000000</ele>
 <time>2009-07-31T05:49:18Z</time>
 <desc>Lat.=50.8474933, Long.=6.1486633, Alt.=163m, Speed=0Km/h, Course=166deg.</desc>
<extensions>
</extensions>
</trkpt>
<trkpt lat="50.8474649" lon="6.1486916">
 <ele>163.000000</ele>
 <time>2009-07-31T05:49:38Z</time>
 <desc>Lat.=50.8474649, Long.=6.1486916, Alt.=163m, Speed=0Km/h, Course=148deg.</desc>
<extensions>
</extensions>
</trkpt>
<trkpt lat="50.8474450" lon="6.1487149">
 <ele>163.000000</ele>
 <time>2009-07-31T05:49:40Z</time>
 <desc>Lat.=50.8474450, Long.=6.1487149, Alt.=163m, Speed=4Km/h, Course=144deg.</desc>
<extensions>
</extensions>
</trkpt>
<trkpt lat="50.8474333" lon="6.1487233">
 <ele>163.000000</ele>
 <time>2009-07-31T05:49:41Z</time>
 <desc>Lat.=50.8474333, Long.=6.1487233, Alt.=163m, Speed=5Km/h, Course=156deg.</desc>
<extensions>
</extensions>
</trkpt>
<trkpt lat="50.8474233" lon="6.1487266">
 <ele>163.000000</ele>
 <time>2009-07-31T05:49:42Z</time>
 <desc>Lat.=50.8474233, Long.=6.1487266, Alt.=163m, Speed=4Km/h, Course=168deg.</desc>
<extensions>
</extensions>
</trkpt>
<trkpt lat="50.8474032" lon="6.1487299">
 <ele>163.000000</ele>
 <time>2009-07-31T05:49:44Z</time>
 <desc>Lat.=50.8474032, Long.=6.1487299, Alt.=163m, Speed=4Km/h, Course=174deg.</desc>
<extensions>
</extensions>
</trkpt>
<trkpt lat="50.8473900" lon="6.1487366">
 <ele>163.000000</ele>
 <time>2009-07-31T05:49:45Z</time>
 <desc>Lat.=50.8473900, Long.=6.1487366, Alt.=163m, Speed=5Km/h, Course=162deg.</desc>
<extensions>
</extensions>
</trkpt>
<trkpt lat="50.8473799" lon="6.1487483">
 <ele>163.000000</ele>
 <time>2009-07-31T05:49:46Z</time>
 <desc>Lat.=50.8473799, Long.=6.1487483, Alt.=163m, Speed=5Km/h, Course=144deg.</desc>
<extensions>
</extensions>
</trkpt>
<trkpt lat="50.8473483" lon="6.1487866">
 <ele>163.000000</ele>
 <time>2009-07-31T05:49:49Z</time>
 <desc>Lat.=50.8473483, Long.=6.1487866, Alt.=163m, Speed=5Km/h, Course=143deg.</desc>
<extensions>
</extensions>
</trkpt>
<trkpt lat="50.8473383" lon="6.1487999">
 <ele>163.000000</ele>
 <time>2009-07-31T05:49:50Z</time>
 <desc>Lat.=50.8473383, Long.=6.1487999, Alt.=163m, Speed=5Km/h, Course=140deg.</desc>
<extensions>
</extensions>
</trkpt>
<trkpt lat="50.8473166" lon="6.1488249">
 <ele>163.000000</ele>
 <time>2009-07-31T05:49:52Z</time>
 <desc>Lat.=50.8473166, Long.=6.1488249, Alt.=163m, Speed=5Km/h, Course=144deg.</desc>
<extensions>
</extensions>
</trkpt>
<trkpt lat="50.8472616" lon="6.1488799">
 <ele>163.000000</ele>
 <time>2009-07-31T05:50:22Z</time>
 <desc>Lat.=50.8472616, Long.=6.1488799, Alt.=163m, Speed=0Km/h, Course=148deg.</desc>
<extensions>
</extensions>
</trkpt>
<trkpt lat="50.8472533" lon="6.1488899">
 <ele>163.000000</ele>
 <time>2009-07-31T05:50:23Z</time>
 <desc>Lat.=50.8472533, Long.=6.1488899, Alt.=163m, Speed=4Km/h, Course=143deg.</desc>
<extensions>
</extensions>
</trkpt>
<trkpt lat="50.8472233" lon="6.1489216">
 <ele>163.000000</ele>
 <time>2009-07-31T05:50:26Z</time>
 <desc>Lat.=50.8472233, Long.=6.1489216, Alt.=163m, Speed=4Km/h, Course=146deg.</desc>
<extensions>
</extensions>
</trkpt>
<trkpt lat="50.8472016" lon="6.1489450">
 <ele>163.000000</ele>
 <time>2009-07-31T05:50:28Z</time>
 <desc>Lat.=50.8472016, Long.=6.1489450, Alt.=163m, Speed=5Km/h, Course=146deg.</desc>
<extensions>
</extensions>
</trkpt>
<trkpt lat="50.8471800" lon="6.1489666">
 <ele>164.000000</ele>
 <time>2009-07-31T05:50:30Z</time>
 <desc>Lat.=50.8471800, Long.=6.1489666, Alt.=164m, Speed=5Km/h, Course=148deg.</desc>
<extensions>
</extensions>
</trkpt>
<trkpt lat="50.8471599" lon="6.1489883">
 <ele>164.000000</ele>
 <time>2009-07-31T05:50:32Z</time>
 <desc>Lat.=50.8471599, Long.=6.1489883, Alt.=164m, Speed=4Km/h, Course=146deg.</desc>
<extensions>
</extensions>
</trkpt>
<trkpt lat="50.8470266" lon="6.1491116">
 <ele>164.000000</ele>
 <time>2009-07-31T05:50:44Z</time>
 <desc>Lat.=50.8470266, Long.=6.1491116, Alt.=164m, Speed=5Km/h, Course=150deg.</desc>
<extensions>
</extensions>
</trkpt>
<trkpt lat="50.8469783" lon="6.1491583">
 <ele>164.000000</ele>
 <time>2009-07-31T05:51:05Z</time>
 <desc>Lat.=50.8469783, Long.=6.1491583, Alt.=164m, Speed=1Km/h, Course=149deg.</desc>
<extensions>
</extensions>
</trkpt>
<trkpt lat="50.8469416" lon="6.1491983">
 <ele>164.000000</ele>
 <time>2009-07-31T05:51:09Z</time>
 <desc>Lat.=50.8469416, Long.=6.1491983, Alt.=164m, Speed=4Km/h, Course=145deg.</desc>
<extensions>
</extensions>
</trkpt>
<trkpt lat="50.8469183" lon="6.1492199">
 <ele>164.000000</ele>
 <time>2009-07-31T05:51:11Z</time>
 <desc>Lat.=50.8469183, Long.=6.1492199, Alt.=164m, Speed=5Km/h, Course=150deg.</desc>
<extensions>
</extensions>
</trkpt>
<trkpt lat="50.8468733" lon="6.1492683">
 <ele>164.000000</ele>
 <time>2009-07-31T05:51:17Z</time>
 <desc>Lat.=50.8468733, Long.=6.1492683, Alt.=164m, Speed=3Km/h, Course=146deg.</desc>
<extensions>
</extensions>
</trkpt>
<trkpt lat="50.8468133" lon="6.1493716">
 <ele>165.000000</ele>
 <time>2009-07-31T05:51:24Z</time>
 <desc>Lat.=50.8468133, Long.=6.1493716, Alt.=165m, Speed=5Km/h, Course=133deg.</desc>
<extensions>
</extensions>
</trkpt>
<trkpt lat="50.8467949" lon="6.1493983">
 <ele>165.000000</ele>
 <time>2009-07-31T05:51:26Z</time>
 <desc>Lat.=50.8467949, Long.=6.1493983, Alt.=165m, Speed=4Km/h, Course=138deg.</desc>
<extensions>
</extensions>
</trkpt>
<trkpt lat="50.8467883" lon="6.1494149">
 <ele>165.000000</ele>
 <time>2009-07-31T05:51:27Z</time>
 <desc>Lat.=50.8467883, Long.=6.1494149, Alt.=165m, Speed=4Km/h, Course=122deg.</desc>
<extensions>
</extensions>
</trkpt>
<trkpt lat="50.8467316" lon="6.1495566">
 <ele>165.000000</ele>
 <time>2009-07-31T05:51:35Z</time>
 <desc>Lat.=50.8467316, Long.=6.1495566, Alt.=165m, Speed=5Km/h, Course=122deg.</desc>
<extensions>
</extensions>
</trkpt>
<trkpt lat="50.8467233" lon="6.1495733">
 <ele>165.000000</ele>
 <time>2009-07-31T05:51:36Z</time>
 <desc>Lat.=50.8467233, Long.=6.1495733, Alt.=165m, Speed=5Km/h, Course=128deg.</desc>
<extensions>
</extensions>
</trkpt>
<trkpt lat="50.8467099" lon="6.1496099">
 <ele>165.000000</ele>
 <time>2009-07-31T05:51:38Z</time>
 <desc>Lat.=50.8467099, Long.=6.1496099, Alt.=165m, Speed=5Km/h, Course=120deg.</desc>
<extensions>
</extensions>
</trkpt>
<trkpt lat="50.8466966" lon="6.1496466">
 <ele>165.000000</ele>
 <time>2009-07-31T05:51:40Z</time>
 <desc>Lat.=50.8466966, Long.=6.1496466, Alt.=165m, Speed=5Km/h, Course=120deg.</desc>
<extensions>
</extensions>
</trkpt>
<trkpt lat="50.8466733" lon="6.1496983">
 <ele>166.000000</ele>
 <time>2009-07-31T05:51:43Z</time>
 <desc>Lat.=50.8466733, Long.=6.1496983, Alt.=166m, Speed=5Km/h, Course=126deg.</desc>
<extensions>
</extensions>
</trkpt>
<trkpt lat="50.8465100" lon="6.1501500">
 <ele>166.000000</ele>
 <time>2009-07-31T05:52:05Z</time>
 <desc>Lat.=50.8465100, Long.=6.1501500, Alt.=166m, Speed=5Km/h, Course=120deg.</desc>
<extensions>
</extensions>
</trkpt>
<trkpt lat="50.8465016" lon="6.1501683">
 <ele>166.000000</ele>
 <time>2009-07-31T05:52:06Z</time>
 <desc>Lat.=50.8465016, Long.=6.1501683, Alt.=166m, Speed=5Km/h, Course=126deg.</desc>
<extensions>
</extensions>
</trkpt>
<trkpt lat="50.8464950" lon="6.1501883">
 <ele>166.000000</ele>
 <time>2009-07-31T05:52:07Z</time>
 <desc>Lat.=50.8464950, Long.=6.1501883, Alt.=166m, Speed=5Km/h, Course=118deg.</desc>
<extensions>
</extensions>
</trkpt>
<trkpt lat="50.8464733" lon="6.1502499">
 <ele>166.000000</ele>
 <time>2009-07-31T05:52:10Z</time>
 <desc>Lat.=50.8464733, Long.=6.1502499, Alt.=166m, Speed=5Km/h, Course=119deg.</desc>
<extensions>
</extensions>
</trkpt>
<trkpt lat="50.8464583" lon="6.1502866">
 <ele>166.000000</ele>
 <time>2009-07-31T05:52:12Z</time>
 <desc>Lat.=50.8464583, Long.=6.1502866, Alt.=166m, Speed=5Km/h, Course=123deg.</desc>
<extensions>
</extensions>
</trkpt>
<trkpt lat="50.8464500" lon="6.1503049">
 <ele>167.000000</ele>
 <time>2009-07-31T05:52:13Z</time>
 <desc>Lat.=50.8464500, Long.=6.1503049, Alt.=167m, Speed=5Km/h, Course=126deg.</desc>
<extensions>
</extensions>
</trkpt>
<trkpt lat="50.8464350" lon="6.1503383">
 <ele>167.000000</ele>
 <time>2009-07-31T05:52:15Z</time>
 <desc>Lat.=50.8464350, Long.=6.1503383, Alt.=167m, Speed=5Km/h, Course=125deg.</desc>
<extensions>
</extensions>
</trkpt>
<trkpt lat="50.8464133" lon="6.1503916">
 <ele>167.000000</ele>
 <time>2009-07-31T05:52:18Z</time>
 <desc>Lat.=50.8464133, Long.=6.1503916, Alt.=167m, Speed=5Km/h, Course=123deg.</desc>
<extensions>
</extensions>
</trkpt>
<trkpt lat="50.8463999" lon="6.1504283">
 <ele>167.000000</ele>
 <time>2009-07-31T05:52:21Z</time>
 <desc>Lat.=50.8463999, Long.=6.1504283, Alt.=167m, Speed=3Km/h, Course=120deg.</desc>
<extensions>
</extensions>
</trkpt>
<trkpt lat="50.8463516" lon="6.1505500">
 <ele>167.000000</ele>
 <time>2009-07-31T05:52:28Z</time>
 <desc>Lat.=50.8463516, Long.=6.1505500, Alt.=167m, Speed=5Km/h, Course=122deg.</desc>
<extensions>
</extensions>
</trkpt>
<trkpt lat="50.8463250" lon="6.1506283">
 <ele>167.000000</ele>
 <time>2009-07-31T05:52:32Z</time>
 <desc>Lat.=50.8463250, Long.=6.1506283, Alt.=167m, Speed=5Km/h, Course=118deg.</desc>
<extensions>
</extensions>
</trkpt>
<trkpt lat="50.8463100" lon="6.1506633">
 <ele>167.000000</ele>
 <time>2009-07-31T05:52:34Z</time>
 <desc>Lat.=50.8463100, Long.=6.1506633, Alt.=167m, Speed=5Km/h, Course=124deg.</desc>
<extensions>
</extensions>
</trkpt>
<trkpt lat="50.8462783" lon="6.1507600">
 <ele>167.000000</ele>
 <time>2009-07-31T05:52:39Z</time>
 <desc>Lat.=50.8462783, Long.=6.1507600, Alt.=167m, Speed=5Km/h, Course=117deg.</desc>
<extensions>
</extensions>
</trkpt>
<trkpt lat="50.8462649" lon="6.1507983">
 <ele>167.000000</ele>
 <time>2009-07-31T05:52:41Z</time>
 <desc>Lat.=50.8462649, Long.=6.1507983, Alt.=167m, Speed=5Km/h, Course=119deg.</desc>
<extensions>
</extensions>
</trkpt>
<trkpt lat="50.8462383" lon="6.1509016">
 <ele>167.000000</ele>
 <time>2009-07-31T05:52:46Z</time>
 <desc>Lat.=50.8462383, Long.=6.1509016, Alt.=167m, Speed=5Km/h, Course=112deg.</desc>
<extensions>
</extensions>
</trkpt>
<trkpt lat="50.8462266" lon="6.1509416">
 <ele>167.000000</ele>
 <time>2009-07-31T05:52:48Z</time>
 <desc>Lat.=50.8462266, Long.=6.1509416, Alt.=167m, Speed=5Km/h, Course=115deg.</desc>
<extensions>
</extensions>
</trkpt>
<trkpt lat="50.8461982" lon="6.1510449">
 <ele>167.000000</ele>
 <time>2009-07-31T05:52:53Z</time>
 <desc>Lat.=50.8461982, Long.=6.1510449, Alt.=167m, Speed=5Km/h, Course=114deg.</desc>
<extensions>
</extensions>
</trkpt>
<trkpt lat="50.8461649" lon="6.1511666">
 <ele>167.000000</ele>
 <time>2009-07-31T05:52:59Z</time>
 <desc>Lat.=50.8461649, Long.=6.1511666, Alt.=167m, Speed=5Km/h, Course=113deg.</desc>
<extensions>
</extensions>
</trkpt>
<trkpt lat="50.8461533" lon="6.1512099">
 <ele>167.000000</ele>
 <time>2009-07-31T05:53:01Z</time>
 <desc>Lat.=50.8461533, Long.=6.1512099, Alt.=167m, Speed=5Km/h, Course=113deg.</desc>
<extensions>
</extensions>
</trkpt>
<trkpt lat="50.8461483" lon="6.1512283">
 <ele>167.000000</ele>
 <time>2009-07-31T05:53:02Z</time>
 <desc>Lat.=50.8461483, Long.=6.1512283, Alt.=167m, Speed=5Km/h, Course=113deg.</desc>
<extensions>
</extensions>
</trkpt>
<trkpt lat="50.8461383" lon="6.1512649">
 <ele>167.000000</ele>
 <time>2009-07-31T05:53:07Z</time>
 <desc>Lat.=50.8461383, Long.=6.1512649, Alt.=167m, Speed=2Km/h, Course=113deg.</desc>
<extensions>
</extensions>
</trkpt>
<trkpt lat="50.8461333" lon="6.1512899">
 <ele>167.000000</ele>
 <time>2009-07-31T05:53:08Z</time>
 <desc>Lat.=50.8461333, Long.=6.1512899, Alt.=167m, Speed=6Km/h, Course=108deg.</desc>
<extensions>
</extensions>
</trkpt>
<trkpt lat="50.8461366" lon="6.1513116">
 <ele>167.000000</ele>
 <time>2009-07-31T05:53:09Z</time>
 <desc>Lat.=50.8461366, Long.=6.1513116, Alt.=167m, Speed=5Km/h, Course=76deg.</desc>
<extensions>
</extensions>
</trkpt>
<trkpt lat="50.8461433" lon="6.1513516">
 <ele>167.000000</ele>
 <time>2009-07-31T05:53:11Z</time>
 <desc>Lat.=50.8461433, Long.=6.1513516, Alt.=167m, Speed=5Km/h, Course=75deg.</desc>
<extensions>
</extensions>
</trkpt>
<trkpt lat="50.8461616" lon="6.1514500">
 <ele>166.000000</ele>
 <time>2009-07-31T05:53:15Z</time>
 <desc>Lat.=50.8461616, Long.=6.1514500, Alt.=166m, Speed=6Km/h, Course=74deg.</desc>
<extensions>
</extensions>
</trkpt>
<trkpt lat="50.8461649" lon="6.1514766">
 <ele>166.000000</ele>
 <time>2009-07-31T05:53:16Z</time>
 <desc>Lat.=50.8461649, Long.=6.1514766, Alt.=166m, Speed=6Km/h, Course=79deg.</desc>
<extensions>
</extensions>
</trkpt>
<trkpt lat="50.8461516" lon="6.1516233">
 <ele>166.000000</ele>
 <time>2009-07-31T05:53:22Z</time>
 <desc>Lat.=50.8461516, Long.=6.1516233, Alt.=166m, Speed=6Km/h, Course=98deg.</desc>
<extensions>
</extensions>
</trkpt>
<trkpt lat="50.8461049" lon="6.1517599">
 <ele>166.000000</ele>
 <time>2009-07-31T05:53:27Z</time>
 <desc>Lat.=50.8461049, Long.=6.1517599, Alt.=166m, Speed=7Km/h, Course=118deg.</desc>
<extensions>
</extensions>
</trkpt>
<trkpt lat="50.8460949" lon="6.1517849">
 <ele>166.000000</ele>
 <time>2009-07-31T05:53:28Z</time>
 <desc>Lat.=50.8460949, Long.=6.1517849, Alt.=166m, Speed=7Km/h, Course=122deg.</desc>
<extensions>
</extensions>
</trkpt>
<trkpt lat="50.8460799" lon="6.1518099">
 <ele>166.000000</ele>
 <time>2009-07-31T05:53:29Z</time>
 <desc>Lat.=50.8460799, Long.=6.1518099, Alt.=166m, Speed=8Km/h, Course=134deg.</desc>
<extensions>
</extensions>
</trkpt>
<trkpt lat="50.8460699" lon="6.1518499">
 <ele>166.000000</ele>
 <time>2009-07-31T05:53:31Z</time>
 <desc>Lat.=50.8460699, Long.=6.1518499, Alt.=166m, Speed=5Km/h, Course=112deg.</desc>
<extensions>
</extensions>
</trkpt>
<trkpt lat="50.8460683" lon="6.1518883">
 <ele>166.000000</ele>
 <time>2009-07-31T05:53:33Z</time>
 <desc>Lat.=50.8460683, Long.=6.1518883, Alt.=166m, Speed=4Km/h, Course=94deg.</desc>
<extensions>
</extensions>
</trkpt>
<trkpt lat="50.8460566" lon="6.1519016">
 <ele>166.000000</ele>
 <time>2009-07-31T05:53:34Z</time>
 <desc>Lat.=50.8460566, Long.=6.1519016, Alt.=166m, Speed=5Km/h, Course=144deg.</desc>
<extensions>
</extensions>
</trkpt>
<trkpt lat="50.8460450" lon="6.1519233">
 <ele>166.000000</ele>
 <time>2009-07-31T05:53:35Z</time>
 <desc>Lat.=50.8460450, Long.=6.1519233, Alt.=166m, Speed=7Km/h, Course=130deg.</desc>
<extensions>
</extensions>
</trkpt>
<trkpt lat="50.8460266" lon="6.1519499">
 <ele>166.000000</ele>
 <time>2009-07-31T05:53:36Z</time>
 <desc>Lat.=50.8460266, Long.=6.1519499, Alt.=166m, Speed=9Km/h, Course=138deg.</desc>
<extensions>
</extensions>
</trkpt>
<trkpt lat="50.8460116" lon="6.1519750">
 <ele>166.000000</ele>
 <time>2009-07-31T05:53:37Z</time>
 <desc>Lat.=50.8460116, Long.=6.1519750, Alt.=166m, Speed=8Km/h, Course=133deg.</desc>
<extensions>
</extensions>
</trkpt>
<trkpt lat="50.8460016" lon="6.1520249">
 <ele>166.000000</ele>
 <time>2009-07-31T05:53:39Z</time>
 <desc>Lat.=50.8460016, Long.=6.1520249, Alt.=166m, Speed=6Km/h, Course=108deg.</desc>
<extensions>
</extensions>
</trkpt>
<trkpt lat="50.8459900" lon="6.1520433">
 <ele>166.000000</ele>
 <time>2009-07-31T05:53:40Z</time>
 <desc>Lat.=50.8459900, Long.=6.1520433, Alt.=166m, Speed=6Km/h, Course=135deg.</desc>
<extensions>
</extensions>
</trkpt>
<trkpt lat="50.8459733" lon="6.1520633">
 <ele>166.000000</ele>
 <time>2009-07-31T05:53:42Z</time>
 <desc>Lat.=50.8459733, Long.=6.1520633, Alt.=166m, Speed=4Km/h, Course=143deg.</desc>
<extensions>
</extensions>
</trkpt>
<trkpt lat="50.8459683" lon="6.1520649">
 <ele>166.000000</ele>
 <time>2009-07-31T05:53:43Z</time>
 <desc>Lat.=50.8459683, Long.=6.1520649, Alt.=166m, Speed=2Km/h, Course=169deg.</desc>
<extensions>
</extensions>
</trkpt>
<trkpt lat="50.8459466" lon="6.1520983">
 <ele>166.000000</ele>
 <time>2009-07-31T05:53:45Z</time>
 <desc>Lat.=50.8459466, Long.=6.1520983, Alt.=166m, Speed=6Km/h, Course=136deg.</desc>
<extensions>
</extensions>
</trkpt>
<trkpt lat="50.8459399" lon="6.1521133">
 <ele>166.000000</ele>
 <time>2009-07-31T05:53:46Z</time>
 <desc>Lat.=50.8459399, Long.=6.1521133, Alt.=166m, Speed=4Km/h, Course=125deg.</desc>
<extensions>
</extensions>
</trkpt>
<trkpt lat="50.8459149" lon="6.1521783">
 <ele>165.000000</ele>
 <time>2009-07-31T05:53:50Z</time>
 <desc>Lat.=50.8459149, Long.=6.1521783, Alt.=165m, Speed=4Km/h, Course=121deg.</desc>
<extensions>
</extensions>
</trkpt>
<trkpt lat="50.8458516" lon="6.1523216">
 <ele>164.000000</ele>
 <time>2009-07-31T05:53:59Z</time>
 <desc>Lat.=50.8458516, Long.=6.1523216, Alt.=164m, Speed=4Km/h, Course=125deg.</desc>
<extensions>
</extensions>
</trkpt>
<trkpt lat="50.8458449" lon="6.1523400">
 <ele>164.000000</ele>
 <time>2009-07-31T05:54:00Z</time>
 <desc>Lat.=50.8458449, Long.=6.1523400, Alt.=164m, Speed=5Km/h, Course=120deg.</desc>
<extensions>
</extensions>
</trkpt>
<trkpt lat="50.8458050" lon="6.1524349">
 <ele>163.000000</ele>
 <time>2009-07-31T05:54:05Z</time>
 <desc>Lat.=50.8458050, Long.=6.1524349, Alt.=163m, Speed=5Km/h, Course=124deg.</desc>
<extensions>
</extensions>
</trkpt>
<trkpt lat="50.8457983" lon="6.1524566">
 <ele>163.000000</ele>
 <time>2009-07-31T05:54:06Z</time>
 <desc>Lat.=50.8457983, Long.=6.1524566, Alt.=163m, Speed=6Km/h, Course=116deg.</desc>
<extensions>
</extensions>
</trkpt>
<trkpt lat="50.8457766" lon="6.1525116">
 <ele>163.000000</ele>
 <time>2009-07-31T05:54:09Z</time>
 <desc>Lat.=50.8457766, Long.=6.1525116, Alt.=163m, Speed=5Km/h, Course=122deg.</desc>
<extensions>
</extensions>
</trkpt>
<trkpt lat="50.8457566" lon="6.1525549">
 <ele>162.000000</ele>
 <time>2009-07-31T05:54:11Z</time>
 <desc>Lat.=50.8457566, Long.=6.1525549, Alt.=162m, Speed=6Km/h, Course=126deg.</desc>
<extensions>
</extensions>
</trkpt>
<trkpt lat="50.8457416" lon="6.1525749">
 <ele>162.000000</ele>
 <time>2009-07-31T05:54:12Z</time>
 <desc>Lat.=50.8457416, Long.=6.1525749, Alt.=162m, Speed=7Km/h, Course=140deg.</desc>
<extensions>
</extensions>
</trkpt>
<trkpt lat="50.8457183" lon="6.1526049">
 <ele>162.000000</ele>
 <time>2009-07-31T05:54:14Z</time>
 <desc>Lat.=50.8457183, Long.=6.1526049, Alt.=162m, Speed=6Km/h, Course=141deg.</desc>
<extensions>
</extensions>
</trkpt>
<trkpt lat="50.8457116" lon="6.1526216">
 <ele>162.000000</ele>
 <time>2009-07-31T05:54:15Z</time>
 <desc>Lat.=50.8457116, Long.=6.1526216, Alt.=162m, Speed=5Km/h, Course=122deg.</desc>
<extensions>
</extensions>
</trkpt>
<trkpt lat="50.8456849" lon="6.1526783">
 <ele>162.000000</ele>
 <time>2009-07-31T05:54:18Z</time>
 <desc>Lat.=50.8456849, Long.=6.1526783, Alt.=162m, Speed=5Km/h, Course=127deg.</desc>
<extensions>
</extensions>
</trkpt>
<trkpt lat="50.8456666" lon="6.1527133">
 <ele>162.000000</ele>
 <time>2009-07-31T05:54:20Z</time>
 <desc>Lat.=50.8456666, Long.=6.1527133, Alt.=162m, Speed=5Km/h, Course=130deg.</desc>
<extensions>
</extensions>
</trkpt>
<trkpt lat="50.8456499" lon="6.1527516">
 <ele>162.000000</ele>
 <time>2009-07-31T05:54:22Z</time>
 <desc>Lat.=50.8456499, Long.=6.1527516, Alt.=162m, Speed=5Km/h, Course=125deg.</desc>
<extensions>
</extensions>
</trkpt>
<trkpt lat="50.8456232" lon="6.1528733">
 <ele>162.000000</ele>
 <time>2009-07-31T05:54:32Z</time>
 <desc>Lat.=50.8456232, Long.=6.1528733, Alt.=162m, Speed=3Km/h, Course=109deg.</desc>
<extensions>
</extensions>
</trkpt>
<trkpt lat="50.8456166" lon="6.1528900">
 <ele>161.000000</ele>
 <time>2009-07-31T05:54:33Z</time>
 <desc>Lat.=50.8456166, Long.=6.1528900, Alt.=161m, Speed=4Km/h, Course=122deg.</desc>
<extensions>
</extensions>
</trkpt>
<trkpt lat="50.8456100" lon="6.1528983">
 <ele>161.000000</ele>
 <time>2009-07-31T05:54:34Z</time>
 <desc>Lat.=50.8456100, Long.=6.1528983, Alt.=161m, Speed=3Km/h, Course=142deg.</desc>
<extensions>
</extensions>
</trkpt>
<trkpt lat="50.8455999" lon="6.1529199">
 <ele>161.000000</ele>
 <time>2009-07-31T05:54:35Z</time>
 <desc>Lat.=50.8455999, Long.=6.1529199, Alt.=161m, Speed=6Km/h, Course=127deg.</desc>
<extensions>
</extensions>
</trkpt>
<trkpt lat="50.8455883" lon="6.1529449">
 <ele>161.000000</ele>
 <time>2009-07-31T05:54:36Z</time>
 <desc>Lat.=50.8455883, Long.=6.1529449, Alt.=161m, Speed=7Km/h, Course=126deg.</desc>
<extensions>
</extensions>
</trkpt>
<trkpt lat="50.8455716" lon="6.1529916">
 <ele>161.000000</ele>
 <time>2009-07-31T05:54:38Z</time>
 <desc>Lat.=50.8455716, Long.=6.1529916, Alt.=161m, Speed=6Km/h, Course=120deg.</desc>
<extensions>
</extensions>
</trkpt>
<trkpt lat="50.8455616" lon="6.1530166">
 <ele>161.000000</ele>
 <time>2009-07-31T05:54:39Z</time>
 <desc>Lat.=50.8455616, Long.=6.1530166, Alt.=161m, Speed=7Km/h, Course=122deg.</desc>
<extensions>
</extensions>
</trkpt>
<trkpt lat="50.8455100" lon="6.1531633">
 <ele>161.000000</ele>
 <time>2009-07-31T05:54:46Z</time>
 <desc>Lat.=50.8455100, Long.=6.1531633, Alt.=161m, Speed=6Km/h, Course=119deg.</desc>
<extensions>
</extensions>
</trkpt>
<trkpt lat="50.8454916" lon="6.1532333">
 <ele>162.000000</ele>
 <time>2009-07-31T05:54:49Z</time>
 <desc>Lat.=50.8454916, Long.=6.1532333, Alt.=162m, Speed=6Km/h, Course=113deg.</desc>
<extensions>
</extensions>
</trkpt>
<trkpt lat="50.8454850" lon="6.1532666">
 <ele>162.000000</ele>
 <time>2009-07-31T05:54:50Z</time>
 <desc>Lat.=50.8454850, Long.=6.1532666, Alt.=162m, Speed=8Km/h, Course=107deg.</desc>
<extensions>
</extensions>
</trkpt>
<trkpt lat="50.8454783" lon="6.1532933">
 <ele>162.000000</ele>
 <time>2009-07-31T05:54:51Z</time>
 <desc>Lat.=50.8454783, Long.=6.1532933, Alt.=162m, Speed=7Km/h, Course=112deg.</desc>
<extensions>
</extensions>
</trkpt>
<trkpt lat="50.8454599" lon="6.1533233">
 <ele>162.000000</ele>
 <time>2009-07-31T05:54:56Z</time>
 <desc>Lat.=50.8454599, Long.=6.1533233, Alt.=162m, Speed=2Km/h, Course=134deg.</desc>
<extensions>
</extensions>
</trkpt>
<trkpt lat="50.8454483" lon="6.1533450">
 <ele>162.000000</ele>
 <time>2009-07-31T05:54:57Z</time>
 <desc>Lat.=50.8454483, Long.=6.1533450, Alt.=162m, Speed=7Km/h, Course=130deg.</desc>
<extensions>
</extensions>
</trkpt>
<trkpt lat="50.8454400" lon="6.1533700">
 <ele>162.000000</ele>
 <time>2009-07-31T05:54:59Z</time>
 <desc>Lat.=50.8454400, Long.=6.1533700, Alt.=162m, Speed=3Km/h, Course=118deg.</desc>
<extensions>
</extensions>
</trkpt>
<trkpt lat="50.8454483" lon="6.1533766">
 <ele>162.000000</ele>
 <time>2009-07-31T05:55:00Z</time>
 <desc>Lat.=50.8454483, Long.=6.1533766, Alt.=162m, Speed=3Km/h, Course=27deg.</desc>
<extensions>
</extensions>
</trkpt>
<trkpt lat="50.8454516" lon="6.1533916">
 <ele>162.000000</ele>
 <time>2009-07-31T05:55:01Z</time>
 <desc>Lat.=50.8454516, Long.=6.1533916, Alt.=162m, Speed=4Km/h, Course=71deg.</desc>
<extensions>
</extensions>
</trkpt>
<trkpt lat="50.8454466" lon="6.1534150">
 <ele>162.000000</ele>
 <time>2009-07-31T05:55:02Z</time>
 <desc>Lat.=50.8454466, Long.=6.1534150, Alt.=162m, Speed=6Km/h, Course=109deg.</desc>
<extensions>
</extensions>
</trkpt>
<trkpt lat="50.8454433" lon="6.1534400">
 <ele>162.000000</ele>
 <time>2009-07-31T05:55:03Z</time>
 <desc>Lat.=50.8454433, Long.=6.1534400, Alt.=162m, Speed=6Km/h, Course=102deg.</desc>
<extensions>
</extensions>
</trkpt>
<trkpt lat="50.8454349" lon="6.1534599">
 <ele>162.000000</ele>
 <time>2009-07-31T05:55:04Z</time>
 <desc>Lat.=50.8454349, Long.=6.1534599, Alt.=162m, Speed=6Km/h, Course=124deg.</desc>
<extensions>
</extensions>
</trkpt>
<trkpt lat="50.8453399" lon="6.1536633">
 <ele>163.000000</ele>
 <time>2009-07-31T05:55:09Z</time>
 <desc>Lat.=50.8453399, Long.=6.1536633, Alt.=163m, Speed=12Km/h, Course=126deg.</desc>
<extensions>
</extensions>
</trkpt>
<trkpt lat="50.8453099" lon="6.1537566">
 <ele>163.000000</ele>
 <time>2009-07-31T05:55:13Z</time>
 <desc>Lat.=50.8453099, Long.=6.1537566, Alt.=163m, Speed=6Km/h, Course=117deg.</desc>
<extensions>
</extensions>
</trkpt>
<trkpt lat="50.8452916" lon="6.1537849">
 <ele>163.000000</ele>
 <time>2009-07-31T05:55:15Z</time>
 <desc>Lat.=50.8452916, Long.=6.1537849, Alt.=163m, Speed=5Km/h, Course=136deg.</desc>
<extensions>
</extensions>
</trkpt>
<trkpt lat="50.8452883" lon="6.1537916">
 <ele>163.000000</ele>
 <time>2009-07-31T05:55:16Z</time>
 <desc>Lat.=50.8452883, Long.=6.1537916, Alt.=163m, Speed=2Km/h, Course=128deg.</desc>
<extensions>
</extensions>
</trkpt>
<trkpt lat="50.8452566" lon="6.1538383">
 <ele>163.000000</ele>
 <time>2009-07-31T05:55:21Z</time>
 <desc>Lat.=50.8452566, Long.=6.1538383, Alt.=163m, Speed=3Km/h, Course=137deg.</desc>
<extensions>
</extensions>
</trkpt>
<trkpt lat="50.8452333" lon="6.1538999">
 <ele>164.000000</ele>
 <time>2009-07-31T05:55:25Z</time>
 <desc>Lat.=50.8452333, Long.=6.1538999, Alt.=164m, Speed=4Km/h, Course=121deg.</desc>
<extensions>
</extensions>
</trkpt>
<trkpt lat="50.8451866" lon="6.1540183">
 <ele>164.000000</ele>
 <time>2009-07-31T05:55:31Z</time>
 <desc>Lat.=50.8451866, Long.=6.1540183, Alt.=164m, Speed=5Km/h, Course=122deg.</desc>
<extensions>
</extensions>
</trkpt>
<trkpt lat="50.8451616" lon="6.1540799">
 <ele>165.000000</ele>
 <time>2009-07-31T05:55:34Z</time>
 <desc>Lat.=50.8451616, Long.=6.1540799, Alt.=165m, Speed=6Km/h, Course=123deg.</desc>
<extensions>
</extensions>
</trkpt>
<trkpt lat="50.8450733" lon="6.1542849">
 <ele>166.000000</ele>
 <time>2009-07-31T05:55:43Z</time>
 <desc>Lat.=50.8450733, Long.=6.1542849, Alt.=166m, Speed=6Km/h, Course=124deg.</desc>
<extensions>
</extensions>
</trkpt>
<trkpt lat="50.8450650" lon="6.1543050">
 <ele>166.000000</ele>
 <time>2009-07-31T05:55:44Z</time>
 <desc>Lat.=50.8450650, Long.=6.1543050, Alt.=166m, Speed=6Km/h, Course=123deg.</desc>
<extensions>
</extensions>
</trkpt>
<trkpt lat="50.8450433" lon="6.1543249">
 <ele>166.000000</ele>
 <time>2009-07-31T05:55:49Z</time>
 <desc>Lat.=50.8450433, Long.=6.1543249, Alt.=166m, Speed=2Km/h, Course=150deg.</desc>
<extensions>
</extensions>
</trkpt>
<trkpt lat="50.8450350" lon="6.1543383">
 <ele>166.000000</ele>
 <time>2009-07-31T05:55:50Z</time>
 <desc>Lat.=50.8450350, Long.=6.1543383, Alt.=166m, Speed=4Km/h, Course=134deg.</desc>
<extensions>
</extensions>
</trkpt>
<trkpt lat="50.8450250" lon="6.1543499">
 <ele>166.000000</ele>
 <time>2009-07-31T05:55:51Z</time>
 <desc>Lat.=50.8450250, Long.=6.1543499, Alt.=166m, Speed=4Km/h, Course=144deg.</desc>
<extensions>
</extensions>
</trkpt>
<trkpt lat="50.8450183" lon="6.1543616">
 <ele>166.000000</ele>
 <time>2009-07-31T05:55:52Z</time>
 <desc>Lat.=50.8450183, Long.=6.1543616, Alt.=166m, Speed=3Km/h, Course=132deg.</desc>
<extensions>
</extensions>
</trkpt>
<trkpt lat="50.8450133" lon="6.1543833">
 <ele>166.000000</ele>
 <time>2009-07-31T05:55:55Z</time>
 <desc>Lat.=50.8450133, Long.=6.1543833, Alt.=166m, Speed=1Km/h, Course=110deg.</desc>
<extensions>
</extensions>
</trkpt>
<trkpt lat="50.8450133" lon="6.1544016">
 <ele>166.000000</ele>
 <time>2009-07-31T05:55:57Z</time>
 <desc>Lat.=50.8450133, Long.=6.1544016, Alt.=166m, Speed=2Km/h, Course=90deg.</desc>
<extensions>
</extensions>
</trkpt>
<trkpt lat="50.8450166" lon="6.1544066">
 <ele>166.000000</ele>
 <time>2009-07-31T05:55:58Z</time>
 <desc>Lat.=50.8450166, Long.=6.1544066, Alt.=166m, Speed=1Km/h, Course=44deg.</desc>
<extensions>
</extensions>
</trkpt>
<trkpt lat="50.8450233" lon="6.1544216">
 <ele>167.000000</ele>
 <time>2009-07-31T05:56:00Z</time>
 <desc>Lat.=50.8450233, Long.=6.1544216, Alt.=167m, Speed=2Km/h, Course=55deg.</desc>
<extensions>
</extensions>
</trkpt>
<trkpt lat="50.8450433" lon="6.1543799">
 <ele>167.000000</ele>
 <time>2009-07-31T05:56:14Z</time>
 <desc>Lat.=50.8450433, Long.=6.1543799, Alt.=167m, Speed=0Km/h, Course=307deg.</desc>
<extensions>
</extensions>
</trkpt>
<trkpt lat="50.8450233" lon="6.1544049">
 <ele>167.000000</ele>
 <time>2009-07-31T05:56:17Z</time>
 <desc>Lat.=50.8450233, Long.=6.1544049, Alt.=167m, Speed=3Km/h, Course=142deg.</desc>
<extensions>
</extensions>
</trkpt>
<trkpt lat="50.8450149" lon="6.1544116">
 <ele>167.000000</ele>
 <time>2009-07-31T05:56:18Z</time>
 <desc>Lat.=50.8450149, Long.=6.1544116, Alt.=167m, Speed=3Km/h, Course=153deg.</desc>
<extensions>
</extensions>
</trkpt>
<trkpt lat="50.8450066" lon="6.1544266">
 <ele>167.000000</ele>
 <time>2009-07-31T05:56:19Z</time>
 <desc>Lat.=50.8450066, Long.=6.1544266, Alt.=167m, Speed=5Km/h, Course=131deg.</desc>
<extensions>
</extensions>
</trkpt>
<trkpt lat="50.8449883" lon="6.1544483">
 <ele>167.000000</ele>
 <time>2009-07-31T05:56:21Z</time>
 <desc>Lat.=50.8449883, Long.=6.1544483, Alt.=167m, Speed=4Km/h, Course=143deg.</desc>
<extensions>
</extensions>
</trkpt>
<trkpt lat="50.8449683" lon="6.1544783">
 <ele>167.000000</ele>
 <time>2009-07-31T05:56:22Z</time>
 <desc>Lat.=50.8449683, Long.=6.1544783, Alt.=167m, Speed=11Km/h, Course=137deg.</desc>
<extensions>
</extensions>
</trkpt>
<trkpt lat="50.8449566" lon="6.1545050">
 <ele>167.000000</ele>
 <time>2009-07-31T05:56:23Z</time>
 <desc>Lat.=50.8449566, Long.=6.1545050, Alt.=167m, Speed=8Km/h, Course=125deg.</desc>
<extensions>
</extensions>
</trkpt>
<trkpt lat="50.8449433" lon="6.1545199">
 <ele>167.000000</ele>
 <time>2009-07-31T05:56:24Z</time>
 <desc>Lat.=50.8449433, Long.=6.1545199, Alt.=167m, Speed=6Km/h, Course=145deg.</desc>
<extensions>
</extensions>
</trkpt>
<trkpt lat="50.8449299" lon="6.1545400">
 <ele>167.000000</ele>
 <time>2009-07-31T05:56:25Z</time>
 <desc>Lat.=50.8449299, Long.=6.1545400, Alt.=167m, Speed=7Km/h, Course=137deg.</desc>
<extensions>
</extensions>
</trkpt>
<trkpt lat="50.8449166" lon="6.1545583">
 <ele>167.000000</ele>
 <time>2009-07-31T05:56:26Z</time>
 <desc>Lat.=50.8449166, Long.=6.1545583, Alt.=167m, Speed=7Km/h, Course=139deg.</desc>
<extensions>
</extensions>
</trkpt>
<trkpt lat="50.8448950" lon="6.1545883">
 <ele>167.000000</ele>
 <time>2009-07-31T05:56:27Z</time>
 <desc>Lat.=50.8448950, Long.=6.1545883, Alt.=167m, Speed=11Km/h, Course=139deg.</desc>
<extensions>
</extensions>
</trkpt>
<trkpt lat="50.8448599" lon="6.1546616">
 <ele>166.000000</ele>
 <time>2009-07-31T05:56:28Z</time>
 <desc>Lat.=50.8448599, Long.=6.1546616, Alt.=166m, Speed=23Km/h, Course=127deg.</desc>
<extensions>
</extensions>
</trkpt>
<trkpt lat="50.8448499" lon="6.1546849">
 <ele>166.000000</ele>
 <time>2009-07-31T05:56:29Z</time>
 <desc>Lat.=50.8448499, Long.=6.1546849, Alt.=166m, Speed=7Km/h, Course=124deg.</desc>
<extensions>
</extensions>
</trkpt>
<trkpt lat="50.8448349" lon="6.1547333">
 <ele>166.000000</ele>
 <time>2009-07-31T05:56:30Z</time>
 <desc>Lat.=50.8448349, Long.=6.1547333, Alt.=166m, Speed=13Km/h, Course=116deg.</desc>
<extensions>
</extensions>
</trkpt>
<trkpt lat="50.8448066" lon="6.1548066">
 <ele>166.000000</ele>
 <time>2009-07-31T05:56:34Z</time>
 <desc>Lat.=50.8448066, Long.=6.1548066, Alt.=166m, Speed=5Km/h, Course=121deg.</desc>
<extensions>
</extensions>
</trkpt>
<trkpt lat="50.8448000" lon="6.1548349">
 <ele>166.000000</ele>
 <time>2009-07-31T05:56:35Z</time>
 <desc>Lat.=50.8448000, Long.=6.1548349, Alt.=166m, Speed=7Km/h, Course=110deg.</desc>
<extensions>
</extensions>
</trkpt>
<trkpt lat="50.8447899" lon="6.1548649">
 <ele>166.000000</ele>
 <time>2009-07-31T05:56:36Z</time>
 <desc>Lat.=50.8447899, Long.=6.1548649, Alt.=166m, Speed=8Km/h, Course=118deg.</desc>
<extensions>
</extensions>
</trkpt>
<trkpt lat="50.8447816" lon="6.1548966">
 <ele>166.000000</ele>
 <time>2009-07-31T05:56:37Z</time>
 <desc>Lat.=50.8447816, Long.=6.1548966, Alt.=166m, Speed=8Km/h, Course=113deg.</desc>
<extensions>
</extensions>
</trkpt>
<trkpt lat="50.8447816" lon="6.1549166">
 <ele>166.000000</ele>
 <time>2009-07-31T05:56:38Z</time>
 <desc>Lat.=50.8447816, Long.=6.1549166, Alt.=166m, Speed=5Km/h, Course=90deg.</desc>
<extensions>
</extensions>
</trkpt>
<trkpt lat="50.8447933" lon="6.1549283">
 <ele>166.000000</ele>
 <time>2009-07-31T05:56:39Z</time>
 <desc>Lat.=50.8447933, Long.=6.1549283, Alt.=166m, Speed=5Km/h, Course=32deg.</desc>
<extensions>
</extensions>
</trkpt>
<trkpt lat="50.8448183" lon="6.1549983">
 <ele>166.000000</ele>
 <time>2009-07-31T05:56:41Z</time>
 <desc>Lat.=50.8448183, Long.=6.1549983, Alt.=166m, Speed=10Km/h, Course=61deg.</desc>
<extensions>
</extensions>
</trkpt>
<trkpt lat="50.8448366" lon="6.1549983">
 <ele>167.000000</ele>
 <time>2009-07-31T05:56:42Z</time>
 <desc>Lat.=50.8448366, Long.=6.1549983, Alt.=167m, Speed=7Km/h, Course=0deg.</desc>
<extensions>
</extensions>
</trkpt>
<trkpt lat="50.8448599" lon="6.1549783">
 <ele>167.000000</ele>
 <time>2009-07-31T05:56:43Z</time>
 <desc>Lat.=50.8448599, Long.=6.1549783, Alt.=167m, Speed=10Km/h, Course=332deg.</desc>
<extensions>
</extensions>
</trkpt>
<trkpt lat="50.8448800" lon="6.1549600">
 <ele>167.000000</ele>
 <time>2009-07-31T05:56:44Z</time>
 <desc>Lat.=50.8448800, Long.=6.1549600, Alt.=167m, Speed=9Km/h, Course=330deg.</desc>
<extensions>
</extensions>
</trkpt>
<trkpt lat="50.8449083" lon="6.1549150">
 <ele>167.000000</ele>
 <time>2009-07-31T05:56:45Z</time>
 <desc>Lat.=50.8449083, Long.=6.1549150, Alt.=167m, Speed=16Km/h, Course=315deg.</desc>
<extensions>
</extensions>
</trkpt>
<trkpt lat="50.8449233" lon="6.1549016">
 <ele>167.000000</ele>
 <time>2009-07-31T05:56:46Z</time>
 <desc>Lat.=50.8449233, Long.=6.1549016, Alt.=167m, Speed=6Km/h, Course=331deg.</desc>
<extensions>
</extensions>
</trkpt>
<trkpt lat="50.8449433" lon="6.1548900">
 <ele>167.000000</ele>
 <time>2009-07-31T05:56:47Z</time>
 <desc>Lat.=50.8449433, Long.=6.1548900, Alt.=167m, Speed=8Km/h, Course=340deg.</desc>
<extensions>
</extensions>
</trkpt>
<trkpt lat="50.8449783" lon="6.1548666">
 <ele>167.000000</ele>
 <time>2009-07-31T05:56:49Z</time>
 <desc>Lat.=50.8449783, Long.=6.1548666, Alt.=167m, Speed=7Km/h, Course=337deg.</desc>
<extensions>
</extensions>
</trkpt>
<trkpt lat="50.8449950" lon="6.1548649">
 <ele>167.000000</ele>
 <time>2009-07-31T05:56:50Z</time>
 <desc>Lat.=50.8449950, Long.=6.1548649, Alt.=167m, Speed=6Km/h, Course=356deg.</desc>
<extensions>
</extensions>
</trkpt>
<trkpt lat="50.8450216" lon="6.1548649">
 <ele>167.000000</ele>
 <time>2009-07-31T05:56:52Z</time>
 <desc>Lat.=50.8450216, Long.=6.1548649, Alt.=167m, Speed=5Km/h, Course=0deg.</desc>
<extensions>
</extensions>
</trkpt>
<trkpt lat="50.8450433" lon="6.1548466">
 <ele>167.000000</ele>
 <time>2009-07-31T05:56:53Z</time>
 <desc>Lat.=50.8450433, Long.=6.1548466, Alt.=167m, Speed=9Km/h, Course=332deg.</desc>
<extensions>
</extensions>
</trkpt>
<trkpt lat="50.8450650" lon="6.1548299">
 <ele>167.000000</ele>
 <time>2009-07-31T05:56:54Z</time>
 <desc>Lat.=50.8450650, Long.=6.1548299, Alt.=167m, Speed=9Km/h, Course=334deg.</desc>
<extensions>
</extensions>
</trkpt>
<trkpt lat="50.8450866" lon="6.1548100">
 <ele>167.000000</ele>
 <time>2009-07-31T05:56:55Z</time>
 <desc>Lat.=50.8450866, Long.=6.1548100, Alt.=167m, Speed=10Km/h, Course=330deg.</desc>
<extensions>
</extensions>
</trkpt>
<trkpt lat="50.8451050" lon="6.1548016">
 <ele>167.000000</ele>
 <time>2009-07-31T05:56:56Z</time>
 <desc>Lat.=50.8451050, Long.=6.1548016, Alt.=167m, Speed=7Km/h, Course=344deg.</desc>
<extensions>
</extensions>
</trkpt>
<trkpt lat="50.8451283" lon="6.1547833">
 <ele>167.000000</ele>
 <time>2009-07-31T05:56:57Z</time>
 <desc>Lat.=50.8451283, Long.=6.1547833, Alt.=167m, Speed=10Km/h, Course=334deg.</desc>
<extensions>
</extensions>
</trkpt>
<trkpt lat="50.8451683" lon="6.1547616">
 <ele>167.000000</ele>
 <time>2009-07-31T05:56:59Z</time>
 <desc>Lat.=50.8451683, Long.=6.1547616, Alt.=167m, Speed=8Km/h, Course=341deg.</desc>
<extensions>
</extensions>
</trkpt>
<trkpt lat="50.8451883" lon="6.1547833">
 <ele>166.000000</ele>
 <time>2009-07-31T05:57:01Z</time>
 <desc>Lat.=50.8451883, Long.=6.1547833, Alt.=166m, Speed=4Km/h, Course=34deg.</desc>
<extensions>
</extensions>
</trkpt>
<trkpt lat="50.8452066" lon="6.1547783">
 <ele>166.000000</ele>
 <time>2009-07-31T05:57:02Z</time>
 <desc>Lat.=50.8452066, Long.=6.1547783, Alt.=166m, Speed=7Km/h, Course=350deg.</desc>
<extensions>
</extensions>
</trkpt>
<trkpt lat="50.8452566" lon="6.1547699">
 <ele>166.000000</ele>
 <time>2009-07-31T05:57:05Z</time>
 <desc>Lat.=50.8452566, Long.=6.1547699, Alt.=166m, Speed=6Km/h, Course=354deg.</desc>
<extensions>
</extensions>
</trkpt>
<trkpt lat="50.8452699" lon="6.1547766">
 <ele>166.000000</ele>
 <time>2009-07-31T05:57:06Z</time>
 <desc>Lat.=50.8452699, Long.=6.1547766, Alt.=166m, Speed=5Km/h, Course=18deg.</desc>
<extensions>
</extensions>
</trkpt>
<trkpt lat="50.8452900" lon="6.1547599">
 <ele>166.000000</ele>
 <time>2009-07-31T05:57:07Z</time>
 <desc>Lat.=50.8452900, Long.=6.1547599, Alt.=166m, Speed=9Km/h, Course=332deg.</desc>
<extensions>
</extensions>
</trkpt>
<trkpt lat="50.8453333" lon="6.1547783">
 <ele>167.000000</ele>
 <time>2009-07-31T05:57:12Z</time>
 <desc>Lat.=50.8453333, Long.=6.1547783, Alt.=167m, Speed=3Km/h, Course=15deg.</desc>
<extensions>
</extensions>
</trkpt>
<trkpt lat="50.8453450" lon="6.1547883">
 <ele>167.000000</ele>
 <time>2009-07-31T05:57:13Z</time>
 <desc>Lat.=50.8453450, Long.=6.1547883, Alt.=167m, Speed=5Km/h, Course=28deg.</desc>
<extensions>
</extensions>
</trkpt>
<trkpt lat="50.8453683" lon="6.1547799">
 <ele>167.000000</ele>
 <time>2009-07-31T05:57:14Z</time>
 <desc>Lat.=50.8453683, Long.=6.1547799, Alt.=167m, Speed=9Km/h, Course=347deg.</desc>
<extensions>
</extensions>
</trkpt>
<trkpt lat="50.8453816" lon="6.1548133">
 <ele>167.000000</ele>
 <time>2009-07-31T05:57:15Z</time>
 <desc>Lat.=50.8453816, Long.=6.1548133, Alt.=167m, Speed=9Km/h, Course=58deg.</desc>
<extensions>
</extensions>
</trkpt>
<trkpt lat="50.8453916" lon="6.1548216">
 <ele>167.000000</ele>
 <time>2009-07-31T05:57:16Z</time>
 <desc>Lat.=50.8453916, Long.=6.1548216, Alt.=167m, Speed=4Km/h, Course=28deg.</desc>
<extensions>
</extensions>
</trkpt>
<trkpt lat="50.8454199" lon="6.1548349">
 <ele>167.000000</ele>
 <time>2009-07-31T05:57:19Z</time>
 <desc>Lat.=50.8454199, Long.=6.1548349, Alt.=167m, Speed=3Km/h, Course=17deg.</desc>
<extensions>
</extensions>
</trkpt>
<trkpt lat="50.8454216" lon="6.1548716">
 <ele>167.000000</ele>
 <time>2009-07-31T05:57:20Z</time>
 <desc>Lat.=50.8454216, Long.=6.1548716, Alt.=167m, Speed=9Km/h, Course=86deg.</desc>
<extensions>
</extensions>
</trkpt>
<trkpt lat="50.8454266" lon="6.1549049">
 <ele>167.000000</ele>
 <time>2009-07-31T05:57:21Z</time>
 <desc>Lat.=50.8454266, Long.=6.1549049, Alt.=167m, Speed=8Km/h, Course=77deg.</desc>
<extensions>
</extensions>
</trkpt>
<trkpt lat="50.8454300" lon="6.1549516">
 <ele>167.000000</ele>
 <time>2009-07-31T05:57:22Z</time>
 <desc>Lat.=50.8454300, Long.=6.1549516, Alt.=167m, Speed=11Km/h, Course=83deg.</desc>
<extensions>
</extensions>
</trkpt>
<trkpt lat="50.8454300" lon="6.1550033">
 <ele>167.000000</ele>
 <time>2009-07-31T05:57:23Z</time>
 <desc>Lat.=50.8454300, Long.=6.1550033, Alt.=167m, Speed=13Km/h, Course=90deg.</desc>
<extensions>
</extensions>
</trkpt>
<trkpt lat="50.8454450" lon="6.1550533">
 <ele>167.000000</ele>
 <time>2009-07-31T05:57:25Z</time>
 <desc>Lat.=50.8454450, Long.=6.1550533, Alt.=167m, Speed=7Km/h, Course=65deg.</desc>
<extensions>
</extensions>
</trkpt>
<trkpt lat="50.8454249" lon="6.1551099">
 <ele>167.000000</ele>
 <time>2009-07-31T05:57:26Z</time>
 <desc>Lat.=50.8454249, Long.=6.1551099, Alt.=167m, Speed=16Km/h, Course=119deg.</desc>
<extensions>
</extensions>
</trkpt>
<trkpt lat="50.8454400" lon="6.1551099">
 <ele>166.000000</ele>
 <time>2009-07-31T05:57:27Z</time>
 <desc>Lat.=50.8454400, Long.=6.1551099, Alt.=166m, Speed=6Km/h, Course=0deg.</desc>
<extensions>
</extensions>
</trkpt>
<trkpt lat="50.8454916" lon="6.1551216">
 <ele>165.000000</ele>
 <time>2009-07-31T05:57:30Z</time>
 <desc>Lat.=50.8454916, Long.=6.1551216, Alt.=165m, Speed=6Km/h, Course=8deg.</desc>
<extensions>
</extensions>
</trkpt>
<trkpt lat="50.8455166" lon="6.1551316">
 <ele>165.000000</ele>
 <time>2009-07-31T05:57:32Z</time>
 <desc>Lat.=50.8455166, Long.=6.1551316, Alt.=165m, Speed=5Km/h, Course=14deg.</desc>
<extensions>
</extensions>
</trkpt>
<trkpt lat="50.8455416" lon="6.1551000">
 <ele>165.000000</ele>
 <time>2009-07-31T05:57:33Z</time>
 <desc>Lat.=50.8455416, Long.=6.1551000, Alt.=165m, Speed=12Km/h, Course=321deg.</desc>
<extensions>
</extensions>
</trkpt>
<trkpt lat="50.8455666" lon="6.1550766">
 <ele>165.000000</ele>
 <time>2009-07-31T05:57:34Z</time>
 <desc>Lat.=50.8455666, Long.=6.1550766, Alt.=165m, Speed=11Km/h, Course=329deg.</desc>
<extensions>
</extensions>
</trkpt>
<trkpt lat="50.8455999" lon="6.1550300">
 <ele>165.000000</ele>
 <time>2009-07-31T05:57:35Z</time>
 <desc>Lat.=50.8455999, Long.=6.1550300, Alt.=165m, Speed=17Km/h, Course=319deg.</desc>
<extensions>
</extensions>
</trkpt>
<trkpt lat="50.8456250" lon="6.1549950">
 <ele>165.000000</ele>
 <time>2009-07-31T05:57:36Z</time>
 <desc>Lat.=50.8456250, Long.=6.1549950, Alt.=165m, Speed=13Km/h, Course=319deg.</desc>
<extensions>
</extensions>
</trkpt>
<trkpt lat="50.8456499" lon="6.1549749">
 <ele>166.000000</ele>
 <time>2009-07-31T05:57:37Z</time>
 <desc>Lat.=50.8456499, Long.=6.1549749, Alt.=166m, Speed=11Km/h, Course=333deg.</desc>
<extensions>
</extensions>
</trkpt>
<trkpt lat="50.8456666" lon="6.1549833">
 <ele>166.000000</ele>
 <time>2009-07-31T05:57:38Z</time>
 <desc>Lat.=50.8456666, Long.=6.1549833, Alt.=166m, Speed=7Km/h, Course=18deg.</desc>
<extensions>
</extensions>
</trkpt>
<trkpt lat="50.8457383" lon="6.1549799">
 <ele>166.000000</ele>
 <time>2009-07-31T05:57:42Z</time>
 <desc>Lat.=50.8457383, Long.=6.1549799, Alt.=166m, Speed=7Km/h, Course=358deg.</desc>
<extensions>
</extensions>
</trkpt>
<trkpt lat="50.8457533" lon="6.1549783">
 <ele>166.000000</ele>
 <time>2009-07-31T05:57:43Z</time>
 <desc>Lat.=50.8457533, Long.=6.1549783, Alt.=166m, Speed=6Km/h, Course=356deg.</desc>
<extensions>
</extensions>
</trkpt>
<trkpt lat="50.8457683" lon="6.1549799">
 <ele>166.000000</ele>
 <time>2009-07-31T05:57:44Z</time>
 <desc>Lat.=50.8457683, Long.=6.1549799, Alt.=166m, Speed=6Km/h, Course=4deg.</desc>
<extensions>
</extensions>
</trkpt>
<trkpt lat="50.8458033" lon="6.1549766">
 <ele>166.000000</ele>
 <time>2009-07-31T05:57:47Z</time>
 <desc>Lat.=50.8458033, Long.=6.1549766, Alt.=166m, Speed=4Km/h, Course=357deg.</desc>
<extensions>
</extensions>
</trkpt>
<trkpt lat="50.8458133" lon="6.1549766">
 <ele>166.000000</ele>
 <time>2009-07-31T05:57:48Z</time>
 <desc>Lat.=50.8458133, Long.=6.1549766, Alt.=166m, Speed=4Km/h, Course=0deg.</desc>
<extensions>
</extensions>
</trkpt>
<trkpt lat="50.8458200" lon="6.1549899">
 <ele>166.000000</ele>
 <time>2009-07-31T05:57:49Z</time>
 <desc>Lat.=50.8458200, Long.=6.1549899, Alt.=166m, Speed=4Km/h, Course=51deg.</desc>
<extensions>
</extensions>
</trkpt>
<trkpt lat="50.8458266" lon="6.1549999">
 <ele>166.000000</ele>
 <time>2009-07-31T05:57:50Z</time>
 <desc>Lat.=50.8458266, Long.=6.1549999, Alt.=166m, Speed=3Km/h, Course=44deg.</desc>
<extensions>
</extensions>
</trkpt>
<trkpt lat="50.8458416" lon="6.1550249">
 <ele>165.000000</ele>
 <time>2009-07-31T05:57:52Z</time>
 <desc>Lat.=50.8458416, Long.=6.1550249, Alt.=165m, Speed=4Km/h, Course=46deg.</desc>
<extensions>
</extensions>
</trkpt>
<trkpt lat="50.8458416" lon="6.1550566">
 <ele>165.000000</ele>
 <time>2009-07-31T05:57:53Z</time>
 <desc>Lat.=50.8458416, Long.=6.1550566, Alt.=165m, Speed=8Km/h, Course=90deg.</desc>
<extensions>
</extensions>
</trkpt>
<trkpt lat="50.8458449" lon="6.1550716">
 <ele>165.000000</ele>
 <time>2009-07-31T05:57:54Z</time>
 <desc>Lat.=50.8458449, Long.=6.1550716, Alt.=165m, Speed=4Km/h, Course=71deg.</desc>
<extensions>
</extensions>
</trkpt>
<trkpt lat="50.8458533" lon="6.1550799">
 <ele>165.000000</ele>
 <time>2009-07-31T05:57:55Z</time>
 <desc>Lat.=50.8458533, Long.=6.1550799, Alt.=165m, Speed=3Km/h, Course=32deg.</desc>
<extensions>
</extensions>
</trkpt>
<trkpt lat="50.8458633" lon="6.1550866">
 <ele>165.000000</ele>
 <time>2009-07-31T05:57:56Z</time>
 <desc>Lat.=50.8458633, Long.=6.1550866, Alt.=165m, Speed=4Km/h, Course=23deg.</desc>
<extensions>
</extensions>
</trkpt>
<trkpt lat="50.8458733" lon="6.1550900">
 <ele>165.000000</ele>
 <time>2009-07-31T05:57:57Z</time>
 <desc>Lat.=50.8458733, Long.=6.1550900, Alt.=165m, Speed=4Km/h, Course=12deg.</desc>
<extensions>
</extensions>
</trkpt>
<trkpt lat="50.8459050" lon="6.1550933">
 <ele>164.000000</ele>
 <time>2009-07-31T05:58:00Z</time>
 <desc>Lat.=50.8459050, Long.=6.1550933, Alt.=164m, Speed=4Km/h, Course=4deg.</desc>
<extensions>
</extensions>
</trkpt>
<trkpt lat="50.8459549" lon="6.1551066">
 <ele>164.000000</ele>
 <time>2009-07-31T05:58:05Z</time>
 <desc>Lat.=50.8459549, Long.=6.1551066, Alt.=164m, Speed=4Km/h, Course=10deg.</desc>
<extensions>
</extensions>
</trkpt>
<trkpt lat="50.8459699" lon="6.1551316">
 <ele>164.000000</ele>
 <time>2009-07-31T05:58:08Z</time>
 <desc>Lat.=50.8459699, Long.=6.1551316, Alt.=164m, Speed=2Km/h, Course=46deg.</desc>
<extensions>
</extensions>
</trkpt>
<trkpt lat="50.8459783" lon="6.1551533">
 <ele>164.000000</ele>
 <time>2009-07-31T05:58:10Z</time>
 <desc>Lat.=50.8459783, Long.=6.1551533, Alt.=164m, Speed=3Km/h, Course=58deg.</desc>
<extensions>
</extensions>
</trkpt>
<trkpt lat="50.8460016" lon="6.1552249">
 <ele>164.000000</ele>
 <time>2009-07-31T05:58:15Z</time>
 <desc>Lat.=50.8460016, Long.=6.1552249, Alt.=164m, Speed=4Km/h, Course=63deg.</desc>
<extensions>
</extensions>
</trkpt>
<trkpt lat="50.8460116" lon="6.1552466">
 <ele>164.000000</ele>
 <time>2009-07-31T05:58:16Z</time>
 <desc>Lat.=50.8460116, Long.=6.1552466, Alt.=164m, Speed=6Km/h, Course=54deg.</desc>
<extensions>
</extensions>
</trkpt>
<trkpt lat="50.8460249" lon="6.1552566">
 <ele>164.000000</ele>
 <time>2009-07-31T05:58:17Z</time>
 <desc>Lat.=50.8460249, Long.=6.1552566, Alt.=164m, Speed=5Km/h, Course=25deg.</desc>
<extensions>
</extensions>
</trkpt>
<trkpt lat="50.8460649" lon="6.1552766">
 <ele>164.000000</ele>
 <time>2009-07-31T05:58:20Z</time>
 <desc>Lat.=50.8460649, Long.=6.1552766, Alt.=164m, Speed=5Km/h, Course=18deg.</desc>
<extensions>
</extensions>
</trkpt>
<trkpt lat="50.8460750" lon="6.1552766">
 <ele>164.000000</ele>
 <time>2009-07-31T05:58:21Z</time>
 <desc>Lat.=50.8460750, Long.=6.1552766, Alt.=164m, Speed=4Km/h, Course=0deg.</desc>
<extensions>
</extensions>
</trkpt>
<trkpt lat="50.8461066" lon="6.1552949">
 <ele>163.000000</ele>
 <time>2009-07-31T05:58:24Z</time>
 <desc>Lat.=50.8461066, Long.=6.1552949, Alt.=163m, Speed=4Km/h, Course=20deg.</desc>
<extensions>
</extensions>
</trkpt>
<trkpt lat="50.8461183" lon="6.1552983">
 <ele>163.000000</ele>
 <time>2009-07-31T05:58:25Z</time>
 <desc>Lat.=50.8461183, Long.=6.1552983, Alt.=163m, Speed=4Km/h, Course=10deg.</desc>
<extensions>
</extensions>
</trkpt>
<trkpt lat="50.8461300" lon="6.1553033">
 <ele>163.000000</ele>
 <time>2009-07-31T05:58:26Z</time>
 <desc>Lat.=50.8461300, Long.=6.1553033, Alt.=163m, Speed=4Km/h, Course=15deg.</desc>
<extensions>
</extensions>
</trkpt>
<trkpt lat="50.8461766" lon="6.1553649">
 <ele>162.000000</ele>
 <time>2009-07-31T05:58:31Z</time>
 <desc>Lat.=50.8461766, Long.=6.1553649, Alt.=162m, Speed=4Km/h, Course=40deg.</desc>
<extensions>
</extensions>
</trkpt>
<trkpt lat="50.8461866" lon="6.1553916">
 <ele>162.000000</ele>
 <time>2009-07-31T05:58:32Z</time>
 <desc>Lat.=50.8461866, Long.=6.1553916, Alt.=162m, Speed=7Km/h, Course=59deg.</desc>
<extensions>
</extensions>
</trkpt>
<trkpt lat="50.8461899" lon="6.1554133">
 <ele>162.000000</ele>
 <time>2009-07-31T05:58:33Z</time>
 <desc>Lat.=50.8461899, Long.=6.1554133, Alt.=162m, Speed=5Km/h, Course=76deg.</desc>
<extensions>
</extensions>
</trkpt>
<trkpt lat="50.8461982" lon="6.1554416">
 <ele>162.000000</ele>
 <time>2009-07-31T05:58:35Z</time>
 <desc>Lat.=50.8461982, Long.=6.1554416, Alt.=162m, Speed=3Km/h, Course=65deg.</desc>
<extensions>
</extensions>
</trkpt>
<trkpt lat="50.8462116" lon="6.1554416">
 <ele>162.000000</ele>
 <time>2009-07-31T05:58:36Z</time>
 <desc>Lat.=50.8462116, Long.=6.1554416, Alt.=162m, Speed=5Km/h, Course=0deg.</desc>
<extensions>
</extensions>
</trkpt>
<trkpt lat="50.8462250" lon="6.1554549">
 <ele>162.000000</ele>
 <time>2009-07-31T05:58:37Z</time>
 <desc>Lat.=50.8462250, Long.=6.1554549, Alt.=162m, Speed=6Km/h, Course=32deg.</desc>
<extensions>
</extensions>
</trkpt>
<trkpt lat="50.8462899" lon="6.1555000">
 <ele>161.000000</ele>
 <time>2009-07-31T05:58:44Z</time>
 <desc>Lat.=50.8462899, Long.=6.1555000, Alt.=161m, Speed=4Km/h, Course=24deg.</desc>
<extensions>
</extensions>
</trkpt>
<trkpt lat="50.8463016" lon="6.1555249">
 <ele>161.000000</ele>
 <time>2009-07-31T05:58:45Z</time>
 <desc>Lat.=50.8463016, Long.=6.1555249, Alt.=161m, Speed=7Km/h, Course=53deg.</desc>
<extensions>
</extensions>
</trkpt>
<trkpt lat="50.8463133" lon="6.1555383">
 <ele>161.000000</ele>
 <time>2009-07-31T05:58:46Z</time>
 <desc>Lat.=50.8463133, Long.=6.1555383, Alt.=161m, Speed=5Km/h, Course=36deg.</desc>
<extensions>
</extensions>
</trkpt>
<trkpt lat="50.8463283" lon="6.1555549">
 <ele>162.000000</ele>
 <time>2009-07-31T05:58:48Z</time>
 <desc>Lat.=50.8463283, Long.=6.1555549, Alt.=162m, Speed=3Km/h, Course=35deg.</desc>
<extensions>
</extensions>
</trkpt>
<trkpt lat="50.8463533" lon="6.1555416">
 <ele>162.000000</ele>
 <time>2009-07-31T05:58:50Z</time>
 <desc>Lat.=50.8463533, Long.=6.1555416, Alt.=162m, Speed=5Km/h, Course=341deg.</desc>
<extensions>
</extensions>
</trkpt>
<trkpt lat="50.8463749" lon="6.1555399">
 <ele>162.000000</ele>
 <time>2009-07-31T05:58:52Z</time>
 <desc>Lat.=50.8463749, Long.=6.1555399, Alt.=162m, Speed=4Km/h, Course=357deg.</desc>
<extensions>
</extensions>
</trkpt>
<trkpt lat="50.8464166" lon="6.1555599">
 <ele>162.000000</ele>
 <time>2009-07-31T05:58:56Z</time>
 <desc>Lat.=50.8464166, Long.=6.1555599, Alt.=162m, Speed=4Km/h, Course=17deg.</desc>
<extensions>
</extensions>
</trkpt>
<trkpt lat="50.8464483" lon="6.1555733">
 <ele>161.000000</ele>
 <time>2009-07-31T05:58:58Z</time>
 <desc>Lat.=50.8464483, Long.=6.1555733, Alt.=161m, Speed=6Km/h, Course=15deg.</desc>
<extensions>
</extensions>
</trkpt>
<trkpt lat="50.8464683" lon="6.1555766">
 <ele>161.000000</ele>
 <time>2009-07-31T05:58:59Z</time>
 <desc>Lat.=50.8464683, Long.=6.1555766, Alt.=161m, Speed=8Km/h, Course=6deg.</desc>
<extensions>
</extensions>
</trkpt>
<trkpt lat="50.8464849" lon="6.1555833">
 <ele>161.000000</ele>
 <time>2009-07-31T05:59:00Z</time>
 <desc>Lat.=50.8464849, Long.=6.1555833, Alt.=161m, Speed=6Km/h, Course=14deg.</desc>
<extensions>
</extensions>
</trkpt>
<trkpt lat="50.8464966" lon="6.1556016">
 <ele>161.000000</ele>
 <time>2009-07-31T05:59:01Z</time>
 <desc>Lat.=50.8464966, Long.=6.1556016, Alt.=161m, Speed=6Km/h, Course=45deg.</desc>
<extensions>
</extensions>
</trkpt>
<trkpt lat="50.8465500" lon="6.1555766">
 <ele>161.000000</ele>
 <time>2009-07-31T05:59:03Z</time>
 <desc>Lat.=50.8465500, Long.=6.1555766, Alt.=161m, Speed=11Km/h, Course=344deg.</desc>
<extensions>
</extensions>
</trkpt>
<trkpt lat="50.8465666" lon="6.1556066">
 <ele>161.000000</ele>
 <time>2009-07-31T05:59:05Z</time>
 <desc>Lat.=50.8465666, Long.=6.1556066, Alt.=161m, Speed=5Km/h, Course=49deg.</desc>
<extensions>
</extensions>
</trkpt>
<trkpt lat="50.8465983" lon="6.1556899">
 <ele>161.000000</ele>
 <time>2009-07-31T05:59:11Z</time>
 <desc>Lat.=50.8465983, Long.=6.1556899, Alt.=161m, Speed=4Km/h, Course=59deg.</desc>
<extensions>
</extensions>
</trkpt>
<trkpt lat="50.8466133" lon="6.1556916">
 <ele>161.000000</ele>
 <time>2009-07-31T05:59:12Z</time>
 <desc>Lat.=50.8466133, Long.=6.1556916, Alt.=161m, Speed=6Km/h, Course=4deg.</desc>
<extensions>
</extensions>
</trkpt>
<trkpt lat="50.8466299" lon="6.1556999">
 <ele>162.000000</ele>
 <time>2009-07-31T05:59:13Z</time>
 <desc>Lat.=50.8466299, Long.=6.1556999, Alt.=162m, Speed=6Km/h, Course=18deg.</desc>
<extensions>
</extensions>
</trkpt>
<trkpt lat="50.8466483" lon="6.1556966">
 <ele>162.000000</ele>
 <time>2009-07-31T05:59:14Z</time>
 <desc>Lat.=50.8466483, Long.=6.1556966, Alt.=162m, Speed=7Km/h, Course=354deg.</desc>
<extensions>
</extensions>
</trkpt>
<trkpt lat="50.8466683" lon="6.1556899">
 <ele>161.000000</ele>
 <time>2009-07-31T05:59:15Z</time>
 <desc>Lat.=50.8466683, Long.=6.1556899, Alt.=161m, Speed=8Km/h, Course=348deg.</desc>
<extensions>
</extensions>
</trkpt>
<trkpt lat="50.8466833" lon="6.1557033">
 <ele>161.000000</ele>
 <time>2009-07-31T05:59:17Z</time>
 <desc>Lat.=50.8466833, Long.=6.1557033, Alt.=161m, Speed=3Km/h, Course=29deg.</desc>
<extensions>
</extensions>
</trkpt>
<trkpt lat="50.8467616" lon="6.1557249">
 <ele>160.000000</ele>
 <time>2009-07-31T05:59:23Z</time>
 <desc>Lat.=50.8467616, Long.=6.1557249, Alt.=160m, Speed=5Km/h, Course=10deg.</desc>
<extensions>
</extensions>
</trkpt>
<trkpt lat="50.8468150" lon="6.1558066">
 <ele>160.000000</ele>
 <time>2009-07-31T05:59:29Z</time>
 <desc>Lat.=50.8468150, Long.=6.1558066, Alt.=160m, Speed=4Km/h, Course=44deg.</desc>
<extensions>
</extensions>
</trkpt>
<trkpt lat="50.8468249" lon="6.1558500">
 <ele>160.000000</ele>
 <time>2009-07-31T05:59:31Z</time>
 <desc>Lat.=50.8468249, Long.=6.1558500, Alt.=160m, Speed=5Km/h, Course=70deg.</desc>
<extensions>
</extensions>
</trkpt>
<trkpt lat="50.8468399" lon="6.1558516">
 <ele>160.000000</ele>
 <time>2009-07-31T05:59:32Z</time>
 <desc>Lat.=50.8468399, Long.=6.1558516, Alt.=160m, Speed=6Km/h, Course=4deg.</desc>
<extensions>
</extensions>
</trkpt>
<trkpt lat="50.8468600" lon="6.1558349">
 <ele>160.000000</ele>
 <time>2009-07-31T05:59:34Z</time>
 <desc>Lat.=50.8468600, Long.=6.1558349, Alt.=160m, Speed=4Km/h, Course=332deg.</desc>
<extensions>
</extensions>
</trkpt>
<trkpt lat="50.8468850" lon="6.1558266">
 <ele>160.000000</ele>
 <time>2009-07-31T05:59:36Z</time>
 <desc>Lat.=50.8468850, Long.=6.1558266, Alt.=160m, Speed=5Km/h, Course=348deg.</desc>
<extensions>
</extensions>
</trkpt>
<trkpt lat="50.8469116" lon="6.1558400">
 <ele>161.000000</ele>
 <time>2009-07-31T05:59:38Z</time>
 <desc>Lat.=50.8469116, Long.=6.1558400, Alt.=161m, Speed=5Km/h, Course=18deg.</desc>
<extensions>
</extensions>
</trkpt>
<trkpt lat="50.8469349" lon="6.1558349">
 <ele>161.000000</ele>
 <time>2009-07-31T05:59:39Z</time>
 <desc>Lat.=50.8469349, Long.=6.1558349, Alt.=161m, Speed=9Km/h, Course=352deg.</desc>
<extensions>
</extensions>
</trkpt>
<trkpt lat="50.8469516" lon="6.1558366">
 <ele>161.000000</ele>
 <time>2009-07-31T05:59:40Z</time>
 <desc>Lat.=50.8469516, Long.=6.1558366, Alt.=161m, Speed=6Km/h, Course=4deg.</desc>
<extensions>
</extensions>
</trkpt>
<trkpt lat="50.8469583" lon="6.1558466">
 <ele>161.000000</ele>
 <time>2009-07-31T05:59:41Z</time>
 <desc>Lat.=50.8469583, Long.=6.1558466, Alt.=161m, Speed=3Km/h, Course=43deg.</desc>
<extensions>
</extensions>
</trkpt>
<trkpt lat="50.8470033" lon="6.1558850">
 <ele>161.000000</ele>
 <time>2009-07-31T05:59:47Z</time>
 <desc>Lat.=50.8470033, Long.=6.1558850, Alt.=161m, Speed=3Km/h, Course=28deg.</desc>
<extensions>
</extensions>
</trkpt>
<trkpt lat="50.8470133" lon="6.1559299">
 <ele>161.000000</ele>
 <time>2009-07-31T05:59:49Z</time>
 <desc>Lat.=50.8470133, Long.=6.1559299, Alt.=161m, Speed=6Km/h, Course=71deg.</desc>
<extensions>
</extensions>
</trkpt>
<trkpt lat="50.8470250" lon="6.1559399">
 <ele>161.000000</ele>
 <time>2009-07-31T05:59:50Z</time>
 <desc>Lat.=50.8470250, Long.=6.1559399, Alt.=161m, Speed=5Km/h, Course=28deg.</desc>
<extensions>
</extensions>
</trkpt>
<trkpt lat="50.8470333" lon="6.1559499">
 <ele>161.000000</ele>
 <time>2009-07-31T05:59:51Z</time>
 <desc>Lat.=50.8470333, Long.=6.1559499, Alt.=161m, Speed=4Km/h, Course=37deg.</desc>
<extensions>
</extensions>
</trkpt>
<trkpt lat="50.8470532" lon="6.1559599">
 <ele>162.000000</ele>
 <time>2009-07-31T05:59:54Z</time>
 <desc>Lat.=50.8470532, Long.=6.1559599, Alt.=162m, Speed=2Km/h, Course=18deg.</desc>
<extensions>
</extensions>
</trkpt>
<trkpt lat="50.8470749" lon="6.1560250">
 <ele>162.000000</ele>
 <time>2009-07-31T06:00:14Z</time>
 <desc>Lat.=50.8470749, Long.=6.1560250, Alt.=162m, Speed=0Km/h, Course=62deg.</desc>
<extensions>
</extensions>
</trkpt>
<trkpt lat="50.8470749" lon="6.1560466">
 <ele>162.000000</ele>
 <time>2009-07-31T06:00:16Z</time>
 <desc>Lat.=50.8470749, Long.=6.1560466, Alt.=162m, Speed=2Km/h, Course=90deg.</desc>
<extensions>
</extensions>
</trkpt>
<trkpt lat="50.8470950" lon="6.1561016">
 <ele>161.000000</ele>
 <time>2009-07-31T06:00:19Z</time>
 <desc>Lat.=50.8470950, Long.=6.1561016, Alt.=161m, Speed=5Km/h, Course=60deg.</desc>
<extensions>
</extensions>
</trkpt>
<trkpt lat="50.8471199" lon="6.1560950">
 <ele>161.000000</ele>
 <time>2009-07-31T06:00:20Z</time>
 <desc>Lat.=50.8471199, Long.=6.1560950, Alt.=161m, Speed=10Km/h, Course=350deg.</desc>
<extensions>
</extensions>
</trkpt>
<trkpt lat="50.8471466" lon="6.1561083">
 <ele>161.000000</ele>
 <time>2009-07-31T06:00:22Z</time>
 <desc>Lat.=50.8471466, Long.=6.1561083, Alt.=161m, Speed=5Km/h, Course=17deg.</desc>
<extensions>
</extensions>
</trkpt>
<trkpt lat="50.8471599" lon="6.1561183">
 <ele>161.000000</ele>
 <time>2009-07-31T06:00:23Z</time>
 <desc>Lat.=50.8471599, Long.=6.1561183, Alt.=161m, Speed=5Km/h, Course=25deg.</desc>
<extensions>
</extensions>
</trkpt>
<trkpt lat="50.8471766" lon="6.1561349">
 <ele>161.000000</ele>
 <time>2009-07-31T06:00:24Z</time>
 <desc>Lat.=50.8471766, Long.=6.1561349, Alt.=161m, Speed=7Km/h, Course=32deg.</desc>
<extensions>
</extensions>
</trkpt>
<trkpt lat="50.8471866" lon="6.1561466">
 <ele>161.000000</ele>
 <time>2009-07-31T06:00:25Z</time>
 <desc>Lat.=50.8471866, Long.=6.1561466, Alt.=161m, Speed=4Km/h, Course=36deg.</desc>
<extensions>
</extensions>
</trkpt>
<trkpt lat="50.8472033" lon="6.1561516">
 <ele>161.000000</ele>
 <time>2009-07-31T06:00:26Z</time>
 <desc>Lat.=50.8472033, Long.=6.1561516, Alt.=161m, Speed=6Km/h, Course=11deg.</desc>
<extensions>
</extensions>
</trkpt>
<trkpt lat="50.8472183" lon="6.1561633">
 <ele>161.000000</ele>
 <time>2009-07-31T06:00:27Z</time>
 <desc>Lat.=50.8472183, Long.=6.1561633, Alt.=161m, Speed=6Km/h, Course=26deg.</desc>
<extensions>
</extensions>
</trkpt>
<trkpt lat="50.8472416" lon="6.1561933">
 <ele>161.000000</ele>
 <time>2009-07-31T06:00:30Z</time>
 <desc>Lat.=50.8472416, Long.=6.1561933, Alt.=161m, Speed=4Km/h, Course=39deg.</desc>
<extensions>
</extensions>
</trkpt>
<trkpt lat="50.8472766" lon="6.1562483">
 <ele>161.000000</ele>
 <time>2009-07-31T06:00:34Z</time>
 <desc>Lat.=50.8472766, Long.=6.1562483, Alt.=161m, Speed=4Km/h, Course=45deg.</desc>
<extensions>
</extensions>
</trkpt>
<trkpt lat="50.8472883" lon="6.1562649">
 <ele>161.000000</ele>
 <time>2009-07-31T06:00:35Z</time>
 <desc>Lat.=50.8472883, Long.=6.1562649, Alt.=161m, Speed=6Km/h, Course=42deg.</desc>
<extensions>
</extensions>
</trkpt>
<trkpt lat="50.8472916" lon="6.1562799">
 <ele>161.000000</ele>
 <time>2009-07-31T06:00:36Z</time>
 <desc>Lat.=50.8472916, Long.=6.1562799, Alt.=161m, Speed=4Km/h, Course=71deg.</desc>
<extensions>
</extensions>
</trkpt>
<trkpt lat="50.8473083" lon="6.1562966">
 <ele>161.000000</ele>
 <time>2009-07-31T06:00:38Z</time>
 <desc>Lat.=50.8473083, Long.=6.1562966, Alt.=161m, Speed=3Km/h, Course=32deg.</desc>
<extensions>
</extensions>
</trkpt>
<trkpt lat="50.8473233" lon="6.1563233">
 <ele>161.000000</ele>
 <time>2009-07-31T06:00:40Z</time>
 <desc>Lat.=50.8473233, Long.=6.1563233, Alt.=161m, Speed=4Km/h, Course=48deg.</desc>
<extensions>
</extensions>
</trkpt>
<trkpt lat="50.8473383" lon="6.1563383">
 <ele>161.000000</ele>
 <time>2009-07-31T06:00:41Z</time>
 <desc>Lat.=50.8473383, Long.=6.1563383, Alt.=161m, Speed=7Km/h, Course=32deg.</desc>
<extensions>
</extensions>
</trkpt>
<trkpt lat="50.8473883" lon="6.1563566">
 <ele>161.000000</ele>
 <time>2009-07-31T06:00:44Z</time>
 <desc>Lat.=50.8473883, Long.=6.1563566, Alt.=161m, Speed=6Km/h, Course=13deg.</desc>
<extensions>
</extensions>
</trkpt>
<trkpt lat="50.8474600" lon="6.1563633">
 <ele>161.000000</ele>
 <time>2009-07-31T06:00:49Z</time>
 <desc>Lat.=50.8474600, Long.=6.1563633, Alt.=161m, Speed=5Km/h, Course=3deg.</desc>
<extensions>
</extensions>
</trkpt>
<trkpt lat="50.8474866" lon="6.1563749">
 <ele>161.000000</ele>
 <time>2009-07-31T06:00:51Z</time>
 <desc>Lat.=50.8474866, Long.=6.1563749, Alt.=161m, Speed=5Km/h, Course=15deg.</desc>
<extensions>
</extensions>
</trkpt>
<trkpt lat="50.8475016" lon="6.1563900">
 <ele>161.000000</ele>
 <time>2009-07-31T06:00:52Z</time>
 <desc>Lat.=50.8475016, Long.=6.1563900, Alt.=161m, Speed=7Km/h, Course=32deg.</desc>
<extensions>
</extensions>
</trkpt>
<trkpt lat="50.8475300" lon="6.1564233">
 <ele>161.000000</ele>
 <time>2009-07-31T06:00:54Z</time>
 <desc>Lat.=50.8475300, Long.=6.1564233, Alt.=161m, Speed=7Km/h, Course=37deg.</desc>
<extensions>
</extensions>
</trkpt>
<trkpt lat="50.8475383" lon="6.1564433">
 <ele>161.000000</ele>
 <time>2009-07-31T06:00:55Z</time>
 <desc>Lat.=50.8475383, Long.=6.1564433, Alt.=161m, Speed=6Km/h, Course=57deg.</desc>
<extensions>
</extensions>
</trkpt>
<trkpt lat="50.8475366" lon="6.1564516">
 <ele>161.000000</ele>
 <time>2009-07-31T06:00:56Z</time>
 <desc>Lat.=50.8475366, Long.=6.1564516, Alt.=161m, Speed=2Km/h, Course=108deg.</desc>
<extensions>
</extensions>
</trkpt>
<trkpt lat="50.8475633" lon="6.1564816">
 <ele>161.000000</ele>
 <time>2009-07-31T06:00:58Z</time>
 <desc>Lat.=50.8475633, Long.=6.1564816, Alt.=161m, Speed=6Km/h, Course=35deg.</desc>
<extensions>
</extensions>
</trkpt>
<trkpt lat="50.8475816" lon="6.1564833">
 <ele>161.000000</ele>
 <time>2009-07-31T06:00:59Z</time>
 <desc>Lat.=50.8475816, Long.=6.1564833, Alt.=161m, Speed=7Km/h, Course=3deg.</desc>
<extensions>
</extensions>
</trkpt>
<trkpt lat="50.8476083" lon="6.1564933">
 <ele>161.000000</ele>
 <time>2009-07-31T06:01:01Z</time>
 <desc>Lat.=50.8476083, Long.=6.1564933, Alt.=161m, Speed=5Km/h, Course=13deg.</desc>
<extensions>
</extensions>
</trkpt>
<trkpt lat="50.8476216" lon="6.1564999">
 <ele>161.000000</ele>
 <time>2009-07-31T06:01:02Z</time>
 <desc>Lat.=50.8476216, Long.=6.1564999, Alt.=161m, Speed=5Km/h, Course=17deg.</desc>
<extensions>
</extensions>
</trkpt>
<trkpt lat="50.8476649" lon="6.1565083">
 <ele>161.000000</ele>
 <time>2009-07-31T06:01:05Z</time>
 <desc>Lat.=50.8476649, Long.=6.1565083, Alt.=161m, Speed=5Km/h, Course=7deg.</desc>
<extensions>
</extensions>
</trkpt>
<trkpt lat="50.8477000" lon="6.1565249">
 <ele>161.000000</ele>
 <time>2009-07-31T06:01:08Z</time>
 <desc>Lat.=50.8477000, Long.=6.1565249, Alt.=161m, Speed=4Km/h, Course=17deg.</desc>
<extensions>
</extensions>
</trkpt>
<trkpt lat="50.8477133" lon="6.1565316">
 <ele>161.000000</ele>
 <time>2009-07-31T06:01:09Z</time>
 <desc>Lat.=50.8477133, Long.=6.1565316, Alt.=161m, Speed=5Km/h, Course=18deg.</desc>
<extensions>
</extensions>
</trkpt>
<trkpt lat="50.8477333" lon="6.1565133">
 <ele>161.000000</ele>
 <time>2009-07-31T06:01:10Z</time>
 <desc>Lat.=50.8477333, Long.=6.1565133, Alt.=161m, Speed=9Km/h, Course=330deg.</desc>
<extensions>
</extensions>
</trkpt>
<trkpt lat="50.8477633" lon="6.1565016">
 <ele>161.000000</ele>
 <time>2009-07-31T06:01:12Z</time>
 <desc>Lat.=50.8477633, Long.=6.1565016, Alt.=161m, Speed=6Km/h, Course=346deg.</desc>
<extensions>
</extensions>
</trkpt>
<trkpt lat="50.8477749" lon="6.1565116">
 <ele>161.000000</ele>
 <time>2009-07-31T06:01:13Z</time>
 <desc>Lat.=50.8477749, Long.=6.1565116, Alt.=161m, Speed=5Km/h, Course=29deg.</desc>
<extensions>
</extensions>
</trkpt>
<trkpt lat="50.8477850" lon="6.1565249">
 <ele>161.000000</ele>
 <time>2009-07-31T06:01:14Z</time>
 <desc>Lat.=50.8477850, Long.=6.1565249, Alt.=161m, Speed=5Km/h, Course=40deg.</desc>
<extensions>
</extensions>
</trkpt>
<trkpt lat="50.8477950" lon="6.1565333">
 <ele>161.000000</ele>
 <time>2009-07-31T06:01:15Z</time>
 <desc>Lat.=50.8477950, Long.=6.1565333, Alt.=161m, Speed=4Km/h, Course=28deg.</desc>
<extensions>
</extensions>
</trkpt>
<trkpt lat="50.8478049" lon="6.1565466">
 <ele>161.000000</ele>
 <time>2009-07-31T06:01:16Z</time>
 <desc>Lat.=50.8478049, Long.=6.1565466, Alt.=161m, Speed=5Km/h, Course=40deg.</desc>
<extensions>
</extensions>
</trkpt>
<trkpt lat="50.8478216" lon="6.1565666">
 <ele>161.000000</ele>
 <time>2009-07-31T06:01:17Z</time>
 <desc>Lat.=50.8478216, Long.=6.1565666, Alt.=161m, Speed=8Km/h, Course=37deg.</desc>
<extensions>
</extensions>
</trkpt>
<trkpt lat="50.8478366" lon="6.1565766">
 <ele>161.000000</ele>
 <time>2009-07-31T06:01:18Z</time>
 <desc>Lat.=50.8478366, Long.=6.1565766, Alt.=161m, Speed=6Km/h, Course=23deg.</desc>
<extensions>
</extensions>
</trkpt>
<trkpt lat="50.8478499" lon="6.1565816">
 <ele>161.000000</ele>
 <time>2009-07-31T06:01:19Z</time>
 <desc>Lat.=50.8478499, Long.=6.1565816, Alt.=161m, Speed=5Km/h, Course=13deg.</desc>
<extensions>
</extensions>
</trkpt>
<trkpt lat="50.8478800" lon="6.1565816">
 <ele>161.000000</ele>
 <time>2009-07-31T06:01:21Z</time>
 <desc>Lat.=50.8478800, Long.=6.1565816, Alt.=161m, Speed=6Km/h, Course=0deg.</desc>
<extensions>
</extensions>
</trkpt>
<trkpt lat="50.8479216" lon="6.1566233">
 <ele>161.000000</ele>
 <time>2009-07-31T06:01:25Z</time>
 <desc>Lat.=50.8479216, Long.=6.1566233, Alt.=161m, Speed=4Km/h, Course=32deg.</desc>
<extensions>
</extensions>
</trkpt>
<trkpt lat="50.8479366" lon="6.1566199">
 <ele>161.000000</ele>
 <time>2009-07-31T06:01:26Z</time>
 <desc>Lat.=50.8479366, Long.=6.1566199, Alt.=161m, Speed=6Km/h, Course=352deg.</desc>
<extensions>
</extensions>
</trkpt>
<trkpt lat="50.8479483" lon="6.1566216">
 <ele>161.000000</ele>
 <time>2009-07-31T06:01:27Z</time>
 <desc>Lat.=50.8479483, Long.=6.1566216, Alt.=161m, Speed=4Km/h, Course=5deg.</desc>
<extensions>
</extensions>
</trkpt>
<trkpt lat="50.8479716" lon="6.1566433">
 <ele>161.000000</ele>
 <time>2009-07-31T06:01:29Z</time>
 <desc>Lat.=50.8479716, Long.=6.1566433, Alt.=161m, Speed=5Km/h, Course=30deg.</desc>
<extensions>
</extensions>
</trkpt>
<trkpt lat="50.8479849" lon="6.1566483">
 <ele>161.000000</ele>
 <time>2009-07-31T06:01:30Z</time>
 <desc>Lat.=50.8479849, Long.=6.1566483, Alt.=161m, Speed=5Km/h, Course=13deg.</desc>
<extensions>
</extensions>
</trkpt>
<trkpt lat="50.8479983" lon="6.1566549">
 <ele>161.000000</ele>
 <time>2009-07-31T06:01:31Z</time>
 <desc>Lat.=50.8479983, Long.=6.1566549, Alt.=161m, Speed=5Km/h, Course=17deg.</desc>
<extensions>
</extensions>
</trkpt>
<trkpt lat="50.8480283" lon="6.1566716">
 <ele>161.000000</ele>
 <time>2009-07-31T06:01:33Z</time>
 <desc>Lat.=50.8480283, Long.=6.1566716, Alt.=161m, Speed=6Km/h, Course=19deg.</desc>
<extensions>
</extensions>
</trkpt>
<trkpt lat="50.8480416" lon="6.1566766">
 <ele>161.000000</ele>
 <time>2009-07-31T06:01:34Z</time>
 <desc>Lat.=50.8480416, Long.=6.1566766, Alt.=161m, Speed=5Km/h, Course=13deg.</desc>
<extensions>
</extensions>
</trkpt>
<trkpt lat="50.8480583" lon="6.1567050">
 <ele>161.000000</ele>
 <time>2009-07-31T06:01:36Z</time>
 <desc>Lat.=50.8480583, Long.=6.1567050, Alt.=161m, Speed=4Km/h, Course=47deg.</desc>
<extensions>
</extensions>
</trkpt>
<trkpt lat="50.8480616" lon="6.1567216">
 <ele>161.000000</ele>
 <time>2009-07-31T06:01:37Z</time>
 <desc>Lat.=50.8480616, Long.=6.1567216, Alt.=161m, Speed=4Km/h, Course=73deg.</desc>
<extensions>
</extensions>
</trkpt>
<trkpt lat="50.8480699" lon="6.1567349">
 <ele>161.000000</ele>
 <time>2009-07-31T06:01:38Z</time>
 <desc>Lat.=50.8480699, Long.=6.1567349, Alt.=161m, Speed=4Km/h, Course=45deg.</desc>
<extensions>
</extensions>
</trkpt>
<trkpt lat="50.8480750" lon="6.1567699">
 <ele>161.000000</ele>
 <time>2009-07-31T06:01:40Z</time>
 <desc>Lat.=50.8480750, Long.=6.1567699, Alt.=161m, Speed=4Km/h, Course=77deg.</desc>
<extensions>
</extensions>
</trkpt>
<trkpt lat="50.8480933" lon="6.1568000">
 <ele>161.000000</ele>
 <time>2009-07-31T06:01:42Z</time>
 <desc>Lat.=50.8480933, Long.=6.1568000, Alt.=161m, Speed=5Km/h, Course=46deg.</desc>
<extensions>
</extensions>
</trkpt>
<trkpt lat="50.8481299" lon="6.1568516">
 <ele>161.000000</ele>
 <time>2009-07-31T06:01:46Z</time>
 <desc>Lat.=50.8481299, Long.=6.1568516, Alt.=161m, Speed=4Km/h, Course=42deg.</desc>
<extensions>
</extensions>
</trkpt>
<trkpt lat="50.8481549" lon="6.1568733">
 <ele>161.000000</ele>
 <time>2009-07-31T06:01:48Z</time>
 <desc>Lat.=50.8481549, Long.=6.1568733, Alt.=161m, Speed=5Km/h, Course=29deg.</desc>
<extensions>
</extensions>
</trkpt>
<trkpt lat="50.8481999" lon="6.1568700">
 <ele>161.000000</ele>
 <time>2009-07-31T06:01:50Z</time>
 <desc>Lat.=50.8481999, Long.=6.1568700, Alt.=161m, Speed=9Km/h, Course=357deg.</desc>
<extensions>
</extensions>
</trkpt>
<trkpt lat="50.8482083" lon="6.1568849">
 <ele>161.000000</ele>
 <time>2009-07-31T06:01:51Z</time>
 <desc>Lat.=50.8482083, Long.=6.1568849, Alt.=161m, Speed=5Km/h, Course=48deg.</desc>
<extensions>
</extensions>
</trkpt>
<trkpt lat="50.8482249" lon="6.1569299">
 <ele>161.000000</ele>
 <time>2009-07-31T06:01:53Z</time>
 <desc>Lat.=50.8482249, Long.=6.1569299, Alt.=161m, Speed=6Km/h, Course=60deg.</desc>
<extensions>
</extensions>
</trkpt>
<trkpt lat="50.8482333" lon="6.1569516">
 <ele>161.000000</ele>
 <time>2009-07-31T06:01:54Z</time>
 <desc>Lat.=50.8482333, Long.=6.1569516, Alt.=161m, Speed=6Km/h, Course=58deg.</desc>
<extensions>
</extensions>
</trkpt>
<trkpt lat="50.8482349" lon="6.1569733">
 <ele>160.000000</ele>
 <time>2009-07-31T06:01:55Z</time>
 <desc>Lat.=50.8482349, Long.=6.1569733, Alt.=160m, Speed=5Km/h, Course=83deg.</desc>
<extensions>
</extensions>
</trkpt>
<trkpt lat="50.8482783" lon="6.1569533">
 <ele>160.000000</ele>
 <time>2009-07-31T06:01:57Z</time>
 <desc>Lat.=50.8482783, Long.=6.1569533, Alt.=160m, Speed=9Km/h, Course=344deg.</desc>
<extensions>
</extensions>
</trkpt>
<trkpt lat="50.8482900" lon="6.1569549">
 <ele>160.000000</ele>
 <time>2009-07-31T06:01:58Z</time>
 <desc>Lat.=50.8482900, Long.=6.1569549, Alt.=160m, Speed=4Km/h, Course=5deg.</desc>
<extensions>
</extensions>
</trkpt>
<trkpt lat="50.8483000" lon="6.1569666">
 <ele>160.000000</ele>
 <time>2009-07-31T06:01:59Z</time>
 <desc>Lat.=50.8483000, Long.=6.1569666, Alt.=160m, Speed=4Km/h, Course=36deg.</desc>
<extensions>
</extensions>
</trkpt>
<trkpt lat="50.8483282" lon="6.1570249">
 <ele>159.000000</ele>
 <time>2009-07-31T06:02:03Z</time>
 <desc>Lat.=50.8483282, Long.=6.1570249, Alt.=159m, Speed=4Km/h, Course=53deg.</desc>
<extensions>
</extensions>
</trkpt>
<trkpt lat="50.8483483" lon="6.1570233">
 <ele>159.000000</ele>
 <time>2009-07-31T06:02:04Z</time>
 <desc>Lat.=50.8483483, Long.=6.1570233, Alt.=159m, Speed=8Km/h, Course=357deg.</desc>
<extensions>
</extensions>
</trkpt>
<trkpt lat="50.8483700" lon="6.1570416">
 <ele>159.000000</ele>
 <time>2009-07-31T06:02:06Z</time>
 <desc>Lat.=50.8483700, Long.=6.1570416, Alt.=159m, Speed=4Km/h, Course=28deg.</desc>
<extensions>
</extensions>
</trkpt>
<trkpt lat="50.8483716" lon="6.1570766">
 <ele>158.000000</ele>
 <time>2009-07-31T06:02:08Z</time>
 <desc>Lat.=50.8483716, Long.=6.1570766, Alt.=158m, Speed=4Km/h, Course=86deg.</desc>
<extensions>
</extensions>
</trkpt>
<trkpt lat="50.8483899" lon="6.1570966">
 <ele>158.000000</ele>
 <time>2009-07-31T06:02:10Z</time>
 <desc>Lat.=50.8483899, Long.=6.1570966, Alt.=158m, Speed=4Km/h, Course=35deg.</desc>
<extensions>
</extensions>
</trkpt>
<trkpt lat="50.8484300" lon="6.1571600">
 <ele>157.000000</ele>
 <time>2009-07-31T06:02:16Z</time>
 <desc>Lat.=50.8484300, Long.=6.1571600, Alt.=157m, Speed=3Km/h, Course=45deg.</desc>
<extensions>
</extensions>
</trkpt>
<trkpt lat="50.8484633" lon="6.1571399">
 <ele>157.000000</ele>
 <time>2009-07-31T06:02:19Z</time>
 <desc>Lat.=50.8484633, Long.=6.1571399, Alt.=157m, Speed=4Km/h, Course=339deg.</desc>
<extensions>
</extensions>
</trkpt>
<trkpt lat="50.8484666" lon="6.1571416">
 <ele>157.000000</ele>
 <time>2009-07-31T06:02:20Z</time>
 <desc>Lat.=50.8484666, Long.=6.1571416, Alt.=157m, Speed=1Km/h, Course=18deg.</desc>
<extensions>
</extensions>
</trkpt>
<trkpt lat="50.8484766" lon="6.1571333">
 <ele>157.000000</ele>
 <time>2009-07-31T06:02:22Z</time>
 <desc>Lat.=50.8484766, Long.=6.1571333, Alt.=157m, Speed=2Km/h, Course=332deg.</desc>
<extensions>
</extensions>
</trkpt>
<trkpt lat="50.8484850" lon="6.1571333">
 <ele>157.000000</ele>
 <time>2009-07-31T06:02:23Z</time>
 <desc>Lat.=50.8484850, Long.=6.1571333, Alt.=157m, Speed=3Km/h, Course=0deg.</desc>
<extensions>
</extensions>
</trkpt>
<trkpt lat="50.8484933" lon="6.1571449">
 <ele>157.000000</ele>
 <time>2009-07-31T06:02:33Z</time>
 <desc>Lat.=50.8484933, Long.=6.1571449, Alt.=157m, Speed=0Km/h, Course=41deg.</desc>
<extensions>
</extensions>
</trkpt>
<trkpt lat="50.8485066" lon="6.1571466">
 <ele>157.000000</ele>
 <time>2009-07-31T06:02:34Z</time>
 <desc>Lat.=50.8485066, Long.=6.1571466, Alt.=157m, Speed=5Km/h, Course=5deg.</desc>
<extensions>
</extensions>
</trkpt>
<trkpt lat="50.8485216" lon="6.1571549">
 <ele>157.000000</ele>
 <time>2009-07-31T06:02:35Z</time>
 <desc>Lat.=50.8485216, Long.=6.1571549, Alt.=157m, Speed=6Km/h, Course=19deg.</desc>
<extensions>
</extensions>
</trkpt>
<trkpt lat="50.8485349" lon="6.1571699">
 <ele>157.000000</ele>
 <time>2009-07-31T06:02:36Z</time>
 <desc>Lat.=50.8485349, Long.=6.1571699, Alt.=157m, Speed=6Km/h, Course=35deg.</desc>
<extensions>
</extensions>
</trkpt>
<trkpt lat="50.8485466" lon="6.1571850">
 <ele>157.000000</ele>
 <time>2009-07-31T06:02:37Z</time>
 <desc>Lat.=50.8485466, Long.=6.1571850, Alt.=157m, Speed=6Km/h, Course=39deg.</desc>
<extensions>
</extensions>
</trkpt>
<trkpt lat="50.8485650" lon="6.1572049">
 <ele>157.000000</ele>
 <time>2009-07-31T06:02:38Z</time>
 <desc>Lat.=50.8485650, Long.=6.1572049, Alt.=157m, Speed=8Km/h, Course=34deg.</desc>
<extensions>
</extensions>
</trkpt>
<trkpt lat="50.8485816" lon="6.1572149">
 <ele>157.000000</ele>
 <time>2009-07-31T06:02:39Z</time>
 <desc>Lat.=50.8485816, Long.=6.1572149, Alt.=157m, Speed=7Km/h, Course=21deg.</desc>
<extensions>
</extensions>
</trkpt>
<trkpt lat="50.8486250" lon="6.1572383">
 <ele>157.000000</ele>
 <time>2009-07-31T06:02:42Z</time>
 <desc>Lat.=50.8486250, Long.=6.1572383, Alt.=157m, Speed=6Km/h, Course=19deg.</desc>
<extensions>
</extensions>
</trkpt>
<trkpt lat="50.8486400" lon="6.1572483">
 <ele>157.000000</ele>
 <time>2009-07-31T06:02:43Z</time>
 <desc>Lat.=50.8486400, Long.=6.1572483, Alt.=157m, Speed=6Km/h, Course=23deg.</desc>
<extensions>
</extensions>
</trkpt>
<trkpt lat="50.8486566" lon="6.1572583">
 <ele>157.000000</ele>
 <time>2009-07-31T06:02:44Z</time>
 <desc>Lat.=50.8486566, Long.=6.1572583, Alt.=157m, Speed=7Km/h, Course=21deg.</desc>
<extensions>
</extensions>
</trkpt>
<trkpt lat="50.8486716" lon="6.1572666">
 <ele>157.000000</ele>
 <time>2009-07-31T06:02:45Z</time>
 <desc>Lat.=50.8486716, Long.=6.1572666, Alt.=157m, Speed=6Km/h, Course=19deg.</desc>
<extensions>
</extensions>
</trkpt>
<trkpt lat="50.8486899" lon="6.1572666">
 <ele>157.000000</ele>
 <time>2009-07-31T06:02:46Z</time>
 <desc>Lat.=50.8486899, Long.=6.1572666, Alt.=157m, Speed=7Km/h, Course=0deg.</desc>
<extensions>
</extensions>
</trkpt>
<trkpt lat="50.8487383" lon="6.1572833">
 <ele>157.000000</ele>
 <time>2009-07-31T06:02:49Z</time>
 <desc>Lat.=50.8487383, Long.=6.1572833, Alt.=157m, Speed=6Km/h, Course=12deg.</desc>
<extensions>
</extensions>
</trkpt>
<trkpt lat="50.8487416" lon="6.1573033">
 <ele>157.000000</ele>
 <time>2009-07-31T06:02:50Z</time>
 <desc>Lat.=50.8487416, Long.=6.1573033, Alt.=157m, Speed=5Km/h, Course=75deg.</desc>
<extensions>
</extensions>
</trkpt>
<trkpt lat="50.8487533" lon="6.1573116">
 <ele>157.000000</ele>
 <time>2009-07-31T06:02:51Z</time>
 <desc>Lat.=50.8487533, Long.=6.1573116, Alt.=157m, Speed=5Km/h, Course=24deg.</desc>
<extensions>
</extensions>
</trkpt>
<trkpt lat="50.8487650" lon="6.1573183">
 <ele>157.000000</ele>
 <time>2009-07-31T06:02:52Z</time>
 <desc>Lat.=50.8487650, Long.=6.1573183, Alt.=157m, Speed=4Km/h, Course=20deg.</desc>
<extensions>
</extensions>
</trkpt>
<trkpt lat="50.8487750" lon="6.1573250">
 <ele>157.000000</ele>
 <time>2009-07-31T06:02:53Z</time>
 <desc>Lat.=50.8487750, Long.=6.1573250, Alt.=157m, Speed=4Km/h, Course=23deg.</desc>
<extensions>
</extensions>
</trkpt>
<trkpt lat="50.8487849" lon="6.1573366">
 <ele>157.000000</ele>
 <time>2009-07-31T06:02:54Z</time>
 <desc>Lat.=50.8487849, Long.=6.1573366, Alt.=157m, Speed=4Km/h, Course=36deg.</desc>
<extensions>
</extensions>
</trkpt>
<trkpt lat="50.8487983" lon="6.1573449">
 <ele>157.000000</ele>
 <time>2009-07-31T06:02:55Z</time>
 <desc>Lat.=50.8487983, Long.=6.1573449, Alt.=157m, Speed=5Km/h, Course=21deg.</desc>
<extensions>
</extensions>
</trkpt>
<trkpt lat="50.8488149" lon="6.1573399">
 <ele>157.000000</ele>
 <time>2009-07-31T06:02:56Z</time>
 <desc>Lat.=50.8488149, Long.=6.1573399, Alt.=157m, Speed=6Km/h, Course=349deg.</desc>
<extensions>
</extensions>
</trkpt>
<trkpt lat="50.8488283" lon="6.1573449">
 <ele>157.000000</ele>
 <time>2009-07-31T06:02:57Z</time>
 <desc>Lat.=50.8488283, Long.=6.1573449, Alt.=157m, Speed=5Km/h, Course=13deg.</desc>
<extensions>
</extensions>
</trkpt>
<trkpt lat="50.8488416" lon="6.1573700">
 <ele>157.000000</ele>
 <time>2009-07-31T06:02:59Z</time>
 <desc>Lat.=50.8488416, Long.=6.1573700, Alt.=157m, Speed=4Km/h, Course=50deg.</desc>
<extensions>
</extensions>
</trkpt>
<trkpt lat="50.8488483" lon="6.1573850">
 <ele>157.000000</ele>
 <time>2009-07-31T06:03:00Z</time>
 <desc>Lat.=50.8488483, Long.=6.1573850, Alt.=157m, Speed=4Km/h, Course=55deg.</desc>
<extensions>
</extensions>
</trkpt>
<trkpt lat="50.8488666" lon="6.1573916">
 <ele>157.000000</ele>
 <time>2009-07-31T06:03:02Z</time>
 <desc>Lat.=50.8488666, Long.=6.1573916, Alt.=157m, Speed=3Km/h, Course=13deg.</desc>
<extensions>
</extensions>
</trkpt>
<trkpt lat="50.8488999" lon="6.1573950">
 <ele>157.000000</ele>
 <time>2009-07-31T06:03:04Z</time>
 <desc>Lat.=50.8488999, Long.=6.1573950, Alt.=157m, Speed=6Km/h, Course=4deg.</desc>
<extensions>
</extensions>
</trkpt>
<trkpt lat="50.8489133" lon="6.1574349">
 <ele>157.000000</ele>
 <time>2009-07-31T06:03:06Z</time>
 <desc>Lat.=50.8489133, Long.=6.1574349, Alt.=157m, Speed=5Km/h, Course=62deg.</desc>
<extensions>
</extensions>
</trkpt>
<trkpt lat="50.8489200" lon="6.1574533">
 <ele>157.000000</ele>
 <time>2009-07-31T06:03:07Z</time>
 <desc>Lat.=50.8489200, Long.=6.1574533, Alt.=157m, Speed=5Km/h, Course=60deg.</desc>
<extensions>
</extensions>
</trkpt>
<trkpt lat="50.8489549" lon="6.1574599">
 <ele>157.000000</ele>
 <time>2009-07-31T06:03:09Z</time>
 <desc>Lat.=50.8489549, Long.=6.1574599, Alt.=157m, Speed=7Km/h, Course=7deg.</desc>
<extensions>
</extensions>
</trkpt>
<trkpt lat="50.8489649" lon="6.1574733">
 <ele>157.000000</ele>
 <time>2009-07-31T06:03:10Z</time>
 <desc>Lat.=50.8489649, Long.=6.1574733, Alt.=157m, Speed=5Km/h, Course=40deg.</desc>
<extensions>
</extensions>
</trkpt>
<trkpt lat="50.8490066" lon="6.1575049">
 <ele>156.000000</ele>
 <time>2009-07-31T06:03:13Z</time>
 <desc>Lat.=50.8490066, Long.=6.1575049, Alt.=156m, Speed=6Km/h, Course=26deg.</desc>
<extensions>
</extensions>
</trkpt>
<trkpt lat="50.8490166" lon="6.1575166">
 <ele>156.000000</ele>
 <time>2009-07-31T06:03:14Z</time>
 <desc>Lat.=50.8490166, Long.=6.1575166, Alt.=156m, Speed=4Km/h, Course=36deg.</desc>
<extensions>
</extensions>
</trkpt>
<trkpt lat="50.8490733" lon="6.1575266">
 <ele>156.000000</ele>
 <time>2009-07-31T06:03:19Z</time>
 <desc>Lat.=50.8490733, Long.=6.1575266, Alt.=156m, Speed=4Km/h, Course=6deg.</desc>
<extensions>
</extensions>
</trkpt>
<trkpt lat="50.8490983" lon="6.1575600">
 <ele>156.000000</ele>
 <time>2009-07-31T06:03:22Z</time>
 <desc>Lat.=50.8490983, Long.=6.1575600, Alt.=156m, Speed=4Km/h, Course=40deg.</desc>
<extensions>
</extensions>
</trkpt>
<trkpt lat="50.8491333" lon="6.1576066">
 <ele>156.000000</ele>
 <time>2009-07-31T06:03:26Z</time>
 <desc>Lat.=50.8491333, Long.=6.1576066, Alt.=156m, Speed=4Km/h, Course=40deg.</desc>
<extensions>
</extensions>
</trkpt>
<trkpt lat="50.8491400" lon="6.1576133">
 <ele>156.000000</ele>
 <time>2009-07-31T06:03:27Z</time>
 <desc>Lat.=50.8491400, Long.=6.1576133, Alt.=156m, Speed=3Km/h, Course=32deg.</desc>
<extensions>
</extensions>
</trkpt>
<trkpt lat="50.8491883" lon="6.1576466">
 <ele>156.000000</ele>
 <time>2009-07-31T06:03:31Z</time>
 <desc>Lat.=50.8491883, Long.=6.1576466, Alt.=156m, Speed=5Km/h, Course=24deg.</desc>
<extensions>
</extensions>
</trkpt>
<trkpt lat="50.8492049" lon="6.1576466">
 <ele>156.000000</ele>
 <time>2009-07-31T06:03:32Z</time>
 <desc>Lat.=50.8492049, Long.=6.1576466, Alt.=156m, Speed=6Km/h, Course=0deg.</desc>
<extensions>
</extensions>
</trkpt>
<trkpt lat="50.8492250" lon="6.1576599">
 <ele>156.000000</ele>
 <time>2009-07-31T06:03:34Z</time>
 <desc>Lat.=50.8492250, Long.=6.1576599, Alt.=156m, Speed=4Km/h, Course=23deg.</desc>
<extensions>
</extensions>
</trkpt>
<trkpt lat="50.8492433" lon="6.1576633">
 <ele>156.000000</ele>
 <time>2009-07-31T06:03:35Z</time>
 <desc>Lat.=50.8492433, Long.=6.1576633, Alt.=156m, Speed=7Km/h, Course=7deg.</desc>
<extensions>
</extensions>
</trkpt>
<trkpt lat="50.8492599" lon="6.1576699">
 <ele>156.000000</ele>
 <time>2009-07-31T06:03:36Z</time>
 <desc>Lat.=50.8492599, Long.=6.1576699, Alt.=156m, Speed=6Km/h, Course=14deg.</desc>
<extensions>
</extensions>
</trkpt>
<trkpt lat="50.8492816" lon="6.1576633">
 <ele>156.000000</ele>
 <time>2009-07-31T06:03:37Z</time>
 <desc>Lat.=50.8492816, Long.=6.1576633, Alt.=156m, Speed=8Km/h, Course=349deg.</desc>
<extensions>
</extensions>
</trkpt>
<trkpt lat="50.8493083" lon="6.1576916">
 <ele>156.000000</ele>
 <time>2009-07-31T06:03:40Z</time>
 <desc>Lat.=50.8493083, Long.=6.1576916, Alt.=156m, Speed=4Km/h, Course=34deg.</desc>
<extensions>
</extensions>
</trkpt>
<trkpt lat="50.8493366" lon="6.1577683">
 <ele>155.000000</ele>
 <time>2009-07-31T06:03:45Z</time>
 <desc>Lat.=50.8493366, Long.=6.1577683, Alt.=155m, Speed=4Km/h, Course=60deg.</desc>
<extensions>
</extensions>
</trkpt>
<trkpt lat="50.8493566" lon="6.1578016">
 <ele>154.000000</ele>
 <time>2009-07-31T06:03:47Z</time>
 <desc>Lat.=50.8493566, Long.=6.1578016, Alt.=154m, Speed=5Km/h, Course=46deg.</desc>
<extensions>
</extensions>
</trkpt>
<trkpt lat="50.8493666" lon="6.1578150">
 <ele>154.000000</ele>
 <time>2009-07-31T06:03:48Z</time>
 <desc>Lat.=50.8493666, Long.=6.1578150, Alt.=154m, Speed=5Km/h, Course=40deg.</desc>
<extensions>
</extensions>
</trkpt>
<trkpt lat="50.8494049" lon="6.1578583">
 <ele>154.000000</ele>
 <time>2009-07-31T06:03:52Z</time>
 <desc>Lat.=50.8494049, Long.=6.1578583, Alt.=154m, Speed=4Km/h, Course=36deg.</desc>
<extensions>
</extensions>
</trkpt>
<trkpt lat="50.8494449" lon="6.1578666">
 <ele>154.000000</ele>
 <time>2009-07-31T06:03:54Z</time>
 <desc>Lat.=50.8494449, Long.=6.1578666, Alt.=154m, Speed=8Km/h, Course=7deg.</desc>
<extensions>
</extensions>
</trkpt>
<trkpt lat="50.8494599" lon="6.1578666">
 <ele>154.000000</ele>
 <time>2009-07-31T06:03:55Z</time>
 <desc>Lat.=50.8494599, Long.=6.1578666, Alt.=154m, Speed=6Km/h, Course=0deg.</desc>
<extensions>
</extensions>
</trkpt>
<trkpt lat="50.8494883" lon="6.1578683">
 <ele>154.000000</ele>
 <time>2009-07-31T06:03:57Z</time>
 <desc>Lat.=50.8494883, Long.=6.1578683, Alt.=154m, Speed=5Km/h, Course=2deg.</desc>
<extensions>
</extensions>
</trkpt>
<trkpt lat="50.8495033" lon="6.1578699">
 <ele>154.000000</ele>
 <time>2009-07-31T06:03:58Z</time>
 <desc>Lat.=50.8495033, Long.=6.1578699, Alt.=154m, Speed=6Km/h, Course=4deg.</desc>
<extensions>
</extensions>
</trkpt>
<trkpt lat="50.8495166" lon="6.1578699">
 <ele>154.000000</ele>
 <time>2009-07-31T06:03:59Z</time>
 <desc>Lat.=50.8495166, Long.=6.1578699, Alt.=154m, Speed=5Km/h, Course=0deg.</desc>
<extensions>
</extensions>
</trkpt>
<trkpt lat="50.8495650" lon="6.1578983">
 <ele>154.000000</ele>
 <time>2009-07-31T06:04:03Z</time>
 <desc>Lat.=50.8495650, Long.=6.1578983, Alt.=154m, Speed=5Km/h, Course=20deg.</desc>
<extensions>
</extensions>
</trkpt>
<trkpt lat="50.8495849" lon="6.1579033">
 <ele>154.000000</ele>
 <time>2009-07-31T06:04:04Z</time>
 <desc>Lat.=50.8495849, Long.=6.1579033, Alt.=154m, Speed=8Km/h, Course=9deg.</desc>
<extensions>
</extensions>
</trkpt>
<trkpt lat="50.8496066" lon="6.1579133">
 <ele>154.000000</ele>
 <time>2009-07-31T06:04:06Z</time>
 <desc>Lat.=50.8496066, Long.=6.1579133, Alt.=154m, Speed=4Km/h, Course=16deg.</desc>
<extensions>
</extensions>
</trkpt>
<trkpt lat="50.8496216" lon="6.1579149">
 <ele>154.000000</ele>
 <time>2009-07-31T06:04:07Z</time>
 <desc>Lat.=50.8496216, Long.=6.1579149, Alt.=154m, Speed=6Km/h, Course=4deg.</desc>
<extensions>
</extensions>
</trkpt>
<trkpt lat="50.8496450" lon="6.1579366">
 <ele>154.000000</ele>
 <time>2009-07-31T06:04:09Z</time>
 <desc>Lat.=50.8496450, Long.=6.1579366, Alt.=154m, Speed=5Km/h, Course=30deg.</desc>
<extensions>
</extensions>
</trkpt>
<trkpt lat="50.8496566" lon="6.1579450">
 <ele>154.000000</ele>
 <time>2009-07-31T06:04:10Z</time>
 <desc>Lat.=50.8496566, Long.=6.1579450, Alt.=154m, Speed=5Km/h, Course=25deg.</desc>
<extensions>
</extensions>
</trkpt>
<trkpt lat="50.8496699" lon="6.1579499">
 <ele>154.000000</ele>
 <time>2009-07-31T06:04:11Z</time>
 <desc>Lat.=50.8496699, Long.=6.1579499, Alt.=154m, Speed=5Km/h, Course=13deg.</desc>
<extensions>
</extensions>
</trkpt>
<trkpt lat="50.8496866" lon="6.1579466">
 <ele>154.000000</ele>
 <time>2009-07-31T06:04:12Z</time>
 <desc>Lat.=50.8496866, Long.=6.1579466, Alt.=154m, Speed=6Km/h, Course=353deg.</desc>
<extensions>
</extensions>
</trkpt>
<trkpt lat="50.8497016" lon="6.1579416">
 <ele>154.000000</ele>
 <time>2009-07-31T06:04:13Z</time>
 <desc>Lat.=50.8497016, Long.=6.1579416, Alt.=154m, Speed=6Km/h, Course=348deg.</desc>
<extensions>
</extensions>
</trkpt>
<trkpt lat="50.8497133" lon="6.1579483">
 <ele>154.000000</ele>
 <time>2009-07-31T06:04:14Z</time>
 <desc>Lat.=50.8497133, Long.=6.1579483, Alt.=154m, Speed=4Km/h, Course=20deg.</desc>
<extensions>
</extensions>
</trkpt>
<trkpt lat="50.8497199" lon="6.1579566">
 <ele>154.000000</ele>
 <time>2009-07-31T06:04:15Z</time>
 <desc>Lat.=50.8497199, Long.=6.1579566, Alt.=154m, Speed=3Km/h, Course=38deg.</desc>
<extensions>
</extensions>
</trkpt>
<trkpt lat="50.8497300" lon="6.1579649">
 <ele>154.000000</ele>
 <time>2009-07-31T06:04:16Z</time>
 <desc>Lat.=50.8497300, Long.=6.1579649, Alt.=154m, Speed=4Km/h, Course=27deg.</desc>
<extensions>
</extensions>
</trkpt>
<trkpt lat="50.8497383" lon="6.1579866">
 <ele>154.000000</ele>
 <time>2009-07-31T06:04:17Z</time>
 <desc>Lat.=50.8497383, Long.=6.1579866, Alt.=154m, Speed=6Km/h, Course=59deg.</desc>
<extensions>
</extensions>
</trkpt>
<trkpt lat="50.8497483" lon="6.1580050">
 <ele>154.000000</ele>
 <time>2009-07-31T06:04:18Z</time>
 <desc>Lat.=50.8497483, Long.=6.1580050, Alt.=154m, Speed=6Km/h, Course=49deg.</desc>
<extensions>
</extensions>
</trkpt>
<trkpt lat="50.8497716" lon="6.1580299">
 <ele>155.000000</ele>
 <time>2009-07-31T06:04:20Z</time>
 <desc>Lat.=50.8497716, Long.=6.1580299, Alt.=155m, Speed=5Km/h, Course=34deg.</desc>
<extensions>
</extensions>
</trkpt>
<trkpt lat="50.8497850" lon="6.1580283">
 <ele>155.000000</ele>
 <time>2009-07-31T06:04:21Z</time>
 <desc>Lat.=50.8497850, Long.=6.1580283, Alt.=155m, Speed=5Km/h, Course=356deg.</desc>
<extensions>
</extensions>
</trkpt>
<trkpt lat="50.8497966" lon="6.1580283">
 <ele>155.000000</ele>
 <time>2009-07-31T06:04:22Z</time>
 <desc>Lat.=50.8497966, Long.=6.1580283, Alt.=155m, Speed=4Km/h, Course=0deg.</desc>
<extensions>
</extensions>
</trkpt>
<trkpt lat="50.8498249" lon="6.1580516">
 <ele>155.000000</ele>
 <time>2009-07-31T06:04:40Z</time>
 <desc>Lat.=50.8498249, Long.=6.1580516, Alt.=155m, Speed=0Km/h, Course=27deg.</desc>
<extensions>
</extensions>
</trkpt>
<trkpt lat="50.8498616" lon="6.1580549">
 <ele>155.000000</ele>
 <time>2009-07-31T06:04:51Z</time>
 <desc>Lat.=50.8498616, Long.=6.1580549, Alt.=155m, Speed=1Km/h, Course=3deg.</desc>
<extensions>
</extensions>
</trkpt>
<trkpt lat="50.8498949" lon="6.1580366">
 <ele>155.000000</ele>
 <time>2009-07-31T06:04:53Z</time>
 <desc>Lat.=50.8498949, Long.=6.1580366, Alt.=155m, Speed=7Km/h, Course=341deg.</desc>
<extensions>
</extensions>
</trkpt>
<trkpt lat="50.8499199" lon="6.1580400">
 <ele>155.000000</ele>
 <time>2009-07-31T06:04:55Z</time>
 <desc>Lat.=50.8499199, Long.=6.1580400, Alt.=155m, Speed=5Km/h, Course=5deg.</desc>
<extensions>
</extensions>
</trkpt>
<trkpt lat="50.8499316" lon="6.1580466">
 <ele>155.000000</ele>
 <time>2009-07-31T06:04:56Z</time>
 <desc>Lat.=50.8499316, Long.=6.1580466, Alt.=155m, Speed=4Km/h, Course=20deg.</desc>
<extensions>
</extensions>
</trkpt>
<trkpt lat="50.8499550" lon="6.1580683">
 <ele>155.000000</ele>
 <time>2009-07-31T06:04:57Z</time>
 <desc>Lat.=50.8499550, Long.=6.1580683, Alt.=155m, Speed=10Km/h, Course=30deg.</desc>
<extensions>
</extensions>
</trkpt>
<trkpt lat="50.8499683" lon="6.1580716">
 <ele>155.000000</ele>
 <time>2009-07-31T06:04:58Z</time>
 <desc>Lat.=50.8499683, Long.=6.1580716, Alt.=155m, Speed=5Km/h, Course=9deg.</desc>
<extensions>
</extensions>
</trkpt>
<trkpt lat="50.8499749" lon="6.1580883">
 <ele>155.000000</ele>
 <time>2009-07-31T06:04:59Z</time>
 <desc>Lat.=50.8499749, Long.=6.1580883, Alt.=155m, Speed=4Km/h, Course=58deg.</desc>
<extensions>
</extensions>
</trkpt>
<trkpt lat="50.8499866" lon="6.1580983">
 <ele>155.000000</ele>
 <time>2009-07-31T06:05:00Z</time>
 <desc>Lat.=50.8499866, Long.=6.1580983, Alt.=155m, Speed=5Km/h, Course=28deg.</desc>
<extensions>
</extensions>
</trkpt>
<trkpt lat="50.8499933" lon="6.1581049">
 <ele>155.000000</ele>
 <time>2009-07-31T06:05:01Z</time>
 <desc>Lat.=50.8499933, Long.=6.1581049, Alt.=155m, Speed=3Km/h, Course=32deg.</desc>
<extensions>
</extensions>
</trkpt>
<trkpt lat="50.8500033" lon="6.1581149">
 <ele>155.000000</ele>
 <time>2009-07-31T06:05:02Z</time>
 <desc>Lat.=50.8500033, Long.=6.1581149, Alt.=155m, Speed=4Km/h, Course=32deg.</desc>
<extensions>
</extensions>
</trkpt>
<trkpt lat="50.8500100" lon="6.1581233">
 <ele>155.000000</ele>
 <time>2009-07-31T06:05:03Z</time>
 <desc>Lat.=50.8500100, Long.=6.1581233, Alt.=155m, Speed=3Km/h, Course=38deg.</desc>
<extensions>
</extensions>
</trkpt>
<trkpt lat="50.8500333" lon="6.1581399">
 <ele>155.000000</ele>
 <time>2009-07-31T06:05:06Z</time>
 <desc>Lat.=50.8500333, Long.=6.1581399, Alt.=155m, Speed=3Km/h, Course=24deg.</desc>
<extensions>
</extensions>
</trkpt>
<trkpt lat="50.8500416" lon="6.1581483">
 <ele>155.000000</ele>
 <time>2009-07-31T06:05:07Z</time>
 <desc>Lat.=50.8500416, Long.=6.1581483, Alt.=155m, Speed=3Km/h, Course=33deg.</desc>
<extensions>
</extensions>
</trkpt>
<trkpt lat="50.8500516" lon="6.1581649">
 <ele>155.000000</ele>
 <time>2009-07-31T06:05:08Z</time>
 <desc>Lat.=50.8500516, Long.=6.1581649, Alt.=155m, Speed=5Km/h, Course=46deg.</desc>
<extensions>
</extensions>
</trkpt>
<trkpt lat="50.8500716" lon="6.1582049">
 <ele>155.000000</ele>
 <time>2009-07-31T06:05:10Z</time>
 <desc>Lat.=50.8500716, Long.=6.1582049, Alt.=155m, Speed=6Km/h, Course=52deg.</desc>
<extensions>
</extensions>
</trkpt>
<trkpt lat="50.8501283" lon="6.1582433">
 <ele>154.000000</ele>
 <time>2009-07-31T06:05:15Z</time>
 <desc>Lat.=50.8501283, Long.=6.1582433, Alt.=154m, Speed=4Km/h, Course=23deg.</desc>
<extensions>
</extensions>
</trkpt>
<trkpt lat="50.8501483" lon="6.1582683">
 <ele>154.000000</ele>
 <time>2009-07-31T06:05:17Z</time>
 <desc>Lat.=50.8501483, Long.=6.1582683, Alt.=154m, Speed=5Km/h, Course=38deg.</desc>
<extensions>
</extensions>
</trkpt>
<trkpt lat="50.8501733" lon="6.1582799">
 <ele>154.000000</ele>
 <time>2009-07-31T06:05:19Z</time>
 <desc>Lat.=50.8501733, Long.=6.1582799, Alt.=154m, Speed=5Km/h, Course=16deg.</desc>
<extensions>
</extensions>
</trkpt>
<trkpt lat="50.8501866" lon="6.1582883">
 <ele>154.000000</ele>
 <time>2009-07-31T06:05:20Z</time>
 <desc>Lat.=50.8501866, Long.=6.1582883, Alt.=154m, Speed=5Km/h, Course=22deg.</desc>
<extensions>
</extensions>
</trkpt>
<trkpt lat="50.8501966" lon="6.1582933">
 <ele>154.000000</ele>
 <time>2009-07-31T06:05:21Z</time>
 <desc>Lat.=50.8501966, Long.=6.1582933, Alt.=154m, Speed=4Km/h, Course=18deg.</desc>
<extensions>
</extensions>
</trkpt>
<trkpt lat="50.8502083" lon="6.1583049">
 <ele>154.000000</ele>
 <time>2009-07-31T06:05:22Z</time>
 <desc>Lat.=50.8502083, Long.=6.1583049, Alt.=154m, Speed=5Km/h, Course=32deg.</desc>
<extensions>
</extensions>
</trkpt>
<trkpt lat="50.8502183" lon="6.1583133">
 <ele>154.000000</ele>
 <time>2009-07-31T06:05:23Z</time>
 <desc>Lat.=50.8502183, Long.=6.1583133, Alt.=154m, Speed=4Km/h, Course=28deg.</desc>
<extensions>
</extensions>
</trkpt>
<trkpt lat="50.8502449" lon="6.1583300">
 <ele>154.000000</ele>
 <time>2009-07-31T06:05:25Z</time>
 <desc>Lat.=50.8502449, Long.=6.1583300, Alt.=154m, Speed=5Km/h, Course=22deg.</desc>
<extensions>
</extensions>
</trkpt>
<trkpt lat="50.8502533" lon="6.1583433">
 <ele>154.000000</ele>
 <time>2009-07-31T06:05:26Z</time>
 <desc>Lat.=50.8502533, Long.=6.1583433, Alt.=154m, Speed=4Km/h, Course=45deg.</desc>
<extensions>
</extensions>
</trkpt>
<trkpt lat="50.8502699" lon="6.1583866">
 <ele>154.000000</ele>
 <time>2009-07-31T06:05:28Z</time>
 <desc>Lat.=50.8502699, Long.=6.1583866, Alt.=154m, Speed=6Km/h, Course=59deg.</desc>
<extensions>
</extensions>
</trkpt>
<trkpt lat="50.8502783" lon="6.1584033">
 <ele>154.000000</ele>
 <time>2009-07-31T06:05:29Z</time>
 <desc>Lat.=50.8502783, Long.=6.1584033, Alt.=154m, Speed=5Km/h, Course=51deg.</desc>
<extensions>
</extensions>
</trkpt>
<trkpt lat="50.8502900" lon="6.1584150">
 <ele>154.000000</ele>
 <time>2009-07-31T06:05:30Z</time>
 <desc>Lat.=50.8502900, Long.=6.1584150, Alt.=154m, Speed=5Km/h, Course=32deg.</desc>
<extensions>
</extensions>
</trkpt>
<trkpt lat="50.8502983" lon="6.1584299">
 <ele>154.000000</ele>
 <time>2009-07-31T06:05:31Z</time>
 <desc>Lat.=50.8502983, Long.=6.1584299, Alt.=154m, Speed=5Km/h, Course=49deg.</desc>
<extensions>
</extensions>
</trkpt>
<trkpt lat="50.8503133" lon="6.1584366">
 <ele>154.000000</ele>
 <time>2009-07-31T06:05:32Z</time>
 <desc>Lat.=50.8503133, Long.=6.1584366, Alt.=154m, Speed=6Km/h, Course=16deg.</desc>
<extensions>
</extensions>
</trkpt>
<trkpt lat="50.8503233" lon="6.1584466">
 <ele>154.000000</ele>
 <time>2009-07-31T06:05:33Z</time>
 <desc>Lat.=50.8503233, Long.=6.1584466, Alt.=154m, Speed=4Km/h, Course=32deg.</desc>
<extensions>
</extensions>
</trkpt>
<trkpt lat="50.8503366" lon="6.1584583">
 <ele>154.000000</ele>
 <time>2009-07-31T06:05:34Z</time>
 <desc>Lat.=50.8503366, Long.=6.1584583, Alt.=154m, Speed=6Km/h, Course=29deg.</desc>
<extensions>
</extensions>
</trkpt>
<trkpt lat="50.8503500" lon="6.1584716">
 <ele>154.000000</ele>
 <time>2009-07-31T06:05:35Z</time>
 <desc>Lat.=50.8503500, Long.=6.1584716, Alt.=154m, Speed=6Km/h, Course=32deg.</desc>
<extensions>
</extensions>
</trkpt>
<trkpt lat="50.8503866" lon="6.1585066">
 <ele>154.000000</ele>
 <time>2009-07-31T06:05:38Z</time>
 <desc>Lat.=50.8503866, Long.=6.1585066, Alt.=154m, Speed=5Km/h, Course=31deg.</desc>
<extensions>
</extensions>
</trkpt>
<trkpt lat="50.8504033" lon="6.1585349">
 <ele>154.000000</ele>
 <time>2009-07-31T06:05:40Z</time>
 <desc>Lat.=50.8504033, Long.=6.1585349, Alt.=154m, Speed=4Km/h, Course=47deg.</desc>
<extensions>
</extensions>
</trkpt>
<trkpt lat="50.8504450" lon="6.1585483">
 <ele>154.000000</ele>
 <time>2009-07-31T06:05:43Z</time>
 <desc>Lat.=50.8504450, Long.=6.1585483, Alt.=154m, Speed=5Km/h, Course=11deg.</desc>
<extensions>
</extensions>
</trkpt>
<trkpt lat="50.8504949" lon="6.1585733">
 <ele>154.000000</ele>
 <time>2009-07-31T06:05:47Z</time>
 <desc>Lat.=50.8504949, Long.=6.1585733, Alt.=154m, Speed=5Km/h, Course=18deg.</desc>
<extensions>
</extensions>
</trkpt>
<trkpt lat="50.8505000" lon="6.1585933">
 <ele>154.000000</ele>
 <time>2009-07-31T06:05:48Z</time>
 <desc>Lat.=50.8505000, Long.=6.1585933, Alt.=154m, Speed=5Km/h, Course=68deg.</desc>
<extensions>
</extensions>
</trkpt>
<trkpt lat="50.8505216" lon="6.1586099">
 <ele>154.000000</ele>
 <time>2009-07-31T06:05:50Z</time>
 <desc>Lat.=50.8505216, Long.=6.1586099, Alt.=154m, Speed=4Km/h, Course=26deg.</desc>
<extensions>
</extensions>
</trkpt>
<trkpt lat="50.8505450" lon="6.1586333">
 <ele>154.000000</ele>
 <time>2009-07-31T06:05:52Z</time>
 <desc>Lat.=50.8505450, Long.=6.1586333, Alt.=154m, Speed=5Km/h, Course=32deg.</desc>
<extensions>
</extensions>
</trkpt>
<trkpt lat="50.8505733" lon="6.1586199">
 <ele>154.000000</ele>
 <time>2009-07-31T06:05:53Z</time>
 <desc>Lat.=50.8505733, Long.=6.1586199, Alt.=154m, Speed=11Km/h, Course=343deg.</desc>
<extensions>
</extensions>
</trkpt>
<trkpt lat="50.8505949" lon="6.1586066">
 <ele>153.000000</ele>
 <time>2009-07-31T06:05:54Z</time>
 <desc>Lat.=50.8505949, Long.=6.1586066, Alt.=153m, Speed=9Km/h, Course=339deg.</desc>
<extensions>
</extensions>
</trkpt>
<trkpt lat="50.8505966" lon="6.1586333">
 <ele>153.000000</ele>
 <time>2009-07-31T06:05:55Z</time>
 <desc>Lat.=50.8505966, Long.=6.1586333, Alt.=153m, Speed=6Km/h, Course=84deg.</desc>
<extensions>
</extensions>
</trkpt>
<trkpt lat="50.8506000" lon="6.1586483">
 <ele>153.000000</ele>
 <time>2009-07-31T06:05:56Z</time>
 <desc>Lat.=50.8506000, Long.=6.1586483, Alt.=153m, Speed=4Km/h, Course=70deg.</desc>
<extensions>
</extensions>
</trkpt>
<trkpt lat="50.8506216" lon="6.1586516">
 <ele>154.000000</ele>
 <time>2009-07-31T06:05:58Z</time>
 <desc>Lat.=50.8506216, Long.=6.1586516, Alt.=154m, Speed=4Km/h, Course=6deg.</desc>
<extensions>
</extensions>
</trkpt>
<trkpt lat="50.8506383" lon="6.1586583">
 <ele>154.000000</ele>
 <time>2009-07-31T06:05:59Z</time>
 <desc>Lat.=50.8506383, Long.=6.1586583, Alt.=154m, Speed=6Km/h, Course=14deg.</desc>
<extensions>
</extensions>
</trkpt>
<trkpt lat="50.8506583" lon="6.1586749">
 <ele>153.000000</ele>
 <time>2009-07-31T06:06:01Z</time>
 <desc>Lat.=50.8506583, Long.=6.1586749, Alt.=153m, Speed=4Km/h, Course=28deg.</desc>
<extensions>
</extensions>
</trkpt>
<trkpt lat="50.8506883" lon="6.1586749">
 <ele>153.000000</ele>
 <time>2009-07-31T06:06:03Z</time>
 <desc>Lat.=50.8506883, Long.=6.1586749, Alt.=153m, Speed=6Km/h, Course=0deg.</desc>
<extensions>
</extensions>
</trkpt>
<trkpt lat="50.8507100" lon="6.1587166">
 <ele>153.000000</ele>
 <time>2009-07-31T06:06:05Z</time>
 <desc>Lat.=50.8507100, Long.=6.1587166, Alt.=153m, Speed=6Km/h, Course=51deg.</desc>
<extensions>
</extensions>
</trkpt>
<trkpt lat="50.8507749" lon="6.1587733">
 <ele>153.000000</ele>
 <time>2009-07-31T06:06:10Z</time>
 <desc>Lat.=50.8507749, Long.=6.1587733, Alt.=153m, Speed=5Km/h, Course=29deg.</desc>
<extensions>
</extensions>
</trkpt>
<trkpt lat="50.8507833" lon="6.1587949">
 <ele>152.000000</ele>
 <time>2009-07-31T06:06:11Z</time>
 <desc>Lat.=50.8507833, Long.=6.1587949, Alt.=152m, Speed=6Km/h, Course=58deg.</desc>
<extensions>
</extensions>
</trkpt>
<trkpt lat="50.8507916" lon="6.1588216">
 <ele>152.000000</ele>
 <time>2009-07-31T06:06:12Z</time>
 <desc>Lat.=50.8507916, Long.=6.1588216, Alt.=152m, Speed=7Km/h, Course=64deg.</desc>
<extensions>
</extensions>
</trkpt>
<trkpt lat="50.8508100" lon="6.1588733">
 <ele>152.000000</ele>
 <time>2009-07-31T06:06:14Z</time>
 <desc>Lat.=50.8508100, Long.=6.1588733, Alt.=152m, Speed=7Km/h, Course=61deg.</desc>
<extensions>
</extensions>
</trkpt>
<trkpt lat="50.8508299" lon="6.1589400">
 <ele>151.000000</ele>
 <time>2009-07-31T06:06:18Z</time>
 <desc>Lat.=50.8508299, Long.=6.1589400, Alt.=151m, Speed=4Km/h, Course=65deg.</desc>
<extensions>
</extensions>
</trkpt>
<trkpt lat="50.8508816" lon="6.1589866">
 <ele>151.000000</ele>
 <time>2009-07-31T06:06:22Z</time>
 <desc>Lat.=50.8508816, Long.=6.1589866, Alt.=151m, Speed=5Km/h, Course=30deg.</desc>
<extensions>
</extensions>
</trkpt>
<trkpt lat="50.8508966" lon="6.1589983">
 <ele>151.000000</ele>
 <time>2009-07-31T06:06:23Z</time>
 <desc>Lat.=50.8508966, Long.=6.1589983, Alt.=151m, Speed=6Km/h, Course=26deg.</desc>
<extensions>
</extensions>
</trkpt>
<trkpt lat="50.8509100" lon="6.1590033">
 <ele>151.000000</ele>
 <time>2009-07-31T06:06:24Z</time>
 <desc>Lat.=50.8509100, Long.=6.1590033, Alt.=151m, Speed=5Km/h, Course=13deg.</desc>
<extensions>
</extensions>
</trkpt>
<trkpt lat="50.8509399" lon="6.1590199">
 <ele>151.000000</ele>
 <time>2009-07-31T06:06:26Z</time>
 <desc>Lat.=50.8509399, Long.=6.1590199, Alt.=151m, Speed=6Km/h, Course=19deg.</desc>
<extensions>
</extensions>
</trkpt>
<trkpt lat="50.8509566" lon="6.1590333">
 <ele>151.000000</ele>
 <time>2009-07-31T06:06:27Z</time>
 <desc>Lat.=50.8509566, Long.=6.1590333, Alt.=151m, Speed=7Km/h, Course=27deg.</desc>
<extensions>
</extensions>
</trkpt>
<trkpt lat="50.8509733" lon="6.1590416">
 <ele>151.000000</ele>
 <time>2009-07-31T06:06:28Z</time>
 <desc>Lat.=50.8509733, Long.=6.1590416, Alt.=151m, Speed=7Km/h, Course=17deg.</desc>
<extensions>
</extensions>
</trkpt>
<trkpt lat="50.8509883" lon="6.1590549">
 <ele>151.000000</ele>
 <time>2009-07-31T06:06:29Z</time>
 <desc>Lat.=50.8509883, Long.=6.1590549, Alt.=151m, Speed=6Km/h, Course=29deg.</desc>
<extensions>
</extensions>
</trkpt>
<trkpt lat="50.8510200" lon="6.1590583">
 <ele>151.000000</ele>
 <time>2009-07-31T06:06:31Z</time>
 <desc>Lat.=50.8510200, Long.=6.1590583, Alt.=151m, Speed=6Km/h, Course=4deg.</desc>
<extensions>
</extensions>
</trkpt>
<trkpt lat="50.8510849" lon="6.1590583">
 <ele>151.000000</ele>
 <time>2009-07-31T06:06:34Z</time>
 <desc>Lat.=50.8510849, Long.=6.1590583, Alt.=151m, Speed=8Km/h, Course=0deg.</desc>
<extensions>
</extensions>
</trkpt>
<trkpt lat="50.8511050" lon="6.1590549">
 <ele>152.000000</ele>
 <time>2009-07-31T06:06:35Z</time>
 <desc>Lat.=50.8511050, Long.=6.1590549, Alt.=152m, Speed=8Km/h, Course=354deg.</desc>
<extensions>
</extensions>
</trkpt>
<trkpt lat="50.8511216" lon="6.1590616">
 <ele>152.000000</ele>
 <time>2009-07-31T06:06:36Z</time>
 <desc>Lat.=50.8511216, Long.=6.1590616, Alt.=152m, Speed=6Km/h, Course=14deg.</desc>
<extensions>
</extensions>
</trkpt>
<trkpt lat="50.8511399" lon="6.1590683">
 <ele>152.000000</ele>
 <time>2009-07-31T06:06:37Z</time>
 <desc>Lat.=50.8511399, Long.=6.1590683, Alt.=152m, Speed=7Km/h, Course=13deg.</desc>
<extensions>
</extensions>
</trkpt>
<trkpt lat="50.8511483" lon="6.1590899">
 <ele>152.000000</ele>
 <time>2009-07-31T06:06:38Z</time>
 <desc>Lat.=50.8511483, Long.=6.1590899, Alt.=152m, Speed=6Km/h, Course=58deg.</desc>
<extensions>
</extensions>
</trkpt>
<trkpt lat="50.8511566" lon="6.1591400">
 <ele>152.000000</ele>
 <time>2009-07-31T06:06:40Z</time>
 <desc>Lat.=50.8511566, Long.=6.1591400, Alt.=152m, Speed=6Km/h, Course=75deg.</desc>
<extensions>
</extensions>
</trkpt>
<trkpt lat="50.8511533" lon="6.1591783">
 <ele>152.000000</ele>
 <time>2009-07-31T06:06:42Z</time>
 <desc>Lat.=50.8511533, Long.=6.1591783, Alt.=152m, Speed=4Km/h, Course=98deg.</desc>
<extensions>
</extensions>
</trkpt>
<trkpt lat="50.8511600" lon="6.1591883">
 <ele>152.000000</ele>
 <time>2009-07-31T06:06:43Z</time>
 <desc>Lat.=50.8511600, Long.=6.1591883, Alt.=152m, Speed=3Km/h, Course=43deg.</desc>
<extensions>
</extensions>
</trkpt>
<trkpt lat="50.8511633" lon="6.1592100">
 <ele>152.000000</ele>
 <time>2009-07-31T06:06:44Z</time>
 <desc>Lat.=50.8511633, Long.=6.1592100, Alt.=152m, Speed=5Km/h, Course=76deg.</desc>
<extensions>
</extensions>
</trkpt>
<trkpt lat="50.8511683" lon="6.1592800">
 <ele>152.000000</ele>
 <time>2009-07-31T06:06:47Z</time>
 <desc>Lat.=50.8511683, Long.=6.1592800, Alt.=152m, Speed=5Km/h, Course=84deg.</desc>
<extensions>
</extensions>
</trkpt>
<trkpt lat="50.8511783" lon="6.1592983">
 <ele>152.000000</ele>
 <time>2009-07-31T06:06:48Z</time>
 <desc>Lat.=50.8511783, Long.=6.1592983, Alt.=152m, Speed=6Km/h, Course=49deg.</desc>
<extensions>
</extensions>
</trkpt>
<trkpt lat="50.8511900" lon="6.1593150">
 <ele>152.000000</ele>
 <time>2009-07-31T06:06:49Z</time>
 <desc>Lat.=50.8511900, Long.=6.1593150, Alt.=152m, Speed=6Km/h, Course=42deg.</desc>
<extensions>
</extensions>
</trkpt>
<trkpt lat="50.8512799" lon="6.1593766">
 <ele>151.000000</ele>
 <time>2009-07-31T06:06:55Z</time>
 <desc>Lat.=50.8512799, Long.=6.1593766, Alt.=151m, Speed=6Km/h, Course=23deg.</desc>
<extensions>
</extensions>
</trkpt>
<trkpt lat="50.8512983" lon="6.1593950">
 <ele>151.000000</ele>
 <time>2009-07-31T06:06:57Z</time>
 <desc>Lat.=50.8512983, Long.=6.1593950, Alt.=151m, Speed=4Km/h, Course=32deg.</desc>
<extensions>
</extensions>
</trkpt>
<trkpt lat="50.8513383" lon="6.1594100">
 <ele>151.000000</ele>
 <time>2009-07-31T06:06:59Z</time>
 <desc>Lat.=50.8513383, Long.=6.1594100, Alt.=151m, Speed=8Km/h, Course=13deg.</desc>
<extensions>
</extensions>
</trkpt>
<trkpt lat="50.8513533" lon="6.1594233">
 <ele>151.000000</ele>
 <time>2009-07-31T06:07:00Z</time>
 <desc>Lat.=50.8513533, Long.=6.1594233, Alt.=151m, Speed=6Km/h, Course=29deg.</desc>
<extensions>
</extensions>
</trkpt>
<trkpt lat="50.8513550" lon="6.1594450">
 <ele>151.000000</ele>
 <time>2009-07-31T06:07:01Z</time>
 <desc>Lat.=50.8513550, Long.=6.1594450, Alt.=151m, Speed=5Km/h, Course=83deg.</desc>
<extensions>
</extensions>
</trkpt>
<trkpt lat="50.8513616" lon="6.1594583">
 <ele>151.000000</ele>
 <time>2009-07-31T06:07:02Z</time>
 <desc>Lat.=50.8513616, Long.=6.1594583, Alt.=151m, Speed=4Km/h, Course=52deg.</desc>
<extensions>
</extensions>
</trkpt>
<trkpt lat="50.8514049" lon="6.1594699">
 <ele>151.000000</ele>
 <time>2009-07-31T06:07:06Z</time>
 <desc>Lat.=50.8514049, Long.=6.1594699, Alt.=151m, Speed=4Km/h, Course=10deg.</desc>
<extensions>
</extensions>
</trkpt>
<trkpt lat="50.8514083" lon="6.1595199">
 <ele>151.000000</ele>
 <time>2009-07-31T06:07:09Z</time>
 <desc>Lat.=50.8514083, Long.=6.1595199, Alt.=151m, Speed=4Km/h, Course=84deg.</desc>
<extensions>
</extensions>
</trkpt>
<trkpt lat="50.8514033" lon="6.1595433">
 <ele>151.000000</ele>
 <time>2009-07-31T06:07:10Z</time>
 <desc>Lat.=50.8514033, Long.=6.1595433, Alt.=151m, Speed=6Km/h, Course=109deg.</desc>
<extensions>
</extensions>
</trkpt>
<trkpt lat="50.8514083" lon="6.1595566">
 <ele>151.000000</ele>
 <time>2009-07-31T06:07:11Z</time>
 <desc>Lat.=50.8514083, Long.=6.1595566, Alt.=151m, Speed=3Km/h, Course=59deg.</desc>
<extensions>
</extensions>
</trkpt>
<trkpt lat="50.8514133" lon="6.1595733">
 <ele>151.000000</ele>
 <time>2009-07-31T06:07:12Z</time>
 <desc>Lat.=50.8514133, Long.=6.1595733, Alt.=151m, Speed=4Km/h, Course=65deg.</desc>
<extensions>
</extensions>
</trkpt>
<trkpt lat="50.8514216" lon="6.1595866">
 <ele>151.000000</ele>
 <time>2009-07-31T06:07:13Z</time>
 <desc>Lat.=50.8514216, Long.=6.1595866, Alt.=151m, Speed=4Km/h, Course=45deg.</desc>
<extensions>
</extensions>
</trkpt>
<trkpt lat="50.8514333" lon="6.1596216">
 <ele>151.000000</ele>
 <time>2009-07-31T06:07:15Z</time>
 <desc>Lat.=50.8514333, Long.=6.1596216, Alt.=151m, Speed=5Km/h, Course=62deg.</desc>
<extensions>
</extensions>
</trkpt>
<trkpt lat="50.8514633" lon="6.1596416">
 <ele>150.000000</ele>
 <time>2009-07-31T06:07:17Z</time>
 <desc>Lat.=50.8514633, Long.=6.1596416, Alt.=150m, Speed=6Km/h, Course=23deg.</desc>
<extensions>
</extensions>
</trkpt>
<trkpt lat="50.8514766" lon="6.1596633">
 <ele>150.000000</ele>
 <time>2009-07-31T06:07:19Z</time>
 <desc>Lat.=50.8514766, Long.=6.1596633, Alt.=150m, Speed=3Km/h, Course=46deg.</desc>
<extensions>
</extensions>
</trkpt>
<trkpt lat="50.8515149" lon="6.1596933">
 <ele>150.000000</ele>
 <time>2009-07-31T06:07:22Z</time>
 <desc>Lat.=50.8515149, Long.=6.1596933, Alt.=150m, Speed=5Km/h, Course=26deg.</desc>
<extensions>
</extensions>
</trkpt>
<trkpt lat="50.8515333" lon="6.1596933">
 <ele>150.000000</ele>
 <time>2009-07-31T06:07:23Z</time>
 <desc>Lat.=50.8515333, Long.=6.1596933, Alt.=150m, Speed=7Km/h, Course=0deg.</desc>
<extensions>
</extensions>
</trkpt>
<trkpt lat="50.8515400" lon="6.1597183">
 <ele>150.000000</ele>
 <time>2009-07-31T06:07:25Z</time>
 <desc>Lat.=50.8515400, Long.=6.1597183, Alt.=150m, Speed=3Km/h, Course=67deg.</desc>
<extensions>
</extensions>
</trkpt>
<trkpt lat="50.8515749" lon="6.1597316">
 <ele>150.000000</ele>
 <time>2009-07-31T06:07:27Z</time>
 <desc>Lat.=50.8515749, Long.=6.1597316, Alt.=150m, Speed=7Km/h, Course=14deg.</desc>
<extensions>
</extensions>
</trkpt>
<trkpt lat="50.8515916" lon="6.1597433">
 <ele>150.000000</ele>
 <time>2009-07-31T06:07:28Z</time>
 <desc>Lat.=50.8515916, Long.=6.1597433, Alt.=150m, Speed=7Km/h, Course=24deg.</desc>
<extensions>
</extensions>
</trkpt>
<trkpt lat="50.8515999" lon="6.1597600">
 <ele>150.000000</ele>
 <time>2009-07-31T06:07:29Z</time>
 <desc>Lat.=50.8515999, Long.=6.1597600, Alt.=150m, Speed=5Km/h, Course=52deg.</desc>
<extensions>
</extensions>
</trkpt>
<trkpt lat="50.8516200" lon="6.1597700">
 <ele>150.000000</ele>
 <time>2009-07-31T06:07:30Z</time>
 <desc>Lat.=50.8516200, Long.=6.1597700, Alt.=150m, Speed=8Km/h, Course=17deg.</desc>
<extensions>
</extensions>
</trkpt>
<trkpt lat="50.8516250" lon="6.1597933">
 <ele>150.000000</ele>
 <time>2009-07-31T06:07:31Z</time>
 <desc>Lat.=50.8516250, Long.=6.1597933, Alt.=150m, Speed=6Km/h, Course=71deg.</desc>
<extensions>
</extensions>
</trkpt>
<trkpt lat="50.8516333" lon="6.1598283">
 <ele>150.000000</ele>
 <time>2009-07-31T06:07:33Z</time>
 <desc>Lat.=50.8516333, Long.=6.1598283, Alt.=150m, Speed=4Km/h, Course=69deg.</desc>
<extensions>
</extensions>
</trkpt>
<trkpt lat="50.8516616" lon="6.1598433">
 <ele>150.000000</ele>
 <time>2009-07-31T06:07:35Z</time>
 <desc>Lat.=50.8516616, Long.=6.1598433, Alt.=150m, Speed=5Km/h, Course=19deg.</desc>
<extensions>
</extensions>
</trkpt>
<trkpt lat="50.8516883" lon="6.1598466">
 <ele>149.000000</ele>
 <time>2009-07-31T06:07:36Z</time>
 <desc>Lat.=50.8516883, Long.=6.1598466, Alt.=149m, Speed=10Km/h, Course=4deg.</desc>
<extensions>
</extensions>
</trkpt>
<trkpt lat="50.8517050" lon="6.1598599">
 <ele>149.000000</ele>
 <time>2009-07-31T06:07:37Z</time>
 <desc>Lat.=50.8517050, Long.=6.1598599, Alt.=149m, Speed=7Km/h, Course=27deg.</desc>
<extensions>
</extensions>
</trkpt>
<trkpt lat="50.8517183" lon="6.1598949">
 <ele>149.000000</ele>
 <time>2009-07-31T06:07:39Z</time>
 <desc>Lat.=50.8517183, Long.=6.1598949, Alt.=149m, Speed=5Km/h, Course=59deg.</desc>
<extensions>
</extensions>
</trkpt>
<trkpt lat="50.8517566" lon="6.1599166">
 <ele>149.000000</ele>
 <time>2009-07-31T06:07:42Z</time>
 <desc>Lat.=50.8517566, Long.=6.1599166, Alt.=149m, Speed=5Km/h, Course=20deg.</desc>
<extensions>
</extensions>
</trkpt>
<trkpt lat="50.8517600" lon="6.1599383">
 <ele>149.000000</ele>
 <time>2009-07-31T06:07:43Z</time>
 <desc>Lat.=50.8517600, Long.=6.1599383, Alt.=149m, Speed=5Km/h, Course=76deg.</desc>
<extensions>
</extensions>
</trkpt>
<trkpt lat="50.8517533" lon="6.1599566">
 <ele>149.000000</ele>
 <time>2009-07-31T06:07:45Z</time>
 <desc>Lat.=50.8517533, Long.=6.1599566, Alt.=149m, Speed=2Km/h, Course=120deg.</desc>
<extensions>
</extensions>
</trkpt>
<trkpt lat="50.8517549" lon="6.1599649">
 <ele>149.000000</ele>
 <time>2009-07-31T06:07:46Z</time>
 <desc>Lat.=50.8517549, Long.=6.1599649, Alt.=149m, Speed=2Km/h, Course=73deg.</desc>
<extensions>
</extensions>
</trkpt>
<trkpt lat="50.8517549" lon="6.1599833">
 <ele>149.000000</ele>
 <time>2009-07-31T06:07:47Z</time>
 <desc>Lat.=50.8517549, Long.=6.1599833, Alt.=149m, Speed=4Km/h, Course=90deg.</desc>
<extensions>
</extensions>
</trkpt>
<trkpt lat="50.8517783" lon="6.1600349">
 <ele>149.000000</ele>
 <time>2009-07-31T06:07:51Z</time>
 <desc>Lat.=50.8517783, Long.=6.1600349, Alt.=149m, Speed=4Km/h, Course=54deg.</desc>
<extensions>
</extensions>
</trkpt>
<trkpt lat="50.8517966" lon="6.1600633">
 <ele>149.000000</ele>
 <time>2009-07-31T06:07:53Z</time>
 <desc>Lat.=50.8517966, Long.=6.1600633, Alt.=149m, Speed=5Km/h, Course=44deg.</desc>
<extensions>
</extensions>
</trkpt>
<trkpt lat="50.8518066" lon="6.1600799">
 <ele>149.000000</ele>
 <time>2009-07-31T06:07:54Z</time>
 <desc>Lat.=50.8518066, Long.=6.1600799, Alt.=149m, Speed=5Km/h, Course=46deg.</desc>
<extensions>
</extensions>
</trkpt>
<trkpt lat="50.8518200" lon="6.1600750">
 <ele>149.000000</ele>
 <time>2009-07-31T06:07:55Z</time>
 <desc>Lat.=50.8518200, Long.=6.1600750, Alt.=149m, Speed=5Km/h, Course=347deg.</desc>
<extensions>
</extensions>
</trkpt>
<trkpt lat="50.8518083" lon="6.1600983">
 <ele>149.000000</ele>
 <time>2009-07-31T06:07:56Z</time>
 <desc>Lat.=50.8518083, Long.=6.1600983, Alt.=149m, Speed=7Km/h, Course=128deg.</desc>
<extensions>
</extensions>
</trkpt>
<trkpt lat="50.8518183" lon="6.1601350">
 <ele>149.000000</ele>
 <time>2009-07-31T06:07:57Z</time>
 <desc>Lat.=50.8518183, Long.=6.1601350, Alt.=149m, Speed=10Km/h, Course=67deg.</desc>
<extensions>
</extensions>
</trkpt>
<trkpt lat="50.8518549" lon="6.1601633">
 <ele>149.000000</ele>
 <time>2009-07-31T06:08:01Z</time>
 <desc>Lat.=50.8518549, Long.=6.1601633, Alt.=149m, Speed=4Km/h, Course=26deg.</desc>
<extensions>
</extensions>
</trkpt>
<trkpt lat="50.8518799" lon="6.1601800">
 <ele>149.000000</ele>
 <time>2009-07-31T06:08:03Z</time>
 <desc>Lat.=50.8518799, Long.=6.1601800, Alt.=149m, Speed=5Km/h, Course=23deg.</desc>
<extensions>
</extensions>
</trkpt>
<trkpt lat="50.8519199" lon="6.1602166">
 <ele>149.000000</ele>
 <time>2009-07-31T06:08:06Z</time>
 <desc>Lat.=50.8519199, Long.=6.1602166, Alt.=149m, Speed=6Km/h, Course=30deg.</desc>
<extensions>
</extensions>
</trkpt>
<trkpt lat="50.8519533" lon="6.1602983">
 <ele>148.000000</ele>
 <time>2009-07-31T06:08:11Z</time>
 <desc>Lat.=50.8519533, Long.=6.1602983, Alt.=148m, Speed=4Km/h, Course=57deg.</desc>
<extensions>
</extensions>
</trkpt>
<trkpt lat="50.8519616" lon="6.1603216">
 <ele>148.000000</ele>
 <time>2009-07-31T06:08:12Z</time>
 <desc>Lat.=50.8519616, Long.=6.1603216, Alt.=148m, Speed=6Km/h, Course=61deg.</desc>
<extensions>
</extensions>
</trkpt>
<trkpt lat="50.8520316" lon="6.1604016">
 <ele>149.000000</ele>
 <time>2009-07-31T06:08:18Z</time>
 <desc>Lat.=50.8520316, Long.=6.1604016, Alt.=149m, Speed=5Km/h, Course=36deg.</desc>
<extensions>
</extensions>
</trkpt>
<trkpt lat="50.8520466" lon="6.1604333">
 <ele>148.000000</ele>
 <time>2009-07-31T06:08:20Z</time>
 <desc>Lat.=50.8520466, Long.=6.1604333, Alt.=148m, Speed=5Km/h, Course=53deg.</desc>
<extensions>
</extensions>
</trkpt>
<trkpt lat="50.8520666" lon="6.1604383">
 <ele>148.000000</ele>
 <time>2009-07-31T06:08:21Z</time>
 <desc>Lat.=50.8520666, Long.=6.1604383, Alt.=148m, Speed=8Km/h, Course=9deg.</desc>
<extensions>
</extensions>
</trkpt>
<trkpt lat="50.8521150" lon="6.1604616">
 <ele>148.000000</ele>
 <time>2009-07-31T06:08:24Z</time>
 <desc>Lat.=50.8521150, Long.=6.1604616, Alt.=148m, Speed=6Km/h, Course=17deg.</desc>
<extensions>
</extensions>
</trkpt>
<trkpt lat="50.8521483" lon="6.1605116">
 <ele>148.000000</ele>
 <time>2009-07-31T06:08:27Z</time>
 <desc>Lat.=50.8521483, Long.=6.1605116, Alt.=148m, Speed=6Km/h, Course=43deg.</desc>
<extensions>
</extensions>
</trkpt>
<trkpt lat="50.8521616" lon="6.1605283">
 <ele>148.000000</ele>
 <time>2009-07-31T06:08:28Z</time>
 <desc>Lat.=50.8521616, Long.=6.1605283, Alt.=148m, Speed=6Km/h, Course=38deg.</desc>
<extensions>
</extensions>
</trkpt>
<trkpt lat="50.8521883" lon="6.1605816">
 <ele>148.000000</ele>
 <time>2009-07-31T06:08:32Z</time>
 <desc>Lat.=50.8521883, Long.=6.1605816, Alt.=148m, Speed=4Km/h, Course=52deg.</desc>
<extensions>
</extensions>
</trkpt>
<trkpt lat="50.8521866" lon="6.1606066">
 <ele>148.000000</ele>
 <time>2009-07-31T06:08:33Z</time>
 <desc>Lat.=50.8521866, Long.=6.1606066, Alt.=148m, Speed=6Km/h, Course=96deg.</desc>
<extensions>
</extensions>
</trkpt>
<trkpt lat="50.8521866" lon="6.1606583">
 <ele>148.000000</ele>
 <time>2009-07-31T06:08:35Z</time>
 <desc>Lat.=50.8521866, Long.=6.1606583, Alt.=148m, Speed=6Km/h, Course=90deg.</desc>
<extensions>
</extensions>
</trkpt>
<trkpt lat="50.8521899" lon="6.1606783">
 <ele>148.000000</ele>
 <time>2009-07-31T06:08:36Z</time>
 <desc>Lat.=50.8521899, Long.=6.1606783, Alt.=148m, Speed=5Km/h, Course=75deg.</desc>
<extensions>
</extensions>
</trkpt>
<trkpt lat="50.8521916" lon="6.1606999">
 <ele>148.000000</ele>
 <time>2009-07-31T06:08:37Z</time>
 <desc>Lat.=50.8521916, Long.=6.1606999, Alt.=148m, Speed=5Km/h, Course=83deg.</desc>
<extensions>
</extensions>
</trkpt>
<trkpt lat="50.8521883" lon="6.1608966">
 <ele>147.000000</ele>
 <time>2009-07-31T06:08:48Z</time>
 <desc>Lat.=50.8521883, Long.=6.1608966, Alt.=147m, Speed=4Km/h, Course=92deg.</desc>
<extensions>
</extensions>
</trkpt>
<trkpt lat="50.8522049" lon="6.1609249">
 <ele>147.000000</ele>
 <time>2009-07-31T06:08:50Z</time>
 <desc>Lat.=50.8522049, Long.=6.1609249, Alt.=147m, Speed=4Km/h, Course=47deg.</desc>
<extensions>
</extensions>
</trkpt>
<trkpt lat="50.8522116" lon="6.1609466">
 <ele>147.000000</ele>
 <time>2009-07-31T06:08:51Z</time>
 <desc>Lat.=50.8522116, Long.=6.1609466, Alt.=147m, Speed=6Km/h, Course=64deg.</desc>
<extensions>
</extensions>
</trkpt>
<trkpt lat="50.8522250" lon="6.1609550">
 <ele>147.000000</ele>
 <time>2009-07-31T06:08:52Z</time>
 <desc>Lat.=50.8522250, Long.=6.1609550, Alt.=147m, Speed=5Km/h, Course=22deg.</desc>
<extensions>
</extensions>
</trkpt>
<trkpt lat="50.8522333" lon="6.1609716">
 <ele>147.000000</ele>
 <time>2009-07-31T06:08:53Z</time>
 <desc>Lat.=50.8522333, Long.=6.1609716, Alt.=147m, Speed=5Km/h, Course=52deg.</desc>
<extensions>
</extensions>
</trkpt>
<trkpt lat="50.8522299" lon="6.1609933">
 <ele>147.000000</ele>
 <time>2009-07-31T06:08:54Z</time>
 <desc>Lat.=50.8522299, Long.=6.1609933, Alt.=147m, Speed=5Km/h, Course=104deg.</desc>
<extensions>
</extensions>
</trkpt>
<trkpt lat="50.8522266" lon="6.1610399">
 <ele>147.000000</ele>
 <time>2009-07-31T06:08:56Z</time>
 <desc>Lat.=50.8522266, Long.=6.1610399, Alt.=147m, Speed=5Km/h, Course=96deg.</desc>
<extensions>
</extensions>
</trkpt>
<trkpt lat="50.8522466" lon="6.1610549">
 <ele>147.000000</ele>
 <time>2009-07-31T06:08:57Z</time>
 <desc>Lat.=50.8522466, Long.=6.1610549, Alt.=147m, Speed=8Km/h, Course=25deg.</desc>
<extensions>
</extensions>
</trkpt>
<trkpt lat="50.8522883" lon="6.1610783">
 <ele>147.000000</ele>
 <time>2009-07-31T06:08:59Z</time>
 <desc>Lat.=50.8522883, Long.=6.1610783, Alt.=147m, Speed=8Km/h, Course=20deg.</desc>
<extensions>
</extensions>
</trkpt>
<trkpt lat="50.8523500" lon="6.1610516">
 <ele>148.000000</ele>
 <time>2009-07-31T06:09:01Z</time>
 <desc>Lat.=50.8523500, Long.=6.1610516, Alt.=148m, Speed=12Km/h, Course=345deg.</desc>
<extensions>
</extensions>
</trkpt>
<trkpt lat="50.8523699" lon="6.1610533">
 <ele>147.000000</ele>
 <time>2009-07-31T06:09:02Z</time>
 <desc>Lat.=50.8523699, Long.=6.1610533, Alt.=147m, Speed=7Km/h, Course=3deg.</desc>
<extensions>
</extensions>
</trkpt>
<trkpt lat="50.8523933" lon="6.1610783">
 <ele>147.000000</ele>
 <time>2009-07-31T06:09:05Z</time>
 <desc>Lat.=50.8523933, Long.=6.1610783, Alt.=147m, Speed=3Km/h, Course=34deg.</desc>
<extensions>
</extensions>
</trkpt>
<trkpt lat="50.8524350" lon="6.1610883">
 <ele>147.000000</ele>
 <time>2009-07-31T06:09:09Z</time>
 <desc>Lat.=50.8524350, Long.=6.1610883, Alt.=147m, Speed=4Km/h, Course=9deg.</desc>
<extensions>
</extensions>
</trkpt>
<trkpt lat="50.8524616" lon="6.1611099">
 <ele>147.000000</ele>
 <time>2009-07-31T06:09:12Z</time>
 <desc>Lat.=50.8524616, Long.=6.1611099, Alt.=147m, Speed=3Km/h, Course=27deg.</desc>
<extensions>
</extensions>
</trkpt>
<trkpt lat="50.8524900" lon="6.1611750">
 <ele>147.000000</ele>
 <time>2009-07-31T06:09:16Z</time>
 <desc>Lat.=50.8524900, Long.=6.1611750, Alt.=147m, Speed=5Km/h, Course=55deg.</desc>
<extensions>
</extensions>
</trkpt>
<trkpt lat="50.8524949" lon="6.1612033">
 <ele>147.000000</ele>
 <time>2009-07-31T06:09:17Z</time>
 <desc>Lat.=50.8524949, Long.=6.1612033, Alt.=147m, Speed=7Km/h, Course=75deg.</desc>
<extensions>
</extensions>
</trkpt>
<trkpt lat="50.8524949" lon="6.1612333">
 <ele>147.000000</ele>
 <time>2009-07-31T06:09:18Z</time>
 <desc>Lat.=50.8524949, Long.=6.1612333, Alt.=147m, Speed=7Km/h, Course=90deg.</desc>
<extensions>
</extensions>
</trkpt>
<trkpt lat="50.8525033" lon="6.1612599">
 <ele>147.000000</ele>
 <time>2009-07-31T06:09:20Z</time>
 <desc>Lat.=50.8525033, Long.=6.1612599, Alt.=147m, Speed=3Km/h, Course=63deg.</desc>
<extensions>
</extensions>
</trkpt>
<trkpt lat="50.8525666" lon="6.1613233">
 <ele>146.000000</ele>
 <time>2009-07-31T06:09:25Z</time>
 <desc>Lat.=50.8525666, Long.=6.1613233, Alt.=146m, Speed=6Km/h, Course=32deg.</desc>
<extensions>
</extensions>
</trkpt>
<trkpt lat="50.8525933" lon="6.1613566">
 <ele>146.000000</ele>
 <time>2009-07-31T06:09:27Z</time>
 <desc>Lat.=50.8525933, Long.=6.1613566, Alt.=146m, Speed=6Km/h, Course=38deg.</desc>
<extensions>
</extensions>
</trkpt>
<trkpt lat="50.8526050" lon="6.1614016">
 <ele>146.000000</ele>
 <time>2009-07-31T06:09:29Z</time>
 <desc>Lat.=50.8526050, Long.=6.1614016, Alt.=146m, Speed=6Km/h, Course=68deg.</desc>
<extensions>
</extensions>
</trkpt>
<trkpt lat="50.8526183" lon="6.1614183">
 <ele>146.000000</ele>
 <time>2009-07-31T06:09:30Z</time>
 <desc>Lat.=50.8526183, Long.=6.1614183, Alt.=146m, Speed=6Km/h, Course=38deg.</desc>
<extensions>
</extensions>
</trkpt>
<trkpt lat="50.8526333" lon="6.1614299">
 <ele>146.000000</ele>
 <time>2009-07-31T06:09:31Z</time>
 <desc>Lat.=50.8526333, Long.=6.1614299, Alt.=146m, Speed=6Km/h, Course=26deg.</desc>
<extensions>
</extensions>
</trkpt>
<trkpt lat="50.8526582" lon="6.1614433">
 <ele>146.000000</ele>
 <time>2009-07-31T06:09:32Z</time>
 <desc>Lat.=50.8526582, Long.=6.1614433, Alt.=146m, Speed=10Km/h, Course=19deg.</desc>
<extensions>
</extensions>
</trkpt>
<trkpt lat="50.8527066" lon="6.1615549">
 <ele>146.000000</ele>
 <time>2009-07-31T06:09:38Z</time>
 <desc>Lat.=50.8527066, Long.=6.1615549, Alt.=146m, Speed=5Km/h, Course=56deg.</desc>
<extensions>
</extensions>
</trkpt>
<trkpt lat="50.8526983" lon="6.1615850">
 <ele>146.000000</ele>
 <time>2009-07-31T06:09:39Z</time>
 <desc>Lat.=50.8526983, Long.=6.1615850, Alt.=146m, Speed=8Km/h, Course=114deg.</desc>
<extensions>
</extensions>
</trkpt>
<trkpt lat="50.8527000" lon="6.1616116">
 <ele>146.000000</ele>
 <time>2009-07-31T06:09:40Z</time>
 <desc>Lat.=50.8527000, Long.=6.1616116, Alt.=146m, Speed=6Km/h, Course=84deg.</desc>
<extensions>
</extensions>
</trkpt>
<trkpt lat="50.8527033" lon="6.1616366">
 <ele>147.000000</ele>
 <time>2009-07-31T06:09:41Z</time>
 <desc>Lat.=50.8527033, Long.=6.1616366, Alt.=147m, Speed=6Km/h, Course=78deg.</desc>
<extensions>
</extensions>
</trkpt>
<trkpt lat="50.8527150" lon="6.1616450">
 <ele>147.000000</ele>
 <time>2009-07-31T06:09:42Z</time>
 <desc>Lat.=50.8527150, Long.=6.1616450, Alt.=147m, Speed=5Km/h, Course=24deg.</desc>
<extensions>
</extensions>
</trkpt>
<trkpt lat="50.8527116" lon="6.1616649">
 <ele>147.000000</ele>
 <time>2009-07-31T06:09:43Z</time>
 <desc>Lat.=50.8527116, Long.=6.1616649, Alt.=147m, Speed=5Km/h, Course=105deg.</desc>
<extensions>
</extensions>
</trkpt>
<trkpt lat="50.8527166" lon="6.1616900">
 <ele>147.000000</ele>
 <time>2009-07-31T06:09:44Z</time>
 <desc>Lat.=50.8527166, Long.=6.1616900, Alt.=147m, Speed=6Km/h, Course=72deg.</desc>
<extensions>
</extensions>
</trkpt>
<trkpt lat="50.8527116" lon="6.1617033">
 <ele>147.000000</ele>
 <time>2009-07-31T06:09:45Z</time>
 <desc>Lat.=50.8527116, Long.=6.1617033, Alt.=147m, Speed=3Km/h, Course=121deg.</desc>
<extensions>
</extensions>
</trkpt>
<trkpt lat="50.8527099" lon="6.1617233">
 <ele>148.000000</ele>
 <time>2009-07-31T06:09:46Z</time>
 <desc>Lat.=50.8527099, Long.=6.1617233, Alt.=148m, Speed=5Km/h, Course=98deg.</desc>
<extensions>
</extensions>
</trkpt>
<trkpt lat="50.8527249" lon="6.1617283">
 <ele>148.000000</ele>
 <time>2009-07-31T06:09:47Z</time>
 <desc>Lat.=50.8527249, Long.=6.1617283, Alt.=148m, Speed=6Km/h, Course=12deg.</desc>
<extensions>
</extensions>
</trkpt>
<trkpt lat="50.8527700" lon="6.1617533">
 <ele>149.000000</ele>
 <time>2009-07-31T06:09:50Z</time>
 <desc>Lat.=50.8527700, Long.=6.1617533, Alt.=149m, Speed=6Km/h, Course=19deg.</desc>
<extensions>
</extensions>
</trkpt>
<trkpt lat="50.8527816" lon="6.1617549">
 <ele>149.000000</ele>
 <time>2009-07-31T06:09:51Z</time>
 <desc>Lat.=50.8527816, Long.=6.1617549, Alt.=149m, Speed=4Km/h, Course=5deg.</desc>
<extensions>
</extensions>
</trkpt>
<trkpt lat="50.8528133" lon="6.1617533">
 <ele>148.000000</ele>
 <time>2009-07-31T06:09:54Z</time>
 <desc>Lat.=50.8528133, Long.=6.1617533, Alt.=148m, Speed=4Km/h, Course=358deg.</desc>
<extensions>
</extensions>
</trkpt>
<trkpt lat="50.8528199" lon="6.1617500">
 <ele>148.000000</ele>
 <time>2009-07-31T06:09:55Z</time>
 <desc>Lat.=50.8528199, Long.=6.1617500, Alt.=148m, Speed=2Km/h, Course=342deg.</desc>
<extensions>
</extensions>
</trkpt>
<trkpt lat="50.8528049" lon="6.1618033">
 <ele>147.000000</ele>
 <time>2009-07-31T06:09:58Z</time>
 <desc>Lat.=50.8528049, Long.=6.1618033, Alt.=147m, Speed=4Km/h, Course=114deg.</desc>
<extensions>
</extensions>
</trkpt>
<trkpt lat="50.8528199" lon="6.1618233">
 <ele>147.000000</ele>
 <time>2009-07-31T06:09:59Z</time>
 <desc>Lat.=50.8528199, Long.=6.1618233, Alt.=147m, Speed=7Km/h, Course=40deg.</desc>
<extensions>
</extensions>
</trkpt>
<trkpt lat="50.8528466" lon="6.1618200">
 <ele>147.000000</ele>
 <time>2009-07-31T06:10:00Z</time>
 <desc>Lat.=50.8528466, Long.=6.1618200, Alt.=147m, Speed=10Km/h, Course=356deg.</desc>
<extensions>
</extensions>
</trkpt>
<trkpt lat="50.8528583" lon="6.1618249">
 <ele>146.000000</ele>
 <time>2009-07-31T06:10:01Z</time>
 <desc>Lat.=50.8528583, Long.=6.1618249, Alt.=146m, Speed=4Km/h, Course=15deg.</desc>
<extensions>
</extensions>
</trkpt>
<trkpt lat="50.8528783" lon="6.1618566">
 <ele>146.000000</ele>
 <time>2009-07-31T06:10:04Z</time>
 <desc>Lat.=50.8528783, Long.=6.1618566, Alt.=146m, Speed=3Km/h, Course=45deg.</desc>
<extensions>
</extensions>
</trkpt>
<trkpt lat="50.8528783" lon="6.1618749">
 <ele>146.000000</ele>
 <time>2009-07-31T06:10:05Z</time>
 <desc>Lat.=50.8528783, Long.=6.1618749, Alt.=146m, Speed=4Km/h, Course=90deg.</desc>
<extensions>
</extensions>
</trkpt>
<trkpt lat="50.8528816" lon="6.1619083">
 <ele>146.000000</ele>
 <time>2009-07-31T06:10:08Z</time>
 <desc>Lat.=50.8528816, Long.=6.1619083, Alt.=146m, Speed=2Km/h, Course=81deg.</desc>
<extensions>
</extensions>
</trkpt>
<trkpt lat="50.8528799" lon="6.1619133">
 <ele>146.000000</ele>
 <time>2009-07-31T06:10:09Z</time>
 <desc>Lat.=50.8528799, Long.=6.1619133, Alt.=146m, Speed=1Km/h, Course=118deg.</desc>
<extensions>
</extensions>
</trkpt>
<trkpt lat="50.8528899" lon="6.1619149">
 <ele>146.000000</ele>
 <time>2009-07-31T06:10:11Z</time>
 <desc>Lat.=50.8528899, Long.=6.1619149, Alt.=146m, Speed=2Km/h, Course=6deg.</desc>
<extensions>
</extensions>
</trkpt>
<trkpt lat="50.8528933" lon="6.1619350">
 <ele>146.000000</ele>
 <time>2009-07-31T06:10:12Z</time>
 <desc>Lat.=50.8528933, Long.=6.1619350, Alt.=146m, Speed=5Km/h, Course=75deg.</desc>
<extensions>
</extensions>
</trkpt>
<trkpt lat="50.8529283" lon="6.1619566">
 <ele>146.000000</ele>
 <time>2009-07-31T06:10:21Z</time>
 <desc>Lat.=50.8529283, Long.=6.1619566, Alt.=146m, Speed=1Km/h, Course=21deg.</desc>
<extensions>
</extensions>
</trkpt>
<trkpt lat="50.8529433" lon="6.1619616">
 <ele>146.000000</ele>
 <time>2009-07-31T06:10:23Z</time>
 <desc>Lat.=50.8529433, Long.=6.1619616, Alt.=146m, Speed=3Km/h, Course=12deg.</desc>
<extensions>
</extensions>
</trkpt>
<trkpt lat="50.8529566" lon="6.1620033">
 <ele>146.000000</ele>
 <time>2009-07-31T06:10:26Z</time>
 <desc>Lat.=50.8529566, Long.=6.1620033, Alt.=146m, Speed=3Km/h, Course=63deg.</desc>
<extensions>
</extensions>
</trkpt>
<trkpt lat="50.8530049" lon="6.1620883">
 <ele>146.000000</ele>
 <time>2009-07-31T06:10:29Z</time>
 <desc>Lat.=50.8530049, Long.=6.1620883, Alt.=146m, Speed=9Km/h, Course=48deg.</desc>
<extensions>
</extensions>
</trkpt>
<trkpt lat="50.8530233" lon="6.1621049">
 <ele>146.000000</ele>
 <time>2009-07-31T06:10:30Z</time>
 <desc>Lat.=50.8530233, Long.=6.1621049, Alt.=146m, Speed=8Km/h, Course=30deg.</desc>
<extensions>
</extensions>
</trkpt>
<trkpt lat="50.8530383" lon="6.1621166">
 <ele>146.000000</ele>
 <time>2009-07-31T06:10:31Z</time>
 <desc>Lat.=50.8530383, Long.=6.1621166, Alt.=146m, Speed=6Km/h, Course=26deg.</desc>
<extensions>
</extensions>
</trkpt>
<trkpt lat="50.8530433" lon="6.1621366">
 <ele>146.000000</ele>
 <time>2009-07-31T06:10:32Z</time>
 <desc>Lat.=50.8530433, Long.=6.1621366, Alt.=146m, Speed=5Km/h, Course=68deg.</desc>
<extensions>
</extensions>
</trkpt>
<trkpt lat="50.8530583" lon="6.1621950">
 <ele>146.000000</ele>
 <time>2009-07-31T06:10:35Z</time>
 <desc>Lat.=50.8530583, Long.=6.1621950, Alt.=146m, Speed=5Km/h, Course=68deg.</desc>
<extensions>
</extensions>
</trkpt>
<trkpt lat="50.8530599" lon="6.1622199">
 <ele>146.000000</ele>
 <time>2009-07-31T06:10:36Z</time>
 <desc>Lat.=50.8530599, Long.=6.1622199, Alt.=146m, Speed=6Km/h, Course=84deg.</desc>
<extensions>
</extensions>
</trkpt>
<trkpt lat="50.8530782" lon="6.1622599">
 <ele>146.000000</ele>
 <time>2009-07-31T06:10:39Z</time>
 <desc>Lat.=50.8530782, Long.=6.1622599, Alt.=146m, Speed=4Km/h, Course=54deg.</desc>
<extensions>
</extensions>
</trkpt>
<trkpt lat="50.8530833" lon="6.1622666">
 <ele>146.000000</ele>
 <time>2009-07-31T06:10:40Z</time>
 <desc>Lat.=50.8530833, Long.=6.1622666, Alt.=146m, Speed=2Km/h, Course=40deg.</desc>
<extensions>
</extensions>
</trkpt>
<trkpt lat="50.8530966" lon="6.1622949">
 <ele>146.000000</ele>
 <time>2009-07-31T06:10:42Z</time>
 <desc>Lat.=50.8530966, Long.=6.1622949, Alt.=146m, Speed=4Km/h, Course=53deg.</desc>
<extensions>
</extensions>
</trkpt>
<trkpt lat="50.8531083" lon="6.1622883">
 <ele>146.000000</ele>
 <time>2009-07-31T06:10:43Z</time>
 <desc>Lat.=50.8531083, Long.=6.1622883, Alt.=146m, Speed=4Km/h, Course=340deg.</desc>
<extensions>
</extensions>
</trkpt>
<trkpt lat="50.8531333" lon="6.1623266">
 <ele>146.000000</ele>
 <time>2009-07-31T06:10:48Z</time>
 <desc>Lat.=50.8531333, Long.=6.1623266, Alt.=146m, Speed=2Km/h, Course=44deg.</desc>
<extensions>
</extensions>
</trkpt>
<trkpt lat="50.8531383" lon="6.1623450">
 <ele>146.000000</ele>
 <time>2009-07-31T06:10:49Z</time>
 <desc>Lat.=50.8531383, Long.=6.1623450, Alt.=146m, Speed=5Km/h, Course=67deg.</desc>
<extensions>
</extensions>
</trkpt>
<trkpt lat="50.8531466" lon="6.1623700">
 <ele>146.000000</ele>
 <time>2009-07-31T06:10:50Z</time>
 <desc>Lat.=50.8531466, Long.=6.1623700, Alt.=146m, Speed=7Km/h, Course=62deg.</desc>
<extensions>
</extensions>
</trkpt>
<trkpt lat="50.8531500" lon="6.1624050">
 <ele>146.000000</ele>
 <time>2009-07-31T06:10:52Z</time>
 <desc>Lat.=50.8531500, Long.=6.1624050, Alt.=146m, Speed=4Km/h, Course=81deg.</desc>
<extensions>
</extensions>
</trkpt>
<trkpt lat="50.8531566" lon="6.1623949">
 <ele>146.000000</ele>
 <time>2009-07-31T06:10:53Z</time>
 <desc>Lat.=50.8531566, Long.=6.1623949, Alt.=146m, Speed=3Km/h, Course=316deg.</desc>
<extensions>
</extensions>
</trkpt>
<trkpt lat="50.8531933" lon="6.1624533">
 <ele>145.000000</ele>
 <time>2009-07-31T06:10:57Z</time>
 <desc>Lat.=50.8531933, Long.=6.1624533, Alt.=145m, Speed=5Km/h, Course=45deg.</desc>
<extensions>
</extensions>
</trkpt>
<trkpt lat="50.8532033" lon="6.1624799">
 <ele>145.000000</ele>
 <time>2009-07-31T06:10:58Z</time>
 <desc>Lat.=50.8532033, Long.=6.1624799, Alt.=145m, Speed=7Km/h, Course=59deg.</desc>
<extensions>
</extensions>
</trkpt>
<trkpt lat="50.8532433" lon="6.1625383">
 <ele>145.000000</ele>
 <time>2009-07-31T06:11:02Z</time>
 <desc>Lat.=50.8532433, Long.=6.1625383, Alt.=145m, Speed=5Km/h, Course=43deg.</desc>
<extensions>
</extensions>
</trkpt>
<trkpt lat="50.8532533" lon="6.1625733">
 <ele>145.000000</ele>
 <time>2009-07-31T06:11:03Z</time>
 <desc>Lat.=50.8532533, Long.=6.1625733, Alt.=145m, Speed=9Km/h, Course=66deg.</desc>
<extensions>
</extensions>
</trkpt>
<trkpt lat="50.8532999" lon="6.1626183">
 <ele>145.000000</ele>
 <time>2009-07-31T06:11:07Z</time>
 <desc>Lat.=50.8532999, Long.=6.1626183, Alt.=145m, Speed=5Km/h, Course=31deg.</desc>
<extensions>
</extensions>
</trkpt>
<trkpt lat="50.8533499" lon="6.1627450">
 <ele>145.000000</ele>
 <time>2009-07-31T06:11:15Z</time>
 <desc>Lat.=50.8533499, Long.=6.1627450, Alt.=145m, Speed=4Km/h, Course=58deg.</desc>
<extensions>
</extensions>
</trkpt>
<trkpt lat="50.8533633" lon="6.1627550">
 <ele>145.000000</ele>
 <time>2009-07-31T06:11:16Z</time>
 <desc>Lat.=50.8533633, Long.=6.1627550, Alt.=145m, Speed=5Km/h, Course=25deg.</desc>
<extensions>
</extensions>
</trkpt>
<trkpt lat="50.8533849" lon="6.1627699">
 <ele>145.000000</ele>
 <time>2009-07-31T06:11:17Z</time>
 <desc>Lat.=50.8533849, Long.=6.1627699, Alt.=145m, Speed=9Km/h, Course=24deg.</desc>
<extensions>
</extensions>
</trkpt>
<trkpt lat="50.8533949" lon="6.1627999">
 <ele>145.000000</ele>
 <time>2009-07-31T06:11:18Z</time>
 <desc>Lat.=50.8533949, Long.=6.1627999, Alt.=145m, Speed=8Km/h, Course=62deg.</desc>
<extensions>
</extensions>
</trkpt>
<trkpt lat="50.8534016" lon="6.1628233">
 <ele>145.000000</ele>
 <time>2009-07-31T06:11:19Z</time>
 <desc>Lat.=50.8534016, Long.=6.1628233, Alt.=145m, Speed=6Km/h, Course=66deg.</desc>
<extensions>
</extensions>
</trkpt>
<trkpt lat="50.8534649" lon="6.1629699">
 <ele>145.000000</ele>
 <time>2009-07-31T06:11:26Z</time>
 <desc>Lat.=50.8534649, Long.=6.1629699, Alt.=145m, Speed=6Km/h, Course=56deg.</desc>
<extensions>
</extensions>
</trkpt>
<trkpt lat="50.8535066" lon="6.1630850">
 <ele>145.000000</ele>
 <time>2009-07-31T06:11:32Z</time>
 <desc>Lat.=50.8535066, Long.=6.1630850, Alt.=145m, Speed=5Km/h, Course=60deg.</desc>
<extensions>
</extensions>
</trkpt>
<trkpt lat="50.8535150" lon="6.1631083">
 <ele>145.000000</ele>
 <time>2009-07-31T06:11:33Z</time>
 <desc>Lat.=50.8535150, Long.=6.1631083, Alt.=145m, Speed=6Km/h, Course=60deg.</desc>
<extensions>
</extensions>
</trkpt>
<trkpt lat="50.8535216" lon="6.1631533">
 <ele>144.000000</ele>
 <time>2009-07-31T06:11:35Z</time>
 <desc>Lat.=50.8535216, Long.=6.1631533, Alt.=144m, Speed=5Km/h, Course=77deg.</desc>
<extensions>
</extensions>
</trkpt>
<trkpt lat="50.8535283" lon="6.1631749">
 <ele>144.000000</ele>
 <time>2009-07-31T06:11:36Z</time>
 <desc>Lat.=50.8535283, Long.=6.1631749, Alt.=144m, Speed=6Km/h, Course=64deg.</desc>
<extensions>
</extensions>
</trkpt>
<trkpt lat="50.8535349" lon="6.1631949">
 <ele>145.000000</ele>
 <time>2009-07-31T06:11:37Z</time>
 <desc>Lat.=50.8535349, Long.=6.1631949, Alt.=145m, Speed=5Km/h, Course=62deg.</desc>
<extensions>
</extensions>
</trkpt>
<trkpt lat="50.8535266" lon="6.1632116">
 <ele>145.000000</ele>
 <time>2009-07-31T06:11:38Z</time>
 <desc>Lat.=50.8535266, Long.=6.1632116, Alt.=145m, Speed=5Km/h, Course=128deg.</desc>
<extensions>
</extensions>
</trkpt>
<trkpt lat="50.8535150" lon="6.1632383">
 <ele>145.000000</ele>
 <time>2009-07-31T06:11:40Z</time>
 <desc>Lat.=50.8535150, Long.=6.1632383, Alt.=145m, Speed=4Km/h, Course=125deg.</desc>
<extensions>
</extensions>
</trkpt>
<trkpt lat="50.8535183" lon="6.1632549">
 <ele>145.000000</ele>
 <time>2009-07-31T06:11:41Z</time>
 <desc>Lat.=50.8535183, Long.=6.1632549, Alt.=145m, Speed=4Km/h, Course=73deg.</desc>
<extensions>
</extensions>
</trkpt>
<trkpt lat="50.8535466" lon="6.1632783">
 <ele>145.000000</ele>
 <time>2009-07-31T06:11:43Z</time>
 <desc>Lat.=50.8535466, Long.=6.1632783, Alt.=145m, Speed=6Km/h, Course=28deg.</desc>
<extensions>
</extensions>
</trkpt>
<trkpt lat="50.8535516" lon="6.1632849">
 <ele>145.000000</ele>
 <time>2009-07-31T06:11:44Z</time>
 <desc>Lat.=50.8535516, Long.=6.1632849, Alt.=145m, Speed=2Km/h, Course=40deg.</desc>
<extensions>
</extensions>
</trkpt>
<trkpt lat="50.8535749" lon="6.1632983">
 <ele>145.000000</ele>
 <time>2009-07-31T06:11:46Z</time>
 <desc>Lat.=50.8535749, Long.=6.1632983, Alt.=145m, Speed=4Km/h, Course=20deg.</desc>
<extensions>
</extensions>
</trkpt>
<trkpt lat="50.8536100" lon="6.1633249">
 <ele>145.000000</ele>
 <time>2009-07-31T06:11:48Z</time>
 <desc>Lat.=50.8536100, Long.=6.1633249, Alt.=145m, Speed=7Km/h, Course=26deg.</desc>
<extensions>
</extensions>
</trkpt>
<trkpt lat="50.8536416" lon="6.1633416">
 <ele>145.000000</ele>
 <time>2009-07-31T06:11:49Z</time>
 <desc>Lat.=50.8536416, Long.=6.1633416, Alt.=145m, Speed=13Km/h, Course=18deg.</desc>
<extensions>
</extensions>
</trkpt>
<trkpt lat="50.8536516" lon="6.1633633">
 <ele>145.000000</ele>
 <time>2009-07-31T06:11:50Z</time>
 <desc>Lat.=50.8536516, Long.=6.1633633, Alt.=145m, Speed=6Km/h, Course=54deg.</desc>
<extensions>
</extensions>
</trkpt>
<trkpt lat="50.8536466" lon="6.1634116">
 <ele>145.000000</ele>
 <time>2009-07-31T06:11:52Z</time>
 <desc>Lat.=50.8536466, Long.=6.1634116, Alt.=145m, Speed=6Km/h, Course=99deg.</desc>
<extensions>
</extensions>
</trkpt>
<trkpt lat="50.8536583" lon="6.1634283">
 <ele>144.000000</ele>
 <time>2009-07-31T06:11:53Z</time>
 <desc>Lat.=50.8536583, Long.=6.1634283, Alt.=144m, Speed=6Km/h, Course=42deg.</desc>
<extensions>
</extensions>
</trkpt>
<trkpt lat="50.8536683" lon="6.1634516">
 <ele>144.000000</ele>
 <time>2009-07-31T06:11:54Z</time>
 <desc>Lat.=50.8536683, Long.=6.1634516, Alt.=144m, Speed=7Km/h, Course=56deg.</desc>
<extensions>
</extensions>
</trkpt>
<trkpt lat="50.8536866" lon="6.1635549">
 <ele>144.000000</ele>
 <time>2009-07-31T06:11:58Z</time>
 <desc>Lat.=50.8536866, Long.=6.1635549, Alt.=144m, Speed=6Km/h, Course=74deg.</desc>
<extensions>
</extensions>
</trkpt>
<trkpt lat="50.8537383" lon="6.1635483">
 <ele>145.000000</ele>
 <time>2009-07-31T06:12:00Z</time>
 <desc>Lat.=50.8537383, Long.=6.1635483, Alt.=145m, Speed=10Km/h, Course=355deg.</desc>
<extensions>
</extensions>
</trkpt>
<trkpt lat="50.8537466" lon="6.1635816">
 <ele>145.000000</ele>
 <time>2009-07-31T06:12:02Z</time>
 <desc>Lat.=50.8537466, Long.=6.1635816, Alt.=145m, Speed=4Km/h, Course=68deg.</desc>
<extensions>
</extensions>
</trkpt>
<trkpt lat="50.8537416" lon="6.1636983">
 <ele>144.000000</ele>
 <time>2009-07-31T06:12:06Z</time>
 <desc>Lat.=50.8537416, Long.=6.1636983, Alt.=144m, Speed=7Km/h, Course=94deg.</desc>
<extensions>
</extensions>
</trkpt>
<trkpt lat="50.8537500" lon="6.1637216">
 <ele>144.000000</ele>
 <time>2009-07-31T06:12:07Z</time>
 <desc>Lat.=50.8537500, Long.=6.1637216, Alt.=144m, Speed=6Km/h, Course=60deg.</desc>
<extensions>
</extensions>
</trkpt>
<trkpt lat="50.8537699" lon="6.1637299">
 <ele>144.000000</ele>
 <time>2009-07-31T06:12:08Z</time>
 <desc>Lat.=50.8537699, Long.=6.1637299, Alt.=144m, Speed=8Km/h, Course=15deg.</desc>
<extensions>
</extensions>
</trkpt>
<trkpt lat="50.8538033" lon="6.1637750">
 <ele>144.000000</ele>
 <time>2009-07-31T06:12:11Z</time>
 <desc>Lat.=50.8538033, Long.=6.1637750, Alt.=144m, Speed=5Km/h, Course=40deg.</desc>
<extensions>
</extensions>
</trkpt>
<trkpt lat="50.8538366" lon="6.1637866">
 <ele>145.000000</ele>
 <time>2009-07-31T06:12:14Z</time>
 <desc>Lat.=50.8538366, Long.=6.1637866, Alt.=145m, Speed=4Km/h, Course=12deg.</desc>
<extensions>
</extensions>
</trkpt>
<trkpt lat="50.8538449" lon="6.1637933">
 <ele>145.000000</ele>
 <time>2009-07-31T06:12:15Z</time>
 <desc>Lat.=50.8538449, Long.=6.1637933, Alt.=145m, Speed=3Km/h, Course=27deg.</desc>
<extensions>
</extensions>
</trkpt>
<trkpt lat="50.8538616" lon="6.1638133">
 <ele>145.000000</ele>
 <time>2009-07-31T06:12:20Z</time>
 <desc>Lat.=50.8538616, Long.=6.1638133, Alt.=145m, Speed=1Km/h, Course=37deg.</desc>
<extensions>
</extensions>
</trkpt>
<trkpt lat="50.8538632" lon="6.1638133">
 <ele>145.000000</ele>
 <time>2009-07-31T06:12:21Z</time>
 <desc>Lat.=50.8538632, Long.=6.1638133, Alt.=145m, Speed=0Km/h, Course=0deg.</desc>
<extensions>
</extensions>
</trkpt>
<trkpt lat="50.8538766" lon="6.1638133">
 <ele>145.000000</ele>
 <time>2009-07-31T06:12:23Z</time>
 <desc>Lat.=50.8538766, Long.=6.1638133, Alt.=145m, Speed=2Km/h, Course=0deg.</desc>
<extensions>
</extensions>
</trkpt>
<trkpt lat="50.8538749" lon="6.1638333">
 <ele>145.000000</ele>
 <time>2009-07-31T06:12:25Z</time>
 <desc>Lat.=50.8538749, Long.=6.1638333, Alt.=145m, Speed=2Km/h, Course=98deg.</desc>
<extensions>
</extensions>
</trkpt>
<trkpt lat="50.8538632" lon="6.1638566">
 <ele>145.000000</ele>
 <time>2009-07-31T06:12:26Z</time>
 <desc>Lat.=50.8538632, Long.=6.1638566, Alt.=145m, Speed=7Km/h, Course=128deg.</desc>
<extensions>
</extensions>
</trkpt>
<trkpt lat="50.8538632" lon="6.1638649">
 <ele>145.000000</ele>
 <time>2009-07-31T06:12:27Z</time>
 <desc>Lat.=50.8538632, Long.=6.1638649, Alt.=145m, Speed=2Km/h, Course=90deg.</desc>
<extensions>
</extensions>
</trkpt>
<trkpt lat="50.8538716" lon="6.1638883">
 <ele>145.000000</ele>
 <time>2009-07-31T06:12:29Z</time>
 <desc>Lat.=50.8538716, Long.=6.1638883, Alt.=145m, Speed=3Km/h, Course=60deg.</desc>
<extensions>
</extensions>
</trkpt>
<trkpt lat="50.8538650" lon="6.1638983">
 <ele>145.000000</ele>
 <time>2009-07-31T06:12:30Z</time>
 <desc>Lat.=50.8538650, Long.=6.1638983, Alt.=145m, Speed=3Km/h, Course=136deg.</desc>
<extensions>
</extensions>
</trkpt>
<trkpt lat="50.8538599" lon="6.1638933">
 <ele>145.000000</ele>
 <time>2009-07-31T06:12:31Z</time>
 <desc>Lat.=50.8538599, Long.=6.1638933, Alt.=145m, Speed=2Km/h, Course=212deg.</desc>
<extensions>
</extensions>
</trkpt>
<trkpt lat="50.8538733" lon="6.1638883">
 <ele>145.000000</ele>
 <time>2009-07-31T06:12:33Z</time>
 <desc>Lat.=50.8538733, Long.=6.1638883, Alt.=145m, Speed=2Km/h, Course=347deg.</desc>
<extensions>
</extensions>
</trkpt>
<trkpt lat="50.8538783" lon="6.1639150">
 <ele>145.000000</ele>
 <time>2009-07-31T06:12:34Z</time>
 <desc>Lat.=50.8538783, Long.=6.1639150, Alt.=145m, Speed=7Km/h, Course=73deg.</desc>
<extensions>
</extensions>
</trkpt>
<trkpt lat="50.8538933" lon="6.1639283">
 <ele>145.000000</ele>
 <time>2009-07-31T06:12:35Z</time>
 <desc>Lat.=50.8538933, Long.=6.1639283, Alt.=145m, Speed=6Km/h, Course=29deg.</desc>
<extensions>
</extensions>
</trkpt>
<trkpt lat="50.8539133" lon="6.1638783">
 <ele>145.000000</ele>
 <time>2009-07-31T06:12:44Z</time>
 <desc>Lat.=50.8539133, Long.=6.1638783, Alt.=145m, Speed=1Km/h, Course=302deg.</desc>
<extensions>
</extensions>
</trkpt>
<trkpt lat="50.8539083" lon="6.1638900">
 <ele>145.000000</ele>
 <time>2009-07-31T06:12:45Z</time>
 <desc>Lat.=50.8539083, Long.=6.1638900, Alt.=145m, Speed=3Km/h, Course=124deg.</desc>
<extensions>
</extensions>
</trkpt>
<trkpt lat="50.8539050" lon="6.1638900">
 <ele>145.000000</ele>
 <time>2009-07-31T06:12:51Z</time>
 <desc>Lat.=50.8539050, Long.=6.1638900, Alt.=145m, Speed=0Km/h, Course=180deg.</desc>
<extensions>
</extensions>
</trkpt>
<trkpt lat="50.8539083" lon="6.1638849">
 <ele>145.000000</ele>
 <time>2009-07-31T06:12:52Z</time>
 <desc>Lat.=50.8539083, Long.=6.1638849, Alt.=145m, Speed=1Km/h, Course=316deg.</desc>
<extensions>
</extensions>
</trkpt>
<trkpt lat="50.8539099" lon="6.1638816">
 <ele>145.000000</ele>
 <time>2009-07-31T06:12:53Z</time>
 <desc>Lat.=50.8539099, Long.=6.1638816, Alt.=145m, Speed=1Km/h, Course=308deg.</desc>
<extensions>
</extensions>
</trkpt>
<trkpt lat="50.8539133" lon="6.1638733">
 <ele>145.000000</ele>
 <time>2009-07-31T06:12:54Z</time>
 <desc>Lat.=50.8539133, Long.=6.1638733, Alt.=145m, Speed=2Km/h, Course=303deg.</desc>
<extensions>
</extensions>
</trkpt>
<trkpt lat="50.8539083" lon="6.1638683">
 <ele>145.000000</ele>
 <time>2009-07-31T06:12:56Z</time>
 <desc>Lat.=50.8539083, Long.=6.1638683, Alt.=145m, Speed=1Km/h, Course=212deg.</desc>
<extensions>
</extensions>
</trkpt>
<trkpt lat="50.8539050" lon="6.1638366">
 <ele>145.000000</ele>
 <time>2009-07-31T06:12:58Z</time>
 <desc>Lat.=50.8539050, Long.=6.1638366, Alt.=145m, Speed=4Km/h, Course=261deg.</desc>
<extensions>
</extensions>
</trkpt>
<trkpt lat="50.8539183" lon="6.1637949">
 <ele>145.000000</ele>
 <time>2009-07-31T06:12:59Z</time>
 <desc>Lat.=50.8539183, Long.=6.1637949, Alt.=145m, Speed=11Km/h, Course=297deg.</desc>
<extensions>
</extensions>
</trkpt>
<trkpt lat="50.8539216" lon="6.1638083">
 <ele>145.000000</ele>
 <time>2009-07-31T06:13:00Z</time>
 <desc>Lat.=50.8539216, Long.=6.1638083, Alt.=145m, Speed=3Km/h, Course=69deg.</desc>
<extensions>
</extensions>
</trkpt>
<trkpt lat="50.8539200" lon="6.1637933">
 <ele>145.000000</ele>
 <time>2009-07-31T06:13:02Z</time>
 <desc>Lat.=50.8539200, Long.=6.1637933, Alt.=145m, Speed=1Km/h, Course=260deg.</desc>
<extensions>
</extensions>
</trkpt>
<trkpt lat="50.8539233" lon="6.1637933">
 <ele>145.000000</ele>
 <time>2009-07-31T06:13:03Z</time>
 <desc>Lat.=50.8539233, Long.=6.1637933, Alt.=145m, Speed=1Km/h, Course=0deg.</desc>
<extensions>
</extensions>
</trkpt>
<trkpt lat="50.8539200" lon="6.1637683">
 <ele>145.000000</ele>
 <time>2009-07-31T06:13:06Z</time>
 <desc>Lat.=50.8539200, Long.=6.1637683, Alt.=145m, Speed=2Km/h, Course=258deg.</desc>
<extensions>
</extensions>
</trkpt>
<trkpt lat="50.8538999" lon="6.1638033">
 <ele>145.000000</ele>
 <time>2009-07-31T06:13:08Z</time>
 <desc>Lat.=50.8538999, Long.=6.1638033, Alt.=145m, Speed=5Km/h, Course=132deg.</desc>
<extensions>
</extensions>
</trkpt>
<trkpt lat="50.8539500" lon="6.1638033">
 <ele>145.000000</ele>
 <time>2009-07-31T06:14:29Z</time>
 <desc>Lat.=50.8539500, Long.=6.1638033, Alt.=145m, Speed=0Km/h, Course=0deg.</desc>
<extensions>
</extensions>
</trkpt>
<trkpt lat="50.8539533" lon="6.1637899">
 <ele>145.000000</ele>
 <time>2009-07-31T06:14:30Z</time>
 <desc>Lat.=50.8539533, Long.=6.1637899, Alt.=145m, Speed=3Km/h, Course=291deg.</desc>
<extensions>
</extensions>
</trkpt>
<trkpt lat="50.8539549" lon="6.1637799">
 <ele>145.000000</ele>
 <time>2009-07-31T06:14:31Z</time>
 <desc>Lat.=50.8539549, Long.=6.1637799, Alt.=145m, Speed=2Km/h, Course=284deg.</desc>
<extensions>
</extensions>
</trkpt>
<trkpt lat="50.8539566" lon="6.1637716">
 <ele>146.000000</ele>
 <time>2009-07-31T06:14:32Z</time>
 <desc>Lat.=50.8539566, Long.=6.1637716, Alt.=146m, Speed=2Km/h, Course=288deg.</desc>
<extensions>
</extensions>
</trkpt>
<trkpt lat="50.8539566" lon="6.1637683">
 <ele>146.000000</ele>
 <time>2009-07-31T06:14:33Z</time>
 <desc>Lat.=50.8539566, Long.=6.1637683, Alt.=146m, Speed=0Km/h, Course=270deg.</desc>
<extensions>
</extensions>
</trkpt>
<trkpt lat="50.8539566" lon="6.1637699">
 <ele>146.000000</ele>
 <time>2009-07-31T06:14:34Z</time>
 <desc>Lat.=50.8539566, Long.=6.1637699, Alt.=146m, Speed=0Km/h, Course=90deg.</desc>
<extensions>
</extensions>
</trkpt>
<trkpt lat="50.8540200" lon="6.1643433">
 <ele>147.000000</ele>
 <time>2009-07-31T06:15:36Z</time>
 <desc>Lat.=50.8540200, Long.=6.1643433, Alt.=147m, Speed=2Km/h, Course=80deg.</desc>
<extensions>
</extensions>
</trkpt>
<trkpt lat="50.8540333" lon="6.1643466">
 <ele>147.000000</ele>
 <time>2009-07-31T06:15:37Z</time>
 <desc>Lat.=50.8540333, Long.=6.1643466, Alt.=147m, Speed=5Km/h, Course=9deg.</desc>
<extensions>
</extensions>
</trkpt>
<trkpt lat="50.8540566" lon="6.1643600">
 <ele>147.000000</ele>
 <time>2009-07-31T06:15:38Z</time>
 <desc>Lat.=50.8540566, Long.=6.1643600, Alt.=147m, Speed=9Km/h, Course=20deg.</desc>
<extensions>
</extensions>
</trkpt>
<trkpt lat="50.8540766" lon="6.1643749">
 <ele>147.000000</ele>
 <time>2009-07-31T06:15:40Z</time>
 <desc>Lat.=50.8540766, Long.=6.1643749, Alt.=147m, Speed=4Km/h, Course=25deg.</desc>
<extensions>
</extensions>
</trkpt>
<trkpt lat="50.8539216" lon="6.1644566">
 <ele>147.000000</ele>
 <time>2009-07-31T06:15:44Z</time>
 <desc>Lat.=50.8539216, Long.=6.1644566, Alt.=147m, Speed=16Km/h, Course=162deg.</desc>
<extensions>
</extensions>
</trkpt>
<trkpt lat="50.8539983" lon="6.1643583">
 <ele>147.000000</ele>
 <time>2009-07-31T06:15:49Z</time>
 <desc>Lat.=50.8539983, Long.=6.1643583, Alt.=147m, Speed=7Km/h, Course=321deg.</desc>
<extensions>
</extensions>
</trkpt>
<trkpt lat="50.8540300" lon="6.1643233">
 <ele>147.000000</ele>
 <time>2009-07-31T06:15:50Z</time>
 <desc>Lat.=50.8540300, Long.=6.1643233, Alt.=147m, Speed=15Km/h, Course=325deg.</desc>
<extensions>
</extensions>
</trkpt>
<trkpt lat="50.8540549" lon="6.1642966">
 <ele>147.000000</ele>
 <time>2009-07-31T06:15:51Z</time>
 <desc>Lat.=50.8540549, Long.=6.1642966, Alt.=147m, Speed=12Km/h, Course=326deg.</desc>
<extensions>
</extensions>
</trkpt>
<trkpt lat="50.8540816" lon="6.1642799">
 <ele>147.000000</ele>
 <time>2009-07-31T06:15:52Z</time>
 <desc>Lat.=50.8540816, Long.=6.1642799, Alt.=147m, Speed=11Km/h, Course=338deg.</desc>
<extensions>
</extensions>
</trkpt>
<trkpt lat="50.8540933" lon="6.1642733">
 <ele>147.000000</ele>
 <time>2009-07-31T06:15:53Z</time>
 <desc>Lat.=50.8540933, Long.=6.1642733, Alt.=147m, Speed=4Km/h, Course=340deg.</desc>
<extensions>
</extensions>
</trkpt>
<trkpt lat="50.8541333" lon="6.1642216">
 <ele>147.000000</ele>
 <time>2009-07-31T06:15:54Z</time>
 <desc>Lat.=50.8541333, Long.=6.1642216, Alt.=147m, Speed=20Km/h, Course=321deg.</desc>
<extensions>
</extensions>
</trkpt>
<trkpt lat="50.8541666" lon="6.1641933">
 <ele>147.000000</ele>
 <time>2009-07-31T06:15:55Z</time>
 <desc>Lat.=50.8541666, Long.=6.1641933, Alt.=147m, Speed=15Km/h, Course=332deg.</desc>
<extensions>
</extensions>
</trkpt>
<trkpt lat="50.8541900" lon="6.1641783">
 <ele>147.000000</ele>
 <time>2009-07-31T06:15:56Z</time>
 <desc>Lat.=50.8541900, Long.=6.1641783, Alt.=147m, Speed=10Km/h, Course=338deg.</desc>
<extensions>
</extensions>
</trkpt>
<trkpt lat="50.8542183" lon="6.1641566">
 <ele>147.000000</ele>
 <time>2009-07-31T06:15:58Z</time>
 <desc>Lat.=50.8542183, Long.=6.1641566, Alt.=147m, Speed=6Km/h, Course=334deg.</desc>
<extensions>
</extensions>
</trkpt>
<trkpt lat="50.8542616" lon="6.1641399">
 <ele>147.000000</ele>
 <time>2009-07-31T06:16:00Z</time>
 <desc>Lat.=50.8542616, Long.=6.1641399, Alt.=147m, Speed=8Km/h, Course=346deg.</desc>
<extensions>
</extensions>
</trkpt>
<trkpt lat="50.8542816" lon="6.1641316">
 <ele>147.000000</ele>
 <time>2009-07-31T06:16:01Z</time>
 <desc>Lat.=50.8542816, Long.=6.1641316, Alt.=147m, Speed=8Km/h, Course=345deg.</desc>
<extensions>
</extensions>
</trkpt>
<trkpt lat="50.8543349" lon="6.1641433">
 <ele>147.000000</ele>
 <time>2009-07-31T06:16:06Z</time>
 <desc>Lat.=50.8543349, Long.=6.1641433, Alt.=147m, Speed=4Km/h, Course=8deg.</desc>
<extensions>
</extensions>
</trkpt>
<trkpt lat="50.8543599" lon="6.1641766">
 <ele>147.000000</ele>
 <time>2009-07-31T06:16:11Z</time>
 <desc>Lat.=50.8543599, Long.=6.1641766, Alt.=147m, Speed=2Km/h, Course=40deg.</desc>
<extensions>
</extensions>
</trkpt>
<trkpt lat="50.8543733" lon="6.1641933">
 <ele>147.000000</ele>
 <time>2009-07-31T06:16:13Z</time>
 <desc>Lat.=50.8543733, Long.=6.1641933, Alt.=147m, Speed=3Km/h, Course=38deg.</desc>
<extensions>
</extensions>
</trkpt>
<trkpt lat="50.8543716" lon="6.1642149">
 <ele>147.000000</ele>
 <time>2009-07-31T06:16:14Z</time>
 <desc>Lat.=50.8543716, Long.=6.1642149, Alt.=147m, Speed=5Km/h, Course=97deg.</desc>
<extensions>
</extensions>
</trkpt>
<trkpt lat="50.8543799" lon="6.1642366">
 <ele>147.000000</ele>
 <time>2009-07-31T06:16:16Z</time>
 <desc>Lat.=50.8543799, Long.=6.1642366, Alt.=147m, Speed=3Km/h, Course=59deg.</desc>
<extensions>
</extensions>
</trkpt>
<trkpt lat="50.8543833" lon="6.1642799">
 <ele>147.000000</ele>
 <time>2009-07-31T06:16:18Z</time>
 <desc>Lat.=50.8543833, Long.=6.1642799, Alt.=147m, Speed=5Km/h, Course=83deg.</desc>
<extensions>
</extensions>
</trkpt>
<trkpt lat="50.8544166" lon="6.1643133">
 <ele>147.000000</ele>
 <time>2009-07-31T06:16:22Z</time>
 <desc>Lat.=50.8544166, Long.=6.1643133, Alt.=147m, Speed=3Km/h, Course=32deg.</desc>
<extensions>
</extensions>
</trkpt>
<trkpt lat="50.8544499" lon="6.1643950">
 <ele>147.000000</ele>
 <time>2009-07-31T06:16:29Z</time>
 <desc>Lat.=50.8544499, Long.=6.1643950, Alt.=147m, Speed=3Km/h, Course=57deg.</desc>
<extensions>
</extensions>
</trkpt>
<trkpt lat="50.8544749" lon="6.1644833">
 <ele>147.000000</ele>
 <time>2009-07-31T06:16:36Z</time>
 <desc>Lat.=50.8544749, Long.=6.1644833, Alt.=147m, Speed=3Km/h, Course=66deg.</desc>
<extensions>
</extensions>
</trkpt>
<trkpt lat="50.8544833" lon="6.1645233">
 <ele>148.000000</ele>
 <time>2009-07-31T06:16:39Z</time>
 <desc>Lat.=50.8544833, Long.=6.1645233, Alt.=148m, Speed=3Km/h, Course=72deg.</desc>
<extensions>
</extensions>
</trkpt>
<trkpt lat="50.8545199" lon="6.1645649">
 <ele>148.000000</ele>
 <time>2009-07-31T06:16:45Z</time>
 <desc>Lat.=50.8545199, Long.=6.1645649, Alt.=148m, Speed=3Km/h, Course=36deg.</desc>
<extensions>
</extensions>
</trkpt>
<trkpt lat="50.8545350" lon="6.1646383">
 <ele>148.000000</ele>
 <time>2009-07-31T06:16:54Z</time>
 <desc>Lat.=50.8545350, Long.=6.1646383, Alt.=148m, Speed=2Km/h, Course=72deg.</desc>
<extensions>
</extensions>
</trkpt>
<trkpt lat="50.8545333" lon="6.1646483">
 <ele>148.000000</ele>
 <time>2009-07-31T06:16:56Z</time>
 <desc>Lat.=50.8545333, Long.=6.1646483, Alt.=148m, Speed=1Km/h, Course=105deg.</desc>
<extensions>
</extensions>
</trkpt>
<trkpt lat="50.8545283" lon="6.1646533">
 <ele>148.000000</ele>
 <time>2009-07-31T06:16:59Z</time>
 <desc>Lat.=50.8545283, Long.=6.1646533, Alt.=148m, Speed=0Km/h, Course=148deg.</desc>
<extensions>
</extensions>
</trkpt>
<trkpt lat="50.8545183" lon="6.1646683">
 <ele>148.000000</ele>
 <time>2009-07-31T06:17:01Z</time>
 <desc>Lat.=50.8545183, Long.=6.1646683, Alt.=148m, Speed=2Km/h, Course=137deg.</desc>
<extensions>
</extensions>
</trkpt>
<trkpt lat="50.8545082" lon="6.1646766">
 <ele>148.000000</ele>
 <time>2009-07-31T06:17:03Z</time>
 <desc>Lat.=50.8545082, Long.=6.1646766, Alt.=148m, Speed=2Km/h, Course=153deg.</desc>
<extensions>
</extensions>
</trkpt>
<trkpt lat="50.8545116" lon="6.1646966">
 <ele>148.000000</ele>
 <time>2009-07-31T06:17:30Z</time>
 <desc>Lat.=50.8545116, Long.=6.1646966, Alt.=148m, Speed=0Km/h, Course=75deg.</desc>
<extensions>
</extensions>
</trkpt>
<trkpt lat="50.8545016" lon="6.1646983">
 <ele>148.000000</ele>
 <time>2009-07-31T06:17:31Z</time>
 <desc>Lat.=50.8545016, Long.=6.1646983, Alt.=148m, Speed=4Km/h, Course=174deg.</desc>
<extensions>
</extensions>
</trkpt>
<trkpt lat="50.8544933" lon="6.1647283">
 <ele>148.000000</ele>
 <time>2009-07-31T06:17:34Z</time>
 <desc>Lat.=50.8544933, Long.=6.1647283, Alt.=148m, Speed=2Km/h, Course=114deg.</desc>
<extensions>
</extensions>
</trkpt>
<trkpt lat="50.8545082" lon="6.1647450">
 <ele>148.000000</ele>
 <time>2009-07-31T06:17:35Z</time>
 <desc>Lat.=50.8545082, Long.=6.1647450, Alt.=148m, Speed=7Km/h, Course=35deg.</desc>
<extensions>
</extensions>
</trkpt>
<trkpt lat="50.8545216" lon="6.1647599">
 <ele>148.000000</ele>
 <time>2009-07-31T06:17:36Z</time>
 <desc>Lat.=50.8545216, Long.=6.1647599, Alt.=148m, Speed=6Km/h, Course=35deg.</desc>
<extensions>
</extensions>
</trkpt>
<trkpt lat="50.8545416" lon="6.1647716">
 <ele>148.000000</ele>
 <time>2009-07-31T06:17:37Z</time>
 <desc>Lat.=50.8545416, Long.=6.1647716, Alt.=148m, Speed=8Km/h, Course=20deg.</desc>
<extensions>
</extensions>
</trkpt>
<trkpt lat="50.8545599" lon="6.1647849">
 <ele>148.000000</ele>
 <time>2009-07-31T06:17:38Z</time>
 <desc>Lat.=50.8545599, Long.=6.1647849, Alt.=148m, Speed=8Km/h, Course=25deg.</desc>
<extensions>
</extensions>
</trkpt>
<trkpt lat="50.8545733" lon="6.1647933">
 <ele>148.000000</ele>
 <time>2009-07-31T06:17:39Z</time>
 <desc>Lat.=50.8545733, Long.=6.1647933, Alt.=148m, Speed=5Km/h, Course=22deg.</desc>
<extensions>
</extensions>
</trkpt>
<trkpt lat="50.8545966" lon="6.1647916">
 <ele>148.000000</ele>
 <time>2009-07-31T06:17:40Z</time>
 <desc>Lat.=50.8545966, Long.=6.1647916, Alt.=148m, Speed=9Km/h, Course=357deg.</desc>
<extensions>
</extensions>
</trkpt>
<trkpt lat="50.8546650" lon="6.1648400">
 <ele>148.000000</ele>
 <time>2009-07-31T06:17:43Z</time>
 <desc>Lat.=50.8546650, Long.=6.1648400, Alt.=148m, Speed=10Km/h, Course=24deg.</desc>
<extensions>
</extensions>
</trkpt>
<trkpt lat="50.8547483" lon="6.1648949">
 <ele>148.000000</ele>
 <time>2009-07-31T06:17:46Z</time>
 <desc>Lat.=50.8547483, Long.=6.1648949, Alt.=148m, Speed=12Km/h, Course=23deg.</desc>
<extensions>
</extensions>
</trkpt>
<trkpt lat="50.8548066" lon="6.1649133">
 <ele>148.000000</ele>
 <time>2009-07-31T06:17:48Z</time>
 <desc>Lat.=50.8548066, Long.=6.1649133, Alt.=148m, Speed=11Km/h, Course=11deg.</desc>
<extensions>
</extensions>
</trkpt>
<trkpt lat="50.8548649" lon="6.1649649">
 <ele>148.000000</ele>
 <time>2009-07-31T06:17:51Z</time>
 <desc>Lat.=50.8548649, Long.=6.1649649, Alt.=148m, Speed=8Km/h, Course=29deg.</desc>
<extensions>
</extensions>
</trkpt>
<trkpt lat="50.8549516" lon="6.1650766">
 <ele>148.000000</ele>
 <time>2009-07-31T06:17:58Z</time>
 <desc>Lat.=50.8549516, Long.=6.1650766, Alt.=148m, Speed=6Km/h, Course=39deg.</desc>
<extensions>
</extensions>
</trkpt>
<trkpt lat="50.8550133" lon="6.1651233">
 <ele>148.000000</ele>
 <time>2009-07-31T06:18:03Z</time>
 <desc>Lat.=50.8550133, Long.=6.1651233, Alt.=148m, Speed=5Km/h, Course=26deg.</desc>
<extensions>
</extensions>
</trkpt>
<trkpt lat="50.8550283" lon="6.1651333">
 <ele>148.000000</ele>
 <time>2009-07-31T06:18:04Z</time>
 <desc>Lat.=50.8550283, Long.=6.1651333, Alt.=148m, Speed=6Km/h, Course=23deg.</desc>
<extensions>
</extensions>
</trkpt>
<trkpt lat="50.8550899" lon="6.1652433">
 <ele>148.000000</ele>
 <time>2009-07-31T06:18:13Z</time>
 <desc>Lat.=50.8550899, Long.=6.1652433, Alt.=148m, Speed=4Km/h, Course=48deg.</desc>
<extensions>
</extensions>
</trkpt>
<trkpt lat="50.8551899" lon="6.1653116">
 <ele>148.000000</ele>
 <time>2009-07-31T06:18:23Z</time>
 <desc>Lat.=50.8551899, Long.=6.1653116, Alt.=148m, Speed=4Km/h, Course=23deg.</desc>
<extensions>
</extensions>
</trkpt>
<trkpt lat="50.8552400" lon="6.1653799">
 <ele>148.000000</ele>
 <time>2009-07-31T06:18:27Z</time>
 <desc>Lat.=50.8552400, Long.=6.1653799, Alt.=148m, Speed=6Km/h, Course=41deg.</desc>
<extensions>
</extensions>
</trkpt>
<trkpt lat="50.8553083" lon="6.1653716">
 <ele>148.000000</ele>
 <time>2009-07-31T06:18:51Z</time>
 <desc>Lat.=50.8553083, Long.=6.1653716, Alt.=148m, Speed=1Km/h, Course=356deg.</desc>
<extensions>
</extensions>
</trkpt>
<trkpt lat="50.8553516" lon="6.1653816">
 <ele>148.000000</ele>
 <time>2009-07-31T06:18:58Z</time>
 <desc>Lat.=50.8553516, Long.=6.1653816, Alt.=148m, Speed=2Km/h, Course=8deg.</desc>
<extensions>
</extensions>
</trkpt>
<trkpt lat="50.8553950" lon="6.1652983">
 <ele>148.000000</ele>
 <time>2009-07-31T06:19:00Z</time>
 <desc>Lat.=50.8553950, Long.=6.1652983, Alt.=148m, Speed=13Km/h, Course=310deg.</desc>
<extensions>
</extensions>
</trkpt>
<trkpt lat="50.8554249" lon="6.1652433">
 <ele>148.000000</ele>
 <time>2009-07-31T06:19:02Z</time>
 <desc>Lat.=50.8554249, Long.=6.1652433, Alt.=148m, Speed=9Km/h, Course=311deg.</desc>
<extensions>
</extensions>
</trkpt>
<trkpt lat="50.8554333" lon="6.1651966">
 <ele>148.000000</ele>
 <time>2009-07-31T06:19:03Z</time>
 <desc>Lat.=50.8554333, Long.=6.1651966, Alt.=148m, Speed=12Km/h, Course=286deg.</desc>
<extensions>
</extensions>
</trkpt>
<trkpt lat="50.8554333" lon="6.1650816">
 <ele>148.000000</ele>
 <time>2009-07-31T06:19:07Z</time>
 <desc>Lat.=50.8554333, Long.=6.1650816, Alt.=148m, Speed=7Km/h, Course=270deg.</desc>
<extensions>
</extensions>
</trkpt>
<trkpt lat="50.8554416" lon="6.1650566">
 <ele>148.000000</ele>
 <time>2009-07-31T06:19:08Z</time>
 <desc>Lat.=50.8554416, Long.=6.1650566, Alt.=148m, Speed=7Km/h, Course=298deg.</desc>
<extensions>
</extensions>
</trkpt>
<trkpt lat="50.8554416" lon="6.1650266">
 <ele>148.000000</ele>
 <time>2009-07-31T06:19:09Z</time>
 <desc>Lat.=50.8554416, Long.=6.1650266, Alt.=148m, Speed=7Km/h, Course=270deg.</desc>
<extensions>
</extensions>
</trkpt>
<trkpt lat="50.8554600" lon="6.1648850">
 <ele>148.000000</ele>
 <time>2009-07-31T06:19:15Z</time>
 <desc>Lat.=50.8554600, Long.=6.1648850, Alt.=148m, Speed=6Km/h, Course=282deg.</desc>
<extensions>
</extensions>
</trkpt>
<trkpt lat="50.8555683" lon="6.1647716">
 <ele>148.000000</ele>
 <time>2009-07-31T06:19:22Z</time>
 <desc>Lat.=50.8555683, Long.=6.1647716, Alt.=148m, Speed=7Km/h, Course=327deg.</desc>
<extensions>
</extensions>
</trkpt>
<trkpt lat="50.8555866" lon="6.1647399">
 <ele>148.000000</ele>
 <time>2009-07-31T06:19:24Z</time>
 <desc>Lat.=50.8555866, Long.=6.1647399, Alt.=148m, Speed=5Km/h, Course=312deg.</desc>
<extensions>
</extensions>
</trkpt>
<trkpt lat="50.8555983" lon="6.1647216">
 <ele>148.000000</ele>
 <time>2009-07-31T06:19:25Z</time>
 <desc>Lat.=50.8555983, Long.=6.1647216, Alt.=148m, Speed=6Km/h, Course=315deg.</desc>
<extensions>
</extensions>
</trkpt>
<trkpt lat="50.8556266" lon="6.1646883">
 <ele>148.000000</ele>
 <time>2009-07-31T06:19:28Z</time>
 <desc>Lat.=50.8556266, Long.=6.1646883, Alt.=148m, Speed=4Km/h, Course=323deg.</desc>
<extensions>
</extensions>
</trkpt>
<trkpt lat="50.8556549" lon="6.1646683">
 <ele>148.000000</ele>
 <time>2009-07-31T06:19:31Z</time>
 <desc>Lat.=50.8556549, Long.=6.1646683, Alt.=148m, Speed=4Km/h, Course=336deg.</desc>
<extensions>
</extensions>
</trkpt>
<trkpt lat="50.8556799" lon="6.1646366">
 <ele>148.000000</ele>
 <time>2009-07-31T06:19:32Z</time>
 <desc>Lat.=50.8556799, Long.=6.1646366, Alt.=148m, Speed=12Km/h, Course=321deg.</desc>
<extensions>
</extensions>
</trkpt>
<trkpt lat="50.8557216" lon="6.1646116">
 <ele>149.000000</ele>
 <time>2009-07-31T06:19:38Z</time>
 <desc>Lat.=50.8557216, Long.=6.1646116, Alt.=149m, Speed=2Km/h, Course=339deg.</desc>
<extensions>
</extensions>
</trkpt>
<trkpt lat="50.8557099" lon="6.1646016">
 <ele>149.000000</ele>
 <time>2009-07-31T06:19:40Z</time>
 <desc>Lat.=50.8557099, Long.=6.1646016, Alt.=149m, Speed=2Km/h, Course=208deg.</desc>
<extensions>
</extensions>
</trkpt>
<trkpt lat="50.8557483" lon="6.1645433">
 <ele>148.000000</ele>
 <time>2009-07-31T06:19:44Z</time>
 <desc>Lat.=50.8557483, Long.=6.1645433, Alt.=148m, Speed=5Km/h, Course=316deg.</desc>
<extensions>
</extensions>
</trkpt>
<trkpt lat="50.8557633" lon="6.1645283">
 <ele>148.000000</ele>
 <time>2009-07-31T06:19:46Z</time>
 <desc>Lat.=50.8557633, Long.=6.1645283, Alt.=148m, Speed=3Km/h, Course=328deg.</desc>
<extensions>
</extensions>
</trkpt>
<trkpt lat="50.8558016" lon="6.1645333">
 <ele>148.000000</ele>
 <time>2009-07-31T06:19:51Z</time>
 <desc>Lat.=50.8558016, Long.=6.1645333, Alt.=148m, Speed=3Km/h, Course=5deg.</desc>
<extensions>
</extensions>
</trkpt>
<trkpt lat="50.8558133" lon="6.1645499">
 <ele>148.000000</ele>
 <time>2009-07-31T06:19:53Z</time>
 <desc>Lat.=50.8558133, Long.=6.1645499, Alt.=148m, Speed=3Km/h, Course=42deg.</desc>
<extensions>
</extensions>
</trkpt>
<trkpt lat="50.8558166" lon="6.1645533">
 <ele>148.000000</ele>
 <time>2009-07-31T06:19:54Z</time>
 <desc>Lat.=50.8558166, Long.=6.1645533, Alt.=148m, Speed=1Km/h, Course=33deg.</desc>
<extensions>
</extensions>
</trkpt>
<trkpt lat="50.8558383" lon="6.1645399">
 <ele>148.000000</ele>
 <time>2009-07-31T06:19:57Z</time>
 <desc>Lat.=50.8558383, Long.=6.1645399, Alt.=148m, Speed=3Km/h, Course=339deg.</desc>
<extensions>
</extensions>
</trkpt>
<trkpt lat="50.8558383" lon="6.1645133">
 <ele>148.000000</ele>
 <time>2009-07-31T06:19:59Z</time>
 <desc>Lat.=50.8558383, Long.=6.1645133, Alt.=148m, Speed=3Km/h, Course=270deg.</desc>
<extensions>
</extensions>
</trkpt>
<trkpt lat="50.8558583" lon="6.1644716">
 <ele>149.000000</ele>
 <time>2009-07-31T06:20:02Z</time>
 <desc>Lat.=50.8558583, Long.=6.1644716, Alt.=149m, Speed=4Km/h, Course=307deg.</desc>
<extensions>
</extensions>
</trkpt>
<trkpt lat="50.8559033" lon="6.1643600">
 <ele>150.000000</ele>
 <time>2009-07-31T06:20:11Z</time>
 <desc>Lat.=50.8559033, Long.=6.1643600, Alt.=150m, Speed=3Km/h, Course=303deg.</desc>
<extensions>
</extensions>
</trkpt>
<trkpt lat="50.8559199" lon="6.1643383">
 <ele>150.000000</ele>
 <time>2009-07-31T06:20:12Z</time>
 <desc>Lat.=50.8559199, Long.=6.1643383, Alt.=150m, Speed=8Km/h, Course=320deg.</desc>
<extensions>
</extensions>
</trkpt>
<trkpt lat="50.8559250" lon="6.1642933">
 <ele>150.000000</ele>
 <time>2009-07-31T06:20:16Z</time>
 <desc>Lat.=50.8559250, Long.=6.1642933, Alt.=150m, Speed=2Km/h, Course=280deg.</desc>
<extensions>
</extensions>
</trkpt>
<trkpt lat="50.8559166" lon="6.1642983">
 <ele>150.000000</ele>
 <time>2009-07-31T06:20:17Z</time>
 <desc>Lat.=50.8559166, Long.=6.1642983, Alt.=150m, Speed=3Km/h, Course=159deg.</desc>
<extensions>
</extensions>
</trkpt>
<trkpt lat="50.8559149" lon="6.1643016">
 <ele>150.000000</ele>
 <time>2009-07-31T06:20:18Z</time>
 <desc>Lat.=50.8559149, Long.=6.1643016, Alt.=150m, Speed=1Km/h, Course=129deg.</desc>
<extensions>
</extensions>
</trkpt>
<trkpt lat="50.8559516" lon="6.1642550">
 <ele>150.000000</ele>
 <time>2009-07-31T06:20:20Z</time>
 <desc>Lat.=50.8559516, Long.=6.1642550, Alt.=150m, Speed=9Km/h, Course=321deg.</desc>
<extensions>
</extensions>
</trkpt>
<trkpt lat="50.8559733" lon="6.1642266">
 <ele>151.000000</ele>
 <time>2009-07-31T06:20:21Z</time>
 <desc>Lat.=50.8559733, Long.=6.1642266, Alt.=151m, Speed=11Km/h, Course=320deg.</desc>
<extensions>
</extensions>
</trkpt>
<trkpt lat="50.8560049" lon="6.1641666">
 <ele>151.000000</ele>
 <time>2009-07-31T06:20:25Z</time>
 <desc>Lat.=50.8560049, Long.=6.1641666, Alt.=151m, Speed=4Km/h, Course=310deg.</desc>
<extensions>
</extensions>
</trkpt>
<trkpt lat="50.8560433" lon="6.1641266">
 <ele>151.000000</ele>
 <time>2009-07-31T06:20:28Z</time>
 <desc>Lat.=50.8560433, Long.=6.1641266, Alt.=151m, Speed=6Km/h, Course=327deg.</desc>
<extensions>
</extensions>
</trkpt>
<trkpt lat="50.8560683" lon="6.1641066">
 <ele>151.000000</ele>
 <time>2009-07-31T06:20:30Z</time>
 <desc>Lat.=50.8560683, Long.=6.1641066, Alt.=151m, Speed=5Km/h, Course=333deg.</desc>
<extensions>
</extensions>
</trkpt>
<trkpt lat="50.8560666" lon="6.1640933">
 <ele>151.000000</ele>
 <time>2009-07-31T06:20:31Z</time>
 <desc>Lat.=50.8560666, Long.=6.1640933, Alt.=151m, Speed=3Km/h, Course=259deg.</desc>
<extensions>
</extensions>
</trkpt>
<trkpt lat="50.8560683" lon="6.1639733">
 <ele>151.000000</ele>
 <time>2009-07-31T06:20:36Z</time>
 <desc>Lat.=50.8560683, Long.=6.1639733, Alt.=151m, Speed=6Km/h, Course=271deg.</desc>
<extensions>
</extensions>
</trkpt>
<trkpt lat="50.8561799" lon="6.1638299">
 <ele>151.000000</ele>
 <time>2009-07-31T06:20:42Z</time>
 <desc>Lat.=50.8561799, Long.=6.1638299, Alt.=151m, Speed=9Km/h, Course=321deg.</desc>
<extensions>
</extensions>
</trkpt>
<trkpt lat="50.8561816" lon="6.1638100">
 <ele>151.000000</ele>
 <time>2009-07-31T06:20:43Z</time>
 <desc>Lat.=50.8561816, Long.=6.1638100, Alt.=151m, Speed=5Km/h, Course=278deg.</desc>
<extensions>
</extensions>
</trkpt>
<trkpt lat="50.8561983" lon="6.1637850">
 <ele>151.000000</ele>
 <time>2009-07-31T06:20:44Z</time>
 <desc>Lat.=50.8561983, Long.=6.1637850, Alt.=151m, Speed=9Km/h, Course=317deg.</desc>
<extensions>
</extensions>
</trkpt>
<trkpt lat="50.8562116" lon="6.1637583">
 <ele>151.000000</ele>
 <time>2009-07-31T06:20:45Z</time>
 <desc>Lat.=50.8562116, Long.=6.1637583, Alt.=151m, Speed=8Km/h, Course=308deg.</desc>
<extensions>
</extensions>
</trkpt>
<trkpt lat="50.8562216" lon="6.1637400">
 <ele>151.000000</ele>
 <time>2009-07-31T06:20:46Z</time>
 <desc>Lat.=50.8562216, Long.=6.1637400, Alt.=151m, Speed=6Km/h, Course=311deg.</desc>
<extensions>
</extensions>
</trkpt>
<trkpt lat="50.8562249" lon="6.1637199">
 <ele>151.000000</ele>
 <time>2009-07-31T06:20:47Z</time>
 <desc>Lat.=50.8562249, Long.=6.1637199, Alt.=151m, Speed=5Km/h, Course=285deg.</desc>
<extensions>
</extensions>
</trkpt>
<trkpt lat="50.8562283" lon="6.1637016">
 <ele>151.000000</ele>
 <time>2009-07-31T06:20:48Z</time>
 <desc>Lat.=50.8562283, Long.=6.1637016, Alt.=151m, Speed=4Km/h, Course=286deg.</desc>
<extensions>
</extensions>
</trkpt>
<trkpt lat="50.8562149" lon="6.1636716">
 <ele>151.000000</ele>
 <time>2009-07-31T06:20:50Z</time>
 <desc>Lat.=50.8562149, Long.=6.1636716, Alt.=151m, Speed=4Km/h, Course=235deg.</desc>
<extensions>
</extensions>
</trkpt>
<trkpt lat="50.8562099" lon="6.1636433">
 <ele>151.000000</ele>
 <time>2009-07-31T06:20:51Z</time>
 <desc>Lat.=50.8562099, Long.=6.1636433, Alt.=151m, Speed=7Km/h, Course=254deg.</desc>
<extensions>
</extensions>
</trkpt>
<trkpt lat="50.8562116" lon="6.1636066">
 <ele>151.000000</ele>
 <time>2009-07-31T06:20:53Z</time>
 <desc>Lat.=50.8562116, Long.=6.1636066, Alt.=151m, Speed=4Km/h, Course=274deg.</desc>
<extensions>
</extensions>
</trkpt>
<trkpt lat="50.8562233" lon="6.1635816">
 <ele>152.000000</ele>
 <time>2009-07-31T06:20:54Z</time>
 <desc>Lat.=50.8562233, Long.=6.1635816, Alt.=152m, Speed=7Km/h, Course=307deg.</desc>
<extensions>
</extensions>
</trkpt>
<trkpt lat="50.8562283" lon="6.1635650">
 <ele>152.000000</ele>
 <time>2009-07-31T06:20:55Z</time>
 <desc>Lat.=50.8562283, Long.=6.1635650, Alt.=152m, Speed=4Km/h, Course=296deg.</desc>
<extensions>
</extensions>
</trkpt>
<trkpt lat="50.8562266" lon="6.1635416">
 <ele>152.000000</ele>
 <time>2009-07-31T06:20:56Z</time>
 <desc>Lat.=50.8562266, Long.=6.1635416, Alt.=152m, Speed=5Km/h, Course=263deg.</desc>
<extensions>
</extensions>
</trkpt>
<trkpt lat="50.8562299" lon="6.1635233">
 <ele>152.000000</ele>
 <time>2009-07-31T06:20:57Z</time>
 <desc>Lat.=50.8562299, Long.=6.1635233, Alt.=152m, Speed=4Km/h, Course=286deg.</desc>
<extensions>
</extensions>
</trkpt>
<trkpt lat="50.8562549" lon="6.1634649">
 <ele>152.000000</ele>
 <time>2009-07-31T06:21:00Z</time>
 <desc>Lat.=50.8562549, Long.=6.1634649, Alt.=152m, Speed=5Km/h, Course=304deg.</desc>
<extensions>
</extensions>
</trkpt>
<trkpt lat="50.8562666" lon="6.1634450">
 <ele>152.000000</ele>
 <time>2009-07-31T06:21:02Z</time>
 <desc>Lat.=50.8562666, Long.=6.1634450, Alt.=152m, Speed=3Km/h, Course=313deg.</desc>
<extensions>
</extensions>
</trkpt>
<trkpt lat="50.8562766" lon="6.1634383">
 <ele>152.000000</ele>
 <time>2009-07-31T06:21:03Z</time>
 <desc>Lat.=50.8562766, Long.=6.1634383, Alt.=152m, Speed=4Km/h, Course=337deg.</desc>
<extensions>
</extensions>
</trkpt>
<trkpt lat="50.8562900" lon="6.1634133">
 <ele>152.000000</ele>
 <time>2009-07-31T06:21:04Z</time>
 <desc>Lat.=50.8562900, Long.=6.1634133, Alt.=152m, Speed=8Km/h, Course=310deg.</desc>
<extensions>
</extensions>
</trkpt>
<trkpt lat="50.8563099" lon="6.1633966">
 <ele>151.000000</ele>
 <time>2009-07-31T06:21:06Z</time>
 <desc>Lat.=50.8563099, Long.=6.1633966, Alt.=151m, Speed=4Km/h, Course=332deg.</desc>
<extensions>
</extensions>
</trkpt>
<trkpt lat="50.8563200" lon="6.1633466">
 <ele>151.000000</ele>
 <time>2009-07-31T06:21:09Z</time>
 <desc>Lat.=50.8563200, Long.=6.1633466, Alt.=151m, Speed=4Km/h, Course=288deg.</desc>
<extensions>
</extensions>
</trkpt>
<trkpt lat="50.8563216" lon="6.1632933">
 <ele>151.000000</ele>
 <time>2009-07-31T06:21:11Z</time>
 <desc>Lat.=50.8563216, Long.=6.1632933, Alt.=151m, Speed=6Km/h, Course=273deg.</desc>
<extensions>
</extensions>
</trkpt>
<trkpt lat="50.8563300" lon="6.1632616">
 <ele>151.000000</ele>
 <time>2009-07-31T06:21:12Z</time>
 <desc>Lat.=50.8563300, Long.=6.1632616, Alt.=151m, Speed=8Km/h, Course=293deg.</desc>
<extensions>
</extensions>
</trkpt>
<trkpt lat="50.8563383" lon="6.1632316">
 <ele>151.000000</ele>
 <time>2009-07-31T06:21:13Z</time>
 <desc>Lat.=50.8563383, Long.=6.1632316, Alt.=151m, Speed=8Km/h, Course=294deg.</desc>
<extensions>
</extensions>
</trkpt>
<trkpt lat="50.8563399" lon="6.1632066">
 <ele>151.000000</ele>
 <time>2009-07-31T06:21:14Z</time>
 <desc>Lat.=50.8563399, Long.=6.1632066, Alt.=151m, Speed=6Km/h, Course=276deg.</desc>
<extensions>
</extensions>
</trkpt>
<trkpt lat="50.8563733" lon="6.1631200">
 <ele>151.000000</ele>
 <time>2009-07-31T06:21:21Z</time>
 <desc>Lat.=50.8563733, Long.=6.1631200, Alt.=151m, Speed=3Km/h, Course=301deg.</desc>
<extensions>
</extensions>
</trkpt>
<trkpt lat="50.8564150" lon="6.1630933">
 <ele>151.000000</ele>
 <time>2009-07-31T06:21:23Z</time>
 <desc>Lat.=50.8564150, Long.=6.1630933, Alt.=151m, Speed=9Km/h, Course=338deg.</desc>
<extensions>
</extensions>
</trkpt>
<trkpt lat="50.8564466" lon="6.1630416">
 <ele>151.000000</ele>
 <time>2009-07-31T06:21:25Z</time>
 <desc>Lat.=50.8564466, Long.=6.1630416, Alt.=151m, Speed=9Km/h, Course=314deg.</desc>
<extensions>
</extensions>
</trkpt>
<trkpt lat="50.8564566" lon="6.1630149">
 <ele>151.000000</ele>
 <time>2009-07-31T06:21:26Z</time>
 <desc>Lat.=50.8564566, Long.=6.1630149, Alt.=151m, Speed=7Km/h, Course=301deg.</desc>
<extensions>
</extensions>
</trkpt>
<trkpt lat="50.8564733" lon="6.1629883">
 <ele>151.000000</ele>
 <time>2009-07-31T06:21:27Z</time>
 <desc>Lat.=50.8564733, Long.=6.1629883, Alt.=151m, Speed=9Km/h, Course=315deg.</desc>
<extensions>
</extensions>
</trkpt>
<trkpt lat="50.8564700" lon="6.1629583">
 <ele>151.000000</ele>
 <time>2009-07-31T06:21:28Z</time>
 <desc>Lat.=50.8564700, Long.=6.1629583, Alt.=151m, Speed=7Km/h, Course=260deg.</desc>
<extensions>
</extensions>
</trkpt>
<trkpt lat="50.8564733" lon="6.1629566">
 <ele>151.000000</ele>
 <time>2009-07-31T06:21:30Z</time>
 <desc>Lat.=50.8564733, Long.=6.1629566, Alt.=151m, Speed=0Km/h, Course=342deg.</desc>
<extensions>
</extensions>
</trkpt>
<trkpt lat="50.8564883" lon="6.1629366">
 <ele>151.000000</ele>
 <time>2009-07-31T06:21:32Z</time>
 <desc>Lat.=50.8564883, Long.=6.1629366, Alt.=151m, Speed=3Km/h, Course=320deg.</desc>
<extensions>
</extensions>
</trkpt>
<trkpt lat="50.8564949" lon="6.1629166">
 <ele>151.000000</ele>
 <time>2009-07-31T06:21:33Z</time>
 <desc>Lat.=50.8564949, Long.=6.1629166, Alt.=151m, Speed=5Km/h, Course=298deg.</desc>
<extensions>
</extensions>
</trkpt>
<trkpt lat="50.8565116" lon="6.1628733">
 <ele>151.000000</ele>
 <time>2009-07-31T06:21:35Z</time>
 <desc>Lat.=50.8565116, Long.=6.1628733, Alt.=151m, Speed=6Km/h, Course=301deg.</desc>
<extensions>
</extensions>
</trkpt>
<trkpt lat="50.8565199" lon="6.1628516">
 <ele>150.000000</ele>
 <time>2009-07-31T06:21:37Z</time>
 <desc>Lat.=50.8565199, Long.=6.1628516, Alt.=150m, Speed=3Km/h, Course=301deg.</desc>
<extensions>
</extensions>
</trkpt>
<trkpt lat="50.8565166" lon="6.1628466">
 <ele>150.000000</ele>
 <time>2009-07-31T06:21:39Z</time>
 <desc>Lat.=50.8565166, Long.=6.1628466, Alt.=150m, Speed=0Km/h, Course=224deg.</desc>
<extensions>
</extensions>
</trkpt>
<trkpt lat="50.8565133" lon="6.1628583">
 <ele>150.000000</ele>
 <time>2009-07-31T06:21:40Z</time>
 <desc>Lat.=50.8565133, Long.=6.1628583, Alt.=150m, Speed=3Km/h, Course=114deg.</desc>
<extensions>
</extensions>
</trkpt>
<trkpt lat="50.8565133" lon="6.1628733">
 <ele>150.000000</ele>
 <time>2009-07-31T06:21:41Z</time>
 <desc>Lat.=50.8565133, Long.=6.1628733, Alt.=150m, Speed=3Km/h, Course=90deg.</desc>
<extensions>
</extensions>
</trkpt>
<trkpt lat="50.8565116" lon="6.1628833">
 <ele>150.000000</ele>
 <time>2009-07-31T06:21:42Z</time>
 <desc>Lat.=50.8565116, Long.=6.1628833, Alt.=150m, Speed=2Km/h, Course=105deg.</desc>
<extensions>
</extensions>
</trkpt>
<trkpt lat="50.8566566" lon="6.1627983">
 <ele>151.000000</ele>
 <time>2009-07-31T06:21:48Z</time>
 <desc>Lat.=50.8566566, Long.=6.1627983, Alt.=151m, Speed=10Km/h, Course=340deg.</desc>
<extensions>
</extensions>
</trkpt>
<trkpt lat="50.8566683" lon="6.1627983">
 <ele>151.000000</ele>
 <time>2009-07-31T06:22:03Z</time>
 <desc>Lat.=50.8566683, Long.=6.1627983, Alt.=151m, Speed=0Km/h, Course=0deg.</desc>
<extensions>
</extensions>
</trkpt>
<trkpt lat="50.8566599" lon="6.1628033">
 <ele>151.000000</ele>
 <time>2009-07-31T06:22:09Z</time>
 <desc>Lat.=50.8566599, Long.=6.1628033, Alt.=151m, Speed=0Km/h, Course=159deg.</desc>
<extensions>
</extensions>
</trkpt>
<trkpt lat="50.8566566" lon="6.1628116">
 <ele>151.000000</ele>
 <time>2009-07-31T06:22:10Z</time>
 <desc>Lat.=50.8566566, Long.=6.1628116, Alt.=151m, Speed=2Km/h, Course=122deg.</desc>
<extensions>
</extensions>
</trkpt>
<trkpt lat="50.8566550" lon="6.1628250">
 <ele>151.000000</ele>
 <time>2009-07-31T06:22:11Z</time>
 <desc>Lat.=50.8566550, Long.=6.1628250, Alt.=151m, Speed=3Km/h, Course=101deg.</desc>
<extensions>
</extensions>
</trkpt>
<trkpt lat="50.8566550" lon="6.1628466">
 <ele>151.000000</ele>
 <time>2009-07-31T06:22:12Z</time>
 <desc>Lat.=50.8566550, Long.=6.1628466, Alt.=151m, Speed=5Km/h, Course=90deg.</desc>
<extensions>
</extensions>
</trkpt>
<trkpt lat="50.8566550" lon="6.1628899">
 <ele>151.000000</ele>
 <time>2009-07-31T06:22:15Z</time>
 <desc>Lat.=50.8566550, Long.=6.1628899, Alt.=151m, Speed=3Km/h, Course=90deg.</desc>
<extensions>
</extensions>
</trkpt>
<trkpt lat="50.8566583" lon="6.1628816">
 <ele>151.000000</ele>
 <time>2009-07-31T06:22:20Z</time>
 <desc>Lat.=50.8566583, Long.=6.1628816, Alt.=151m, Speed=0Km/h, Course=302deg.</desc>
<extensions>
</extensions>
</trkpt>
<trkpt lat="50.8566683" lon="6.1628699">
 <ele>151.000000</ele>
 <time>2009-07-31T06:22:22Z</time>
 <desc>Lat.=50.8566683, Long.=6.1628699, Alt.=151m, Speed=2Km/h, Course=324deg.</desc>
<extensions>
</extensions>
</trkpt>
<trkpt lat="50.8566716" lon="6.1628649">
 <ele>151.000000</ele>
 <time>2009-07-31T06:22:23Z</time>
 <desc>Lat.=50.8566716, Long.=6.1628649, Alt.=151m, Speed=1Km/h, Course=316deg.</desc>
<extensions>
</extensions>
</trkpt>
<trkpt lat="50.8566666" lon="6.1628466">
 <ele>151.000000</ele>
 <time>2009-07-31T06:22:36Z</time>
 <desc>Lat.=50.8566666, Long.=6.1628466, Alt.=151m, Speed=0Km/h, Course=247deg.</desc>
<extensions>
</extensions>
</trkpt>
<trkpt lat="50.8566849" lon="6.1628383">
 <ele>151.000000</ele>
 <time>2009-07-31T06:22:37Z</time>
 <desc>Lat.=50.8566849, Long.=6.1628383, Alt.=151m, Speed=7Km/h, Course=344deg.</desc>
<extensions>
</extensions>
</trkpt>
<trkpt lat="50.8567082" lon="6.1628283">
 <ele>151.000000</ele>
 <time>2009-07-31T06:22:39Z</time>
 <desc>Lat.=50.8567082, Long.=6.1628283, Alt.=151m, Speed=4Km/h, Course=345deg.</desc>
<extensions>
</extensions>
</trkpt>
<trkpt lat="50.8567416" lon="6.1627999">
 <ele>151.000000</ele>
 <time>2009-07-31T06:22:42Z</time>
 <desc>Lat.=50.8567416, Long.=6.1627999, Alt.=151m, Speed=5Km/h, Course=332deg.</desc>
<extensions>
</extensions>
</trkpt>
<trkpt lat="50.8567483" lon="6.1627333">
 <ele>151.000000</ele>
 <time>2009-07-31T06:22:47Z</time>
 <desc>Lat.=50.8567483, Long.=6.1627333, Alt.=151m, Speed=3Km/h, Course=279deg.</desc>
<extensions>
</extensions>
</trkpt>
<trkpt lat="50.8567716" lon="6.1626616">
 <ele>151.000000</ele>
 <time>2009-07-31T06:22:50Z</time>
 <desc>Lat.=50.8567716, Long.=6.1626616, Alt.=151m, Speed=6Km/h, Course=297deg.</desc>
<extensions>
</extensions>
</trkpt>
<trkpt lat="50.8567866" lon="6.1626316">
 <ele>151.000000</ele>
 <time>2009-07-31T06:22:51Z</time>
 <desc>Lat.=50.8567866, Long.=6.1626316, Alt.=151m, Speed=9Km/h, Course=308deg.</desc>
<extensions>
</extensions>
</trkpt>
<trkpt lat="50.8568100" lon="6.1625933">
 <ele>151.000000</ele>
 <time>2009-07-31T06:22:53Z</time>
 <desc>Lat.=50.8568100, Long.=6.1625933, Alt.=151m, Speed=6Km/h, Course=314deg.</desc>
<extensions>
</extensions>
</trkpt>
<trkpt lat="50.8568449" lon="6.1625366">
 <ele>151.000000</ele>
 <time>2009-07-31T06:22:58Z</time>
 <desc>Lat.=50.8568449, Long.=6.1625366, Alt.=151m, Speed=4Km/h, Course=314deg.</desc>
<extensions>
</extensions>
</trkpt>
<trkpt lat="50.8569149" lon="6.1625016">
 <ele>151.000000</ele>
 <time>2009-07-31T06:23:06Z</time>
 <desc>Lat.=50.8569149, Long.=6.1625016, Alt.=151m, Speed=3Km/h, Course=342deg.</desc>
<extensions>
</extensions>
</trkpt>
<trkpt lat="50.8569566" lon="6.1624750">
 <ele>151.000000</ele>
 <time>2009-07-31T06:23:09Z</time>
 <desc>Lat.=50.8569566, Long.=6.1624750, Alt.=151m, Speed=6Km/h, Course=338deg.</desc>
<extensions>
</extensions>
</trkpt>
<trkpt lat="50.8569716" lon="6.1624516">
 <ele>151.000000</ele>
 <time>2009-07-31T06:23:10Z</time>
 <desc>Lat.=50.8569716, Long.=6.1624516, Alt.=151m, Speed=8Km/h, Course=315deg.</desc>
<extensions>
</extensions>
</trkpt>
<trkpt lat="50.8569933" lon="6.1624166">
 <ele>151.000000</ele>
 <time>2009-07-31T06:23:13Z</time>
 <desc>Lat.=50.8569933, Long.=6.1624166, Alt.=151m, Speed=4Km/h, Course=314deg.</desc>
<extensions>
</extensions>
</trkpt>
<trkpt lat="50.8570016" lon="6.1624083">
 <ele>151.000000</ele>
 <time>2009-07-31T06:23:16Z</time>
 <desc>Lat.=50.8570016, Long.=6.1624083, Alt.=151m, Speed=1Km/h, Course=328deg.</desc>
<extensions>
</extensions>
</trkpt>
<trkpt lat="50.8571183" lon="6.1621833">
 <ele>151.000000</ele>
 <time>2009-07-31T06:23:32Z</time>
 <desc>Lat.=50.8571183, Long.=6.1621833, Alt.=151m, Speed=4Km/h, Course=309deg.</desc>
<extensions>
</extensions>
</trkpt>
<trkpt lat="50.8572166" lon="6.1620616">
 <ele>151.000000</ele>
 <time>2009-07-31T06:23:39Z</time>
 <desc>Lat.=50.8572166, Long.=6.1620616, Alt.=151m, Speed=7Km/h, Course=322deg.</desc>
<extensions>
</extensions>
</trkpt>
<trkpt lat="50.8572249" lon="6.1620683">
 <ele>151.000000</ele>
 <time>2009-07-31T06:23:41Z</time>
 <desc>Lat.=50.8572249, Long.=6.1620683, Alt.=151m, Speed=1Km/h, Course=27deg.</desc>
<extensions>
</extensions>
</trkpt>
<trkpt lat="50.8572599" lon="6.1620083">
 <ele>151.000000</ele>
 <time>2009-07-31T06:23:44Z</time>
 <desc>Lat.=50.8572599, Long.=6.1620083, Alt.=151m, Speed=6Km/h, Course=313deg.</desc>
<extensions>
</extensions>
</trkpt>
<trkpt lat="50.8572833" lon="6.1619649">
 <ele>151.000000</ele>
 <time>2009-07-31T06:23:48Z</time>
 <desc>Lat.=50.8572833, Long.=6.1619649, Alt.=151m, Speed=3Km/h, Course=311deg.</desc>
<extensions>
</extensions>
</trkpt>
<trkpt lat="50.8573283" lon="6.1619566">
 <ele>151.000000</ele>
 <time>2009-07-31T06:23:51Z</time>
 <desc>Lat.=50.8573283, Long.=6.1619566, Alt.=151m, Speed=6Km/h, Course=353deg.</desc>
<extensions>
</extensions>
</trkpt>
<trkpt lat="50.8573700" lon="6.1619283">
 <ele>151.000000</ele>
 <time>2009-07-31T06:23:54Z</time>
 <desc>Lat.=50.8573700, Long.=6.1619283, Alt.=151m, Speed=6Km/h, Course=337deg.</desc>
<extensions>
</extensions>
</trkpt>
<trkpt lat="50.8574316" lon="6.1618416">
 <ele>151.000000</ele>
 <time>2009-07-31T06:24:00Z</time>
 <desc>Lat.=50.8574316, Long.=6.1618416, Alt.=151m, Speed=5Km/h, Course=318deg.</desc>
<extensions>
</extensions>
</trkpt>
<trkpt lat="50.8574749" lon="6.1617699">
 <ele>151.000000</ele>
 <time>2009-07-31T06:24:03Z</time>
 <desc>Lat.=50.8574749, Long.=6.1617699, Alt.=151m, Speed=8Km/h, Course=314deg.</desc>
<extensions>
</extensions>
</trkpt>
<trkpt lat="50.8574933" lon="6.1617483">
 <ele>151.000000</ele>
 <time>2009-07-31T06:24:04Z</time>
 <desc>Lat.=50.8574933, Long.=6.1617483, Alt.=151m, Speed=9Km/h, Course=323deg.</desc>
<extensions>
</extensions>
</trkpt>
<trkpt lat="50.8575083" lon="6.1617349">
 <ele>151.000000</ele>
 <time>2009-07-31T06:24:05Z</time>
 <desc>Lat.=50.8575083, Long.=6.1617349, Alt.=151m, Speed=6Km/h, Course=331deg.</desc>
<extensions>
</extensions>
</trkpt>
<trkpt lat="50.8575200" lon="6.1617150">
 <ele>151.000000</ele>
 <time>2009-07-31T06:24:06Z</time>
 <desc>Lat.=50.8575200, Long.=6.1617150, Alt.=151m, Speed=6Km/h, Course=313deg.</desc>
<extensions>
</extensions>
</trkpt>
<trkpt lat="50.8575250" lon="6.1616949">
 <ele>151.000000</ele>
 <time>2009-07-31T06:24:07Z</time>
 <desc>Lat.=50.8575250, Long.=6.1616949, Alt.=151m, Speed=5Km/h, Course=292deg.</desc>
<extensions>
</extensions>
</trkpt>
<trkpt lat="50.8575283" lon="6.1616816">
 <ele>151.000000</ele>
 <time>2009-07-31T06:24:08Z</time>
 <desc>Lat.=50.8575283, Long.=6.1616816, Alt.=151m, Speed=3Km/h, Course=291deg.</desc>
<extensions>
</extensions>
</trkpt>
<trkpt lat="50.8575632" lon="6.1616383">
 <ele>151.000000</ele>
 <time>2009-07-31T06:24:15Z</time>
 <desc>Lat.=50.8575632, Long.=6.1616383, Alt.=151m, Speed=2Km/h, Course=322deg.</desc>
<extensions>
</extensions>
</trkpt>
<trkpt lat="50.8575866" lon="6.1616216">
 <ele>151.000000</ele>
 <time>2009-07-31T06:24:17Z</time>
 <desc>Lat.=50.8575866, Long.=6.1616216, Alt.=151m, Speed=5Km/h, Course=336deg.</desc>
<extensions>
</extensions>
</trkpt>
<trkpt lat="50.8575999" lon="6.1616066">
 <ele>151.000000</ele>
 <time>2009-07-31T06:24:18Z</time>
 <desc>Lat.=50.8575999, Long.=6.1616066, Alt.=151m, Speed=6Km/h, Course=325deg.</desc>
<extensions>
</extensions>
</trkpt>
<trkpt lat="50.8576133" lon="6.1615916">
 <ele>151.000000</ele>
 <time>2009-07-31T06:24:19Z</time>
 <desc>Lat.=50.8576133, Long.=6.1615916, Alt.=151m, Speed=6Km/h, Course=325deg.</desc>
<extensions>
</extensions>
</trkpt>
<trkpt lat="50.8576416" lon="6.1615449">
 <ele>151.000000</ele>
 <time>2009-07-31T06:24:22Z</time>
 <desc>Lat.=50.8576416, Long.=6.1615449, Alt.=151m, Speed=5Km/h, Course=314deg.</desc>
<extensions>
</extensions>
</trkpt>
<trkpt lat="50.8576533" lon="6.1615033">
 <ele>151.000000</ele>
 <time>2009-07-31T06:24:24Z</time>
 <desc>Lat.=50.8576533, Long.=6.1615033, Alt.=151m, Speed=5Km/h, Course=294deg.</desc>
<extensions>
</extensions>
</trkpt>
<trkpt lat="50.8576566" lon="6.1614766">
 <ele>151.000000</ele>
 <time>2009-07-31T06:24:25Z</time>
 <desc>Lat.=50.8576566, Long.=6.1614766, Alt.=151m, Speed=6Km/h, Course=281deg.</desc>
<extensions>
</extensions>
</trkpt>
<trkpt lat="50.8576566" lon="6.1614466">
 <ele>151.000000</ele>
 <time>2009-07-31T06:24:26Z</time>
 <desc>Lat.=50.8576566, Long.=6.1614466, Alt.=151m, Speed=7Km/h, Course=270deg.</desc>
<extensions>
</extensions>
</trkpt>
<trkpt lat="50.8576600" lon="6.1614283">
 <ele>151.000000</ele>
 <time>2009-07-31T06:24:27Z</time>
 <desc>Lat.=50.8576600, Long.=6.1614283, Alt.=151m, Speed=4Km/h, Course=286deg.</desc>
<extensions>
</extensions>
</trkpt>
<trkpt lat="50.8576983" lon="6.1613833">
 <ele>151.000000</ele>
 <time>2009-07-31T06:24:32Z</time>
 <desc>Lat.=50.8576983, Long.=6.1613833, Alt.=151m, Speed=3Km/h, Course=323deg.</desc>
<extensions>
</extensions>
</trkpt>
<trkpt lat="50.8577099" lon="6.1613799">
 <ele>151.000000</ele>
 <time>2009-07-31T06:24:34Z</time>
 <desc>Lat.=50.8577099, Long.=6.1613799, Alt.=151m, Speed=2Km/h, Course=350deg.</desc>
<extensions>
</extensions>
</trkpt>
<trkpt lat="50.8577433" lon="6.1614133">
 <ele>150.000000</ele>
 <time>2009-07-31T06:24:48Z</time>
 <desc>Lat.=50.8577433, Long.=6.1614133, Alt.=150m, Speed=1Km/h, Course=32deg.</desc>
<extensions>
</extensions>
</trkpt>
<trkpt lat="50.8577483" lon="6.1613533">
 <ele>150.000000</ele>
 <time>2009-07-31T06:24:52Z</time>
 <desc>Lat.=50.8577483, Long.=6.1613533, Alt.=150m, Speed=3Km/h, Course=278deg.</desc>
<extensions>
</extensions>
</trkpt>
<trkpt lat="50.8577350" lon="6.1612700">
 <ele>150.000000</ele>
 <time>2009-07-31T06:24:56Z</time>
 <desc>Lat.=50.8577350, Long.=6.1612700, Alt.=150m, Speed=5Km/h, Course=256deg.</desc>
<extensions>
</extensions>
</trkpt>
<trkpt lat="50.8577066" lon="6.1610450">
 <ele>155.000000</ele>
 <time>2009-07-31T06:25:06Z</time>
 <desc>Lat.=50.8577066, Long.=6.1610450, Alt.=155m, Speed=5Km/h, Course=259deg.</desc>
<extensions>
</extensions>
</trkpt>
<trkpt lat="50.8577099" lon="6.1610316">
 <ele>154.000000</ele>
 <time>2009-07-31T06:25:07Z</time>
 <desc>Lat.=50.8577099, Long.=6.1610316, Alt.=154m, Speed=3Km/h, Course=291deg.</desc>
<extensions>
</extensions>
</trkpt>
<trkpt lat="50.8577050" lon="6.1610016">
 <ele>155.000000</ele>
 <time>2009-07-31T06:25:08Z</time>
 <desc>Lat.=50.8577050, Long.=6.1610016, Alt.=155m, Speed=7Km/h, Course=255deg.</desc>
<extensions>
</extensions>
</trkpt>
<trkpt lat="50.8577050" lon="6.1609566">
 <ele>155.000000</ele>
 <time>2009-07-31T06:25:10Z</time>
 <desc>Lat.=50.8577050, Long.=6.1609566, Alt.=155m, Speed=5Km/h, Course=270deg.</desc>
<extensions>
</extensions>
</trkpt>
<trkpt lat="50.8577016" lon="6.1609283">
 <ele>155.000000</ele>
 <time>2009-07-31T06:25:11Z</time>
 <desc>Lat.=50.8577016, Long.=6.1609283, Alt.=155m, Speed=7Km/h, Course=259deg.</desc>
<extensions>
</extensions>
</trkpt>
<trkpt lat="50.8577016" lon="6.1609033">
 <ele>155.000000</ele>
 <time>2009-07-31T06:25:12Z</time>
 <desc>Lat.=50.8577016, Long.=6.1609033, Alt.=155m, Speed=6Km/h, Course=270deg.</desc>
<extensions>
</extensions>
</trkpt>
<trkpt lat="50.8577366" lon="6.1608783">
 <ele>155.000000</ele>
 <time>2009-07-31T06:25:17Z</time>
 <desc>Lat.=50.8577366, Long.=6.1608783, Alt.=155m, Speed=3Km/h, Course=336deg.</desc>
<extensions>
</extensions>
</trkpt>
<trkpt lat="50.8577333" lon="6.1608700">
 <ele>155.000000</ele>
 <time>2009-07-31T06:25:19Z</time>
 <desc>Lat.=50.8577333, Long.=6.1608700, Alt.=155m, Speed=1Km/h, Course=238deg.</desc>
<extensions>
</extensions>
</trkpt>
<trkpt lat="50.8577399" lon="6.1608366">
 <ele>155.000000</ele>
 <time>2009-07-31T06:25:20Z</time>
 <desc>Lat.=50.8577399, Long.=6.1608366, Alt.=155m, Speed=8Km/h, Course=287deg.</desc>
<extensions>
</extensions>
</trkpt>
<trkpt lat="50.8577383" lon="6.1607849">
 <ele>155.000000</ele>
 <time>2009-07-31T06:25:22Z</time>
 <desc>Lat.=50.8577383, Long.=6.1607849, Alt.=155m, Speed=6Km/h, Course=267deg.</desc>
<extensions>
</extensions>
</trkpt>
<trkpt lat="50.8577499" lon="6.1607383">
 <ele>155.000000</ele>
 <time>2009-07-31T06:25:24Z</time>
 <desc>Lat.=50.8577499, Long.=6.1607383, Alt.=155m, Speed=6Km/h, Course=292deg.</desc>
<extensions>
</extensions>
</trkpt>
<trkpt lat="50.8577516" lon="6.1606983">
 <ele>155.000000</ele>
 <time>2009-07-31T06:25:27Z</time>
 <desc>Lat.=50.8577516, Long.=6.1606983, Alt.=155m, Speed=3Km/h, Course=274deg.</desc>
<extensions>
</extensions>
</trkpt>
<trkpt lat="50.8577183" lon="6.1606016">
 <ele>154.000000</ele>
 <time>2009-07-31T06:25:34Z</time>
 <desc>Lat.=50.8577183, Long.=6.1606016, Alt.=154m, Speed=3Km/h, Course=241deg.</desc>
<extensions>
</extensions>
</trkpt>
<trkpt lat="50.8577149" lon="6.1605816">
 <ele>154.000000</ele>
 <time>2009-07-31T06:25:36Z</time>
 <desc>Lat.=50.8577149, Long.=6.1605816, Alt.=154m, Speed=2Km/h, Course=255deg.</desc>
<extensions>
</extensions>
</trkpt>
<trkpt lat="50.8577183" lon="6.1605666">
 <ele>153.000000</ele>
 <time>2009-07-31T06:25:37Z</time>
 <desc>Lat.=50.8577183, Long.=6.1605666, Alt.=153m, Speed=4Km/h, Course=290deg.</desc>
<extensions>
</extensions>
</trkpt>
<trkpt lat="50.8577316" lon="6.1605066">
 <ele>153.000000</ele>
 <time>2009-07-31T06:25:40Z</time>
 <desc>Lat.=50.8577316, Long.=6.1605066, Alt.=153m, Speed=5Km/h, Course=289deg.</desc>
<extensions>
</extensions>
</trkpt>
<trkpt lat="50.8577266" lon="6.1604066">
 <ele>151.000000</ele>
 <time>2009-07-31T06:25:44Z</time>
 <desc>Lat.=50.8577266, Long.=6.1604066, Alt.=151m, Speed=6Km/h, Course=265deg.</desc>
<extensions>
</extensions>
</trkpt>
<trkpt lat="50.8577249" lon="6.1603866">
 <ele>151.000000</ele>
 <time>2009-07-31T06:25:45Z</time>
 <desc>Lat.=50.8577249, Long.=6.1603866, Alt.=151m, Speed=5Km/h, Course=262deg.</desc>
<extensions>
</extensions>
</trkpt>
<trkpt lat="50.8577316" lon="6.1603683">
 <ele>151.000000</ele>
 <time>2009-07-31T06:25:46Z</time>
 <desc>Lat.=50.8577316, Long.=6.1603683, Alt.=151m, Speed=5Km/h, Course=300deg.</desc>
<extensions>
</extensions>
</trkpt>
<trkpt lat="50.8577233" lon="6.1603399">
 <ele>150.000000</ele>
 <time>2009-07-31T06:25:48Z</time>
 <desc>Lat.=50.8577233, Long.=6.1603399, Alt.=150m, Speed=3Km/h, Course=245deg.</desc>
<extensions>
</extensions>
</trkpt>
<trkpt lat="50.8577149" lon="6.1602850">
 <ele>148.000000</ele>
 <time>2009-07-31T06:25:51Z</time>
 <desc>Lat.=50.8577149, Long.=6.1602850, Alt.=148m, Speed=4Km/h, Course=256deg.</desc>
<extensions>
</extensions>
</trkpt>
<trkpt lat="50.8576716" lon="6.1601800">
 <ele>142.000000</ele>
 <time>2009-07-31T06:25:59Z</time>
 <desc>Lat.=50.8576716, Long.=6.1601800, Alt.=142m, Speed=3Km/h, Course=237deg.</desc>
<extensions>
</extensions>
</trkpt>
<trkpt lat="50.8576650" lon="6.1601649">
 <ele>142.000000</ele>
 <time>2009-07-31T06:26:00Z</time>
 <desc>Lat.=50.8576650, Long.=6.1601649, Alt.=142m, Speed=4Km/h, Course=235deg.</desc>
<extensions>
</extensions>
</trkpt>
<trkpt lat="50.8576600" lon="6.1601499">
 <ele>141.000000</ele>
 <time>2009-07-31T06:26:01Z</time>
 <desc>Lat.=50.8576600, Long.=6.1601499, Alt.=141m, Speed=4Km/h, Course=242deg.</desc>
<extensions>
</extensions>
</trkpt>
<trkpt lat="50.8576483" lon="6.1601149">
 <ele>142.000000</ele>
 <time>2009-07-31T06:26:03Z</time>
 <desc>Lat.=50.8576483, Long.=6.1601149, Alt.=142m, Speed=5Km/h, Course=242deg.</desc>
<extensions>
</extensions>
</trkpt>
<trkpt lat="50.8576466" lon="6.1600816">
 <ele>141.000000</ele>
 <time>2009-07-31T06:26:05Z</time>
 <desc>Lat.=50.8576466, Long.=6.1600816, Alt.=141m, Speed=4Km/h, Course=265deg.</desc>
<extensions>
</extensions>
</trkpt>
<trkpt lat="50.8576366" lon="6.1600683">
 <ele>141.000000</ele>
 <time>2009-07-31T06:26:06Z</time>
 <desc>Lat.=50.8576366, Long.=6.1600683, Alt.=141m, Speed=5Km/h, Course=220deg.</desc>
<extensions>
</extensions>
</trkpt>
<trkpt lat="50.8576266" lon="6.1600549">
 <ele>141.000000</ele>
 <time>2009-07-31T06:26:07Z</time>
 <desc>Lat.=50.8576266, Long.=6.1600549, Alt.=141m, Speed=5Km/h, Course=220deg.</desc>
<extensions>
</extensions>
</trkpt>
<trkpt lat="50.8576216" lon="6.1600383">
 <ele>140.000000</ele>
 <time>2009-07-31T06:26:08Z</time>
 <desc>Lat.=50.8576216, Long.=6.1600383, Alt.=140m, Speed=4Km/h, Course=244deg.</desc>
<extensions>
</extensions>
</trkpt>
<trkpt lat="50.8576149" lon="6.1600233">
 <ele>140.000000</ele>
 <time>2009-07-31T06:26:09Z</time>
 <desc>Lat.=50.8576149, Long.=6.1600233, Alt.=140m, Speed=4Km/h, Course=235deg.</desc>
<extensions>
</extensions>
</trkpt>
<trkpt lat="50.8575849" lon="6.1598750">
 <ele>139.000000</ele>
 <time>2009-07-31T06:26:19Z</time>
 <desc>Lat.=50.8575849, Long.=6.1598750, Alt.=139m, Speed=3Km/h, Course=252deg.</desc>
<extensions>
</extensions>
</trkpt>
<trkpt lat="50.8575849" lon="6.1598599">
 <ele>140.000000</ele>
 <time>2009-07-31T06:26:20Z</time>
 <desc>Lat.=50.8575849, Long.=6.1598599, Alt.=140m, Speed=3Km/h, Course=270deg.</desc>
<extensions>
</extensions>
</trkpt>
<trkpt lat="50.8575883" lon="6.1598400">
 <ele>139.000000</ele>
 <time>2009-07-31T06:26:21Z</time>
 <desc>Lat.=50.8575883, Long.=6.1598400, Alt.=139m, Speed=5Km/h, Course=285deg.</desc>
<extensions>
</extensions>
</trkpt>
<trkpt lat="50.8575916" lon="6.1598216">
 <ele>139.000000</ele>
 <time>2009-07-31T06:26:22Z</time>
 <desc>Lat.=50.8575916, Long.=6.1598216, Alt.=139m, Speed=4Km/h, Course=286deg.</desc>
<extensions>
</extensions>
</trkpt>
<trkpt lat="50.8576050" lon="6.1597999">
 <ele>139.000000</ele>
 <time>2009-07-31T06:26:23Z</time>
 <desc>Lat.=50.8576050, Long.=6.1597999, Alt.=139m, Speed=7Km/h, Course=314deg.</desc>
<extensions>
</extensions>
</trkpt>
<trkpt lat="50.8576332" lon="6.1597683">
 <ele>139.000000</ele>
 <time>2009-07-31T06:26:24Z</time>
 <desc>Lat.=50.8576332, Long.=6.1597683, Alt.=139m, Speed=13Km/h, Course=325deg.</desc>
<extensions>
</extensions>
</trkpt>
<trkpt lat="50.8576399" lon="6.1597433">
 <ele>138.000000</ele>
 <time>2009-07-31T06:26:25Z</time>
 <desc>Lat.=50.8576399, Long.=6.1597433, Alt.=138m, Speed=6Km/h, Course=293deg.</desc>
<extensions>
</extensions>
</trkpt>
<trkpt lat="50.8576533" lon="6.1596416">
 <ele>141.000000</ele>
 <time>2009-07-31T06:26:30Z</time>
 <desc>Lat.=50.8576533, Long.=6.1596416, Alt.=141m, Speed=5Km/h, Course=282deg.</desc>
<extensions>
</extensions>
</trkpt>
<trkpt lat="50.8576449" lon="6.1596266">
 <ele>142.000000</ele>
 <time>2009-07-31T06:26:31Z</time>
 <desc>Lat.=50.8576449, Long.=6.1596266, Alt.=142m, Speed=5Km/h, Course=228deg.</desc>
<extensions>
</extensions>
</trkpt>
<trkpt lat="50.8576399" lon="6.1596149">
 <ele>142.000000</ele>
 <time>2009-07-31T06:26:32Z</time>
 <desc>Lat.=50.8576399, Long.=6.1596149, Alt.=142m, Speed=3Km/h, Course=236deg.</desc>
<extensions>
</extensions>
</trkpt>
<trkpt lat="50.8576366" lon="6.1596099">
 <ele>142.000000</ele>
 <time>2009-07-31T06:26:33Z</time>
 <desc>Lat.=50.8576366, Long.=6.1596099, Alt.=142m, Speed=1Km/h, Course=224deg.</desc>
<extensions>
</extensions>
</trkpt>
<trkpt lat="50.8576299" lon="6.1596183">
 <ele>142.000000</ele>
 <time>2009-07-31T06:26:34Z</time>
 <desc>Lat.=50.8576299, Long.=6.1596183, Alt.=142m, Speed=3Km/h, Course=142deg.</desc>
<extensions>
</extensions>
</trkpt>
<trkpt lat="50.8576166" lon="6.1596449">
 <ele>143.000000</ele>
 <time>2009-07-31T06:26:36Z</time>
 <desc>Lat.=50.8576166, Long.=6.1596449, Alt.=143m, Speed=4Km/h, Course=128deg.</desc>
<extensions>
</extensions>
</trkpt>
<trkpt lat="50.8576066" lon="6.1596550">
 <ele>143.000000</ele>
 <time>2009-07-31T06:26:37Z</time>
 <desc>Lat.=50.8576066, Long.=6.1596550, Alt.=143m, Speed=4Km/h, Course=147deg.</desc>
<extensions>
</extensions>
</trkpt>
<trkpt lat="50.8575933" lon="6.1596749">
 <ele>144.000000</ele>
 <time>2009-07-31T06:26:38Z</time>
 <desc>Lat.=50.8575933, Long.=6.1596749, Alt.=144m, Speed=7Km/h, Course=137deg.</desc>
<extensions>
</extensions>
</trkpt>
<trkpt lat="50.8575766" lon="6.1596900">
 <ele>144.000000</ele>
 <time>2009-07-31T06:26:39Z</time>
 <desc>Lat.=50.8575766, Long.=6.1596900, Alt.=144m, Speed=7Km/h, Course=150deg.</desc>
<extensions>
</extensions>
</trkpt>
<trkpt lat="50.8575599" lon="6.1596966">
 <ele>145.000000</ele>
 <time>2009-07-31T06:26:41Z</time>
 <desc>Lat.=50.8575599, Long.=6.1596966, Alt.=145m, Speed=3Km/h, Course=166deg.</desc>
<extensions>
</extensions>
</trkpt>
<trkpt lat="50.8575433" lon="6.1597133">
 <ele>145.000000</ele>
 <time>2009-07-31T06:26:42Z</time>
 <desc>Lat.=50.8575433, Long.=6.1597133, Alt.=145m, Speed=7Km/h, Course=148deg.</desc>
<extensions>
</extensions>
</trkpt>
<trkpt lat="50.8575266" lon="6.1597066">
 <ele>145.000000</ele>
 <time>2009-07-31T06:26:43Z</time>
 <desc>Lat.=50.8575266, Long.=6.1597066, Alt.=145m, Speed=6Km/h, Course=194deg.</desc>
<extensions>
</extensions>
</trkpt>
<trkpt lat="50.8575083" lon="6.1597116">
 <ele>145.000000</ele>
 <time>2009-07-31T06:26:44Z</time>
 <desc>Lat.=50.8575083, Long.=6.1597116, Alt.=145m, Speed=7Km/h, Course=170deg.</desc>
<extensions>
</extensions>
</trkpt>
<trkpt lat="50.8574999" lon="6.1596966">
 <ele>145.000000</ele>
 <time>2009-07-31T06:26:45Z</time>
 <desc>Lat.=50.8574999, Long.=6.1596966, Alt.=145m, Speed=5Km/h, Course=228deg.</desc>
<extensions>
</extensions>
</trkpt>
<trkpt lat="50.8574833" lon="6.1596883">
 <ele>145.000000</ele>
 <time>2009-07-31T06:26:46Z</time>
 <desc>Lat.=50.8574833, Long.=6.1596883, Alt.=145m, Speed=6Km/h, Course=198deg.</desc>
<extensions>
</extensions>
</trkpt>
<trkpt lat="50.8574650" lon="6.1596933">
 <ele>145.000000</ele>
 <time>2009-07-31T06:26:47Z</time>
 <desc>Lat.=50.8574650, Long.=6.1596933, Alt.=145m, Speed=7Km/h, Course=170deg.</desc>
<extensions>
</extensions>
</trkpt>
<trkpt lat="50.8574266" lon="6.1597016">
 <ele>145.000000</ele>
 <time>2009-07-31T06:26:49Z</time>
 <desc>Lat.=50.8574266, Long.=6.1597016, Alt.=145m, Speed=7Km/h, Course=172deg.</desc>
<extensions>
</extensions>
</trkpt>
<trkpt lat="50.8573733" lon="6.1597149">
 <ele>146.000000</ele>
 <time>2009-07-31T06:26:52Z</time>
 <desc>Lat.=50.8573733, Long.=6.1597149, Alt.=146m, Speed=7Km/h, Course=171deg.</desc>
<extensions>
</extensions>
</trkpt>
<trkpt lat="50.8573633" lon="6.1597049">
 <ele>146.000000</ele>
 <time>2009-07-31T06:26:53Z</time>
 <desc>Lat.=50.8573633, Long.=6.1597049, Alt.=146m, Speed=4Km/h, Course=212deg.</desc>
<extensions>
</extensions>
</trkpt>
<trkpt lat="50.8573183" lon="6.1596833">
 <ele>146.000000</ele>
 <time>2009-07-31T06:26:57Z</time>
 <desc>Lat.=50.8573183, Long.=6.1596833, Alt.=146m, Speed=4Km/h, Course=197deg.</desc>
<extensions>
</extensions>
</trkpt>
<trkpt lat="50.8573066" lon="6.1596799">
 <ele>146.000000</ele>
 <time>2009-07-31T06:26:58Z</time>
 <desc>Lat.=50.8573066, Long.=6.1596799, Alt.=146m, Speed=4Km/h, Course=190deg.</desc>
<extensions>
</extensions>
</trkpt>
<trkpt lat="50.8572949" lon="6.1596749">
 <ele>147.000000</ele>
 <time>2009-07-31T06:26:59Z</time>
 <desc>Lat.=50.8572949, Long.=6.1596749, Alt.=147m, Speed=4Km/h, Course=195deg.</desc>
<extensions>
</extensions>
</trkpt>
<trkpt lat="50.8572899" lon="6.1596633">
 <ele>147.000000</ele>
 <time>2009-07-31T06:27:00Z</time>
 <desc>Lat.=50.8572899, Long.=6.1596633, Alt.=147m, Speed=3Km/h, Course=236deg.</desc>
<extensions>
</extensions>
</trkpt>
<trkpt lat="50.8572783" lon="6.1596599">
 <ele>147.000000</ele>
 <time>2009-07-31T06:27:01Z</time>
 <desc>Lat.=50.8572783, Long.=6.1596599, Alt.=147m, Speed=4Km/h, Course=190deg.</desc>
<extensions>
</extensions>
</trkpt>
<trkpt lat="50.8572499" lon="6.1596249">
 <ele>148.000000</ele>
 <time>2009-07-31T06:27:04Z</time>
 <desc>Lat.=50.8572499, Long.=6.1596249, Alt.=148m, Speed=4Km/h, Course=218deg.</desc>
<extensions>
</extensions>
</trkpt>
<trkpt lat="50.8572383" lon="6.1596216">
 <ele>148.000000</ele>
 <time>2009-07-31T06:27:05Z</time>
 <desc>Lat.=50.8572383, Long.=6.1596216, Alt.=148m, Speed=4Km/h, Course=190deg.</desc>
<extensions>
</extensions>
</trkpt>
<trkpt lat="50.8572166" lon="6.1596066">
 <ele>148.000000</ele>
 <time>2009-07-31T06:27:07Z</time>
 <desc>Lat.=50.8572166, Long.=6.1596066, Alt.=148m, Speed=4Km/h, Course=204deg.</desc>
<extensions>
</extensions>
</trkpt>
<trkpt lat="50.8571866" lon="6.1595833">
 <ele>148.000000</ele>
 <time>2009-07-31T06:27:10Z</time>
 <desc>Lat.=50.8571866, Long.=6.1595833, Alt.=148m, Speed=4Km/h, Course=206deg.</desc>
<extensions>
</extensions>
</trkpt>
<trkpt lat="50.8571749" lon="6.1595250">
 <ele>149.000000</ele>
 <time>2009-07-31T06:27:14Z</time>
 <desc>Lat.=50.8571749, Long.=6.1595250, Alt.=149m, Speed=3Km/h, Course=252deg.</desc>
<extensions>
</extensions>
</trkpt>
<trkpt lat="50.8571649" lon="6.1594983">
 <ele>149.000000</ele>
 <time>2009-07-31T06:27:15Z</time>
 <desc>Lat.=50.8571649, Long.=6.1594983, Alt.=149m, Speed=7Km/h, Course=239deg.</desc>
<extensions>
</extensions>
</trkpt>
<trkpt lat="50.8570766" lon="6.1594049">
 <ele>150.000000</ele>
 <time>2009-07-31T06:27:21Z</time>
 <desc>Lat.=50.8570766, Long.=6.1594049, Alt.=150m, Speed=7Km/h, Course=214deg.</desc>
<extensions>
</extensions>
</trkpt>
<trkpt lat="50.8570616" lon="6.1593899">
 <ele>150.000000</ele>
 <time>2009-07-31T06:27:22Z</time>
 <desc>Lat.=50.8570616, Long.=6.1593899, Alt.=150m, Speed=7Km/h, Course=212deg.</desc>
<extensions>
</extensions>
</trkpt>
<trkpt lat="50.8570399" lon="6.1593683">
 <ele>150.000000</ele>
 <time>2009-07-31T06:27:24Z</time>
 <desc>Lat.=50.8570399, Long.=6.1593683, Alt.=150m, Speed=5Km/h, Course=212deg.</desc>
<extensions>
</extensions>
</trkpt>
<trkpt lat="50.8570216" lon="6.1593649">
 <ele>150.000000</ele>
 <time>2009-07-31T06:27:25Z</time>
 <desc>Lat.=50.8570216, Long.=6.1593649, Alt.=150m, Speed=7Km/h, Course=187deg.</desc>
<extensions>
</extensions>
</trkpt>
<trkpt lat="50.8569833" lon="6.1593733">
 <ele>150.000000</ele>
 <time>2009-07-31T06:27:27Z</time>
 <desc>Lat.=50.8569833, Long.=6.1593733, Alt.=150m, Speed=7Km/h, Course=172deg.</desc>
<extensions>
</extensions>
</trkpt>
<trkpt lat="50.8569533" lon="6.1594100">
 <ele>149.000000</ele>
 <time>2009-07-31T06:27:29Z</time>
 <desc>Lat.=50.8569533, Long.=6.1594100, Alt.=149m, Speed=7Km/h, Course=142deg.</desc>
<extensions>
</extensions>
</trkpt>
<trkpt lat="50.8569366" lon="6.1594066">
 <ele>149.000000</ele>
 <time>2009-07-31T06:27:30Z</time>
 <desc>Lat.=50.8569366, Long.=6.1594066, Alt.=149m, Speed=6Km/h, Course=187deg.</desc>
<extensions>
</extensions>
</trkpt>
<trkpt lat="50.8569083" lon="6.1593999">
 <ele>148.000000</ele>
 <time>2009-07-31T06:27:32Z</time>
 <desc>Lat.=50.8569083, Long.=6.1593999, Alt.=148m, Speed=5Km/h, Course=188deg.</desc>
<extensions>
</extensions>
</trkpt>
<trkpt lat="50.8568966" lon="6.1593966">
 <ele>148.000000</ele>
 <time>2009-07-31T06:27:33Z</time>
 <desc>Lat.=50.8568966, Long.=6.1593966, Alt.=148m, Speed=4Km/h, Course=190deg.</desc>
<extensions>
</extensions>
</trkpt>
<trkpt lat="50.8568800" lon="6.1593966">
 <ele>148.000000</ele>
 <time>2009-07-31T06:27:34Z</time>
 <desc>Lat.=50.8568800, Long.=6.1593966, Alt.=148m, Speed=6Km/h, Course=180deg.</desc>
<extensions>
</extensions>
</trkpt>
<trkpt lat="50.8568433" lon="6.1594283">
 <ele>148.000000</ele>
 <time>2009-07-31T06:27:36Z</time>
 <desc>Lat.=50.8568433, Long.=6.1594283, Alt.=148m, Speed=8Km/h, Course=151deg.</desc>
<extensions>
</extensions>
</trkpt>
<trkpt lat="50.8568350" lon="6.1594283">
 <ele>149.000000</ele>
 <time>2009-07-31T06:27:37Z</time>
 <desc>Lat.=50.8568350, Long.=6.1594283, Alt.=149m, Speed=3Km/h, Course=180deg.</desc>
<extensions>
</extensions>
</trkpt>
<trkpt lat="50.8567999" lon="6.1594200">
 <ele>148.000000</ele>
 <time>2009-07-31T06:27:41Z</time>
 <desc>Lat.=50.8567999, Long.=6.1594200, Alt.=148m, Speed=3Km/h, Course=188deg.</desc>
<extensions>
</extensions>
</trkpt>
<trkpt lat="50.8567749" lon="6.1594349">
 <ele>148.000000</ele>
 <time>2009-07-31T06:27:43Z</time>
 <desc>Lat.=50.8567749, Long.=6.1594349, Alt.=148m, Speed=5Km/h, Course=159deg.</desc>
<extensions>
</extensions>
</trkpt>
<trkpt lat="50.8567633" lon="6.1594283">
 <ele>148.000000</ele>
 <time>2009-07-31T06:27:44Z</time>
 <desc>Lat.=50.8567633, Long.=6.1594283, Alt.=148m, Speed=4Km/h, Course=200deg.</desc>
<extensions>
</extensions>
</trkpt>
<trkpt lat="50.8567350" lon="6.1593899">
 <ele>148.000000</ele>
 <time>2009-07-31T06:27:46Z</time>
 <desc>Lat.=50.8567350, Long.=6.1593899, Alt.=148m, Speed=7Km/h, Course=221deg.</desc>
<extensions>
</extensions>
</trkpt>
<trkpt lat="50.8567199" lon="6.1593833">
 <ele>149.000000</ele>
 <time>2009-07-31T06:27:48Z</time>
 <desc>Lat.=50.8567199, Long.=6.1593833, Alt.=149m, Speed=3Km/h, Course=195deg.</desc>
<extensions>
</extensions>
</trkpt>
<trkpt lat="50.8567116" lon="6.1593733">
 <ele>149.000000</ele>
 <time>2009-07-31T06:27:49Z</time>
 <desc>Lat.=50.8567116, Long.=6.1593733, Alt.=149m, Speed=4Km/h, Course=217deg.</desc>
<extensions>
</extensions>
</trkpt>
<trkpt lat="50.8566999" lon="6.1593783">
 <ele>149.000000</ele>
 <time>2009-07-31T06:27:50Z</time>
 <desc>Lat.=50.8566999, Long.=6.1593783, Alt.=149m, Speed=4Km/h, Course=165deg.</desc>
<extensions>
</extensions>
</trkpt>
<trkpt lat="50.8566849" lon="6.1593366">
 <ele>150.000000</ele>
 <time>2009-07-31T06:27:51Z</time>
 <desc>Lat.=50.8566849, Long.=6.1593366, Alt.=150m, Speed=12Km/h, Course=240deg.</desc>
<extensions>
</extensions>
</trkpt>
<trkpt lat="50.8566633" lon="6.1593033">
 <ele>152.000000</ele>
 <time>2009-07-31T06:27:52Z</time>
 <desc>Lat.=50.8566633, Long.=6.1593033, Alt.=152m, Speed=12Km/h, Course=224deg.</desc>
<extensions>
</extensions>
</trkpt>
<trkpt lat="50.8566416" lon="6.1592716">
 <ele>152.000000</ele>
 <time>2009-07-31T06:27:55Z</time>
 <desc>Lat.=50.8566416, Long.=6.1592716, Alt.=152m, Speed=3Km/h, Course=223deg.</desc>
<extensions>
</extensions>
</trkpt>
<trkpt lat="50.8566382" lon="6.1592666">
 <ele>152.000000</ele>
 <time>2009-07-31T06:27:56Z</time>
 <desc>Lat.=50.8566382, Long.=6.1592666, Alt.=152m, Speed=1Km/h, Course=223deg.</desc>
<extensions>
</extensions>
</trkpt>
<trkpt lat="50.8566366" lon="6.1592616">
 <ele>152.000000</ele>
 <time>2009-07-31T06:27:57Z</time>
 <desc>Lat.=50.8566366, Long.=6.1592616, Alt.=152m, Speed=1Km/h, Course=243deg.</desc>
<extensions>
</extensions>
</trkpt>
<trkpt lat="50.8566216" lon="6.1592733">
 <ele>152.000000</ele>
 <time>2009-07-31T06:27:58Z</time>
 <desc>Lat.=50.8566216, Long.=6.1592733, Alt.=152m, Speed=6Km/h, Course=154deg.</desc>
<extensions>
</extensions>
</trkpt>
<trkpt lat="50.8565950" lon="6.1592900">
 <ele>152.000000</ele>
 <time>2009-07-31T06:28:00Z</time>
 <desc>Lat.=50.8565950, Long.=6.1592900, Alt.=152m, Speed=5Km/h, Course=158deg.</desc>
<extensions>
</extensions>
</trkpt>
<trkpt lat="50.8565550" lon="6.1593083">
 <ele>152.000000</ele>
 <time>2009-07-31T06:28:03Z</time>
 <desc>Lat.=50.8565550, Long.=6.1593083, Alt.=152m, Speed=5Km/h, Course=164deg.</desc>
<extensions>
</extensions>
</trkpt>
<trkpt lat="50.8565433" lon="6.1593099">
 <ele>152.000000</ele>
 <time>2009-07-31T06:28:04Z</time>
 <desc>Lat.=50.8565433, Long.=6.1593099, Alt.=152m, Speed=4Km/h, Course=175deg.</desc>
<extensions>
</extensions>
</trkpt>
<trkpt lat="50.8565300" lon="6.1593099">
 <ele>152.000000</ele>
 <time>2009-07-31T06:28:05Z</time>
 <desc>Lat.=50.8565300, Long.=6.1593099, Alt.=152m, Speed=5Km/h, Course=180deg.</desc>
<extensions>
</extensions>
</trkpt>
<trkpt lat="50.8565033" lon="6.1592966">
 <ele>152.000000</ele>
 <time>2009-07-31T06:28:07Z</time>
 <desc>Lat.=50.8565033, Long.=6.1592966, Alt.=152m, Speed=5Km/h, Course=197deg.</desc>
<extensions>
</extensions>
</trkpt>
<trkpt lat="50.8564982" lon="6.1592749">
 <ele>152.000000</ele>
 <time>2009-07-31T06:28:08Z</time>
 <desc>Lat.=50.8564982, Long.=6.1592749, Alt.=152m, Speed=5Km/h, Course=250deg.</desc>
<extensions>
</extensions>
</trkpt>
<trkpt lat="50.8564866" lon="6.1592783">
 <ele>152.000000</ele>
 <time>2009-07-31T06:28:09Z</time>
 <desc>Lat.=50.8564866, Long.=6.1592783, Alt.=152m, Speed=4Km/h, Course=170deg.</desc>
<extensions>
</extensions>
</trkpt>
<trkpt lat="50.8564749" lon="6.1592833">
 <ele>152.000000</ele>
 <time>2009-07-31T06:28:10Z</time>
 <desc>Lat.=50.8564749, Long.=6.1592833, Alt.=152m, Speed=4Km/h, Course=165deg.</desc>
<extensions>
</extensions>
</trkpt>
<trkpt lat="50.8564600" lon="6.1592766">
 <ele>152.000000</ele>
 <time>2009-07-31T06:28:11Z</time>
 <desc>Lat.=50.8564600, Long.=6.1592766, Alt.=152m, Speed=6Km/h, Course=196deg.</desc>
<extensions>
</extensions>
</trkpt>
<trkpt lat="50.8564383" lon="6.1592483">
 <ele>152.000000</ele>
 <time>2009-07-31T06:28:12Z</time>
 <desc>Lat.=50.8564383, Long.=6.1592483, Alt.=152m, Speed=11Km/h, Course=219deg.</desc>
<extensions>
</extensions>
</trkpt>
<trkpt lat="50.8564183" lon="6.1592166">
 <ele>152.000000</ele>
 <time>2009-07-31T06:28:14Z</time>
 <desc>Lat.=50.8564183, Long.=6.1592166, Alt.=152m, Speed=5Km/h, Course=225deg.</desc>
<extensions>
</extensions>
</trkpt>
<trkpt lat="50.8564066" lon="6.1592049">
 <ele>153.000000</ele>
 <time>2009-07-31T06:28:16Z</time>
 <desc>Lat.=50.8564066, Long.=6.1592049, Alt.=153m, Speed=2Km/h, Course=212deg.</desc>
<extensions>
</extensions>
</trkpt>
<trkpt lat="50.8563766" lon="6.1592299">
 <ele>153.000000</ele>
 <time>2009-07-31T06:28:18Z</time>
 <desc>Lat.=50.8563766, Long.=6.1592299, Alt.=153m, Speed=6Km/h, Course=152deg.</desc>
<extensions>
</extensions>
</trkpt>
<trkpt lat="50.8563600" lon="6.1592483">
 <ele>153.000000</ele>
 <time>2009-07-31T06:28:19Z</time>
 <desc>Lat.=50.8563600, Long.=6.1592483, Alt.=153m, Speed=8Km/h, Course=145deg.</desc>
<extensions>
</extensions>
</trkpt>
<trkpt lat="50.8563516" lon="6.1592533">
 <ele>152.000000</ele>
 <time>2009-07-31T06:28:20Z</time>
 <desc>Lat.=50.8563516, Long.=6.1592533, Alt.=152m, Speed=3Km/h, Course=159deg.</desc>
<extensions>
</extensions>
</trkpt>
<trkpt lat="50.8563466" lon="6.1592566">
 <ele>152.000000</ele>
 <time>2009-07-31T06:28:21Z</time>
 <desc>Lat.=50.8563466, Long.=6.1592566, Alt.=152m, Speed=2Km/h, Course=157deg.</desc>
<extensions>
</extensions>
</trkpt>
<trkpt lat="50.8563333" lon="6.1592633">
 <ele>152.000000</ele>
 <time>2009-07-31T06:28:22Z</time>
 <desc>Lat.=50.8563333, Long.=6.1592633, Alt.=152m, Speed=5Km/h, Course=162deg.</desc>
<extensions>
</extensions>
</trkpt>
<trkpt lat="50.8562849" lon="6.1591549">
 <ele>152.000000</ele>
 <time>2009-07-31T06:28:29Z</time>
 <desc>Lat.=50.8562849, Long.=6.1591549, Alt.=152m, Speed=4Km/h, Course=235deg.</desc>
<extensions>
</extensions>
</trkpt>
<trkpt lat="50.8562766" lon="6.1591316">
 <ele>151.000000</ele>
 <time>2009-07-31T06:28:30Z</time>
 <desc>Lat.=50.8562766, Long.=6.1591316, Alt.=151m, Speed=6Km/h, Course=241deg.</desc>
<extensions>
</extensions>
</trkpt>
<trkpt lat="50.8562383" lon="6.1590516">
 <ele>151.000000</ele>
 <time>2009-07-31T06:28:35Z</time>
 <desc>Lat.=50.8562383, Long.=6.1590516, Alt.=151m, Speed=5Km/h, Course=233deg.</desc>
<extensions>
</extensions>
</trkpt>
<trkpt lat="50.8562299" lon="6.1590316">
 <ele>151.000000</ele>
 <time>2009-07-31T06:28:36Z</time>
 <desc>Lat.=50.8562299, Long.=6.1590316, Alt.=151m, Speed=6Km/h, Course=236deg.</desc>
<extensions>
</extensions>
</trkpt>
<trkpt lat="50.8561983" lon="6.1588466">
 <ele>154.000000</ele>
 <time>2009-07-31T06:28:42Z</time>
 <desc>Lat.=50.8561983, Long.=6.1588466, Alt.=154m, Speed=8Km/h, Course=255deg.</desc>
<extensions>
</extensions>
</trkpt>
<trkpt lat="50.8562099" lon="6.1588000">
 <ele>154.000000</ele>
 <time>2009-07-31T06:28:44Z</time>
 <desc>Lat.=50.8562099, Long.=6.1588000, Alt.=154m, Speed=6Km/h, Course=292deg.</desc>
<extensions>
</extensions>
</trkpt>
<trkpt lat="50.8562149" lon="6.1587833">
 <ele>153.000000</ele>
 <time>2009-07-31T06:28:45Z</time>
 <desc>Lat.=50.8562149, Long.=6.1587833, Alt.=153m, Speed=4Km/h, Course=295deg.</desc>
<extensions>
</extensions>
</trkpt>
<trkpt lat="50.8562083" lon="6.1587650">
 <ele>153.000000</ele>
 <time>2009-07-31T06:28:46Z</time>
 <desc>Lat.=50.8562083, Long.=6.1587650, Alt.=153m, Speed=5Km/h, Course=240deg.</desc>
<extensions>
</extensions>
</trkpt>
<trkpt lat="50.8562116" lon="6.1587416">
 <ele>153.000000</ele>
 <time>2009-07-31T06:28:47Z</time>
 <desc>Lat.=50.8562116, Long.=6.1587416, Alt.=153m, Speed=6Km/h, Course=283deg.</desc>
<extensions>
</extensions>
</trkpt>
<trkpt lat="50.8562299" lon="6.1587133">
 <ele>153.000000</ele>
 <time>2009-07-31T06:28:48Z</time>
 <desc>Lat.=50.8562299, Long.=6.1587133, Alt.=153m, Speed=10Km/h, Course=316deg.</desc>
<extensions>
</extensions>
</trkpt>
<trkpt lat="50.8562283" lon="6.1586950">
 <ele>153.000000</ele>
 <time>2009-07-31T06:28:49Z</time>
 <desc>Lat.=50.8562283, Long.=6.1586950, Alt.=153m, Speed=4Km/h, Course=262deg.</desc>
<extensions>
</extensions>
</trkpt>
<trkpt lat="50.8562483" lon="6.1586533">
 <ele>152.000000</ele>
 <time>2009-07-31T06:28:51Z</time>
 <desc>Lat.=50.8562483, Long.=6.1586533, Alt.=152m, Speed=6Km/h, Course=307deg.</desc>
<extensions>
</extensions>
</trkpt>
<trkpt lat="50.8562666" lon="6.1586266">
 <ele>152.000000</ele>
 <time>2009-07-31T06:28:52Z</time>
 <desc>Lat.=50.8562666, Long.=6.1586266, Alt.=152m, Speed=9Km/h, Course=317deg.</desc>
<extensions>
</extensions>
</trkpt>
<trkpt lat="50.8562600" lon="6.1586099">
 <ele>152.000000</ele>
 <time>2009-07-31T06:28:53Z</time>
 <desc>Lat.=50.8562600, Long.=6.1586099, Alt.=152m, Speed=4Km/h, Course=238deg.</desc>
<extensions>
</extensions>
</trkpt>
<trkpt lat="50.8562416" lon="6.1585833">
 <ele>152.000000</ele>
 <time>2009-07-31T06:28:55Z</time>
 <desc>Lat.=50.8562416, Long.=6.1585833, Alt.=152m, Speed=4Km/h, Course=222deg.</desc>
<extensions>
</extensions>
</trkpt>
<trkpt lat="50.8562099" lon="6.1585399">
 <ele>153.000000</ele>
 <time>2009-07-31T06:28:58Z</time>
 <desc>Lat.=50.8562099, Long.=6.1585399, Alt.=153m, Speed=5Km/h, Course=221deg.</desc>
<extensions>
</extensions>
</trkpt>
<trkpt lat="50.8562032" lon="6.1585233">
 <ele>153.000000</ele>
 <time>2009-07-31T06:28:59Z</time>
 <desc>Lat.=50.8562032, Long.=6.1585233, Alt.=153m, Speed=4Km/h, Course=237deg.</desc>
<extensions>
</extensions>
</trkpt>
<trkpt lat="50.8561633" lon="6.1585349">
 <ele>152.000000</ele>
 <time>2009-07-31T06:29:03Z</time>
 <desc>Lat.=50.8561633, Long.=6.1585349, Alt.=152m, Speed=4Km/h, Course=170deg.</desc>
<extensions>
</extensions>
</trkpt>
<trkpt lat="50.8561483" lon="6.1585033">
 <ele>152.000000</ele>
 <time>2009-07-31T06:29:06Z</time>
 <desc>Lat.=50.8561483, Long.=6.1585033, Alt.=152m, Speed=3Km/h, Course=233deg.</desc>
<extensions>
</extensions>
</trkpt>
<trkpt lat="50.8561733" lon="6.1583733">
 <ele>152.000000</ele>
 <time>2009-07-31T06:29:09Z</time>
 <desc>Lat.=50.8561733, Long.=6.1583733, Alt.=152m, Speed=11Km/h, Course=287deg.</desc>
<extensions>
</extensions>
</trkpt>
<trkpt lat="50.8561933" lon="6.1582816">
 <ele>152.000000</ele>
 <time>2009-07-31T06:29:11Z</time>
 <desc>Lat.=50.8561933, Long.=6.1582816, Alt.=152m, Speed=12Km/h, Course=289deg.</desc>
<extensions>
</extensions>
</trkpt>
<trkpt lat="50.8561949" lon="6.1582533">
 <ele>152.000000</ele>
 <time>2009-07-31T06:29:12Z</time>
 <desc>Lat.=50.8561949, Long.=6.1582533, Alt.=152m, Speed=7Km/h, Course=275deg.</desc>
<extensions>
</extensions>
</trkpt>
<trkpt lat="50.8561916" lon="6.1582299">
 <ele>152.000000</ele>
 <time>2009-07-31T06:29:13Z</time>
 <desc>Lat.=50.8561916, Long.=6.1582299, Alt.=152m, Speed=6Km/h, Course=257deg.</desc>
<extensions>
</extensions>
</trkpt>
<trkpt lat="50.8562066" lon="6.1581999">
 <ele>151.000000</ele>
 <time>2009-07-31T06:29:14Z</time>
 <desc>Lat.=50.8562066, Long.=6.1581999, Alt.=151m, Speed=9Km/h, Course=308deg.</desc>
<extensions>
</extensions>
</trkpt>
<trkpt lat="50.8562149" lon="6.1581566">
 <ele>151.000000</ele>
 <time>2009-07-31T06:29:16Z</time>
 <desc>Lat.=50.8562149, Long.=6.1581566, Alt.=151m, Speed=5Km/h, Course=287deg.</desc>
<extensions>
</extensions>
</trkpt>
<trkpt lat="50.8562266" lon="6.1581233">
 <ele>151.000000</ele>
 <time>2009-07-31T06:29:17Z</time>
 <desc>Lat.=50.8562266, Long.=6.1581233, Alt.=151m, Speed=9Km/h, Course=299deg.</desc>
<extensions>
</extensions>
</trkpt>
<trkpt lat="50.8562466" lon="6.1580833">
 <ele>151.000000</ele>
 <time>2009-07-31T06:29:19Z</time>
 <desc>Lat.=50.8562466, Long.=6.1580833, Alt.=151m, Speed=6Km/h, Course=308deg.</desc>
<extensions>
</extensions>
</trkpt>
<trkpt lat="50.8562566" lon="6.1580500">
 <ele>151.000000</ele>
 <time>2009-07-31T06:29:21Z</time>
 <desc>Lat.=50.8562566, Long.=6.1580500, Alt.=151m, Speed=4Km/h, Course=295deg.</desc>
<extensions>
</extensions>
</trkpt>
<trkpt lat="50.8562516" lon="6.1580283">
 <ele>151.000000</ele>
 <time>2009-07-31T06:29:22Z</time>
 <desc>Lat.=50.8562516, Long.=6.1580283, Alt.=151m, Speed=5Km/h, Course=250deg.</desc>
<extensions>
</extensions>
</trkpt>
<trkpt lat="50.8562266" lon="6.1579983">
 <ele>152.000000</ele>
 <time>2009-07-31T06:29:24Z</time>
 <desc>Lat.=50.8562266, Long.=6.1579983, Alt.=152m, Speed=6Km/h, Course=217deg.</desc>
<extensions>
</extensions>
</trkpt>
<trkpt lat="50.8562366" lon="6.1579700">
 <ele>152.000000</ele>
 <time>2009-07-31T06:29:25Z</time>
 <desc>Lat.=50.8562366, Long.=6.1579700, Alt.=152m, Speed=8Km/h, Course=299deg.</desc>
<extensions>
</extensions>
</trkpt>
<trkpt lat="50.8562416" lon="6.1579566">
 <ele>152.000000</ele>
 <time>2009-07-31T06:29:26Z</time>
 <desc>Lat.=50.8562416, Long.=6.1579566, Alt.=152m, Speed=3Km/h, Course=301deg.</desc>
<extensions>
</extensions>
</trkpt>
<trkpt lat="50.8562366" lon="6.1579366">
 <ele>152.000000</ele>
 <time>2009-07-31T06:29:27Z</time>
 <desc>Lat.=50.8562366, Long.=6.1579366, Alt.=152m, Speed=5Km/h, Course=248deg.</desc>
<extensions>
</extensions>
</trkpt>
<trkpt lat="50.8562333" lon="6.1579216">
 <ele>152.000000</ele>
 <time>2009-07-31T06:29:28Z</time>
 <desc>Lat.=50.8562333, Long.=6.1579216, Alt.=152m, Speed=4Km/h, Course=251deg.</desc>
<extensions>
</extensions>
</trkpt>
<trkpt lat="50.8562200" lon="6.1578483">
 <ele>153.000000</ele>
 <time>2009-07-31T06:29:32Z</time>
 <desc>Lat.=50.8562200, Long.=6.1578483, Alt.=153m, Speed=4Km/h, Course=254deg.</desc>
<extensions>
</extensions>
</trkpt>
<trkpt lat="50.8562183" lon="6.1578416">
 <ele>153.000000</ele>
 <time>2009-07-31T06:29:33Z</time>
 <desc>Lat.=50.8562183, Long.=6.1578416, Alt.=153m, Speed=1Km/h, Course=248deg.</desc>
<extensions>
</extensions>
</trkpt>
<trkpt lat="50.8562149" lon="6.1578266">
 <ele>153.000000</ele>
 <time>2009-07-31T06:29:34Z</time>
 <desc>Lat.=50.8562149, Long.=6.1578266, Alt.=153m, Speed=4Km/h, Course=250deg.</desc>
<extensions>
</extensions>
</trkpt>
<trkpt lat="50.8562116" lon="6.1578099">
 <ele>153.000000</ele>
 <time>2009-07-31T06:29:36Z</time>
 <desc>Lat.=50.8562116, Long.=6.1578099, Alt.=153m, Speed=2Km/h, Course=253deg.</desc>
<extensions>
</extensions>
</trkpt>
<trkpt lat="50.8561999" lon="6.1577783">
 <ele>153.000000</ele>
 <time>2009-07-31T06:29:38Z</time>
 <desc>Lat.=50.8561999, Long.=6.1577783, Alt.=153m, Speed=4Km/h, Course=240deg.</desc>
<extensions>
</extensions>
</trkpt>
<trkpt lat="50.8561966" lon="6.1577633">
 <ele>153.000000</ele>
 <time>2009-07-31T06:29:39Z</time>
 <desc>Lat.=50.8561966, Long.=6.1577633, Alt.=153m, Speed=4Km/h, Course=251deg.</desc>
<extensions>
</extensions>
</trkpt>
<trkpt lat="50.8561866" lon="6.1577450">
 <ele>154.000000</ele>
 <time>2009-07-31T06:29:40Z</time>
 <desc>Lat.=50.8561866, Long.=6.1577450, Alt.=154m, Speed=6Km/h, Course=229deg.</desc>
<extensions>
</extensions>
</trkpt>
<trkpt lat="50.8561833" lon="6.1577333">
 <ele>154.000000</ele>
 <time>2009-07-31T06:29:41Z</time>
 <desc>Lat.=50.8561833, Long.=6.1577333, Alt.=154m, Speed=3Km/h, Course=246deg.</desc>
<extensions>
</extensions>
</trkpt>
<trkpt lat="50.8561716" lon="6.1576883">
 <ele>155.000000</ele>
 <time>2009-07-31T06:29:44Z</time>
 <desc>Lat.=50.8561716, Long.=6.1576883, Alt.=155m, Speed=4Km/h, Course=248deg.</desc>
<extensions>
</extensions>
</trkpt>
<trkpt lat="50.8561583" lon="6.1576533">
 <ele>155.000000</ele>
 <time>2009-07-31T06:29:52Z</time>
 <desc>Lat.=50.8561583, Long.=6.1576533, Alt.=155m, Speed=1Km/h, Course=239deg.</desc>
<extensions>
</extensions>
</trkpt>
<trkpt lat="50.8561516" lon="6.1576233">
 <ele>155.000000</ele>
 <time>2009-07-31T06:29:54Z</time>
 <desc>Lat.=50.8561516, Long.=6.1576233, Alt.=155m, Speed=4Km/h, Course=251deg.</desc>
<extensions>
</extensions>
</trkpt>
<trkpt lat="50.8561483" lon="6.1576083">
 <ele>156.000000</ele>
 <time>2009-07-31T06:29:55Z</time>
 <desc>Lat.=50.8561483, Long.=6.1576083, Alt.=156m, Speed=4Km/h, Course=251deg.</desc>
<extensions>
</extensions>
</trkpt>
<trkpt lat="50.8561449" lon="6.1575916">
 <ele>156.000000</ele>
 <time>2009-07-31T06:29:56Z</time>
 <desc>Lat.=50.8561449, Long.=6.1575916, Alt.=156m, Speed=4Km/h, Course=252deg.</desc>
<extensions>
</extensions>
</trkpt>
<trkpt lat="50.8561283" lon="6.1575133">
 <ele>157.000000</ele>
 <time>2009-07-31T06:30:01Z</time>
 <desc>Lat.=50.8561283, Long.=6.1575133, Alt.=157m, Speed=4Km/h, Course=251deg.</desc>
<extensions>
</extensions>
</trkpt>
<trkpt lat="50.8561183" lon="6.1574783">
 <ele>158.000000</ele>
 <time>2009-07-31T06:30:03Z</time>
 <desc>Lat.=50.8561183, Long.=6.1574783, Alt.=158m, Speed=4Km/h, Course=246deg.</desc>
<extensions>
</extensions>
</trkpt>
<trkpt lat="50.8560900" lon="6.1573466">
 <ele>160.000000</ele>
 <time>2009-07-31T06:30:11Z</time>
 <desc>Lat.=50.8560900, Long.=6.1573466, Alt.=160m, Speed=4Km/h, Course=251deg.</desc>
<extensions>
</extensions>
</trkpt>
<trkpt lat="50.8560783" lon="6.1573316">
 <ele>160.000000</ele>
 <time>2009-07-31T06:30:12Z</time>
 <desc>Lat.=50.8560783, Long.=6.1573316, Alt.=160m, Speed=6Km/h, Course=219deg.</desc>
<extensions>
</extensions>
</trkpt>
<trkpt lat="50.8560749" lon="6.1573199">
 <ele>160.000000</ele>
 <time>2009-07-31T06:30:13Z</time>
 <desc>Lat.=50.8560749, Long.=6.1573199, Alt.=160m, Speed=3Km/h, Course=245deg.</desc>
<extensions>
</extensions>
</trkpt>
<trkpt lat="50.8560632" lon="6.1573083">
 <ele>161.000000</ele>
 <time>2009-07-31T06:30:14Z</time>
 <desc>Lat.=50.8560632, Long.=6.1573083, Alt.=161m, Speed=5Km/h, Course=212deg.</desc>
<extensions>
</extensions>
</trkpt>
<trkpt lat="50.8560383" lon="6.1572949">
 <ele>161.000000</ele>
 <time>2009-07-31T06:30:16Z</time>
 <desc>Lat.=50.8560383, Long.=6.1572949, Alt.=161m, Speed=5Km/h, Course=199deg.</desc>
<extensions>
</extensions>
</trkpt>
<trkpt lat="50.8560383" lon="6.1572799">
 <ele>160.000000</ele>
 <time>2009-07-31T06:30:18Z</time>
 <desc>Lat.=50.8560383, Long.=6.1572799, Alt.=160m, Speed=1Km/h, Course=270deg.</desc>
<extensions>
</extensions>
</trkpt>
<trkpt lat="50.8560383" lon="6.1572699">
 <ele>160.000000</ele>
 <time>2009-07-31T06:30:19Z</time>
 <desc>Lat.=50.8560383, Long.=6.1572699, Alt.=160m, Speed=2Km/h, Course=270deg.</desc>
<extensions>
</extensions>
</trkpt>
<trkpt lat="50.8560350" lon="6.1572399">
 <ele>160.000000</ele>
 <time>2009-07-31T06:30:21Z</time>
 <desc>Lat.=50.8560350, Long.=6.1572399, Alt.=160m, Speed=3Km/h, Course=260deg.</desc>
<extensions>
</extensions>
</trkpt>
<trkpt lat="50.8560350" lon="6.1572249">
 <ele>160.000000</ele>
 <time>2009-07-31T06:30:22Z</time>
 <desc>Lat.=50.8560350, Long.=6.1572249, Alt.=160m, Speed=3Km/h, Course=270deg.</desc>
<extensions>
</extensions>
</trkpt>
<trkpt lat="50.8560283" lon="6.1572116">
 <ele>159.000000</ele>
 <time>2009-07-31T06:30:23Z</time>
 <desc>Lat.=50.8560283, Long.=6.1572116, Alt.=159m, Speed=4Km/h, Course=231deg.</desc>
<extensions>
</extensions>
</trkpt>
<trkpt lat="50.8560200" lon="6.1571999">
 <ele>159.000000</ele>
 <time>2009-07-31T06:30:24Z</time>
 <desc>Lat.=50.8560200, Long.=6.1571999, Alt.=159m, Speed=4Km/h, Course=222deg.</desc>
<extensions>
</extensions>
</trkpt>
<trkpt lat="50.8560133" lon="6.1571916">
 <ele>159.000000</ele>
 <time>2009-07-31T06:30:25Z</time>
 <desc>Lat.=50.8560133, Long.=6.1571916, Alt.=159m, Speed=3Km/h, Course=218deg.</desc>
<extensions>
</extensions>
</trkpt>
<trkpt lat="50.8559932" lon="6.1571699">
 <ele>158.000000</ele>
 <time>2009-07-31T06:30:27Z</time>
 <desc>Lat.=50.8559932, Long.=6.1571699, Alt.=158m, Speed=4Km/h, Course=214deg.</desc>
<extensions>
</extensions>
</trkpt>
<trkpt lat="50.8559866" lon="6.1571600">
 <ele>158.000000</ele>
 <time>2009-07-31T06:30:28Z</time>
 <desc>Lat.=50.8559866, Long.=6.1571600, Alt.=158m, Speed=3Km/h, Course=223deg.</desc>
<extensions>
</extensions>
</trkpt>
<trkpt lat="50.8559816" lon="6.1571449">
 <ele>158.000000</ele>
 <time>2009-07-31T06:30:29Z</time>
 <desc>Lat.=50.8559816, Long.=6.1571449, Alt.=158m, Speed=4Km/h, Course=242deg.</desc>
<extensions>
</extensions>
</trkpt>
<trkpt lat="50.8559483" lon="6.1571183">
 <ele>158.000000</ele>
 <time>2009-07-31T06:30:33Z</time>
 <desc>Lat.=50.8559483, Long.=6.1571183, Alt.=158m, Speed=3Km/h, Course=207deg.</desc>
<extensions>
</extensions>
</trkpt>
<trkpt lat="50.8559433" lon="6.1571066">
 <ele>158.000000</ele>
 <time>2009-07-31T06:30:34Z</time>
 <desc>Lat.=50.8559433, Long.=6.1571066, Alt.=158m, Speed=3Km/h, Course=236deg.</desc>
<extensions>
</extensions>
</trkpt>
<trkpt lat="50.8559416" lon="6.1570900">
 <ele>158.000000</ele>
 <time>2009-07-31T06:30:35Z</time>
 <desc>Lat.=50.8559416, Long.=6.1570900, Alt.=158m, Speed=4Km/h, Course=261deg.</desc>
<extensions>
</extensions>
</trkpt>
<trkpt lat="50.8559400" lon="6.1570516">
 <ele>158.000000</ele>
 <time>2009-07-31T06:30:37Z</time>
 <desc>Lat.=50.8559400, Long.=6.1570516, Alt.=158m, Speed=4Km/h, Course=266deg.</desc>
<extensions>
</extensions>
</trkpt>
<trkpt lat="50.8559266" lon="6.1570349">
 <ele>157.000000</ele>
 <time>2009-07-31T06:30:38Z</time>
 <desc>Lat.=50.8559266, Long.=6.1570349, Alt.=157m, Speed=6Km/h, Course=218deg.</desc>
<extensions>
</extensions>
</trkpt>
<trkpt lat="50.8559183" lon="6.1570183">
 <ele>156.000000</ele>
 <time>2009-07-31T06:30:39Z</time>
 <desc>Lat.=50.8559183, Long.=6.1570183, Alt.=156m, Speed=5Km/h, Course=232deg.</desc>
<extensions>
</extensions>
</trkpt>
<trkpt lat="50.8559100" lon="6.1569966">
 <ele>156.000000</ele>
 <time>2009-07-31T06:30:40Z</time>
 <desc>Lat.=50.8559100, Long.=6.1569966, Alt.=156m, Speed=6Km/h, Course=239deg.</desc>
<extensions>
</extensions>
</trkpt>
<trkpt lat="50.8559033" lon="6.1569750">
 <ele>156.000000</ele>
 <time>2009-07-31T06:30:41Z</time>
 <desc>Lat.=50.8559033, Long.=6.1569750, Alt.=156m, Speed=6Km/h, Course=244deg.</desc>
<extensions>
</extensions>
</trkpt>
<trkpt lat="50.8559033" lon="6.1569533">
 <ele>156.000000</ele>
 <time>2009-07-31T06:30:42Z</time>
 <desc>Lat.=50.8559033, Long.=6.1569533, Alt.=156m, Speed=5Km/h, Course=270deg.</desc>
<extensions>
</extensions>
</trkpt>
<trkpt lat="50.8559033" lon="6.1569299">
 <ele>157.000000</ele>
 <time>2009-07-31T06:30:43Z</time>
 <desc>Lat.=50.8559033, Long.=6.1569299, Alt.=157m, Speed=5Km/h, Course=270deg.</desc>
<extensions>
</extensions>
</trkpt>
<trkpt lat="50.8559016" lon="6.1568766">
 <ele>159.000000</ele>
 <time>2009-07-31T06:30:57Z</time>
 <desc>Lat.=50.8559016, Long.=6.1568766, Alt.=159m, Speed=0Km/h, Course=267deg.</desc>
<extensions>
</extensions>
</trkpt>
<trkpt lat="50.8558833" lon="6.1568033">
 <ele>159.000000</ele>
 <time>2009-07-31T06:31:04Z</time>
 <desc>Lat.=50.8558833, Long.=6.1568033, Alt.=159m, Speed=2Km/h, Course=248deg.</desc>
<extensions>
</extensions>
</trkpt>
<trkpt lat="50.8558666" lon="6.1567483">
 <ele>161.000000</ele>
 <time>2009-07-31T06:31:22Z</time>
 <desc>Lat.=50.8558666, Long.=6.1567483, Alt.=161m, Speed=0Km/h, Course=244deg.</desc>
<extensions>
</extensions>
</trkpt>
<trkpt lat="50.8558516" lon="6.1567183">
 <ele>161.000000</ele>
 <time>2009-07-31T06:31:25Z</time>
 <desc>Lat.=50.8558516, Long.=6.1567183, Alt.=161m, Speed=3Km/h, Course=232deg.</desc>
<extensions>
</extensions>
</trkpt>
<trkpt lat="50.8557850" lon="6.1565766">
 <ele>162.000000</ele>
 <time>2009-07-31T06:31:50Z</time>
 <desc>Lat.=50.8557850, Long.=6.1565766, Alt.=162m, Speed=1Km/h, Course=233deg.</desc>
<extensions>
</extensions>
</trkpt>
<trkpt lat="50.8557766" lon="6.1565533">
 <ele>161.000000</ele>
 <time>2009-07-31T06:31:52Z</time>
 <desc>Lat.=50.8557766, Long.=6.1565533, Alt.=161m, Speed=3Km/h, Course=240deg.</desc>
<extensions>
</extensions>
</trkpt>
<trkpt lat="50.8557716" lon="6.1565416">
 <ele>161.000000</ele>
 <time>2009-07-31T06:31:53Z</time>
 <desc>Lat.=50.8557716, Long.=6.1565416, Alt.=161m, Speed=3Km/h, Course=236deg.</desc>
<extensions>
</extensions>
</trkpt>
<trkpt lat="50.8557400" lon="6.1564566">
 <ele>162.000000</ele>
 <time>2009-07-31T06:32:02Z</time>
 <desc>Lat.=50.8557400, Long.=6.1564566, Alt.=162m, Speed=2Km/h, Course=240deg.</desc>
<extensions>
</extensions>
</trkpt>
<trkpt lat="50.8557300" lon="6.1564399">
 <ele>162.000000</ele>
 <time>2009-07-31T06:32:04Z</time>
 <desc>Lat.=50.8557300, Long.=6.1564399, Alt.=162m, Speed=2Km/h, Course=227deg.</desc>
<extensions>
</extensions>
</trkpt>
<trkpt lat="50.8557249" lon="6.1564283">
 <ele>162.000000</ele>
 <time>2009-07-31T06:32:05Z</time>
 <desc>Lat.=50.8557249, Long.=6.1564283, Alt.=162m, Speed=3Km/h, Course=235deg.</desc>
<extensions>
</extensions>
</trkpt>
<trkpt lat="50.8557199" lon="6.1564166">
 <ele>162.000000</ele>
 <time>2009-07-31T06:32:06Z</time>
 <desc>Lat.=50.8557199, Long.=6.1564166, Alt.=162m, Speed=3Km/h, Course=236deg.</desc>
<extensions>
</extensions>
</trkpt>
<trkpt lat="50.8556000" lon="6.1562833">
 <ele>159.000000</ele>
 <time>2009-07-31T06:32:20Z</time>
 <desc>Lat.=50.8556000, Long.=6.1562833, Alt.=159m, Speed=4Km/h, Course=215deg.</desc>
<extensions>
</extensions>
</trkpt>
<trkpt lat="50.8555732" lon="6.1562633">
 <ele>158.000000</ele>
 <time>2009-07-31T06:32:23Z</time>
 <desc>Lat.=50.8555732, Long.=6.1562633, Alt.=158m, Speed=3Km/h, Course=205deg.</desc>
<extensions>
</extensions>
</trkpt>
<trkpt lat="50.8555666" lon="6.1562116">
 <ele>157.000000</ele>
 <time>2009-07-31T06:32:35Z</time>
 <desc>Lat.=50.8555666, Long.=6.1562116, Alt.=157m, Speed=1Km/h, Course=259deg.</desc>
<extensions>
</extensions>
</trkpt>
<trkpt lat="50.8555450" lon="6.1561749">
 <ele>156.000000</ele>
 <time>2009-07-31T06:32:38Z</time>
 <desc>Lat.=50.8555450, Long.=6.1561749, Alt.=156m, Speed=4Km/h, Course=227deg.</desc>
<extensions>
</extensions>
</trkpt>
<trkpt lat="50.8555383" lon="6.1561683">
 <ele>156.000000</ele>
 <time>2009-07-31T06:32:39Z</time>
 <desc>Lat.=50.8555383, Long.=6.1561683, Alt.=156m, Speed=3Km/h, Course=212deg.</desc>
<extensions>
</extensions>
</trkpt>
<trkpt lat="50.8555316" lon="6.1561550">
 <ele>156.000000</ele>
 <time>2009-07-31T06:32:40Z</time>
 <desc>Lat.=50.8555316, Long.=6.1561550, Alt.=156m, Speed=4Km/h, Course=231deg.</desc>
<extensions>
</extensions>
</trkpt>
<trkpt lat="50.8555183" lon="6.1561416">
 <ele>156.000000</ele>
 <time>2009-07-31T06:32:41Z</time>
 <desc>Lat.=50.8555183, Long.=6.1561416, Alt.=156m, Speed=6Km/h, Course=212deg.</desc>
<extensions>
</extensions>
</trkpt>
<trkpt lat="50.8554999" lon="6.1561283">
 <ele>156.000000</ele>
 <time>2009-07-31T06:32:43Z</time>
 <desc>Lat.=50.8554999, Long.=6.1561283, Alt.=156m, Speed=4Km/h, Course=205deg.</desc>
<extensions>
</extensions>
</trkpt>
<trkpt lat="50.8554500" lon="6.1560699">
 <ele>155.000000</ele>
 <time>2009-07-31T06:32:51Z</time>
 <desc>Lat.=50.8554500, Long.=6.1560699, Alt.=155m, Speed=3Km/h, Course=216deg.</desc>
<extensions>
</extensions>
</trkpt>
<trkpt lat="50.8554433" lon="6.1560666">
 <ele>155.000000</ele>
 <time>2009-07-31T06:32:52Z</time>
 <desc>Lat.=50.8554433, Long.=6.1560666, Alt.=155m, Speed=2Km/h, Course=197deg.</desc>
<extensions>
</extensions>
</trkpt>
<trkpt lat="50.8554466" lon="6.1560449">
 <ele>155.000000</ele>
 <time>2009-07-31T06:32:53Z</time>
 <desc>Lat.=50.8554466, Long.=6.1560449, Alt.=155m, Speed=5Km/h, Course=284deg.</desc>
<extensions>
</extensions>
</trkpt>
<trkpt lat="50.8554216" lon="6.1559966">
 <ele>155.000000</ele>
 <time>2009-07-31T06:32:57Z</time>
 <desc>Lat.=50.8554216, Long.=6.1559966, Alt.=155m, Speed=3Km/h, Course=231deg.</desc>
<extensions>
</extensions>
</trkpt>
<trkpt lat="50.8553883" lon="6.1559649">
 <ele>155.000000</ele>
 <time>2009-07-31T06:33:00Z</time>
 <desc>Lat.=50.8553883, Long.=6.1559649, Alt.=155m, Speed=5Km/h, Course=211deg.</desc>
<extensions>
</extensions>
</trkpt>
<trkpt lat="50.8553849" lon="6.1559483">
 <ele>155.000000</ele>
 <time>2009-07-31T06:33:01Z</time>
 <desc>Lat.=50.8553849, Long.=6.1559483, Alt.=155m, Speed=4Km/h, Course=252deg.</desc>
<extensions>
</extensions>
</trkpt>
<trkpt lat="50.8553533" lon="6.1559349">
 <ele>154.000000</ele>
 <time>2009-07-31T06:33:03Z</time>
 <desc>Lat.=50.8553533, Long.=6.1559349, Alt.=154m, Speed=6Km/h, Course=195deg.</desc>
<extensions>
</extensions>
</trkpt>
<trkpt lat="50.8553416" lon="6.1558999">
 <ele>155.000000</ele>
 <time>2009-07-31T06:33:06Z</time>
 <desc>Lat.=50.8553416, Long.=6.1558999, Alt.=155m, Speed=3Km/h, Course=242deg.</desc>
<extensions>
</extensions>
</trkpt>
<trkpt lat="50.8553366" lon="6.1558583">
 <ele>155.000000</ele>
 <time>2009-07-31T06:33:09Z</time>
 <desc>Lat.=50.8553366, Long.=6.1558583, Alt.=155m, Speed=3Km/h, Course=259deg.</desc>
<extensions>
</extensions>
</trkpt>
<trkpt lat="50.8553216" lon="6.1558483">
 <ele>155.000000</ele>
 <time>2009-07-31T06:33:11Z</time>
 <desc>Lat.=50.8553216, Long.=6.1558483, Alt.=155m, Speed=3Km/h, Course=203deg.</desc>
<extensions>
</extensions>
</trkpt>
<trkpt lat="50.8553116" lon="6.1558466">
 <ele>156.000000</ele>
 <time>2009-07-31T06:33:12Z</time>
 <desc>Lat.=50.8553116, Long.=6.1558466, Alt.=156m, Speed=4Km/h, Course=186deg.</desc>
<extensions>
</extensions>
</trkpt>
<trkpt lat="50.8553049" lon="6.1558400">
 <ele>156.000000</ele>
 <time>2009-07-31T06:33:13Z</time>
 <desc>Lat.=50.8553049, Long.=6.1558400, Alt.=156m, Speed=3Km/h, Course=212deg.</desc>
<extensions>
</extensions>
</trkpt>
<trkpt lat="50.8553049" lon="6.1558249">
 <ele>156.000000</ele>
 <time>2009-07-31T06:33:14Z</time>
 <desc>Lat.=50.8553049, Long.=6.1558249, Alt.=156m, Speed=3Km/h, Course=270deg.</desc>
<extensions>
</extensions>
</trkpt>
<trkpt lat="50.8552966" lon="6.1557999">
 <ele>157.000000</ele>
 <time>2009-07-31T06:33:16Z</time>
 <desc>Lat.=50.8552966, Long.=6.1557999, Alt.=157m, Speed=3Km/h, Course=242deg.</desc>
<extensions>
</extensions>
</trkpt>
<trkpt lat="50.8552899" lon="6.1557599">
 <ele>157.000000</ele>
 <time>2009-07-31T06:33:19Z</time>
 <desc>Lat.=50.8552899, Long.=6.1557599, Alt.=157m, Speed=3Km/h, Course=255deg.</desc>
<extensions>
</extensions>
</trkpt>
<trkpt lat="50.8552849" lon="6.1557483">
 <ele>158.000000</ele>
 <time>2009-07-31T06:33:20Z</time>
 <desc>Lat.=50.8552849, Long.=6.1557483, Alt.=158m, Speed=3Km/h, Course=236deg.</desc>
<extensions>
</extensions>
</trkpt>
<trkpt lat="50.8552550" lon="6.1557116">
 <ele>158.000000</ele>
 <time>2009-07-31T06:33:24Z</time>
 <desc>Lat.=50.8552550, Long.=6.1557116, Alt.=158m, Speed=3Km/h, Course=218deg.</desc>
<extensions>
</extensions>
</trkpt>
<trkpt lat="50.8552483" lon="6.1557016">
 <ele>158.000000</ele>
 <time>2009-07-31T06:33:25Z</time>
 <desc>Lat.=50.8552483, Long.=6.1557016, Alt.=158m, Speed=3Km/h, Course=223deg.</desc>
<extensions>
</extensions>
</trkpt>
<trkpt lat="50.8552383" lon="6.1556783">
 <ele>159.000000</ele>
 <time>2009-07-31T06:33:27Z</time>
 <desc>Lat.=50.8552383, Long.=6.1556783, Alt.=159m, Speed=3Km/h, Course=236deg.</desc>
<extensions>
</extensions>
</trkpt>
<trkpt lat="50.8552233" lon="6.1556400">
 <ele>159.000000</ele>
 <time>2009-07-31T06:33:30Z</time>
 <desc>Lat.=50.8552233, Long.=6.1556400, Alt.=159m, Speed=3Km/h, Course=238deg.</desc>
<extensions>
</extensions>
</trkpt>
<trkpt lat="50.8552516" lon="6.1555816">
 <ele>159.000000</ele>
 <time>2009-07-31T06:33:32Z</time>
 <desc>Lat.=50.8552516, Long.=6.1555816, Alt.=159m, Speed=9Km/h, Course=308deg.</desc>
<extensions>
</extensions>
</trkpt>
<trkpt lat="50.8552400" lon="6.1554599">
 <ele>159.000000</ele>
 <time>2009-07-31T06:33:39Z</time>
 <desc>Lat.=50.8552400, Long.=6.1554599, Alt.=159m, Speed=4Km/h, Course=261deg.</desc>
<extensions>
</extensions>
</trkpt>
<trkpt lat="50.8552283" lon="6.1553383">
 <ele>158.000000</ele>
 <time>2009-07-31T06:33:46Z</time>
 <desc>Lat.=50.8552283, Long.=6.1553383, Alt.=158m, Speed=4Km/h, Course=261deg.</desc>
<extensions>
</extensions>
</trkpt>
<trkpt lat="50.8552199" lon="6.1553016">
 <ele>159.000000</ele>
 <time>2009-07-31T06:34:07Z</time>
 <desc>Lat.=50.8552199, Long.=6.1553016, Alt.=159m, Speed=0Km/h, Course=250deg.</desc>
<extensions>
</extensions>
</trkpt>
<trkpt lat="50.8552133" lon="6.1552900">
 <ele>159.000000</ele>
 <time>2009-07-31T06:34:08Z</time>
 <desc>Lat.=50.8552133, Long.=6.1552900, Alt.=159m, Speed=3Km/h, Course=228deg.</desc>
<extensions>
</extensions>
</trkpt>
<trkpt lat="50.8552133" lon="6.1552833">
 <ele>159.000000</ele>
 <time>2009-07-31T06:34:09Z</time>
 <desc>Lat.=50.8552133, Long.=6.1552833, Alt.=159m, Speed=1Km/h, Course=270deg.</desc>
<extensions>
</extensions>
</trkpt>
<trkpt lat="50.8552116" lon="6.1552816">
 <ele>158.000000</ele>
 <time>2009-07-31T06:34:27Z</time>
 <desc>Lat.=50.8552116, Long.=6.1552816, Alt.=158m, Speed=0Km/h, Course=212deg.</desc>
<extensions>
</extensions>
</trkpt>
<trkpt lat="50.8552066" lon="6.1552849">
 <ele>158.000000</ele>
 <time>2009-07-31T06:34:28Z</time>
 <desc>Lat.=50.8552066, Long.=6.1552849, Alt.=158m, Speed=2Km/h, Course=157deg.</desc>
<extensions>
</extensions>
</trkpt>
<trkpt lat="50.8552049" lon="6.1552799">
 <ele>158.000000</ele>
 <time>2009-07-31T06:34:29Z</time>
 <desc>Lat.=50.8552049, Long.=6.1552799, Alt.=158m, Speed=1Km/h, Course=242deg.</desc>
<extensions>
</extensions>
</trkpt>
<trkpt lat="50.8552033" lon="6.1552750">
 <ele>158.000000</ele>
 <time>2009-07-31T06:34:30Z</time>
 <desc>Lat.=50.8552033, Long.=6.1552750, Alt.=158m, Speed=1Km/h, Course=243deg.</desc>
<extensions>
</extensions>
</trkpt>
<trkpt lat="50.8551999" lon="6.1552650">
 <ele>158.000000</ele>
 <time>2009-07-31T06:34:31Z</time>
 <desc>Lat.=50.8551999, Long.=6.1552650, Alt.=158m, Speed=2Km/h, Course=242deg.</desc>
<extensions>
</extensions>
</trkpt>
<trkpt lat="50.8551933" lon="6.1552516">
 <ele>158.000000</ele>
 <time>2009-07-31T06:34:32Z</time>
 <desc>Lat.=50.8551933, Long.=6.1552516, Alt.=158m, Speed=4Km/h, Course=232deg.</desc>
<extensions>
</extensions>
</trkpt>
<trkpt lat="50.8551700" lon="6.1552066">
 <ele>158.000000</ele>
 <time>2009-07-31T06:34:35Z</time>
 <desc>Lat.=50.8551700, Long.=6.1552066, Alt.=158m, Speed=4Km/h, Course=231deg.</desc>
<extensions>
</extensions>
</trkpt>
<trkpt lat="50.8551616" lon="6.1551999">
 <ele>158.000000</ele>
 <time>2009-07-31T06:34:40Z</time>
 <desc>Lat.=50.8551616, Long.=6.1551999, Alt.=158m, Speed=0Km/h, Course=207deg.</desc>
<extensions>
</extensions>
</trkpt>
<trkpt lat="50.8551566" lon="6.1551866">
 <ele>158.000000</ele>
 <time>2009-07-31T06:34:41Z</time>
 <desc>Lat.=50.8551566, Long.=6.1551866, Alt.=158m, Speed=3Km/h, Course=239deg.</desc>
<extensions>
</extensions>
</trkpt>
<trkpt lat="50.8551000" lon="6.1550900">
 <ele>159.000000</ele>
 <time>2009-07-31T06:34:53Z</time>
 <desc>Lat.=50.8551000, Long.=6.1550900, Alt.=159m, Speed=2Km/h, Course=227deg.</desc>
<extensions>
</extensions>
</trkpt>
<trkpt lat="50.8550916" lon="6.1550799">
 <ele>159.000000</ele>
 <time>2009-07-31T06:34:54Z</time>
 <desc>Lat.=50.8550916, Long.=6.1550799, Alt.=159m, Speed=4Km/h, Course=217deg.</desc>
<extensions>
</extensions>
</trkpt>
<trkpt lat="50.8550682" lon="6.1550433">
 <ele>159.000000</ele>
 <time>2009-07-31T06:34:58Z</time>
 <desc>Lat.=50.8550682, Long.=6.1550433, Alt.=159m, Speed=3Km/h, Course=225deg.</desc>
<extensions>
</extensions>
</trkpt>
<trkpt lat="50.8550550" lon="6.1549850">
 <ele>159.000000</ele>
 <time>2009-07-31T06:35:11Z</time>
 <desc>Lat.=50.8550550, Long.=6.1549850, Alt.=159m, Speed=1Km/h, Course=250deg.</desc>
<extensions>
</extensions>
</trkpt>
<trkpt lat="50.8550616" lon="6.1548699">
 <ele>159.000000</ele>
 <time>2009-07-31T06:35:24Z</time>
 <desc>Lat.=50.8550616, Long.=6.1548699, Alt.=159m, Speed=2Km/h, Course=275deg.</desc>
<extensions>
</extensions>
</trkpt>
<trkpt lat="50.8550499" lon="6.1548616">
 <ele>159.000000</ele>
 <time>2009-07-31T06:35:27Z</time>
 <desc>Lat.=50.8550499, Long.=6.1548616, Alt.=159m, Speed=1Km/h, Course=204deg.</desc>
<extensions>
</extensions>
</trkpt>
<trkpt lat="50.8550266" lon="6.1548333">
 <ele>159.000000</ele>
 <time>2009-07-31T06:35:31Z</time>
 <desc>Lat.=50.8550266, Long.=6.1548333, Alt.=159m, Speed=2Km/h, Course=217deg.</desc>
<extensions>
</extensions>
</trkpt>
<trkpt lat="50.8549899" lon="6.1548249">
 <ele>159.000000</ele>
 <time>2009-07-31T06:35:38Z</time>
 <desc>Lat.=50.8549899, Long.=6.1548249, Alt.=159m, Speed=2Km/h, Course=188deg.</desc>
<extensions>
</extensions>
</trkpt>
<trkpt lat="50.8549933" lon="6.1548433">
 <ele>158.000000</ele>
 <time>2009-07-31T06:35:39Z</time>
 <desc>Lat.=50.8549933, Long.=6.1548433, Alt.=158m, Speed=4Km/h, Course=74deg.</desc>
<extensions>
</extensions>
</trkpt>
<trkpt lat="50.8549516" lon="6.1547999">
 <ele>158.000000</ele>
 <time>2009-07-31T06:35:58Z</time>
 <desc>Lat.=50.8549516, Long.=6.1547999, Alt.=158m, Speed=1Km/h, Course=213deg.</desc>
<extensions>
</extensions>
</trkpt>
<trkpt lat="50.8549266" lon="6.1547699">
 <ele>159.000000</ele>
 <time>2009-07-31T06:36:02Z</time>
 <desc>Lat.=50.8549266, Long.=6.1547699, Alt.=159m, Speed=3Km/h, Course=217deg.</desc>
<extensions>
</extensions>
</trkpt>
<trkpt lat="50.8549150" lon="6.1547516">
 <ele>159.000000</ele>
 <time>2009-07-31T06:36:04Z</time>
 <desc>Lat.=50.8549150, Long.=6.1547516, Alt.=159m, Speed=3Km/h, Course=225deg.</desc>
<extensions>
</extensions>
</trkpt>
<trkpt lat="50.8549066" lon="6.1547433">
 <ele>159.000000</ele>
 <time>2009-07-31T06:36:05Z</time>
 <desc>Lat.=50.8549066, Long.=6.1547433, Alt.=159m, Speed=3Km/h, Course=212deg.</desc>
<extensions>
</extensions>
</trkpt>
<trkpt lat="50.8548933" lon="6.1547333">
 <ele>159.000000</ele>
 <time>2009-07-31T06:36:07Z</time>
 <desc>Lat.=50.8548933, Long.=6.1547333, Alt.=159m, Speed=2Km/h, Course=205deg.</desc>
<extensions>
</extensions>
</trkpt>
<trkpt lat="50.8548766" lon="6.1547233">
 <ele>159.000000</ele>
 <time>2009-07-31T06:36:09Z</time>
 <desc>Lat.=50.8548766, Long.=6.1547233, Alt.=159m, Speed=3Km/h, Course=201deg.</desc>
<extensions>
</extensions>
</trkpt>
<trkpt lat="50.8548683" lon="6.1547183">
 <ele>159.000000</ele>
 <time>2009-07-31T06:36:10Z</time>
 <desc>Lat.=50.8548683, Long.=6.1547183, Alt.=159m, Speed=3Km/h, Course=201deg.</desc>
<extensions>
</extensions>
</trkpt>
<trkpt lat="50.8548600" lon="6.1547150">
 <ele>159.000000</ele>
 <time>2009-07-31T06:36:11Z</time>
 <desc>Lat.=50.8548600, Long.=6.1547150, Alt.=159m, Speed=3Km/h, Course=194deg.</desc>
<extensions>
</extensions>
</trkpt>
<trkpt lat="50.8548549" lon="6.1547066">
 <ele>159.000000</ele>
 <time>2009-07-31T06:36:12Z</time>
 <desc>Lat.=50.8548549, Long.=6.1547066, Alt.=159m, Speed=2Km/h, Course=226deg.</desc>
<extensions>
</extensions>
</trkpt>
<trkpt lat="50.8548216" lon="6.1546816">
 <ele>160.000000</ele>
 <time>2009-07-31T06:36:16Z</time>
 <desc>Lat.=50.8548216, Long.=6.1546816, Alt.=160m, Speed=3Km/h, Course=205deg.</desc>
<extensions>
</extensions>
</trkpt>
<trkpt lat="50.8548116" lon="6.1546749">
 <ele>160.000000</ele>
 <time>2009-07-31T06:36:17Z</time>
 <desc>Lat.=50.8548116, Long.=6.1546749, Alt.=160m, Speed=4Km/h, Course=203deg.</desc>
<extensions>
</extensions>
</trkpt>
<trkpt lat="50.8548016" lon="6.1546666">
 <ele>160.000000</ele>
 <time>2009-07-31T06:36:18Z</time>
 <desc>Lat.=50.8548016, Long.=6.1546666, Alt.=160m, Speed=4Km/h, Course=208deg.</desc>
<extensions>
</extensions>
</trkpt>
<trkpt lat="50.8547833" lon="6.1546533">
 <ele>161.000000</ele>
 <time>2009-07-31T06:36:20Z</time>
 <desc>Lat.=50.8547833, Long.=6.1546533, Alt.=161m, Speed=4Km/h, Course=205deg.</desc>
<extensions>
</extensions>
</trkpt>
<trkpt lat="50.8547566" lon="6.1546316">
 <ele>161.000000</ele>
 <time>2009-07-31T06:36:23Z</time>
 <desc>Lat.=50.8547566, Long.=6.1546316, Alt.=161m, Speed=4Km/h, Course=207deg.</desc>
<extensions>
</extensions>
</trkpt>
<trkpt lat="50.8547200" lon="6.1546116">
 <ele>162.000000</ele>
 <time>2009-07-31T06:36:27Z</time>
 <desc>Lat.=50.8547200, Long.=6.1546116, Alt.=162m, Speed=3Km/h, Course=199deg.</desc>
<extensions>
</extensions>
</trkpt>
<trkpt lat="50.8546949" lon="6.1545816">
 <ele>162.000000</ele>
 <time>2009-07-31T06:36:30Z</time>
 <desc>Lat.=50.8546949, Long.=6.1545816, Alt.=162m, Speed=4Km/h, Course=217deg.</desc>
<extensions>
</extensions>
</trkpt>
<trkpt lat="50.8546849" lon="6.1545716">
 <ele>162.000000</ele>
 <time>2009-07-31T06:36:31Z</time>
 <desc>Lat.=50.8546849, Long.=6.1545716, Alt.=162m, Speed=4Km/h, Course=212deg.</desc>
<extensions>
</extensions>
</trkpt>
<trkpt lat="50.8546549" lon="6.1545416">
 <ele>162.000000</ele>
 <time>2009-07-31T06:36:34Z</time>
 <desc>Lat.=50.8546549, Long.=6.1545416, Alt.=162m, Speed=4Km/h, Course=212deg.</desc>
<extensions>
</extensions>
</trkpt>
<trkpt lat="50.8546433" lon="6.1545366">
 <ele>162.000000</ele>
 <time>2009-07-31T06:36:35Z</time>
 <desc>Lat.=50.8546433, Long.=6.1545366, Alt.=162m, Speed=4Km/h, Course=195deg.</desc>
<extensions>
</extensions>
</trkpt>
<trkpt lat="50.8546149" lon="6.1545066">
 <ele>162.000000</ele>
 <time>2009-07-31T06:36:38Z</time>
 <desc>Lat.=50.8546149, Long.=6.1545066, Alt.=162m, Speed=4Km/h, Course=214deg.</desc>
<extensions>
</extensions>
</trkpt>
<trkpt lat="50.8546066" lon="6.1544966">
 <ele>162.000000</ele>
 <time>2009-07-31T06:36:39Z</time>
 <desc>Lat.=50.8546066, Long.=6.1544966, Alt.=162m, Speed=4Km/h, Course=217deg.</desc>
<extensions>
</extensions>
</trkpt>
<trkpt lat="50.8545966" lon="6.1544883">
 <ele>162.000000</ele>
 <time>2009-07-31T06:36:40Z</time>
 <desc>Lat.=50.8545966, Long.=6.1544883, Alt.=162m, Speed=4Km/h, Course=208deg.</desc>
<extensions>
</extensions>
</trkpt>
<trkpt lat="50.8545350" lon="6.1544066">
 <ele>163.000000</ele>
 <time>2009-07-31T06:36:47Z</time>
 <desc>Lat.=50.8545350, Long.=6.1544066, Alt.=163m, Speed=4Km/h, Course=220deg.</desc>
<extensions>
</extensions>
</trkpt>
<trkpt lat="50.8545316" lon="6.1543916">
 <ele>163.000000</ele>
 <time>2009-07-31T06:36:48Z</time>
 <desc>Lat.=50.8545316, Long.=6.1543916, Alt.=163m, Speed=4Km/h, Course=250deg.</desc>
<extensions>
</extensions>
</trkpt>
<trkpt lat="50.8545250" lon="6.1543833">
 <ele>163.000000</ele>
 <time>2009-07-31T06:36:49Z</time>
 <desc>Lat.=50.8545250, Long.=6.1543833, Alt.=163m, Speed=3Km/h, Course=218deg.</desc>
<extensions>
</extensions>
</trkpt>
<trkpt lat="50.8545049" lon="6.1543599">
 <ele>163.000000</ele>
 <time>2009-07-31T06:36:51Z</time>
 <desc>Lat.=50.8545049, Long.=6.1543599, Alt.=163m, Speed=4Km/h, Course=216deg.</desc>
<extensions>
</extensions>
</trkpt>
<trkpt lat="50.8544833" lon="6.1543199">
 <ele>163.000000</ele>
 <time>2009-07-31T06:36:54Z</time>
 <desc>Lat.=50.8544833, Long.=6.1543199, Alt.=163m, Speed=4Km/h, Course=229deg.</desc>
<extensions>
</extensions>
</trkpt>
<trkpt lat="50.8544400" lon="6.1543099">
 <ele>163.000000</ele>
 <time>2009-07-31T06:36:58Z</time>
 <desc>Lat.=50.8544400, Long.=6.1543099, Alt.=163m, Speed=4Km/h, Course=188deg.</desc>
<extensions>
</extensions>
</trkpt>
<trkpt lat="50.8544333" lon="6.1542799">
 <ele>163.000000</ele>
 <time>2009-07-31T06:36:59Z</time>
 <desc>Lat.=50.8544333, Long.=6.1542799, Alt.=163m, Speed=8Km/h, Course=251deg.</desc>
<extensions>
</extensions>
</trkpt>
<trkpt lat="50.8544266" lon="6.1542600">
 <ele>162.000000</ele>
 <time>2009-07-31T06:37:00Z</time>
 <desc>Lat.=50.8544266, Long.=6.1542600, Alt.=162m, Speed=5Km/h, Course=242deg.</desc>
<extensions>
</extensions>
</trkpt>
<trkpt lat="50.8544066" lon="6.1542250">
 <ele>162.000000</ele>
 <time>2009-07-31T06:37:02Z</time>
 <desc>Lat.=50.8544066, Long.=6.1542250, Alt.=162m, Speed=5Km/h, Course=228deg.</desc>
<extensions>
</extensions>
</trkpt>
<trkpt lat="50.8543933" lon="6.1542133">
 <ele>162.000000</ele>
 <time>2009-07-31T06:37:03Z</time>
 <desc>Lat.=50.8543933, Long.=6.1542133, Alt.=162m, Speed=6Km/h, Course=209deg.</desc>
<extensions>
</extensions>
</trkpt>
<trkpt lat="50.8543833" lon="6.1541983">
 <ele>162.000000</ele>
 <time>2009-07-31T06:37:04Z</time>
 <desc>Lat.=50.8543833, Long.=6.1541983, Alt.=162m, Speed=5Km/h, Course=223deg.</desc>
<extensions>
</extensions>
</trkpt>
<trkpt lat="50.8543749" lon="6.1541833">
 <ele>162.000000</ele>
 <time>2009-07-31T06:37:05Z</time>
 <desc>Lat.=50.8543749, Long.=6.1541833, Alt.=162m, Speed=5Km/h, Course=228deg.</desc>
<extensions>
</extensions>
</trkpt>
<trkpt lat="50.8543700" lon="6.1541666">
 <ele>162.000000</ele>
 <time>2009-07-31T06:37:06Z</time>
 <desc>Lat.=50.8543700, Long.=6.1541666, Alt.=162m, Speed=4Km/h, Course=245deg.</desc>
<extensions>
</extensions>
</trkpt>
<trkpt lat="50.8543566" lon="6.1541300">
 <ele>162.000000</ele>
 <time>2009-07-31T06:37:08Z</time>
 <desc>Lat.=50.8543566, Long.=6.1541300, Alt.=162m, Speed=5Km/h, Course=240deg.</desc>
<extensions>
</extensions>
</trkpt>
<trkpt lat="50.8543483" lon="6.1541183">
 <ele>162.000000</ele>
 <time>2009-07-31T06:37:09Z</time>
 <desc>Lat.=50.8543483, Long.=6.1541183, Alt.=162m, Speed=4Km/h, Course=222deg.</desc>
<extensions>
</extensions>
</trkpt>
<trkpt lat="50.8543416" lon="6.1540999">
 <ele>162.000000</ele>
 <time>2009-07-31T06:37:10Z</time>
 <desc>Lat.=50.8543416, Long.=6.1540999, Alt.=162m, Speed=5Km/h, Course=240deg.</desc>
<extensions>
</extensions>
</trkpt>
<trkpt lat="50.8543349" lon="6.1540866">
 <ele>162.000000</ele>
 <time>2009-07-31T06:37:11Z</time>
 <desc>Lat.=50.8543349, Long.=6.1540866, Alt.=162m, Speed=4Km/h, Course=231deg.</desc>
<extensions>
</extensions>
</trkpt>
<trkpt lat="50.8543183" lon="6.1540766">
 <ele>162.000000</ele>
 <time>2009-07-31T06:37:12Z</time>
 <desc>Lat.=50.8543183, Long.=6.1540766, Alt.=162m, Speed=7Km/h, Course=201deg.</desc>
<extensions>
</extensions>
</trkpt>
<trkpt lat="50.8543116" lon="6.1540600">
 <ele>161.000000</ele>
 <time>2009-07-31T06:37:13Z</time>
 <desc>Lat.=50.8543116, Long.=6.1540600, Alt.=161m, Speed=4Km/h, Course=237deg.</desc>
<extensions>
</extensions>
</trkpt>
<trkpt lat="50.8543066" lon="6.1540416">
 <ele>161.000000</ele>
 <time>2009-07-31T06:37:14Z</time>
 <desc>Lat.=50.8543066, Long.=6.1540416, Alt.=161m, Speed=5Km/h, Course=247deg.</desc>
<extensions>
</extensions>
</trkpt>
<trkpt lat="50.8542883" lon="6.1540099">
 <ele>161.000000</ele>
 <time>2009-07-31T06:37:16Z</time>
 <desc>Lat.=50.8542883, Long.=6.1540099, Alt.=161m, Speed=5Km/h, Course=228deg.</desc>
<extensions>
</extensions>
</trkpt>
<trkpt lat="50.8542749" lon="6.1539966">
 <ele>161.000000</ele>
 <time>2009-07-31T06:37:17Z</time>
 <desc>Lat.=50.8542749, Long.=6.1539966, Alt.=161m, Speed=6Km/h, Course=212deg.</desc>
<extensions>
</extensions>
</trkpt>
<trkpt lat="50.8542550" lon="6.1539733">
 <ele>160.000000</ele>
 <time>2009-07-31T06:37:18Z</time>
 <desc>Lat.=50.8542550, Long.=6.1539733, Alt.=160m, Speed=9Km/h, Course=216deg.</desc>
<extensions>
</extensions>
</trkpt>
<trkpt lat="50.8542416" lon="6.1539550">
 <ele>160.000000</ele>
 <time>2009-07-31T06:37:19Z</time>
 <desc>Lat.=50.8542416, Long.=6.1539550, Alt.=160m, Speed=7Km/h, Course=221deg.</desc>
<extensions>
</extensions>
</trkpt>
<trkpt lat="50.8542349" lon="6.1539366">
 <ele>159.000000</ele>
 <time>2009-07-31T06:37:20Z</time>
 <desc>Lat.=50.8542349, Long.=6.1539366, Alt.=159m, Speed=5Km/h, Course=240deg.</desc>
<extensions>
</extensions>
</trkpt>
<trkpt lat="50.8542333" lon="6.1539233">
 <ele>159.000000</ele>
 <time>2009-07-31T06:37:21Z</time>
 <desc>Lat.=50.8542333, Long.=6.1539233, Alt.=159m, Speed=3Km/h, Course=259deg.</desc>
<extensions>
</extensions>
</trkpt>
<trkpt lat="50.8542433" lon="6.1538833">
 <ele>159.000000</ele>
 <time>2009-07-31T06:37:23Z</time>
 <desc>Lat.=50.8542433, Long.=6.1538833, Alt.=159m, Speed=5Km/h, Course=292deg.</desc>
<extensions>
</extensions>
</trkpt>
<trkpt lat="50.8542349" lon="6.1538699">
 <ele>158.000000</ele>
 <time>2009-07-31T06:37:24Z</time>
 <desc>Lat.=50.8542349, Long.=6.1538699, Alt.=158m, Speed=4Km/h, Course=225deg.</desc>
<extensions>
</extensions>
</trkpt>
<trkpt lat="50.8542283" lon="6.1538533">
 <ele>158.000000</ele>
 <time>2009-07-31T06:37:25Z</time>
 <desc>Lat.=50.8542283, Long.=6.1538533, Alt.=158m, Speed=4Km/h, Course=238deg.</desc>
<extensions>
</extensions>
</trkpt>
<trkpt lat="50.8542183" lon="6.1538166">
 <ele>158.000000</ele>
 <time>2009-07-31T06:37:27Z</time>
 <desc>Lat.=50.8542183, Long.=6.1538166, Alt.=158m, Speed=5Km/h, Course=247deg.</desc>
<extensions>
</extensions>
</trkpt>
<trkpt lat="50.8542133" lon="6.1537999">
 <ele>158.000000</ele>
 <time>2009-07-31T06:37:28Z</time>
 <desc>Lat.=50.8542133, Long.=6.1537999, Alt.=158m, Speed=4Km/h, Course=245deg.</desc>
<extensions>
</extensions>
</trkpt>
<trkpt lat="50.8541983" lon="6.1537833">
 <ele>158.000000</ele>
 <time>2009-07-31T06:37:29Z</time>
 <desc>Lat.=50.8541983, Long.=6.1537833, Alt.=158m, Speed=7Km/h, Course=215deg.</desc>
<extensions>
</extensions>
</trkpt>
<trkpt lat="50.8541866" lon="6.1537649">
 <ele>158.000000</ele>
 <time>2009-07-31T06:37:30Z</time>
 <desc>Lat.=50.8541866, Long.=6.1537649, Alt.=158m, Speed=6Km/h, Course=225deg.</desc>
<extensions>
</extensions>
</trkpt>
<trkpt lat="50.8541750" lon="6.1537533">
 <ele>157.000000</ele>
 <time>2009-07-31T06:37:31Z</time>
 <desc>Lat.=50.8541750, Long.=6.1537533, Alt.=157m, Speed=5Km/h, Course=212deg.</desc>
<extensions>
</extensions>
</trkpt>
<trkpt lat="50.8541366" lon="6.1537283">
 <ele>157.000000</ele>
 <time>2009-07-31T06:37:34Z</time>
 <desc>Lat.=50.8541366, Long.=6.1537283, Alt.=157m, Speed=5Km/h, Course=202deg.</desc>
<extensions>
</extensions>
</trkpt>
<trkpt lat="50.8541233" lon="6.1537066">
 <ele>157.000000</ele>
 <time>2009-07-31T06:37:36Z</time>
 <desc>Lat.=50.8541233, Long.=6.1537066, Alt.=157m, Speed=3Km/h, Course=226deg.</desc>
<extensions>
</extensions>
</trkpt>
<trkpt lat="50.8541233" lon="6.1536883">
 <ele>157.000000</ele>
 <time>2009-07-31T06:37:37Z</time>
 <desc>Lat.=50.8541233, Long.=6.1536883, Alt.=157m, Speed=4Km/h, Course=270deg.</desc>
<extensions>
</extensions>
</trkpt>
<trkpt lat="50.8541099" lon="6.1536950">
 <ele>157.000000</ele>
 <time>2009-07-31T06:37:38Z</time>
 <desc>Lat.=50.8541099, Long.=6.1536950, Alt.=157m, Speed=5Km/h, Course=162deg.</desc>
<extensions>
</extensions>
</trkpt>
<trkpt lat="50.8540633" lon="6.1536699">
 <ele>157.000000</ele>
 <time>2009-07-31T06:37:43Z</time>
 <desc>Lat.=50.8540633, Long.=6.1536699, Alt.=157m, Speed=3Km/h, Course=199deg.</desc>
<extensions>
</extensions>
</trkpt>
<trkpt lat="50.8540483" lon="6.1536649">
 <ele>158.000000</ele>
 <time>2009-07-31T06:37:45Z</time>
 <desc>Lat.=50.8540483, Long.=6.1536649, Alt.=158m, Speed=3Km/h, Course=192deg.</desc>
<extensions>
</extensions>
</trkpt>
<trkpt lat="50.8540399" lon="6.1536616">
 <ele>158.000000</ele>
 <time>2009-07-31T06:37:46Z</time>
 <desc>Lat.=50.8540399, Long.=6.1536616, Alt.=158m, Speed=3Km/h, Course=194deg.</desc>
<extensions>
</extensions>
</trkpt>
<trkpt lat="50.8540283" lon="6.1536633">
 <ele>158.000000</ele>
 <time>2009-07-31T06:37:47Z</time>
 <desc>Lat.=50.8540283, Long.=6.1536633, Alt.=158m, Speed=4Km/h, Course=175deg.</desc>
<extensions>
</extensions>
</trkpt>
<trkpt lat="50.8539516" lon="6.1536116">
 <ele>159.000000</ele>
 <time>2009-07-31T06:37:54Z</time>
 <desc>Lat.=50.8539516, Long.=6.1536116, Alt.=159m, Speed=4Km/h, Course=203deg.</desc>
<extensions>
</extensions>
</trkpt>
<trkpt lat="50.8539133" lon="6.1535949">
 <ele>159.000000</ele>
 <time>2009-07-31T06:37:56Z</time>
 <desc>Lat.=50.8539133, Long.=6.1535949, Alt.=159m, Speed=7Km/h, Course=195deg.</desc>
<extensions>
</extensions>
</trkpt>
<trkpt lat="50.8539083" lon="6.1535800">
 <ele>159.000000</ele>
 <time>2009-07-31T06:37:57Z</time>
 <desc>Lat.=50.8539083, Long.=6.1535800, Alt.=159m, Speed=4Km/h, Course=242deg.</desc>
<extensions>
</extensions>
</trkpt>
<trkpt lat="50.8538883" lon="6.1535633">
 <ele>159.000000</ele>
 <time>2009-07-31T06:37:59Z</time>
 <desc>Lat.=50.8538883, Long.=6.1535633, Alt.=159m, Speed=4Km/h, Course=208deg.</desc>
<extensions>
</extensions>
</trkpt>
<trkpt lat="50.8538483" lon="6.1535516">
 <ele>160.000000</ele>
 <time>2009-07-31T06:38:02Z</time>
 <desc>Lat.=50.8538483, Long.=6.1535516, Alt.=160m, Speed=5Km/h, Course=190deg.</desc>
<extensions>
</extensions>
</trkpt>
<trkpt lat="50.8538366" lon="6.1535499">
 <ele>160.000000</ele>
 <time>2009-07-31T06:38:03Z</time>
 <desc>Lat.=50.8538366, Long.=6.1535499, Alt.=160m, Speed=4Km/h, Course=185deg.</desc>
<extensions>
</extensions>
</trkpt>
<trkpt lat="50.8538266" lon="6.1535416">
 <ele>160.000000</ele>
 <time>2009-07-31T06:38:04Z</time>
 <desc>Lat.=50.8538266, Long.=6.1535416, Alt.=160m, Speed=4Km/h, Course=208deg.</desc>
<extensions>
</extensions>
</trkpt>
<trkpt lat="50.8538066" lon="6.1535166">
 <ele>160.000000</ele>
 <time>2009-07-31T06:38:06Z</time>
 <desc>Lat.=50.8538066, Long.=6.1535166, Alt.=160m, Speed=5Km/h, Course=218deg.</desc>
<extensions>
</extensions>
</trkpt>
<trkpt lat="50.8537500" lon="6.1534633">
 <ele>160.000000</ele>
 <time>2009-07-31T06:38:12Z</time>
 <desc>Lat.=50.8537500, Long.=6.1534633, Alt.=160m, Speed=4Km/h, Course=211deg.</desc>
<extensions>
</extensions>
</trkpt>
<trkpt lat="50.8537366" lon="6.1534383">
 <ele>161.000000</ele>
 <time>2009-07-31T06:38:14Z</time>
 <desc>Lat.=50.8537366, Long.=6.1534383, Alt.=161m, Speed=4Km/h, Course=230deg.</desc>
<extensions>
</extensions>
</trkpt>
<trkpt lat="50.8537333" lon="6.1534166">
 <ele>161.000000</ele>
 <time>2009-07-31T06:38:15Z</time>
 <desc>Lat.=50.8537333, Long.=6.1534166, Alt.=161m, Speed=5Km/h, Course=256deg.</desc>
<extensions>
</extensions>
</trkpt>
<trkpt lat="50.8537283" lon="6.1534050">
 <ele>161.000000</ele>
 <time>2009-07-31T06:38:16Z</time>
 <desc>Lat.=50.8537283, Long.=6.1534050, Alt.=161m, Speed=3Km/h, Course=236deg.</desc>
<extensions>
</extensions>
</trkpt>
<trkpt lat="50.8537216" lon="6.1533933">
 <ele>161.000000</ele>
 <time>2009-07-31T06:38:17Z</time>
 <desc>Lat.=50.8537216, Long.=6.1533933, Alt.=161m, Speed=3Km/h, Course=228deg.</desc>
<extensions>
</extensions>
</trkpt>
<trkpt lat="50.8536999" lon="6.1533049">
 <ele>161.000000</ele>
 <time>2009-07-31T06:38:22Z</time>
 <desc>Lat.=50.8536999, Long.=6.1533049, Alt.=161m, Speed=4Km/h, Course=249deg.</desc>
<extensions>
</extensions>
</trkpt>
<trkpt lat="50.8536933" lon="6.1532916">
 <ele>161.000000</ele>
 <time>2009-07-31T06:38:23Z</time>
 <desc>Lat.=50.8536933, Long.=6.1532916, Alt.=161m, Speed=4Km/h, Course=232deg.</desc>
<extensions>
</extensions>
</trkpt>
<trkpt lat="50.8536883" lon="6.1532799">
 <ele>161.000000</ele>
 <time>2009-07-31T06:38:24Z</time>
 <desc>Lat.=50.8536883, Long.=6.1532799, Alt.=161m, Speed=3Km/h, Course=236deg.</desc>
<extensions>
</extensions>
</trkpt>
<trkpt lat="50.8536532" lon="6.1532716">
 <ele>161.000000</ele>
 <time>2009-07-31T06:38:27Z</time>
 <desc>Lat.=50.8536532, Long.=6.1532716, Alt.=161m, Speed=4Km/h, Course=188deg.</desc>
<extensions>
</extensions>
</trkpt>
<trkpt lat="50.8536416" lon="6.1532683">
 <ele>161.000000</ele>
 <time>2009-07-31T06:38:28Z</time>
 <desc>Lat.=50.8536416, Long.=6.1532683, Alt.=161m, Speed=4Km/h, Course=190deg.</desc>
<extensions>
</extensions>
</trkpt>
<trkpt lat="50.8536283" lon="6.1532699">
 <ele>161.000000</ele>
 <time>2009-07-31T06:38:29Z</time>
 <desc>Lat.=50.8536283, Long.=6.1532699, Alt.=161m, Speed=5Km/h, Course=176deg.</desc>
<extensions>
</extensions>
</trkpt>
<trkpt lat="50.8536183" lon="6.1532683">
 <ele>161.000000</ele>
 <time>2009-07-31T06:38:30Z</time>
 <desc>Lat.=50.8536183, Long.=6.1532683, Alt.=161m, Speed=4Km/h, Course=186deg.</desc>
<extensions>
</extensions>
</trkpt>
<trkpt lat="50.8535966" lon="6.1532616">
 <ele>161.000000</ele>
 <time>2009-07-31T06:38:32Z</time>
 <desc>Lat.=50.8535966, Long.=6.1532616, Alt.=161m, Speed=4Km/h, Course=191deg.</desc>
<extensions>
</extensions>
</trkpt>
<trkpt lat="50.8535683" lon="6.1532433">
 <ele>162.000000</ele>
 <time>2009-07-31T06:38:35Z</time>
 <desc>Lat.=50.8535683, Long.=6.1532433, Alt.=162m, Speed=4Km/h, Course=202deg.</desc>
<extensions>
</extensions>
</trkpt>
<trkpt lat="50.8535649" lon="6.1532133">
 <ele>161.000000</ele>
 <time>2009-07-31T06:38:37Z</time>
 <desc>Lat.=50.8535649, Long.=6.1532133, Alt.=161m, Speed=3Km/h, Course=260deg.</desc>
<extensions>
</extensions>
</trkpt>
<trkpt lat="50.8535599" lon="6.1532016">
 <ele>161.000000</ele>
 <time>2009-07-31T06:38:38Z</time>
 <desc>Lat.=50.8535599, Long.=6.1532016, Alt.=161m, Speed=3Km/h, Course=236deg.</desc>
<extensions>
</extensions>
</trkpt>
<trkpt lat="50.8535649" lon="6.1531649">
 <ele>162.000000</ele>
 <time>2009-07-31T06:38:40Z</time>
 <desc>Lat.=50.8535649, Long.=6.1531649, Alt.=162m, Speed=4Km/h, Course=282deg.</desc>
<extensions>
</extensions>
</trkpt>
<trkpt lat="50.8535649" lon="6.1531250">
 <ele>162.000000</ele>
 <time>2009-07-31T06:38:42Z</time>
 <desc>Lat.=50.8535649, Long.=6.1531250, Alt.=162m, Speed=5Km/h, Course=270deg.</desc>
<extensions>
</extensions>
</trkpt>
<trkpt lat="50.8535700" lon="6.1530349">
 <ele>163.000000</ele>
 <time>2009-07-31T06:38:46Z</time>
 <desc>Lat.=50.8535700, Long.=6.1530349, Alt.=163m, Speed=5Km/h, Course=275deg.</desc>
<extensions>
</extensions>
</trkpt>
<trkpt lat="50.8535766" lon="6.1529833">
 <ele>163.000000</ele>
 <time>2009-07-31T06:38:49Z</time>
 <desc>Lat.=50.8535766, Long.=6.1529833, Alt.=163m, Speed=4Km/h, Course=281deg.</desc>
<extensions>
</extensions>
</trkpt>
<trkpt lat="50.8535783" lon="6.1529633">
 <ele>163.000000</ele>
 <time>2009-07-31T06:38:50Z</time>
 <desc>Lat.=50.8535783, Long.=6.1529633, Alt.=163m, Speed=5Km/h, Course=278deg.</desc>
<extensions>
</extensions>
</trkpt>
<trkpt lat="50.8535832" lon="6.1529433">
 <ele>163.000000</ele>
 <time>2009-07-31T06:38:51Z</time>
 <desc>Lat.=50.8535832, Long.=6.1529433, Alt.=163m, Speed=5Km/h, Course=291deg.</desc>
<extensions>
</extensions>
</trkpt>
<trkpt lat="50.8535966" lon="6.1529083">
 <ele>163.000000</ele>
 <time>2009-07-31T06:38:53Z</time>
 <desc>Lat.=50.8535966, Long.=6.1529083, Alt.=163m, Speed=5Km/h, Course=301deg.</desc>
<extensions>
</extensions>
</trkpt>
<trkpt lat="50.8536000" lon="6.1528883">
 <ele>163.000000</ele>
 <time>2009-07-31T06:38:54Z</time>
 <desc>Lat.=50.8536000, Long.=6.1528883, Alt.=163m, Speed=5Km/h, Course=285deg.</desc>
<extensions>
</extensions>
</trkpt>
<trkpt lat="50.8536100" lon="6.1528683">
 <ele>163.000000</ele>
 <time>2009-07-31T06:38:55Z</time>
 <desc>Lat.=50.8536100, Long.=6.1528683, Alt.=163m, Speed=6Km/h, Course=308deg.</desc>
<extensions>
</extensions>
</trkpt>
<trkpt lat="50.8536183" lon="6.1528116">
 <ele>164.000000</ele>
 <time>2009-07-31T06:38:58Z</time>
 <desc>Lat.=50.8536183, Long.=6.1528116, Alt.=164m, Speed=4Km/h, Course=283deg.</desc>
<extensions>
</extensions>
</trkpt>
<trkpt lat="50.8536333" lon="6.1527966">
 <ele>164.000000</ele>
 <time>2009-07-31T06:38:59Z</time>
 <desc>Lat.=50.8536333, Long.=6.1527966, Alt.=164m, Speed=7Km/h, Course=328deg.</desc>
<extensions>
</extensions>
</trkpt>
<trkpt lat="50.8536366" lon="6.1527749">
 <ele>164.000000</ele>
 <time>2009-07-31T06:39:00Z</time>
 <desc>Lat.=50.8536366, Long.=6.1527749, Alt.=164m, Speed=5Km/h, Course=284deg.</desc>
<extensions>
</extensions>
</trkpt>
<trkpt lat="50.8536366" lon="6.1527199">
 <ele>164.000000</ele>
 <time>2009-07-31T06:39:03Z</time>
 <desc>Lat.=50.8536366, Long.=6.1527199, Alt.=164m, Speed=4Km/h, Course=270deg.</desc>
<extensions>
</extensions>
</trkpt>
<trkpt lat="50.8536383" lon="6.1526849">
 <ele>164.000000</ele>
 <time>2009-07-31T06:39:05Z</time>
 <desc>Lat.=50.8536383, Long.=6.1526849, Alt.=164m, Speed=4Km/h, Course=274deg.</desc>
<extensions>
</extensions>
</trkpt>
<trkpt lat="50.8536466" lon="6.1525950">
 <ele>166.000000</ele>
 <time>2009-07-31T06:39:10Z</time>
 <desc>Lat.=50.8536466, Long.=6.1525950, Alt.=166m, Speed=4Km/h, Course=278deg.</desc>
<extensions>
</extensions>
</trkpt>
<trkpt lat="50.8536550" lon="6.1525683">
 <ele>168.000000</ele>
 <time>2009-07-31T06:39:12Z</time>
 <desc>Lat.=50.8536550, Long.=6.1525683, Alt.=168m, Speed=3Km/h, Course=296deg.</desc>
<extensions>
</extensions>
</trkpt>
<trkpt lat="50.8536550" lon="6.1525500">
 <ele>168.000000</ele>
 <time>2009-07-31T06:39:13Z</time>
 <desc>Lat.=50.8536550, Long.=6.1525500, Alt.=168m, Speed=4Km/h, Course=270deg.</desc>
<extensions>
</extensions>
</trkpt>
<trkpt lat="50.8536616" lon="6.1525333">
 <ele>170.000000</ele>
 <time>2009-07-31T06:39:14Z</time>
 <desc>Lat.=50.8536616, Long.=6.1525333, Alt.=170m, Speed=4Km/h, Course=302deg.</desc>
<extensions>
</extensions>
</trkpt>
<trkpt lat="50.8536833" lon="6.1524283">
 <ele>170.000000</ele>
 <time>2009-07-31T06:39:22Z</time>
 <desc>Lat.=50.8536833, Long.=6.1524283, Alt.=170m, Speed=3Km/h, Course=288deg.</desc>
<extensions>
</extensions>
</trkpt>
<trkpt lat="50.8536933" lon="6.1523883">
 <ele>170.000000</ele>
 <time>2009-07-31T06:39:24Z</time>
 <desc>Lat.=50.8536933, Long.=6.1523883, Alt.=170m, Speed=5Km/h, Course=292deg.</desc>
<extensions>
</extensions>
</trkpt>
<trkpt lat="50.8536933" lon="6.1523483">
 <ele>171.000000</ele>
 <time>2009-07-31T06:39:26Z</time>
 <desc>Lat.=50.8536933, Long.=6.1523483, Alt.=171m, Speed=5Km/h, Course=270deg.</desc>
<extensions>
</extensions>
</trkpt>
<trkpt lat="50.8536716" lon="6.1521883">
 <ele>172.000000</ele>
 <time>2009-07-31T06:39:40Z</time>
 <desc>Lat.=50.8536716, Long.=6.1521883, Alt.=172m, Speed=2Km/h, Course=258deg.</desc>
<extensions>
</extensions>
</trkpt>
<trkpt lat="50.8536700" lon="6.1521716">
 <ele>171.000000</ele>
 <time>2009-07-31T06:39:43Z</time>
 <desc>Lat.=50.8536700, Long.=6.1521716, Alt.=171m, Speed=1Km/h, Course=261deg.</desc>
<extensions>
</extensions>
</trkpt>
<trkpt lat="50.8536599" lon="6.1521183">
 <ele>171.000000</ele>
 <time>2009-07-31T06:39:48Z</time>
 <desc>Lat.=50.8536599, Long.=6.1521183, Alt.=171m, Speed=2Km/h, Course=253deg.</desc>
<extensions>
</extensions>
</trkpt>
<trkpt lat="50.8536583" lon="6.1521050">
 <ele>171.000000</ele>
 <time>2009-07-31T06:39:49Z</time>
 <desc>Lat.=50.8536583, Long.=6.1521050, Alt.=171m, Speed=3Km/h, Course=259deg.</desc>
<extensions>
</extensions>
</trkpt>
<trkpt lat="50.8536583" lon="6.1520883">
 <ele>171.000000</ele>
 <time>2009-07-31T06:39:50Z</time>
 <desc>Lat.=50.8536583, Long.=6.1520883, Alt.=171m, Speed=4Km/h, Course=270deg.</desc>
<extensions>
</extensions>
</trkpt>
<trkpt lat="50.8536633" lon="6.1520733">
 <ele>170.000000</ele>
 <time>2009-07-31T06:39:51Z</time>
 <desc>Lat.=50.8536633, Long.=6.1520733, Alt.=170m, Speed=4Km/h, Course=298deg.</desc>
<extensions>
</extensions>
</trkpt>
<trkpt lat="50.8536700" lon="6.1519533">
 <ele>172.000000</ele>
 <time>2009-07-31T06:39:58Z</time>
 <desc>Lat.=50.8536700, Long.=6.1519533, Alt.=172m, Speed=4Km/h, Course=275deg.</desc>
<extensions>
</extensions>
</trkpt>
<trkpt lat="50.8536800" lon="6.1519183">
 <ele>172.000000</ele>
 <time>2009-07-31T06:40:00Z</time>
 <desc>Lat.=50.8536800, Long.=6.1519183, Alt.=172m, Speed=4Km/h, Course=294deg.</desc>
<extensions>
</extensions>
</trkpt>
<trkpt lat="50.8536833" lon="6.1518999">
 <ele>172.000000</ele>
 <time>2009-07-31T06:40:01Z</time>
 <desc>Lat.=50.8536833, Long.=6.1518999, Alt.=172m, Speed=4Km/h, Course=286deg.</desc>
<extensions>
</extensions>
</trkpt>
<trkpt lat="50.8536966" lon="6.1518250">
 <ele>171.000000</ele>
 <time>2009-07-31T06:40:05Z</time>
 <desc>Lat.=50.8536966, Long.=6.1518250, Alt.=171m, Speed=4Km/h, Course=286deg.</desc>
<extensions>
</extensions>
</trkpt>
<trkpt lat="50.8536983" lon="6.1518066">
 <ele>171.000000</ele>
 <time>2009-07-31T06:40:06Z</time>
 <desc>Lat.=50.8536983, Long.=6.1518066, Alt.=171m, Speed=4Km/h, Course=278deg.</desc>
<extensions>
</extensions>
</trkpt>
<trkpt lat="50.8537116" lon="6.1517733">
 <ele>173.000000</ele>
 <time>2009-07-31T06:40:08Z</time>
 <desc>Lat.=50.8537116, Long.=6.1517733, Alt.=173m, Speed=4Km/h, Course=302deg.</desc>
<extensions>
</extensions>
</trkpt>
<trkpt lat="50.8537149" lon="6.1516333">
 <ele>169.000000</ele>
 <time>2009-07-31T06:40:15Z</time>
 <desc>Lat.=50.8537149, Long.=6.1516333, Alt.=169m, Speed=5Km/h, Course=272deg.</desc>
<extensions>
</extensions>
</trkpt>
<trkpt lat="50.8537416" lon="6.1515749">
 <ele>168.000000</ele>
 <time>2009-07-31T06:40:19Z</time>
 <desc>Lat.=50.8537416, Long.=6.1515749, Alt.=168m, Speed=4Km/h, Course=306deg.</desc>
<extensions>
</extensions>
</trkpt>
<trkpt lat="50.8537483" lon="6.1515583">
 <ele>168.000000</ele>
 <time>2009-07-31T06:40:20Z</time>
 <desc>Lat.=50.8537483, Long.=6.1515583, Alt.=168m, Speed=4Km/h, Course=303deg.</desc>
<extensions>
</extensions>
</trkpt>
<trkpt lat="50.8537800" lon="6.1515099">
 <ele>167.000000</ele>
 <time>2009-07-31T06:40:23Z</time>
 <desc>Lat.=50.8537800, Long.=6.1515099, Alt.=167m, Speed=5Km/h, Course=316deg.</desc>
<extensions>
</extensions>
</trkpt>
<trkpt lat="50.8537899" lon="6.1514899">
 <ele>167.000000</ele>
 <time>2009-07-31T06:40:24Z</time>
 <desc>Lat.=50.8537899, Long.=6.1514899, Alt.=167m, Speed=6Km/h, Course=308deg.</desc>
<extensions>
</extensions>
</trkpt>
<trkpt lat="50.8538016" lon="6.1514500">
 <ele>167.000000</ele>
 <time>2009-07-31T06:40:26Z</time>
 <desc>Lat.=50.8538016, Long.=6.1514500, Alt.=167m, Speed=5Km/h, Course=295deg.</desc>
<extensions>
</extensions>
</trkpt>
<trkpt lat="50.8538116" lon="6.1514116">
 <ele>167.000000</ele>
 <time>2009-07-31T06:40:28Z</time>
 <desc>Lat.=50.8538116, Long.=6.1514116, Alt.=167m, Speed=5Km/h, Course=292deg.</desc>
<extensions>
</extensions>
</trkpt>
<trkpt lat="50.8538183" lon="6.1513749">
 <ele>167.000000</ele>
 <time>2009-07-31T06:40:30Z</time>
 <desc>Lat.=50.8538183, Long.=6.1513749, Alt.=167m, Speed=4Km/h, Course=286deg.</desc>
<extensions>
</extensions>
</trkpt>
<trkpt lat="50.8538333" lon="6.1513016">
 <ele>167.000000</ele>
 <time>2009-07-31T06:40:34Z</time>
 <desc>Lat.=50.8538333, Long.=6.1513016, Alt.=167m, Speed=4Km/h, Course=288deg.</desc>
<extensions>
</extensions>
</trkpt>
<trkpt lat="50.8538399" lon="6.1512633">
 <ele>167.000000</ele>
 <time>2009-07-31T06:40:36Z</time>
 <desc>Lat.=50.8538399, Long.=6.1512633, Alt.=167m, Speed=5Km/h, Course=285deg.</desc>
<extensions>
</extensions>
</trkpt>
<trkpt lat="50.8538449" lon="6.1512466">
 <ele>167.000000</ele>
 <time>2009-07-31T06:40:37Z</time>
 <desc>Lat.=50.8538449, Long.=6.1512466, Alt.=167m, Speed=4Km/h, Course=295deg.</desc>
<extensions>
</extensions>
</trkpt>
<trkpt lat="50.8538533" lon="6.1512316">
 <ele>167.000000</ele>
 <time>2009-07-31T06:40:38Z</time>
 <desc>Lat.=50.8538533, Long.=6.1512316, Alt.=167m, Speed=5Km/h, Course=312deg.</desc>
<extensions>
</extensions>
</trkpt>
<trkpt lat="50.8538632" lon="6.1512249">
 <ele>168.000000</ele>
 <time>2009-07-31T06:40:39Z</time>
 <desc>Lat.=50.8538632, Long.=6.1512249, Alt.=168m, Speed=4Km/h, Course=337deg.</desc>
<extensions>
</extensions>
</trkpt>
<trkpt lat="50.8538950" lon="6.1511899">
 <ele>168.000000</ele>
 <time>2009-07-31T06:40:42Z</time>
 <desc>Lat.=50.8538950, Long.=6.1511899, Alt.=168m, Speed=5Km/h, Course=325deg.</desc>
<extensions>
</extensions>
</trkpt>
<trkpt lat="50.8539200" lon="6.1511800">
 <ele>168.000000</ele>
 <time>2009-07-31T06:40:44Z</time>
 <desc>Lat.=50.8539200, Long.=6.1511800, Alt.=168m, Speed=5Km/h, Course=346deg.</desc>
<extensions>
</extensions>
</trkpt>
<trkpt lat="50.8539583" lon="6.1511633">
 <ele>168.000000</ele>
 <time>2009-07-31T06:40:47Z</time>
 <desc>Lat.=50.8539583, Long.=6.1511633, Alt.=168m, Speed=5Km/h, Course=345deg.</desc>
<extensions>
</extensions>
</trkpt>
<trkpt lat="50.8539849" lon="6.1511483">
 <ele>166.000000</ele>
 <time>2009-07-31T06:40:49Z</time>
 <desc>Lat.=50.8539849, Long.=6.1511483, Alt.=166m, Speed=5Km/h, Course=340deg.</desc>
<extensions>
</extensions>
</trkpt>
<trkpt lat="50.8539983" lon="6.1511533">
 <ele>165.000000</ele>
 <time>2009-07-31T06:40:50Z</time>
 <desc>Lat.=50.8539983, Long.=6.1511533, Alt.=165m, Speed=5Km/h, Course=13deg.</desc>
<extensions>
</extensions>
</trkpt>
<trkpt lat="50.8540350" lon="6.1511916">
 <ele>165.000000</ele>
 <time>2009-07-31T06:40:53Z</time>
 <desc>Lat.=50.8540350, Long.=6.1511916, Alt.=165m, Speed=5Km/h, Course=33deg.</desc>
<extensions>
</extensions>
</trkpt>
<trkpt lat="50.8540600" lon="6.1512050">
 <ele>165.000000</ele>
 <time>2009-07-31T06:40:54Z</time>
 <desc>Lat.=50.8540600, Long.=6.1512050, Alt.=165m, Speed=10Km/h, Course=19deg.</desc>
<extensions>
</extensions>
</trkpt>
<trkpt lat="50.8540933" lon="6.1512400">
 <ele>165.000000</ele>
 <time>2009-07-31T06:40:58Z</time>
 <desc>Lat.=50.8540933, Long.=6.1512400, Alt.=165m, Speed=4Km/h, Course=34deg.</desc>
<extensions>
</extensions>
</trkpt>
<trkpt lat="50.8541083" lon="6.1512416">
 <ele>164.000000</ele>
 <time>2009-07-31T06:40:59Z</time>
 <desc>Lat.=50.8541083, Long.=6.1512416, Alt.=164m, Speed=6Km/h, Course=4deg.</desc>
<extensions>
</extensions>
</trkpt>
<trkpt lat="50.8541366" lon="6.1512366">
 <ele>164.000000</ele>
 <time>2009-07-31T06:41:01Z</time>
 <desc>Lat.=50.8541366, Long.=6.1512366, Alt.=164m, Speed=5Km/h, Course=354deg.</desc>
<extensions>
</extensions>
</trkpt>
<trkpt lat="50.8541466" lon="6.1512266">
 <ele>164.000000</ele>
 <time>2009-07-31T06:41:02Z</time>
 <desc>Lat.=50.8541466, Long.=6.1512266, Alt.=164m, Speed=4Km/h, Course=328deg.</desc>
<extensions>
</extensions>
</trkpt>
<trkpt lat="50.8541666" lon="6.1512183">
 <ele>164.000000</ele>
 <time>2009-07-31T06:41:04Z</time>
 <desc>Lat.=50.8541666, Long.=6.1512183, Alt.=164m, Speed=4Km/h, Course=345deg.</desc>
<extensions>
</extensions>
</trkpt>
<trkpt lat="50.8541750" lon="6.1512083">
 <ele>164.000000</ele>
 <time>2009-07-31T06:41:05Z</time>
 <desc>Lat.=50.8541750, Long.=6.1512083, Alt.=164m, Speed=4Km/h, Course=323deg.</desc>
<extensions>
</extensions>
</trkpt>
<trkpt lat="50.8541816" lon="6.1511983">
 <ele>164.000000</ele>
 <time>2009-07-31T06:41:06Z</time>
 <desc>Lat.=50.8541816, Long.=6.1511983, Alt.=164m, Speed=3Km/h, Course=316deg.</desc>
<extensions>
</extensions>
</trkpt>
<trkpt lat="50.8541883" lon="6.1511849">
 <ele>164.000000</ele>
 <time>2009-07-31T06:41:07Z</time>
 <desc>Lat.=50.8541883, Long.=6.1511849, Alt.=164m, Speed=4Km/h, Course=308deg.</desc>
<extensions>
</extensions>
</trkpt>
<trkpt lat="50.8541949" lon="6.1511716">
 <ele>165.000000</ele>
 <time>2009-07-31T06:41:08Z</time>
 <desc>Lat.=50.8541949, Long.=6.1511716, Alt.=165m, Speed=4Km/h, Course=308deg.</desc>
<extensions>
</extensions>
</trkpt>
<trkpt lat="50.8542166" lon="6.1510966">
 <ele>166.000000</ele>
 <time>2009-07-31T06:41:12Z</time>
 <desc>Lat.=50.8542166, Long.=6.1510966, Alt.=166m, Speed=5Km/h, Course=295deg.</desc>
<extensions>
</extensions>
</trkpt>
<trkpt lat="50.8542199" lon="6.1510816">
 <ele>167.000000</ele>
 <time>2009-07-31T06:41:13Z</time>
 <desc>Lat.=50.8542199, Long.=6.1510816, Alt.=167m, Speed=4Km/h, Course=289deg.</desc>
<extensions>
</extensions>
</trkpt>
<trkpt lat="50.8542366" lon="6.1510183">
 <ele>169.000000</ele>
 <time>2009-07-31T06:41:17Z</time>
 <desc>Lat.=50.8542366, Long.=6.1510183, Alt.=169m, Speed=4Km/h, Course=293deg.</desc>
<extensions>
</extensions>
</trkpt>
<trkpt lat="50.8542600" lon="6.1509416">
 <ele>171.000000</ele>
 <time>2009-07-31T06:41:21Z</time>
 <desc>Lat.=50.8542600, Long.=6.1509416, Alt.=171m, Speed=5Km/h, Course=296deg.</desc>
<extensions>
</extensions>
</trkpt>
<trkpt lat="50.8542733" lon="6.1509016">
 <ele>172.000000</ele>
 <time>2009-07-31T06:41:23Z</time>
 <desc>Lat.=50.8542733, Long.=6.1509016, Alt.=172m, Speed=5Km/h, Course=298deg.</desc>
<extensions>
</extensions>
</trkpt>
<trkpt lat="50.8542799" lon="6.1508816">
 <ele>172.000000</ele>
 <time>2009-07-31T06:41:24Z</time>
 <desc>Lat.=50.8542799, Long.=6.1508816, Alt.=172m, Speed=5Km/h, Course=298deg.</desc>
<extensions>
</extensions>
</trkpt>
<trkpt lat="50.8542833" lon="6.1508633">
 <ele>173.000000</ele>
 <time>2009-07-31T06:41:25Z</time>
 <desc>Lat.=50.8542833, Long.=6.1508633, Alt.=173m, Speed=4Km/h, Course=286deg.</desc>
<extensions>
</extensions>
</trkpt>
<trkpt lat="50.8542933" lon="6.1507950">
 <ele>172.000000</ele>
 <time>2009-07-31T06:41:29Z</time>
 <desc>Lat.=50.8542933, Long.=6.1507950, Alt.=172m, Speed=4Km/h, Course=283deg.</desc>
<extensions>
</extensions>
</trkpt>
<trkpt lat="50.8542983" lon="6.1507816">
 <ele>172.000000</ele>
 <time>2009-07-31T06:41:30Z</time>
 <desc>Lat.=50.8542983, Long.=6.1507816, Alt.=172m, Speed=3Km/h, Course=301deg.</desc>
<extensions>
</extensions>
</trkpt>
<trkpt lat="50.8543133" lon="6.1507533">
 <ele>172.000000</ele>
 <time>2009-07-31T06:41:32Z</time>
 <desc>Lat.=50.8543133, Long.=6.1507533, Alt.=172m, Speed=4Km/h, Course=310deg.</desc>
<extensions>
</extensions>
</trkpt>
<trkpt lat="50.8543266" lon="6.1507199">
 <ele>172.000000</ele>
 <time>2009-07-31T06:41:34Z</time>
 <desc>Lat.=50.8543266, Long.=6.1507199, Alt.=172m, Speed=4Km/h, Course=302deg.</desc>
<extensions>
</extensions>
</trkpt>
<trkpt lat="50.8543550" lon="6.1506733">
 <ele>172.000000</ele>
 <time>2009-07-31T06:41:37Z</time>
 <desc>Lat.=50.8543550, Long.=6.1506733, Alt.=172m, Speed=5Km/h, Course=314deg.</desc>
<extensions>
</extensions>
</trkpt>
<trkpt lat="50.8543783" lon="6.1506550">
 <ele>172.000000</ele>
 <time>2009-07-31T06:41:39Z</time>
 <desc>Lat.=50.8543783, Long.=6.1506550, Alt.=172m, Speed=5Km/h, Course=334deg.</desc>
<extensions>
</extensions>
</trkpt>
<trkpt lat="50.8544100" lon="6.1506516">
 <ele>172.000000</ele>
 <time>2009-07-31T06:41:41Z</time>
 <desc>Lat.=50.8544100, Long.=6.1506516, Alt.=172m, Speed=6Km/h, Course=356deg.</desc>
<extensions>
</extensions>
</trkpt>
<trkpt lat="50.8544216" lon="6.1506399">
 <ele>171.000000</ele>
 <time>2009-07-31T06:41:43Z</time>
 <desc>Lat.=50.8544216, Long.=6.1506399, Alt.=171m, Speed=2Km/h, Course=328deg.</desc>
<extensions>
</extensions>
</trkpt>
<trkpt lat="50.8544266" lon="6.1506249">
 <ele>171.000000</ele>
 <time>2009-07-31T06:41:44Z</time>
 <desc>Lat.=50.8544266, Long.=6.1506249, Alt.=171m, Speed=4Km/h, Course=298deg.</desc>
<extensions>
</extensions>
</trkpt>
<trkpt lat="50.8544333" lon="6.1505799">
 <ele>171.000000</ele>
 <time>2009-07-31T06:41:46Z</time>
 <desc>Lat.=50.8544333, Long.=6.1505799, Alt.=171m, Speed=5Km/h, Course=283deg.</desc>
<extensions>
</extensions>
</trkpt>
<trkpt lat="50.8544466" lon="6.1505166">
 <ele>172.000000</ele>
 <time>2009-07-31T06:41:49Z</time>
 <desc>Lat.=50.8544466, Long.=6.1505166, Alt.=172m, Speed=5Km/h, Course=288deg.</desc>
<extensions>
</extensions>
</trkpt>
<trkpt lat="50.8544533" lon="6.1504966">
 <ele>172.000000</ele>
 <time>2009-07-31T06:41:50Z</time>
 <desc>Lat.=50.8544533, Long.=6.1504966, Alt.=172m, Speed=5Km/h, Course=298deg.</desc>
<extensions>
</extensions>
</trkpt>
<trkpt lat="50.8544633" lon="6.1504799">
 <ele>172.000000</ele>
 <time>2009-07-31T06:41:51Z</time>
 <desc>Lat.=50.8544633, Long.=6.1504799, Alt.=172m, Speed=5Km/h, Course=313deg.</desc>
<extensions>
</extensions>
</trkpt>
<trkpt lat="50.8544716" lon="6.1504566">
 <ele>172.000000</ele>
 <time>2009-07-31T06:41:52Z</time>
 <desc>Lat.=50.8544716, Long.=6.1504566, Alt.=172m, Speed=6Km/h, Course=299deg.</desc>
<extensions>
</extensions>
</trkpt>
<trkpt lat="50.8544766" lon="6.1504366">
 <ele>172.000000</ele>
 <time>2009-07-31T06:41:53Z</time>
 <desc>Lat.=50.8544766, Long.=6.1504366, Alt.=172m, Speed=5Km/h, Course=292deg.</desc>
<extensions>
</extensions>
</trkpt>
<trkpt lat="50.8544866" lon="6.1504183">
 <ele>172.000000</ele>
 <time>2009-07-31T06:41:54Z</time>
 <desc>Lat.=50.8544866, Long.=6.1504183, Alt.=172m, Speed=6Km/h, Course=311deg.</desc>
<extensions>
</extensions>
</trkpt>
<trkpt lat="50.8545333" lon="6.1503383">
 <ele>171.000000</ele>
 <time>2009-07-31T06:41:58Z</time>
 <desc>Lat.=50.8545333, Long.=6.1503383, Alt.=171m, Speed=6Km/h, Course=313deg.</desc>
<extensions>
</extensions>
</trkpt>
<trkpt lat="50.8545599" lon="6.1502949">
 <ele>171.000000</ele>
 <time>2009-07-31T06:42:00Z</time>
 <desc>Lat.=50.8545599, Long.=6.1502949, Alt.=171m, Speed=7Km/h, Course=314deg.</desc>
<extensions>
</extensions>
</trkpt>
<trkpt lat="50.8545782" lon="6.1502599">
 <ele>171.000000</ele>
 <time>2009-07-31T06:42:02Z</time>
 <desc>Lat.=50.8545782, Long.=6.1502599, Alt.=171m, Speed=5Km/h, Course=310deg.</desc>
<extensions>
</extensions>
</trkpt>
<trkpt lat="50.8546050" lon="6.1502516">
 <ele>170.000000</ele>
 <time>2009-07-31T06:42:04Z</time>
 <desc>Lat.=50.8546050, Long.=6.1502516, Alt.=170m, Speed=5Km/h, Course=349deg.</desc>
<extensions>
</extensions>
</trkpt>
<trkpt lat="50.8546100" lon="6.1502416">
 <ele>170.000000</ele>
 <time>2009-07-31T06:42:05Z</time>
 <desc>Lat.=50.8546100, Long.=6.1502416, Alt.=170m, Speed=3Km/h, Course=308deg.</desc>
<extensions>
</extensions>
</trkpt>
<trkpt lat="50.8546149" lon="6.1502116">
 <ele>169.000000</ele>
 <time>2009-07-31T06:42:07Z</time>
 <desc>Lat.=50.8546149, Long.=6.1502116, Alt.=169m, Speed=3Km/h, Course=285deg.</desc>
<extensions>
</extensions>
</trkpt>
<trkpt lat="50.8546633" lon="6.1500966">
 <ele>169.000000</ele>
 <time>2009-07-31T06:42:15Z</time>
 <desc>Lat.=50.8546633, Long.=6.1500966, Alt.=169m, Speed=4Km/h, Course=304deg.</desc>
<extensions>
</extensions>
</trkpt>
<trkpt lat="50.8546633" lon="6.1500749">
 <ele>168.000000</ele>
 <time>2009-07-31T06:42:16Z</time>
 <desc>Lat.=50.8546633, Long.=6.1500749, Alt.=168m, Speed=5Km/h, Course=270deg.</desc>
<extensions>
</extensions>
</trkpt>
<trkpt lat="50.8546666" lon="6.1500683">
 <ele>168.000000</ele>
 <time>2009-07-31T06:42:17Z</time>
 <desc>Lat.=50.8546666, Long.=6.1500683, Alt.=168m, Speed=2Km/h, Course=308deg.</desc>
<extensions>
</extensions>
</trkpt>
<trkpt lat="50.8546800" lon="6.1500399">
 <ele>168.000000</ele>
 <time>2009-07-31T06:42:19Z</time>
 <desc>Lat.=50.8546800, Long.=6.1500399, Alt.=168m, Speed=4Km/h, Course=307deg.</desc>
<extensions>
</extensions>
</trkpt>
<trkpt lat="50.8546949" lon="6.1500166">
 <ele>168.000000</ele>
 <time>2009-07-31T06:42:21Z</time>
 <desc>Lat.=50.8546949, Long.=6.1500166, Alt.=168m, Speed=4Km/h, Course=315deg.</desc>
<extensions>
</extensions>
</trkpt>
<trkpt lat="50.8547050" lon="6.1500000">
 <ele>168.000000</ele>
 <time>2009-07-31T06:42:22Z</time>
 <desc>Lat.=50.8547050, Long.=6.1500000, Alt.=168m, Speed=5Km/h, Course=314deg.</desc>
<extensions>
</extensions>
</trkpt>
<trkpt lat="50.8547182" lon="6.1500083">
 <ele>168.000000</ele>
 <time>2009-07-31T06:42:23Z</time>
 <desc>Lat.=50.8547182, Long.=6.1500083, Alt.=168m, Speed=5Km/h, Course=22deg.</desc>
<extensions>
</extensions>
</trkpt>
<trkpt lat="50.8547416" lon="6.1500299">
 <ele>168.000000</ele>
 <time>2009-07-31T06:42:25Z</time>
 <desc>Lat.=50.8547416, Long.=6.1500299, Alt.=168m, Speed=5Km/h, Course=30deg.</desc>
<extensions>
</extensions>
</trkpt>
<trkpt lat="50.8547549" lon="6.1500100">
 <ele>168.000000</ele>
 <time>2009-07-31T06:42:26Z</time>
 <desc>Lat.=50.8547549, Long.=6.1500100, Alt.=168m, Speed=7Km/h, Course=317deg.</desc>
<extensions>
</extensions>
</trkpt>
<trkpt lat="50.8547666" lon="6.1499916">
 <ele>168.000000</ele>
 <time>2009-07-31T06:42:27Z</time>
 <desc>Lat.=50.8547666, Long.=6.1499916, Alt.=168m, Speed=6Km/h, Course=315deg.</desc>
<extensions>
</extensions>
</trkpt>
<trkpt lat="50.8547766" lon="6.1499833">
 <ele>168.000000</ele>
 <time>2009-07-31T06:42:28Z</time>
 <desc>Lat.=50.8547766, Long.=6.1499833, Alt.=168m, Speed=4Km/h, Course=332deg.</desc>
<extensions>
</extensions>
</trkpt>
<trkpt lat="50.8547866" lon="6.1499699">
 <ele>168.000000</ele>
 <time>2009-07-31T06:42:29Z</time>
 <desc>Lat.=50.8547866, Long.=6.1499699, Alt.=168m, Speed=5Km/h, Course=320deg.</desc>
<extensions>
</extensions>
</trkpt>
<trkpt lat="50.8547966" lon="6.1499466">
 <ele>168.000000</ele>
 <time>2009-07-31T06:42:30Z</time>
 <desc>Lat.=50.8547966, Long.=6.1499466, Alt.=168m, Speed=7Km/h, Course=304deg.</desc>
<extensions>
</extensions>
</trkpt>
<trkpt lat="50.8548083" lon="6.1499249">
 <ele>169.000000</ele>
 <time>2009-07-31T06:42:31Z</time>
 <desc>Lat.=50.8548083, Long.=6.1499249, Alt.=169m, Speed=7Km/h, Course=310deg.</desc>
<extensions>
</extensions>
</trkpt>
<trkpt lat="50.8548216" lon="6.1499266">
 <ele>169.000000</ele>
 <time>2009-07-31T06:42:32Z</time>
 <desc>Lat.=50.8548216, Long.=6.1499266, Alt.=169m, Speed=5Km/h, Course=5deg.</desc>
<extensions>
</extensions>
</trkpt>
<trkpt lat="50.8548582" lon="6.1499016">
 <ele>168.000000</ele>
 <time>2009-07-31T06:42:35Z</time>
 <desc>Lat.=50.8548582, Long.=6.1499016, Alt.=168m, Speed=5Km/h, Course=337deg.</desc>
<extensions>
</extensions>
</trkpt>
<trkpt lat="50.8548916" lon="6.1498933">
 <ele>168.000000</ele>
 <time>2009-07-31T06:42:36Z</time>
 <desc>Lat.=50.8548916, Long.=6.1498933, Alt.=168m, Speed=13Km/h, Course=351deg.</desc>
<extensions>
</extensions>
</trkpt>
<trkpt lat="50.8549333" lon="6.1498616">
 <ele>169.000000</ele>
 <time>2009-07-31T06:42:39Z</time>
 <desc>Lat.=50.8549333, Long.=6.1498616, Alt.=169m, Speed=6Km/h, Course=334deg.</desc>
<extensions>
</extensions>
</trkpt>
<trkpt lat="50.8549383" lon="6.1498450">
 <ele>169.000000</ele>
 <time>2009-07-31T06:42:40Z</time>
 <desc>Lat.=50.8549383, Long.=6.1498450, Alt.=169m, Speed=4Km/h, Course=296deg.</desc>
<extensions>
</extensions>
</trkpt>
<trkpt lat="50.8549416" lon="6.1498366">
 <ele>169.000000</ele>
 <time>2009-07-31T06:42:41Z</time>
 <desc>Lat.=50.8549416, Long.=6.1498366, Alt.=169m, Speed=2Km/h, Course=302deg.</desc>
<extensions>
</extensions>
</trkpt>
<trkpt lat="50.8549466" lon="6.1498100">
 <ele>169.000000</ele>
 <time>2009-07-31T06:42:43Z</time>
 <desc>Lat.=50.8549466, Long.=6.1498100, Alt.=169m, Speed=3Km/h, Course=287deg.</desc>
<extensions>
</extensions>
</trkpt>
<trkpt lat="50.8549499" lon="6.1497716">
 <ele>170.000000</ele>
 <time>2009-07-31T06:42:45Z</time>
 <desc>Lat.=50.8549499, Long.=6.1497716, Alt.=170m, Speed=4Km/h, Course=278deg.</desc>
<extensions>
</extensions>
</trkpt>
<trkpt lat="50.8549233" lon="6.1497249">
 <ele>170.000000</ele>
 <time>2009-07-31T06:42:46Z</time>
 <desc>Lat.=50.8549233, Long.=6.1497249, Alt.=170m, Speed=15Km/h, Course=228deg.</desc>
<extensions>
</extensions>
</trkpt>
<trkpt lat="50.8549083" lon="6.1496833">
 <ele>170.000000</ele>
 <time>2009-07-31T06:42:48Z</time>
 <desc>Lat.=50.8549083, Long.=6.1496833, Alt.=170m, Speed=6Km/h, Course=240deg.</desc>
<extensions>
</extensions>
</trkpt>
<trkpt lat="50.8549033" lon="6.1496633">
 <ele>170.000000</ele>
 <time>2009-07-31T06:42:49Z</time>
 <desc>Lat.=50.8549033, Long.=6.1496633, Alt.=170m, Speed=5Km/h, Course=248deg.</desc>
<extensions>
</extensions>
</trkpt>
<trkpt lat="50.8549083" lon="6.1496366">
 <ele>170.000000</ele>
 <time>2009-07-31T06:42:51Z</time>
 <desc>Lat.=50.8549083, Long.=6.1496366, Alt.=170m, Speed=3Km/h, Course=287deg.</desc>
<extensions>
</extensions>
</trkpt>
<trkpt lat="50.8549183" lon="6.1496250">
 <ele>170.000000</ele>
 <time>2009-07-31T06:42:52Z</time>
 <desc>Lat.=50.8549183, Long.=6.1496250, Alt.=170m, Speed=4Km/h, Course=324deg.</desc>
<extensions>
</extensions>
</trkpt>
<trkpt lat="50.8549233" lon="6.1496299">
 <ele>170.000000</ele>
 <time>2009-07-31T06:42:53Z</time>
 <desc>Lat.=50.8549233, Long.=6.1496299, Alt.=170m, Speed=2Km/h, Course=32deg.</desc>
<extensions>
</extensions>
</trkpt>
<trkpt lat="50.8549450" lon="6.1496399">
 <ele>169.000000</ele>
 <time>2009-07-31T06:42:55Z</time>
 <desc>Lat.=50.8549450, Long.=6.1496399, Alt.=169m, Speed=4Km/h, Course=16deg.</desc>
<extensions>
</extensions>
</trkpt>
<trkpt lat="50.8549349" lon="6.1496166">
 <ele>169.000000</ele>
 <time>2009-07-31T06:42:56Z</time>
 <desc>Lat.=50.8549349, Long.=6.1496166, Alt.=169m, Speed=7Km/h, Course=236deg.</desc>
<extensions>
</extensions>
</trkpt>
<trkpt lat="50.8549216" lon="6.1495599">
 <ele>169.000000</ele>
 <time>2009-07-31T06:42:59Z</time>
 <desc>Lat.=50.8549216, Long.=6.1495599, Alt.=169m, Speed=5Km/h, Course=250deg.</desc>
<extensions>
</extensions>
</trkpt>
<trkpt lat="50.8549249" lon="6.1495399">
 <ele>170.000000</ele>
 <time>2009-07-31T06:43:00Z</time>
 <desc>Lat.=50.8549249, Long.=6.1495399, Alt.=170m, Speed=5Km/h, Course=285deg.</desc>
<extensions>
</extensions>
</trkpt>
<trkpt lat="50.8549233" lon="6.1495166">
 <ele>170.000000</ele>
 <time>2009-07-31T06:43:01Z</time>
 <desc>Lat.=50.8549233, Long.=6.1495166, Alt.=170m, Speed=5Km/h, Course=264deg.</desc>
<extensions>
</extensions>
</trkpt>
<trkpt lat="50.8549166" lon="6.1494816">
 <ele>171.000000</ele>
 <time>2009-07-31T06:43:03Z</time>
 <desc>Lat.=50.8549166, Long.=6.1494816, Alt.=171m, Speed=4Km/h, Course=253deg.</desc>
<extensions>
</extensions>
</trkpt>
<trkpt lat="50.8549150" lon="6.1494600">
 <ele>171.000000</ele>
 <time>2009-07-31T06:43:04Z</time>
 <desc>Lat.=50.8549150, Long.=6.1494600, Alt.=171m, Speed=5Km/h, Course=263deg.</desc>
<extensions>
</extensions>
</trkpt>
<trkpt lat="50.8549066" lon="6.1494350">
 <ele>172.000000</ele>
 <time>2009-07-31T06:43:06Z</time>
 <desc>Lat.=50.8549066, Long.=6.1494350, Alt.=172m, Speed=3Km/h, Course=242deg.</desc>
<extensions>
</extensions>
</trkpt>
<trkpt lat="50.8549116" lon="6.1494266">
 <ele>171.000000</ele>
 <time>2009-07-31T06:43:07Z</time>
 <desc>Lat.=50.8549116, Long.=6.1494266, Alt.=171m, Speed=2Km/h, Course=313deg.</desc>
<extensions>
</extensions>
</trkpt>
<trkpt lat="50.8549266" lon="6.1493666">
 <ele>171.000000</ele>
 <time>2009-07-31T06:43:10Z</time>
 <desc>Lat.=50.8549266, Long.=6.1493666, Alt.=171m, Speed=5Km/h, Course=292deg.</desc>
<extensions>
</extensions>
</trkpt>
<trkpt lat="50.8549366" lon="6.1492516">
 <ele>171.000000</ele>
 <time>2009-07-31T06:43:15Z</time>
 <desc>Lat.=50.8549366, Long.=6.1492516, Alt.=171m, Speed=5Km/h, Course=278deg.</desc>
<extensions>
</extensions>
</trkpt>
<trkpt lat="50.8549399" lon="6.1492299">
 <ele>171.000000</ele>
 <time>2009-07-31T06:43:16Z</time>
 <desc>Lat.=50.8549399, Long.=6.1492299, Alt.=171m, Speed=5Km/h, Course=284deg.</desc>
<extensions>
</extensions>
</trkpt>
<trkpt lat="50.8549416" lon="6.1492133">
 <ele>172.000000</ele>
 <time>2009-07-31T06:43:17Z</time>
 <desc>Lat.=50.8549416, Long.=6.1492133, Alt.=172m, Speed=4Km/h, Course=279deg.</desc>
<extensions>
</extensions>
</trkpt>
<trkpt lat="50.8549450" lon="6.1491999">
 <ele>172.000000</ele>
 <time>2009-07-31T06:43:18Z</time>
 <desc>Lat.=50.8549450, Long.=6.1491999, Alt.=172m, Speed=3Km/h, Course=292deg.</desc>
<extensions>
</extensions>
</trkpt>
<trkpt lat="50.8549433" lon="6.1491849">
 <ele>171.000000</ele>
 <time>2009-07-31T06:43:19Z</time>
 <desc>Lat.=50.8549433, Long.=6.1491849, Alt.=171m, Speed=3Km/h, Course=260deg.</desc>
<extensions>
</extensions>
</trkpt>
<trkpt lat="50.8549466" lon="6.1491533">
 <ele>172.000000</ele>
 <time>2009-07-31T06:43:21Z</time>
 <desc>Lat.=50.8549466, Long.=6.1491533, Alt.=172m, Speed=4Km/h, Course=279deg.</desc>
<extensions>
</extensions>
</trkpt>
<trkpt lat="50.8549550" lon="6.1491116">
 <ele>171.000000</ele>
 <time>2009-07-31T06:43:24Z</time>
 <desc>Lat.=50.8549550, Long.=6.1491116, Alt.=171m, Speed=3Km/h, Course=288deg.</desc>
<extensions>
</extensions>
</trkpt>
<trkpt lat="50.8549499" lon="6.1490566">
 <ele>170.000000</ele>
 <time>2009-07-31T06:43:27Z</time>
 <desc>Lat.=50.8549499, Long.=6.1490566, Alt.=170m, Speed=4Km/h, Course=262deg.</desc>
<extensions>
</extensions>
</trkpt>
<trkpt lat="50.8549499" lon="6.1490416">
 <ele>169.000000</ele>
 <time>2009-07-31T06:43:28Z</time>
 <desc>Lat.=50.8549499, Long.=6.1490416, Alt.=169m, Speed=3Km/h, Course=270deg.</desc>
<extensions>
</extensions>
</trkpt>
<trkpt lat="50.8549516" lon="6.1490266">
 <ele>169.000000</ele>
 <time>2009-07-31T06:43:29Z</time>
 <desc>Lat.=50.8549516, Long.=6.1490266, Alt.=169m, Speed=3Km/h, Course=280deg.</desc>
<extensions>
</extensions>
</trkpt>
<trkpt lat="50.8549399" lon="6.1489316">
 <ele>168.000000</ele>
 <time>2009-07-31T06:43:34Z</time>
 <desc>Lat.=50.8549399, Long.=6.1489316, Alt.=168m, Speed=4Km/h, Course=259deg.</desc>
<extensions>
</extensions>
</trkpt>
<trkpt lat="50.8549366" lon="6.1488899">
 <ele>168.000000</ele>
 <time>2009-07-31T06:43:36Z</time>
 <desc>Lat.=50.8549366, Long.=6.1488899, Alt.=168m, Speed=5Km/h, Course=263deg.</desc>
<extensions>
</extensions>
</trkpt>
<trkpt lat="50.8549399" lon="6.1488616">
 <ele>166.000000</ele>
 <time>2009-07-31T06:43:38Z</time>
 <desc>Lat.=50.8549399, Long.=6.1488616, Alt.=166m, Speed=3Km/h, Course=280deg.</desc>
<extensions>
</extensions>
</trkpt>
<trkpt lat="50.8549316" lon="6.1488366">
 <ele>166.000000</ele>
 <time>2009-07-31T06:43:40Z</time>
 <desc>Lat.=50.8549316, Long.=6.1488366, Alt.=166m, Speed=3Km/h, Course=242deg.</desc>
<extensions>
</extensions>
</trkpt>
<trkpt lat="50.8549282" lon="6.1488216">
 <ele>165.000000</ele>
 <time>2009-07-31T06:43:41Z</time>
 <desc>Lat.=50.8549282, Long.=6.1488216, Alt.=165m, Speed=4Km/h, Course=250deg.</desc>
<extensions>
</extensions>
</trkpt>
<trkpt lat="50.8549233" lon="6.1487866">
 <ele>164.000000</ele>
 <time>2009-07-31T06:43:43Z</time>
 <desc>Lat.=50.8549233, Long.=6.1487866, Alt.=164m, Speed=4Km/h, Course=257deg.</desc>
<extensions>
</extensions>
</trkpt>
<trkpt lat="50.8549133" lon="6.1487350">
 <ele>165.000000</ele>
 <time>2009-07-31T06:43:46Z</time>
 <desc>Lat.=50.8549133, Long.=6.1487350, Alt.=165m, Speed=4Km/h, Course=253deg.</desc>
<extensions>
</extensions>
</trkpt>
<trkpt lat="50.8549150" lon="6.1487166">
 <ele>164.000000</ele>
 <time>2009-07-31T06:43:47Z</time>
 <desc>Lat.=50.8549150, Long.=6.1487166, Alt.=164m, Speed=4Km/h, Course=278deg.</desc>
<extensions>
</extensions>
</trkpt>
<trkpt lat="50.8549216" lon="6.1486849">
 <ele>163.000000</ele>
 <time>2009-07-31T06:43:49Z</time>
 <desc>Lat.=50.8549216, Long.=6.1486849, Alt.=163m, Speed=4Km/h, Course=288deg.</desc>
<extensions>
</extensions>
</trkpt>
<trkpt lat="50.8549199" lon="6.1486549">
 <ele>162.000000</ele>
 <time>2009-07-31T06:43:51Z</time>
 <desc>Lat.=50.8549199, Long.=6.1486549, Alt.=162m, Speed=3Km/h, Course=265deg.</desc>
<extensions>
</extensions>
</trkpt>
<trkpt lat="50.8549133" lon="6.1486233">
 <ele>161.000000</ele>
 <time>2009-07-31T06:43:53Z</time>
 <desc>Lat.=50.8549133, Long.=6.1486233, Alt.=161m, Speed=4Km/h, Course=252deg.</desc>
<extensions>
</extensions>
</trkpt>
<trkpt lat="50.8549099" lon="6.1486099">
 <ele>161.000000</ele>
 <time>2009-07-31T06:43:54Z</time>
 <desc>Lat.=50.8549099, Long.=6.1486099, Alt.=161m, Speed=3Km/h, Course=248deg.</desc>
<extensions>
</extensions>
</trkpt>
<trkpt lat="50.8549099" lon="6.1485933">
 <ele>162.000000</ele>
 <time>2009-07-31T06:43:55Z</time>
 <desc>Lat.=50.8549099, Long.=6.1485933, Alt.=162m, Speed=4Km/h, Course=270deg.</desc>
<extensions>
</extensions>
</trkpt>
<trkpt lat="50.8549083" lon="6.1485733">
 <ele>162.000000</ele>
 <time>2009-07-31T06:43:56Z</time>
 <desc>Lat.=50.8549083, Long.=6.1485733, Alt.=162m, Speed=5Km/h, Course=263deg.</desc>
<extensions>
</extensions>
</trkpt>
<trkpt lat="50.8549033" lon="6.1485533">
 <ele>162.000000</ele>
 <time>2009-07-31T06:43:57Z</time>
 <desc>Lat.=50.8549033, Long.=6.1485533, Alt.=162m, Speed=5Km/h, Course=248deg.</desc>
<extensions>
</extensions>
</trkpt>
<trkpt lat="50.8548983" lon="6.1485383">
 <ele>162.000000</ele>
 <time>2009-07-31T06:43:58Z</time>
 <desc>Lat.=50.8548983, Long.=6.1485383, Alt.=162m, Speed=4Km/h, Course=242deg.</desc>
<extensions>
</extensions>
</trkpt>
<trkpt lat="50.8548933" lon="6.1484933">
 <ele>161.000000</ele>
 <time>2009-07-31T06:44:01Z</time>
 <desc>Lat.=50.8548933, Long.=6.1484933, Alt.=161m, Speed=3Km/h, Course=260deg.</desc>
<extensions>
</extensions>
</trkpt>
<trkpt lat="50.8549016" lon="6.1484766">
 <ele>162.000000</ele>
 <time>2009-07-31T06:44:02Z</time>
 <desc>Lat.=50.8549016, Long.=6.1484766, Alt.=162m, Speed=5Km/h, Course=308deg.</desc>
<extensions>
</extensions>
</trkpt>
<trkpt lat="50.8549233" lon="6.1484266">
 <ele>162.000000</ele>
 <time>2009-07-31T06:44:05Z</time>
 <desc>Lat.=50.8549233, Long.=6.1484266, Alt.=162m, Speed=5Km/h, Course=305deg.</desc>
<extensions>
</extensions>
</trkpt>
<trkpt lat="50.8549300" lon="6.1483816">
 <ele>162.000000</ele>
 <time>2009-07-31T06:44:07Z</time>
 <desc>Lat.=50.8549300, Long.=6.1483816, Alt.=162m, Speed=5Km/h, Course=283deg.</desc>
<extensions>
</extensions>
</trkpt>
<trkpt lat="50.8549466" lon="6.1482900">
 <ele>163.000000</ele>
 <time>2009-07-31T06:44:11Z</time>
 <desc>Lat.=50.8549466, Long.=6.1482900, Alt.=163m, Speed=6Km/h, Course=286deg.</desc>
<extensions>
</extensions>
</trkpt>
<trkpt lat="50.8549533" lon="6.1482716">
 <ele>164.000000</ele>
 <time>2009-07-31T06:44:12Z</time>
 <desc>Lat.=50.8549533, Long.=6.1482716, Alt.=164m, Speed=5Km/h, Course=300deg.</desc>
<extensions>
</extensions>
</trkpt>
<trkpt lat="50.8549600" lon="6.1482566">
 <ele>164.000000</ele>
 <time>2009-07-31T06:44:13Z</time>
 <desc>Lat.=50.8549600, Long.=6.1482566, Alt.=164m, Speed=4Km/h, Course=305deg.</desc>
<extensions>
</extensions>
</trkpt>
<trkpt lat="50.8549783" lon="6.1482200">
 <ele>164.000000</ele>
 <time>2009-07-31T06:44:15Z</time>
 <desc>Lat.=50.8549783, Long.=6.1482200, Alt.=164m, Speed=5Km/h, Course=308deg.</desc>
<extensions>
</extensions>
</trkpt>
<trkpt lat="50.8549883" lon="6.1482066">
 <ele>165.000000</ele>
 <time>2009-07-31T06:44:16Z</time>
 <desc>Lat.=50.8549883, Long.=6.1482066, Alt.=165m, Speed=5Km/h, Course=320deg.</desc>
<extensions>
</extensions>
</trkpt>
<trkpt lat="50.8549982" lon="6.1481899">
 <ele>165.000000</ele>
 <time>2009-07-31T06:44:17Z</time>
 <desc>Lat.=50.8549982, Long.=6.1481899, Alt.=165m, Speed=5Km/h, Course=313deg.</desc>
<extensions>
</extensions>
</trkpt>
<trkpt lat="50.8550066" lon="6.1481766">
 <ele>165.000000</ele>
 <time>2009-07-31T06:44:18Z</time>
 <desc>Lat.=50.8550066, Long.=6.1481766, Alt.=165m, Speed=4Km/h, Course=315deg.</desc>
<extensions>
</extensions>
</trkpt>
<trkpt lat="50.8550083" lon="6.1481399">
 <ele>165.000000</ele>
 <time>2009-07-31T06:44:19Z</time>
 <desc>Lat.=50.8550083, Long.=6.1481399, Alt.=165m, Speed=9Km/h, Course=274deg.</desc>
<extensions>
</extensions>
</trkpt>
<trkpt lat="50.8550216" lon="6.1481299">
 <ele>165.000000</ele>
 <time>2009-07-31T06:44:20Z</time>
 <desc>Lat.=50.8550216, Long.=6.1481299, Alt.=165m, Speed=5Km/h, Course=335deg.</desc>
<extensions>
</extensions>
</trkpt>
<trkpt lat="50.8550333" lon="6.1481233">
 <ele>164.000000</ele>
 <time>2009-07-31T06:44:21Z</time>
 <desc>Lat.=50.8550333, Long.=6.1481233, Alt.=164m, Speed=4Km/h, Course=340deg.</desc>
<extensions>
</extensions>
</trkpt>
<trkpt lat="50.8550616" lon="6.1481250">
 <ele>164.000000</ele>
 <time>2009-07-31T06:44:23Z</time>
 <desc>Lat.=50.8550616, Long.=6.1481250, Alt.=164m, Speed=5Km/h, Course=2deg.</desc>
<extensions>
</extensions>
</trkpt>
<trkpt lat="50.8551049" lon="6.1481099">
 <ele>162.000000</ele>
 <time>2009-07-31T06:44:26Z</time>
 <desc>Lat.=50.8551049, Long.=6.1481099, Alt.=162m, Speed=5Km/h, Course=348deg.</desc>
<extensions>
</extensions>
</trkpt>
<trkpt lat="50.8551416" lon="6.1480999">
 <ele>160.000000</ele>
 <time>2009-07-31T06:44:28Z</time>
 <desc>Lat.=50.8551416, Long.=6.1480999, Alt.=160m, Speed=7Km/h, Course=350deg.</desc>
<extensions>
</extensions>
</trkpt>
<trkpt lat="50.8551550" lon="6.1481033">
 <ele>160.000000</ele>
 <time>2009-07-31T06:44:29Z</time>
 <desc>Lat.=50.8551550, Long.=6.1481033, Alt.=160m, Speed=5Km/h, Course=9deg.</desc>
<extensions>
</extensions>
</trkpt>
<trkpt lat="50.8551833" lon="6.1481416">
 <ele>159.000000</ele>
 <time>2009-07-31T06:44:31Z</time>
 <desc>Lat.=50.8551833, Long.=6.1481416, Alt.=159m, Speed=7Km/h, Course=41deg.</desc>
<extensions>
</extensions>
</trkpt>
<trkpt lat="50.8552016" lon="6.1481716">
 <ele>159.000000</ele>
 <time>2009-07-31T06:44:32Z</time>
 <desc>Lat.=50.8552016, Long.=6.1481716, Alt.=159m, Speed=10Km/h, Course=46deg.</desc>
<extensions>
</extensions>
</trkpt>
<trkpt lat="50.8552166" lon="6.1481899">
 <ele>159.000000</ele>
 <time>2009-07-31T06:44:33Z</time>
 <desc>Lat.=50.8552166, Long.=6.1481899, Alt.=159m, Speed=7Km/h, Course=38deg.</desc>
<extensions>
</extensions>
</trkpt>
<trkpt lat="50.8552466" lon="6.1481899">
 <ele>159.000000</ele>
 <time>2009-07-31T06:44:35Z</time>
 <desc>Lat.=50.8552466, Long.=6.1481899, Alt.=159m, Speed=6Km/h, Course=0deg.</desc>
<extensions>
</extensions>
</trkpt>
<trkpt lat="50.8552566" lon="6.1482049">
 <ele>159.000000</ele>
 <time>2009-07-31T06:44:36Z</time>
 <desc>Lat.=50.8552566, Long.=6.1482049, Alt.=159m, Speed=5Km/h, Course=43deg.</desc>
<extensions>
</extensions>
</trkpt>
<trkpt lat="50.8552716" lon="6.1481999">
 <ele>159.000000</ele>
 <time>2009-07-31T06:44:37Z</time>
 <desc>Lat.=50.8552716, Long.=6.1481999, Alt.=159m, Speed=6Km/h, Course=348deg.</desc>
<extensions>
</extensions>
</trkpt>
<trkpt lat="50.8552849" lon="6.1481966">
 <ele>159.000000</ele>
 <time>2009-07-31T06:44:38Z</time>
 <desc>Lat.=50.8552849, Long.=6.1481966, Alt.=159m, Speed=5Km/h, Course=351deg.</desc>
<extensions>
</extensions>
</trkpt>
<trkpt lat="50.8552933" lon="6.1481999">
 <ele>159.000000</ele>
 <time>2009-07-31T06:44:39Z</time>
 <desc>Lat.=50.8552933, Long.=6.1481999, Alt.=159m, Speed=3Km/h, Course=14deg.</desc>
<extensions>
</extensions>
</trkpt>
<trkpt lat="50.8553616" lon="6.1481966">
 <ele>159.000000</ele>
 <time>2009-07-31T06:44:44Z</time>
 <desc>Lat.=50.8553616, Long.=6.1481966, Alt.=159m, Speed=5Km/h, Course=358deg.</desc>
<extensions>
</extensions>
</trkpt>
<trkpt lat="50.8553783" lon="6.1481850">
 <ele>159.000000</ele>
 <time>2009-07-31T06:44:45Z</time>
 <desc>Lat.=50.8553783, Long.=6.1481850, Alt.=159m, Speed=7Km/h, Course=336deg.</desc>
<extensions>
</extensions>
</trkpt>
<trkpt lat="50.8553950" lon="6.1481783">
 <ele>159.000000</ele>
 <time>2009-07-31T06:44:46Z</time>
 <desc>Lat.=50.8553950, Long.=6.1481783, Alt.=159m, Speed=6Km/h, Course=346deg.</desc>
<extensions>
</extensions>
</trkpt>
<trkpt lat="50.8554050" lon="6.1481816">
 <ele>159.000000</ele>
 <time>2009-07-31T06:44:47Z</time>
 <desc>Lat.=50.8554050, Long.=6.1481816, Alt.=159m, Speed=4Km/h, Course=12deg.</desc>
<extensions>
</extensions>
</trkpt>
<trkpt lat="50.8554099" lon="6.1481916">
 <ele>159.000000</ele>
 <time>2009-07-31T06:44:48Z</time>
 <desc>Lat.=50.8554099, Long.=6.1481916, Alt.=159m, Speed=3Km/h, Course=52deg.</desc>
<extensions>
</extensions>
</trkpt>
<trkpt lat="50.8554166" lon="6.1481933">
 <ele>159.000000</ele>
 <time>2009-07-31T06:44:49Z</time>
 <desc>Lat.=50.8554166, Long.=6.1481933, Alt.=159m, Speed=2Km/h, Course=9deg.</desc>
<extensions>
</extensions>
</trkpt>
<trkpt lat="50.8554399" lon="6.1481933">
 <ele>159.000000</ele>
 <time>2009-07-31T06:44:51Z</time>
 <desc>Lat.=50.8554399, Long.=6.1481933, Alt.=159m, Speed=4Km/h, Course=0deg.</desc>
<extensions>
</extensions>
</trkpt>
<trkpt lat="50.8554516" lon="6.1481983">
 <ele>159.000000</ele>
 <time>2009-07-31T06:44:52Z</time>
 <desc>Lat.=50.8554516, Long.=6.1481983, Alt.=159m, Speed=4Km/h, Course=15deg.</desc>
<extensions>
</extensions>
</trkpt>
<trkpt lat="50.8554616" lon="6.1481966">
 <ele>159.000000</ele>
 <time>2009-07-31T06:44:53Z</time>
 <desc>Lat.=50.8554616, Long.=6.1481966, Alt.=159m, Speed=4Km/h, Course=354deg.</desc>
<extensions>
</extensions>
</trkpt>
<trkpt lat="50.8554716" lon="6.1481933">
 <ele>159.000000</ele>
 <time>2009-07-31T06:44:54Z</time>
 <desc>Lat.=50.8554716, Long.=6.1481933, Alt.=159m, Speed=4Km/h, Course=348deg.</desc>
<extensions>
</extensions>
</trkpt>
<trkpt lat="50.8555333" lon="6.1481816">
 <ele>159.000000</ele>
 <time>2009-07-31T06:45:01Z</time>
 <desc>Lat.=50.8555333, Long.=6.1481816, Alt.=159m, Speed=3Km/h, Course=353deg.</desc>
<extensions>
</extensions>
</trkpt>
<trkpt lat="50.8555583" lon="6.1481950">
 <ele>159.000000</ele>
 <time>2009-07-31T06:45:03Z</time>
 <desc>Lat.=50.8555583, Long.=6.1481950, Alt.=159m, Speed=5Km/h, Course=19deg.</desc>
<extensions>
</extensions>
</trkpt>
<trkpt lat="50.8555949" lon="6.1482016">
 <ele>159.000000</ele>
 <time>2009-07-31T06:45:06Z</time>
 <desc>Lat.=50.8555949, Long.=6.1482016, Alt.=159m, Speed=4Km/h, Course=6deg.</desc>
<extensions>
</extensions>
</trkpt>
<trkpt lat="50.8556216" lon="6.1481933">
 <ele>159.000000</ele>
 <time>2009-07-31T06:45:07Z</time>
 <desc>Lat.=50.8556216, Long.=6.1481933, Alt.=159m, Speed=10Km/h, Course=349deg.</desc>
<extensions>
</extensions>
</trkpt>
<trkpt lat="50.8556366" lon="6.1481899">
 <ele>159.000000</ele>
 <time>2009-07-31T06:45:08Z</time>
 <desc>Lat.=50.8556366, Long.=6.1481899, Alt.=159m, Speed=6Km/h, Course=352deg.</desc>
<extensions>
</extensions>
</trkpt>
<trkpt lat="50.8557266" lon="6.1482116">
 <ele>160.000000</ele>
 <time>2009-07-31T06:45:13Z</time>
 <desc>Lat.=50.8557266, Long.=6.1482116, Alt.=160m, Speed=7Km/h, Course=9deg.</desc>
<extensions>
</extensions>
</trkpt>
<trkpt lat="50.8557516" lon="6.1482449">
 <ele>159.000000</ele>
 <time>2009-07-31T06:45:15Z</time>
 <desc>Lat.=50.8557516, Long.=6.1482449, Alt.=159m, Speed=6Km/h, Course=40deg.</desc>
<extensions>
</extensions>
</trkpt>
<trkpt lat="50.8557533" lon="6.1482633">
 <ele>159.000000</ele>
 <time>2009-07-31T06:45:16Z</time>
 <desc>Lat.=50.8557533, Long.=6.1482633, Alt.=159m, Speed=4Km/h, Course=82deg.</desc>
<extensions>
</extensions>
</trkpt>
<trkpt lat="50.8557666" lon="6.1483000">
 <ele>159.000000</ele>
 <time>2009-07-31T06:45:18Z</time>
 <desc>Lat.=50.8557666, Long.=6.1483000, Alt.=159m, Speed=5Km/h, Course=60deg.</desc>
<extensions>
</extensions>
</trkpt>
<trkpt lat="50.8557766" lon="6.1483449">
 <ele>159.000000</ele>
 <time>2009-07-31T06:45:20Z</time>
 <desc>Lat.=50.8557766, Long.=6.1483449, Alt.=159m, Speed=6Km/h, Course=71deg.</desc>
<extensions>
</extensions>
</trkpt>
<trkpt lat="50.8557949" lon="6.1483416">
 <ele>159.000000</ele>
 <time>2009-07-31T06:45:21Z</time>
 <desc>Lat.=50.8557949, Long.=6.1483416, Alt.=159m, Speed=7Km/h, Course=354deg.</desc>
<extensions>
</extensions>
</trkpt>
<trkpt lat="50.8558100" lon="6.1483383">
 <ele>159.000000</ele>
 <time>2009-07-31T06:45:22Z</time>
 <desc>Lat.=50.8558100, Long.=6.1483383, Alt.=159m, Speed=6Km/h, Course=352deg.</desc>
<extensions>
</extensions>
</trkpt>
<trkpt lat="50.8558183" lon="6.1483399">
 <ele>159.000000</ele>
 <time>2009-07-31T06:45:23Z</time>
 <desc>Lat.=50.8558183, Long.=6.1483399, Alt.=159m, Speed=3Km/h, Course=7deg.</desc>
<extensions>
</extensions>
</trkpt>
<trkpt lat="50.8558133" lon="6.1483833">
 <ele>159.000000</ele>
 <time>2009-07-31T06:45:26Z</time>
 <desc>Lat.=50.8558133, Long.=6.1483833, Alt.=159m, Speed=3Km/h, Course=100deg.</desc>
<extensions>
</extensions>
</trkpt>
<trkpt lat="50.8558183" lon="6.1483633">
 <ele>159.000000</ele>
 <time>2009-07-31T06:46:12Z</time>
 <desc>Lat.=50.8558183, Long.=6.1483633, Alt.=159m, Speed=0Km/h, Course=292deg.</desc>
<extensions>
</extensions>
</trkpt>
<trkpt lat="50.8558283" lon="6.1483849">
 <ele>159.000000</ele>
 <time>2009-07-31T06:46:13Z</time>
 <desc>Lat.=50.8558283, Long.=6.1483849, Alt.=159m, Speed=6Km/h, Course=54deg.</desc>
<extensions>
</extensions>
</trkpt>
<trkpt lat="50.8558366" lon="6.1483899">
 <ele>159.000000</ele>
 <time>2009-07-31T06:46:14Z</time>
 <desc>Lat.=50.8558366, Long.=6.1483899, Alt.=159m, Speed=3Km/h, Course=21deg.</desc>
<extensions>
</extensions>
</trkpt>
<trkpt lat="50.8558483" lon="6.1483633">
 <ele>159.000000</ele>
 <time>2009-07-31T06:46:19Z</time>
 <desc>Lat.=50.8558483, Long.=6.1483633, Alt.=159m, Speed=1Km/h, Course=305deg.</desc>
<extensions>
</extensions>
</trkpt>
<trkpt lat="50.8558616" lon="6.1483799">
 <ele>159.000000</ele>
 <time>2009-07-31T06:46:20Z</time>
 <desc>Lat.=50.8558616, Long.=6.1483799, Alt.=159m, Speed=6Km/h, Course=38deg.</desc>
<extensions>
</extensions>
</trkpt>
<trkpt lat="50.8558866" lon="6.1483933">
 <ele>158.000000</ele>
 <time>2009-07-31T06:46:22Z</time>
 <desc>Lat.=50.8558866, Long.=6.1483933, Alt.=158m, Speed=5Km/h, Course=19deg.</desc>
<extensions>
</extensions>
</trkpt>
<trkpt lat="50.8559199" lon="6.1484133">
 <ele>158.000000</ele>
 <time>2009-07-31T06:46:24Z</time>
 <desc>Lat.=50.8559199, Long.=6.1484133, Alt.=158m, Speed=7Km/h, Course=21deg.</desc>
<extensions>
</extensions>
</trkpt>
<trkpt lat="50.8559183" lon="6.1484199">
 <ele>158.000000</ele>
 <time>2009-07-31T06:46:25Z</time>
 <desc>Lat.=50.8559183, Long.=6.1484199, Alt.=158m, Speed=1Km/h, Course=111deg.</desc>
<extensions>
</extensions>
</trkpt>
<trkpt lat="50.8559100" lon="6.1484416">
 <ele>158.000000</ele>
 <time>2009-07-31T06:46:26Z</time>
 <desc>Lat.=50.8559100, Long.=6.1484416, Alt.=158m, Speed=6Km/h, Course=121deg.</desc>
<extensions>
</extensions>
</trkpt>
<trkpt lat="50.8558899" lon="6.1485000">
 <ele>158.000000</ele>
 <time>2009-07-31T06:46:28Z</time>
 <desc>Lat.=50.8558899, Long.=6.1485000, Alt.=158m, Speed=8Km/h, Course=119deg.</desc>
<extensions>
</extensions>
</trkpt>
<trkpt lat="50.8558950" lon="6.1485250">
 <ele>158.000000</ele>
 <time>2009-07-31T06:46:29Z</time>
 <desc>Lat.=50.8558950, Long.=6.1485250, Alt.=158m, Speed=6Km/h, Course=72deg.</desc>
<extensions>
</extensions>
</trkpt>
<trkpt lat="50.8558966" lon="6.1485316">
 <ele>158.000000</ele>
 <time>2009-07-31T06:46:30Z</time>
 <desc>Lat.=50.8558966, Long.=6.1485316, Alt.=158m, Speed=1Km/h, Course=69deg.</desc>
<extensions>
</extensions>
</trkpt>
<trkpt lat="50.8558783" lon="6.1485649">
 <ele>158.000000</ele>
 <time>2009-07-31T06:46:31Z</time>
 <desc>Lat.=50.8558783, Long.=6.1485649, Alt.=158m, Speed=11Km/h, Course=131deg.</desc>
<extensions>
</extensions>
</trkpt>
<trkpt lat="50.8558850" lon="6.1485616">
 <ele>158.000000</ele>
 <time>2009-07-31T06:46:32Z</time>
 <desc>Lat.=50.8558850, Long.=6.1485616, Alt.=158m, Speed=2Km/h, Course=343deg.</desc>
<extensions>
</extensions>
</trkpt>
<trkpt lat="50.8559033" lon="6.1486099">
 <ele>158.000000</ele>
 <time>2009-07-31T06:46:35Z</time>
 <desc>Lat.=50.8559033, Long.=6.1486099, Alt.=158m, Speed=4Km/h, Course=59deg.</desc>
<extensions>
</extensions>
</trkpt>
</trkseg>
</trk>
</gpx>
